# Wetter Temperatur Luftdruck Luftfeuchtigkeit Sichtweite Windgeschwindigkeit Windrichtung Zeit
1 Rain 12 1004 93 6000 5.7 240 19:41 17.10.2019
2 Rain 12 1005 100 10000 5.1 190 19:20 17.10.2019
3 Rain 12 1005 100 10000 5.1 190 19:20 17.10.2019
4 Rain 12 1005 100 10000 5.1 190 19:20 17.10.2019
5 Rain 12 1005 100 10000 5.1 190 18:58 17.10.2019
6 Rain 13 1003 71 10000 3.6 220 18:38 17.10.2019
7 Rain 13 1004 77 10000 4.1 200 18:20 17.10.2019
8 Clouds 13 1004 77 10000 3.6 210 17:43 17.10.2019
9 Rain 14 1004 77 10000 4.6 210 17:24 17.10.2019
10 Rain 14 1004 77 10000 4.6 210 16:58 17.10.2019
11 Rain 14 1005 82 10000 4.6 210 16:40 17.10.2019
12 Rain 14 1005 82 10000 4.6 210 16:40 17.10.2019
13 Rain 14 1005 82 10000 4.1 210 16:19 17.10.2019
14 Rain 14 1005 82 10000 3.1 220 15:57 17.10.2019
15 Rain 14 1005 82 10000 3.1 220 15:38 17.10.2019
16 Rain 14 1005 72 10000 5.7 200 15:20 17.10.2019
17 -273 0 0 0 0 0 14:56 17.10.2019
18 Rain 13 1005 72 10000 6.2 180 14:38 17.10.2019
19 Rain 13 1006 77 10000 3.6 170 14:20 17.10.2019
20 Rain 13 1006 82 10000 2.6 170 13:40 17.10.2019
21 Rain 13 1006 71 10000 3.6 170 13:20 17.10.2019
22 Rain 13 1006 71 10000 3.6 170 12:58 17.10.2019
23 Clouds 13 1007 62 10000 3.6 190 12:38 17.10.2019
24 Rain 13 1007 67 10000 4.1 170 12:19 17.10.2019
25 Rain 12 1007 71 10000 3.1 180 11:55 17.10.2019
26 -273 0 0 0 0 0 11:55 17.10.2019
27 -273 0 0 0 0 0 11:55 17.10.2019
28 Rain 12 1007 71 10000 3.1 180 11:37 17.10.2019
29 Rain 12 1007 71 10000 3.1 150 11:18 17.10.2019
30 Rain 11 1007 76 10000 2.6 170 10:42 17.10.2019
31 Rain 11 1007 76 10000 2.6 170 10:42 17.10.2019
32 Rain 10 1007 76 10000 3.1 170 10:19 17.10.2019
33 Rain 9 1007 93 10000 4.1 180 09:57 17.10.2019
34 Rain 9 1007 93 10000 4.6 170 09:38 17.10.2019
35 Rain 8 1007 81 10000 1.5 0 09:19 17.10.2019
36 Rain 8 1007 81 10000 1.5 0 08:56 17.10.2019
37 Clouds 8 1006 100 10000 1.5 140 08:37 17.10.2019
38 Clouds 8 1007 81 10000 1.5 0 08:18 17.10.2019
39 Clouds 8 1007 81 10000 1.5 0 08:18 17.10.2019
40 Clouds 8 1007 87 10000 1.5 0 07:43 17.10.2019
41 Clouds 8 1007 100 10000 1 140 07:21 17.10.2019
42 Clouds 8 1007 100 10000 1 140 07:21 17.10.2019
43 Clouds 8 1007 100 10000 1 170 06:56 17.10.2019
44 Clouds 8 1007 100 10000 1 170 06:38 17.10.2019
45 Clouds 8 1007 93 10000 1 170 06:19 17.10.2019
46 Clouds 8 1007 81 10000 2.1 230 05:41 17.10.2019
47 Clouds 8 1007 87 10000 2.1 220 05:20 17.10.2019
48 Rain 8 1007 81 10000 2.1 230 04:48 17.10.2019
49 Rain 9 1007 87 10000 2.1 220 03:49 17.10.2019
50 Rain 9 1007 87 10000 2.1 220 03:49 17.10.2019
51 Clouds 10 1007 81 10000 2.6 230 02:32 17.10.2019
52 Clouds 9 1006 81 10000 3.1 230 00:43 17.10.2019
53 Clouds 9 1006 81 10000 2.1 220 00:21 17.10.2019
54 Clouds 9 1006 81 10000 2.1 220 23:59 16.10.2019
55 Clouds 9 1006 76 10000 2.6 220 23:41 16.10.2019
56 Clouds 9 1006 81 10000 2.6 220 23:19 16.10.2019
57 Clouds 9 1006 81 10000 2.6 220 23:19 16.10.2019
58 Clouds 9 1005 93 10000 0.5 330 22:55 16.10.2019
59 Clouds 9 1005 93 10000 0.5 330 22:36 16.10.2019
60 Clouds 9 1005 93 10000 0.5 330 22:36 16.10.2019
61 Clouds 9 1005 66 10000 3.1 250 22:18 16.10.2019
62 Clouds 10 1005 87 10000 2.1 230 21:55 16.10.2019
63 Clouds 10 1005 87 10000 2.1 230 21:37 16.10.2019
64 Clouds 10 1005 87 10000 2.1 220 21:18 16.10.2019
65 Clouds 10 1005 87 10000 2.1 220 20:56 16.10.2019
66 Clouds 10 1004 87 10000 2.1 220 20:38 16.10.2019
67 Clouds 11 1004 87 10000 2.1 220 20:19 16.10.2019
68 Clouds 11 1004 81 10000 1.5 0 19:42 16.10.2019
69 Rain 12 1004 76 10000 2.1 250 19:21 16.10.2019
70 Rain 12 1004 76 10000 2.1 250 19:21 16.10.2019
71 Rain 12 1004 76 10000 2.1 250 18:59 16.10.2019
72 Clouds 13 1003 58 10000 4.1 260 18:39 16.10.2019
73 Clouds 13 1003 58 10000 5.1 260 18:19 16.10.2019
74 Clouds 14 1003 58 10000 5.7 260 17:56 16.10.2019
75 Clouds 14 1003 58 10000 5.7 260 17:38 16.10.2019
76 Clouds 14 1003 58 10000 5.7 260 17:38 16.10.2019
77 Rain 14 1003 82 10000 3.1 240 17:19 16.10.2019
78 Rain 14 1003 82 10000 3.1 240 17:19 16.10.2019
79 Clouds 14 1003 59 10000 5.7 260 16:58 16.10.2019
80 Clouds 14 1003 59 10000 4.6 250 16:39 16.10.2019
81 Clouds 14 1003 59 10000 5.7 240 16:20 16.10.2019
82 Clouds 14 1003 67 10000 5.1 250 15:55 16.10.2019
83 Clouds 14 1003 67 10000 5.1 250 15:36 16.10.2019
84 Clouds 14 1002 72 10000 6.2 250 15:18 16.10.2019
85 Clouds 14 1002 72 10000 6.2 250 15:18 16.10.2019
86 Clouds 15 1002 72 10000 6.2 250 14:55 16.10.2019
87 Rain 14 1002 72 10000 6.2 250 14:37 16.10.2019
88 Rain 14 1002 72 10000 6.2 250 14:37 16.10.2019
89 Rain 14 1002 77 10000 5.7 260 14:18 16.10.2019
90 Rain 14 1002 77 10000 5.1 240 13:55 16.10.2019
91 Clouds 14 1002 77 10000 5.1 240 13:36 16.10.2019
92 Clouds 14 1002 82 10000 4.6 250 13:18 16.10.2019
93 Rain 14 1002 87 10000 6.7 260 12:40 16.10.2019
94 Rain 14 1001 82 10000 8.2 260 12:18 16.10.2019
95 Rain 14 1001 93 10000 5.1 210 11:43 16.10.2019
96 Clouds 14 1000 88 10000 4.6 220 11:18 16.10.2019
97 Clouds 14 1000 93 10000 4.1 200 10:39 16.10.2019
98 Rain 14 1000 93 10000 2.6 130 10:20 16.10.2019
99 Rain 14 1000 87 10000 3.1 130 09:56 16.10.2019
100 Rain 14 1000 87 10000 3.1 130 09:38 16.10.2019
101 Rain 14 1000 87 10000 3.6 150 09:19 16.10.2019
102 Clouds 14 1000 93 10000 4.6 150 08:43 16.10.2019
103 Clouds 14 1001 93 10000 4.6 150 08:24 16.10.2019
104 Rain 13 1001 93 10000 3.6 140 07:55 16.10.2019
105 Rain 13 1001 93 10000 3.6 140 07:37 16.10.2019
106 Rain 13 1001 87 9000 4.1 140 07:18 16.10.2019
107 Rain 13 1002 87 10000 4.1 130 06:40 16.10.2019
108 Rain 13 1003 87 10000 3.6 130 05:56 16.10.2019
109 Rain 11 1005 82 10000 2.6 150 03:33 16.10.2019
110 Rain 10 1005 81 10000 1.5 0 02:50 16.10.2019
111 Clouds 10 1005 93 10000 2.1 180 01:20 16.10.2019
112 Clouds 10 1006 87 10000 2.6 220 00:54 16.10.2019
113 Clouds 10 1006 87 10000 2.6 220 00:35 16.10.2019
114 Clear 10 1006 93 10000 4.1 210 23:42 15.10.2019
115 Clear 11 1006 100 10000 4.6 210 23:22 15.10.2019
116 Clear 11 1006 82 10000 2.6 230 22:58 15.10.2019
117 Clear 11 1006 87 10000 2.6 230 22:40 15.10.2019
118 Clear 11 1005 87 10000 3.1 220 22:21 15.10.2019
119 Clear 11 1005 87 10000 3.1 220 21:57 15.10.2019
120 Clear 11 1006 93 10000 5.1 200 21:38 15.10.2019
121 Rain 11 1006 93 10000 4.6 190 21:20 15.10.2019
122 Rain 11 1006 93 10000 4.6 190 21:20 15.10.2019
123 Rain 12 1005 82 10000 3.6 210 20:58 15.10.2019
124 Rain 12 1006 93 10000 4.1 200 20:40 15.10.2019
125 Clouds 12 1005 93 10000 3.1 180 20:22 15.10.2019
126 Clouds 13 1005 93 10000 3.1 180 19:59 15.10.2019
127 Clouds 13 1005 87 10000 4.1 210 19:41 15.10.2019
128 Clouds 13 1005 87 10000 3.6 200 19:20 15.10.2019
129 Clouds 14 1004 72 10000 4.1 0 18:57 15.10.2019
130 Clouds 15 1004 72 10000 4.1 0 18:39 15.10.2019
131 Clouds 15 1004 72 10000 4.1 220 18:20 15.10.2019
132 Clouds 15 1004 67 10000 2.6 200 17:42 15.10.2019
133 Clouds 15 1004 67 10000 2.6 200 17:41 15.10.2019
134 Clouds 15 1004 67 10000 2.6 200 17:41 15.10.2019
135 Rain 16 1004 63 10000 3.6 210 17:21 15.10.2019
136 Rain 16 1004 63 10000 3.6 210 16:59 15.10.2019
137 Clouds 16 1004 63 10000 3.1 220 16:40 15.10.2019
138 -273 0 0 0 0 0 16:21 15.10.2019
139 Clouds 16 1004 67 10000 3.6 250 15:55 15.10.2019
140 Clouds 16 1004 67 10000 3.6 250 15:37 15.10.2019
141 Clouds 16 1004 67 10000 3.6 270 15:19 15.10.2019
142 Clouds 15 1004 72 10000 3.1 280 14:38 15.10.2019
143 Clouds 15 1004 77 10000 3.6 270 14:20 15.10.2019
144 Clouds 15 1004 77 10000 3.6 270 13:59 15.10.2019
145 Clouds 14 1005 77 10000 2.6 240 13:40 15.10.2019
146 Clouds 14 1004 82 10000 2.6 230 13:20 15.10.2019
147 Clouds 13 1004 82 10000 2.1 210 12:44 15.10.2019
148 Clouds 13 1004 87 10000 1.5 0 12:22 15.10.2019
149 Clouds 13 1004 87 10000 1.5 0 11:59 15.10.2019
150 Clouds 12 1004 87 10000 2.1 0 11:40 15.10.2019
151 Rain 12 1004 93 10000 2.6 210 11:19 15.10.2019
152 Rain 11 1004 93 10000 1.5 0 10:46 15.10.2019
153 Rain 11 1004 87 10000 1.5 270 10:24 15.10.2019
154 Rain 11 1003 87 7000 3.6 250 09:59 15.10.2019
155 Rain 11 1003 87 7000 3.6 250 09:40 15.10.2019
156 Drizzle 11 1003 87 10000 2.6 250 09:21 15.10.2019
157 Drizzle 11 1003 87 10000 2.6 250 08:57 15.10.2019
158 Mist 11 1003 87 10000 3.6 260 08:39 15.10.2019
159 Drizzle 11 1003 87 10000 4.1 250 08:19 15.10.2019
160 Rain 11 1003 87 10000 4.1 250 07:43 15.10.2019
161 Rain 11 1003 87 10000 4.1 250 07:43 15.10.2019
162 Mist 11 1003 87 10000 4.1 240 07:22 15.10.2019
163 Mist 11 1003 87 10000 2.6 250 06:56 15.10.2019
164 Mist 11 1003 87 10000 2.6 250 06:37 15.10.2019
165 Mist 11 1002 87 10000 4.6 250 05:56 15.10.2019
166 Mist 11 1002 87 10000 4.6 250 05:36 15.10.2019
167 Mist 11 1002 87 10000 4.6 240 04:48 15.10.2019
168 Clouds 11 1002 87 10000 7.2 250 04:18 15.10.2019
169 Clouds 11 1002 87 10000 6.2 250 03:35 15.10.2019
170 Drizzle 12 1001 82 10000 5.7 230 01:52 15.10.2019
171 Drizzle 12 1001 82 10000 5.7 230 01:52 15.10.2019
172 Drizzle 12 1001 82 10000 5.7 230 01:31 15.10.2019
173 Rain 13 1000 87 10000 4.6 210 00:59 15.10.2019
174 Clouds 13 999 87 10000 5.1 210 00:25 15.10.2019
175 Drizzle 14 999 87 10000 5.1 210 23:59 14.10.2019
176 Rain 14 1000 100 10000 7.2 200 23:37 14.10.2019
177 Rain 15 1000 100 10000 7.2 180 23:18 14.10.2019
178 Rain 15 999 100 8000 3.6 160 22:39 14.10.2019
179 Rain 15 1000 93 9000 3.1 130 22:21 14.10.2019
180 Mist 15 1000 93 7000 2.6 110 21:58 14.10.2019
181 Mist 15 1000 93 7000 2.6 110 21:40 14.10.2019
182 Rain 15 1000 93 6000 2.6 110 21:21 14.10.2019
183 Rain 15 1000 93 6000 2.6 110 20:58 14.10.2019
184 Rain 15 999 93 5000 4.6 80 20:38 14.10.2019
185 Rain 15 1001 93 4400 4.6 100 20:19 14.10.2019
186 Rain 15 1001 87 4000 5.1 110 19:55 14.10.2019
187 Rain 14 1001 87 4000 5.1 110 19:37 14.10.2019
188 Rain 14 1001 93 6000 4.6 90 19:19 14.10.2019
189 Rain 14 1002 87 6000 3.1 110 18:57 14.10.2019
190 Rain 14 1002 87 6000 3.1 110 18:37 14.10.2019
191 Rain 14 1001 87 8000 5.7 100 18:18 14.10.2019
192 Rain 14 1002 87 10000 6.2 100 17:41 14.10.2019
193 Drizzle 14 1002 87 10000 5.7 110 17:23 14.10.2019
194 Drizzle 13 1003 82 10000 8.2 100 16:56 14.10.2019
195 Drizzle 13 1003 87 10000 8.2 100 16:38 14.10.2019
196 Drizzle 13 1003 87 10000 8.2 100 16:19 14.10.2019
197 Drizzle 12 1004 82 10000 8.7 100 15:41 14.10.2019
198 Rain 12 1005 87 10000 9.3 100 15:22 14.10.2019
199 Rain 12 1005 87 10000 6.7 80 14:44 14.10.2019
200 Drizzle 12 1005 93 10000 6.7 80 14:26 14.10.2019
201 Drizzle 12 1005 93 10000 6.7 80 13:59 14.10.2019
202 Rain 12 1006 93 10000 6.2 70 13:40 14.10.2019
203 Rain 12 1007 93 10000 5.7 80 13:21 14.10.2019
204 Rain 12 1007 93 10000 5.7 80 13:21 14.10.2019
205 Rain 12 1008 87 10000 4.6 70 12:42 14.10.2019
206 Rain 12 1008 87 10000 5.7 80 12:21 14.10.2019
207 Rain 12 1008 87 10000 4.6 70 11:57 14.10.2019
208 Rain 12 1008 93 10000 4.1 80 11:39 14.10.2019
209 Rain 12 1009 93 10000 3.1 70 11:20 14.10.2019
210 Rain 11 1010 87 10000 3.1 80 10:44 14.10.2019
211 Rain 11 1010 93 10000 3.6 80 10:23 14.10.2019
212 Rain 11 1010 93 10000 3.6 100 09:59 14.10.2019
213 -273 0 0 0 0 0 09:40 14.10.2019
214 Rain 11 1010 93 10000 3.6 100 09:40 14.10.2019
215 Rain 11 1010 93 10000 3.1 100 09:20 14.10.2019
216 Rain 11 1010 93 10000 2.1 70 08:48 14.10.2019
217 Rain 11 1010 93 10000 2.6 100 08:23 14.10.2019
218 Rain 10 1010 93 10000 2.6 70 07:45 14.10.2019
219 Rain 10 1010 93 10000 2.6 100 07:23 14.10.2019
220 Rain 10 1011 93 10000 2.6 100 06:56 14.10.2019
221 Rain 10 1011 93 10000 1.5 80 06:28 14.10.2019
222 Rain 10 1011 87 10000 1.5 80 05:55 14.10.2019
223 Clouds 10 1010 87 10000 2.1 100 04:59 14.10.2019
224 Clouds 10 1011 93 10000 2.1 180 03:50 14.10.2019
225 Clouds 10 1011 81 10000 2.1 230 03:23 14.10.2019
226 Clouds 10 1011 93 10000 2.6 180 02:25 14.10.2019
227 Clouds 10 1011 81 10000 2.1 220 01:19 14.10.2019
228 Clouds 10 1011 81 10000 2.1 230 00:42 14.10.2019
229 Clouds 10 1011 87 10000 2.6 220 00:18 14.10.2019
230 Clouds 10 1010 87 10000 2.1 190 23:40 13.10.2019
231 Clouds 10 1010 81 10000 2.1 220 23:19 13.10.2019
232 Clouds 10 1010 81 10000 2.1 220 22:57 13.10.2019
233 Clouds 10 1009 76 10000 3.1 230 22:38 13.10.2019
234 Clear 11 1009 87 10000 3.6 220 22:19 13.10.2019
235 Clear 11 1009 81 10000 3.1 230 21:57 13.10.2019
236 Clear 11 1009 81 10000 3.1 230 21:36 13.10.2019
237 Clouds 12 1008 67 10000 6.2 250 21:18 13.10.2019
238 Clouds 12 1008 81 10000 4.6 230 20:56 13.10.2019
239 Clouds 12 1008 81 10000 4.6 230 20:37 13.10.2019
240 Clouds 12 1008 81 10000 4.6 230 20:37 13.10.2019
241 Clouds 12 1008 81 10000 4.6 240 20:18 13.10.2019
242 Clouds 13 1006 67 10000 8.7 260 19:55 13.10.2019
243 Clouds 13 1006 67 10000 8.7 260 19:36 13.10.2019
244 Clouds 13 1006 67 10000 8.7 260 19:36 13.10.2019
245 Clouds 14 1006 87 10000 5.1 230 19:18 13.10.2019
246 Clouds 14 1005 72 10000 6.2 250 18:41 13.10.2019
247 Clouds 15 1005 82 10000 6.7 230 18:21 13.10.2019
248 Rain 15 1005 82 10000 6.7 230 17:59 13.10.2019
249 Rain 15 1004 87 10000 7.7 210 17:41 13.10.2019
250 Clouds 15 1004 87 10000 7.7 220 17:23 13.10.2019
251 Clouds 15 1003 77 10000 6.7 240 16:45 13.10.2019
252 Clouds 15 1003 77 10000 6.7 240 16:45 13.10.2019
253 Clouds 15 1002 77 10000 6.7 240 16:20 13.10.2019
254 Rain 15 1002 77 10000 7.2 240 15:59 13.10.2019
255 Rain 15 1002 77 10000 7.2 240 15:59 13.10.2019
256 Rain 15 1002 77 10000 7.2 240 15:39 13.10.2019
257 Rain 15 1001 77 10000 6.2 220 15:21 13.10.2019
258 Rain 15 1001 82 10000 9.3 230 14:59 13.10.2019
259 Rain 15 1001 82 10000 9.3 230 14:40 13.10.2019
260 Rain 15 1001 93 8000 9.8 210 14:22 13.10.2019
261 Rain 16 1001 93 8000 9.8 210 13:59 13.10.2019
262 Rain 16 1000 77 10000 6.2 210 13:38 13.10.2019
263 Rain 16 1001 87 10000 12.3 200 13:20 13.10.2019
264 Rain 16 1000 77 10000 6.7 200 12:56 13.10.2019
265 Rain 16 1000 77 10000 6.7 200 12:38 13.10.2019
266 Rain 16 1000 77 10000 5.1 190 12:19 13.10.2019
267 Rain 16 1000 82 10000 5.1 180 11:56 13.10.2019
268 Rain 16 1000 82 10000 5.1 180 11:38 13.10.2019
269 Rain 15 1001 82 10000 4.6 170 11:19 13.10.2019
270 Clouds 15 1001 82 10000 4.1 180 10:42 13.10.2019
271 Mist 15 1001 87 10000 3.6 180 10:23 13.10.2019
272 Mist 15 1001 87 10000 3.6 180 09:57 13.10.2019
273 Mist 14 1001 87 10000 3.1 170 09:38 13.10.2019
274 Mist 14 1001 93 10000 3.6 160 09:19 13.10.2019
275 Mist 13 1001 93 5000 3.1 110 08:43 13.10.2019
276 Rain 13 1002 100 5000 2.6 110 08:22 13.10.2019
277 Rain 12 1002 93 4800 2.6 100 07:46 13.10.2019
278 Rain 12 1003 93 8000 3.6 100 07:23 13.10.2019
279 Rain 12 1003 93 7000 3.6 70 06:46 13.10.2019
280 Rain 11 1004 100 7000 2.6 70 05:50 13.10.2019
281 Rain 11 1005 100 5000 3.6 70 04:52 13.10.2019
282 Rain 11 1005 100 5000 3.6 70 04:33 13.10.2019
283 Rain 11 1006 93 3500 3.6 80 02:47 13.10.2019
284 Rain 11 1007 93 3900 4.1 90 02:23 13.10.2019
285 Rain 11 1007 93 3600 2.6 100 01:34 13.10.2019
286 Rain 11 1007 93 3600 2.6 100 01:34 13.10.2019
287 Rain 11 1008 93 9000 2.6 100 00:52 13.10.2019
288 Rain 11 1008 93 6000 1.5 110 00:22 13.10.2019
289 Rain 11 1008 93 6000 1.5 110 23:59 12.10.2019
290 Rain 11 1008 93 10000 2.6 110 23:40 12.10.2019
291 Rain 11 1008 93 10000 2.6 110 23:40 12.10.2019
292 Rain 11 1008 93 10000 1.5 120 23:21 12.10.2019
293 Rain 11 1008 93 10000 1.5 0 22:58 12.10.2019
294 Rain 11 1008 93 10000 1.5 0 22:40 12.10.2019
295 Rain 11 1009 93 10000 1.5 0 22:21 12.10.2019
296 Rain 11 1009 93 10000 1 0 21:56 12.10.2019
297 Rain 11 1009 93 10000 1 0 21:38 12.10.2019
298 Rain 11 1008 93 10000 1 0 21:20 12.10.2019
299 Rain 11 1008 93 10000 1.5 0 20:45 12.10.2019
300 Rain 11 1008 100 10000 2.6 150 20:27 12.10.2019
301 Rain 12 1008 87 10000 1.5 0 19:42 12.10.2019
302 Rain 12 1008 87 10000 2.1 150 19:23 12.10.2019
303 Rain 12 1008 93 10000 1.5 0 18:59 12.10.2019
304 Rain 12 1008 93 10000 1.5 0 18:41 12.10.2019
305 Rain 12 1008 87 10000 1.5 0 18:23 12.10.2019
306 Rain 12 1009 87 10000 1.5 160 17:45 12.10.2019
307 Rain 12 1009 87 10000 2.1 190 17:21 12.10.2019
308 Rain 12 1009 87 10000 2.1 170 16:57 12.10.2019
309 Rain 12 1009 87 10000 2.1 170 16:57 12.10.2019
310 Rain 12 1009 87 10000 2.1 170 16:38 12.10.2019
311 Rain 12 1009 87 10000 2.6 160 16:19 12.10.2019
312 Rain 13 1009 87 10000 2.1 160 15:45 12.10.2019
313 Rain 12 1009 87 10000 1.5 0 15:26 12.10.2019
314 Rain 12 1009 87 10000 1.5 0 14:59 12.10.2019
315 Rain 12 1009 87 10000 1.5 220 14:38 12.10.2019
316 Rain 12 1009 82 10000 2.1 240 14:20 12.10.2019
317 Rain 12 1009 82 10000 2.1 250 13:49 12.10.2019
318 Rain 12 1009 82 10000 2.1 250 13:31 12.10.2019
319 Rain 12 1009 93 10000 3.1 250 12:55 12.10.2019
320 Rain 12 1009 93 10000 3.1 250 12:37 12.10.2019
321 Rain 12 1009 87 10000 2.6 260 12:18 12.10.2019
322 Rain 11 1009 87 10000 3.1 250 11:41 12.10.2019
323 Rain 11 1008 87 10000 3.6 250 11:22 12.10.2019
324 Rain 11 1008 87 10000 3.6 240 10:57 12.10.2019
325 Rain 11 1008 87 10000 3.6 240 10:38 12.10.2019
326 Rain 11 1008 93 10000 2.6 220 10:19 12.10.2019
327 Rain 11 1008 93 10000 2.6 220 09:56 12.10.2019
328 Rain 11 1008 93 10000 2.6 230 09:37 12.10.2019
329 Rain 10 1008 93 10000 2.1 220 09:19 12.10.2019
330 Rain 11 1007 93 10000 2.1 240 08:43 12.10.2019
331 Rain 10 1007 87 10000 3.6 230 08:23 12.10.2019
332 Rain 10 1007 87 10000 3.1 240 07:49 12.10.2019
333 Clouds 11 1007 87 10000 2.6 240 07:30 12.10.2019
334 Clouds 11 1007 93 10000 2.1 260 06:27 12.10.2019
335 Rain 11 1007 87 10000 2.6 220 05:42 12.10.2019
336 Rain 11 1007 93 7000 3.1 240 04:34 12.10.2019
337 Rain 11 1007 87 8000 3.1 230 03:53 12.10.2019
338 Rain 11 1007 93 10000 3.1 260 02:45 12.10.2019
339 Rain 12 1007 93 10000 4.1 270 01:32 12.10.2019
340 Rain 12 1007 93 10000 4.1 270 01:32 12.10.2019
341 Rain 12 1006 93 10000 3.6 230 00:55 12.10.2019
342 Rain 12 1006 93 10000 3.6 230 00:55 12.10.2019
343 Rain 12 1006 93 10000 3.6 230 00:37 12.10.2019
344 Rain 12 1005 93 10000 3.6 230 23:55 11.10.2019
345 Rain 13 1006 87 10000 3.1 240 23:36 11.10.2019
346 Rain 13 1005 87 10000 2.6 260 23:18 11.10.2019
347 Rain 13 1006 87 10000 3.6 250 22:37 11.10.2019
348 Rain 13 1005 93 9000 5.1 250 22:19 11.10.2019
349 Rain 14 1005 93 6000 5.1 250 21:43 11.10.2019
350 Rain 14 1005 87 2000 9.8 260 21:21 11.10.2019
351 Rain 15 1005 100 3000 8.2 220 20:57 11.10.2019
352 Rain 15 1005 100 3000 8.2 220 20:39 11.10.2019
353 Drizzle 15 1005 100 8000 7.7 220 20:20 11.10.2019
354 Drizzle 15 1005 100 9000 8.7 220 19:55 11.10.2019
355 Drizzle 15 1005 100 9000 8.7 220 19:37 11.10.2019
356 Drizzle 16 1005 100 9000 8.7 220 19:37 11.10.2019
357 Rain 16 1004 82 10000 8.7 240 19:18 11.10.2019
358 Rain 16 1004 82 10000 8.7 240 19:18 11.10.2019
359 Rain 16 1004 82 10000 8.7 240 19:18 11.10.2019
360 Rain 16 1004 82 10000 8.7 240 19:18 11.10.2019
361 Rain 16 1004 82 10000 8.7 240 19:18 11.10.2019
362 Rain 16 1004 82 10000 8.7 230 18:56 11.10.2019
363 Rain 16 1004 82 10000 8.7 230 18:37 11.10.2019
364 Rain 16 1004 82 10000 8.2 230 18:18 11.10.2019
365 Rain 16 1004 82 10000 7.2 230 17:57 11.10.2019
366 Rain 16 1004 82 10000 7.2 230 17:37 11.10.2019
367 Drizzle 16 1006 93 9000 9.8 210 17:18 11.10.2019
368 Drizzle 16 1006 93 9000 9.8 210 17:18 11.10.2019
369 Rain 16 1005 82 10000 9.8 230 16:41 11.10.2019
370 Rain 16 1005 82 10000 8.7 230 16:21 11.10.2019
371 Rain 16 1005 77 10000 7.7 230 15:59 11.10.2019
372 Rain 16 1005 77 10000 7.7 230 15:39 11.10.2019
373 Rain 16 1005 82 10000 8.2 230 15:19 11.10.2019
374 Rain 16 1005 82 10000 7.7 230 14:48 11.10.2019
375 Rain 16 1005 82 10000 7.7 230 14:29 11.10.2019
376 Rain 16 1006 82 10000 6.7 230 13:57 11.10.2019
377 Rain 16 1006 82 10000 6.7 230 13:39 11.10.2019
378 Rain 16 1006 82 10000 6.7 230 13:21 11.10.2019
379 Rain 16 1006 82 10000 7.7 230 12:56 11.10.2019
380 Rain 15 1007 93 4000 9.8 210 12:38 11.10.2019
381 Rain 15 1007 100 10000 9.3 210 12:19 11.10.2019
382 Rain 15 1006 87 5000 6.7 220 11:41 11.10.2019
383 Rain 15 1006 87 5000 6.7 220 11:41 11.10.2019
384 Rain 15 1006 87 5000 6.7 220 11:41 11.10.2019
385 Rain 15 1007 87 10000 6.7 230 11:22 11.10.2019
386 Rain 15 1007 87 10000 6.7 230 11:22 11.10.2019
387 Rain 15 1007 87 9000 5.7 220 10:59 11.10.2019
388 Rain 15 1007 87 9000 5.7 220 10:41 11.10.2019
389 Rain 15 1008 93 5000 9.3 210 10:23 11.10.2019
390 Rain 15 1008 93 5000 9.8 210 09:56 11.10.2019
391 Drizzle 15 1008 93 5000 9.8 210 09:37 11.10.2019
392 Drizzle 15 1008 93 3500 8.7 210 09:19 11.10.2019
393 Drizzle 15 1006 93 10000 6.2 220 08:55 11.10.2019
394 Drizzle 15 1006 93 10000 6.2 220 08:37 11.10.2019
395 Drizzle 15 1007 87 10000 6.2 220 08:19 11.10.2019
396 Rain 15 1008 100 4000 8.7 210 07:44 11.10.2019
397 Rain 15 1007 93 10000 6.2 210 07:25 11.10.2019
398 Rain 15 1008 93 10000 6.2 210 06:49 11.10.2019
399 Rain 15 1008 93 10000 5.7 210 06:24 11.10.2019
400 Rain 15 1008 93 9000 5.1 220 05:41 11.10.2019
401 Rain 15 1009 87 5000 5.7 240 04:59 11.10.2019
402 Rain 15 1009 87 10000 7.7 220 04:28 11.10.2019
403 Rain 16 1009 82 10000 8.2 230 02:41 11.10.2019
404 Rain 15 1010 87 10000 8.2 230 00:52 11.10.2019
405 Rain 15 1010 87 10000 8.2 230 00:29 11.10.2019
406 Rain 15 1010 82 10000 7.7 230 23:46 10.10.2019
407 Rain 15 1010 82 10000 6.2 230 23:23 10.10.2019
408 Rain 15 1010 82 10000 6.2 230 22:58 10.10.2019
409 Clouds 15 1011 82 10000 6.2 230 22:39 10.10.2019
410 Drizzle 15 1011 77 10000 6.2 220 22:21 10.10.2019
411 Drizzle 15 1011 77 10000 6.2 220 21:58 10.10.2019
412 Drizzle 15 1011 87 10000 8.7 210 21:40 10.10.2019
413 Drizzle 15 1010 87 8000 6.7 220 21:21 10.10.2019
414 Rain 15 1011 77 10000 6.7 220 20:57 10.10.2019
415 Rain 15 1011 77 10000 6.7 220 20:57 10.10.2019
416 Rain 14 1011 82 10000 6.2 220 20:38 10.10.2019
417 Rain 14 1011 77 10000 5.7 230 20:18 10.10.2019
418 Rain 14 1011 77 10000 5.7 230 20:18 10.10.2019
419 Rain 14 1011 77 10000 5.7 230 20:18 10.10.2019
420 Clouds 15 1011 67 10000 5.1 220 19:54 10.10.2019
421 Clouds 15 1011 77 10000 6.7 230 19:36 10.10.2019
422 Clouds 15 1011 67 10000 6.2 230 19:18 10.10.2019
423 Clouds 15 1013 76 10000 8.2 220 18:41 10.10.2019
424 Clouds 15 1013 71 10000 8.2 220 18:20 10.10.2019
425 Clouds 16 1012 55 10000 7.2 230 17:56 10.10.2019
426 Clouds 16 1012 55 10000 7.2 230 17:37 10.10.2019
427 Clouds 16 1012 55 10000 8.2 240 17:18 10.10.2019
428 Clouds 16 1012 55 10000 6.7 240 16:48 10.10.2019
429 Clouds 16 1012 55 10000 6.7 250 16:26 10.10.2019
430 Clouds 16 1012 55 10000 6.7 250 15:59 10.10.2019
431 Clouds 16 1012 55 10000 6.2 250 15:39 10.10.2019
432 Clouds 16 1013 55 10000 6.7 240 15:20 10.10.2019
433 Clouds 16 1013 59 10000 6.2 240 14:56 10.10.2019
434 Clouds 16 1013 59 10000 6.2 240 14:37 10.10.2019
435 Clouds 15 1013 55 10000 7.7 250 14:18 10.10.2019
436 Clouds 15 1013 63 10000 7.7 250 13:47 10.10.2019
437 Clouds 15 1013 63 10000 7.7 250 13:29 10.10.2019
438 Clouds 15 1013 67 10000 7.7 250 12:59 10.10.2019
439 Clouds 14 1013 67 10000 7.7 250 12:40 10.10.2019
440 Clouds 14 1012 71 10000 6.7 250 12:20 10.10.2019
441 Clouds 13 1012 71 10000 6.7 250 11:58 10.10.2019
442 Clouds 13 1012 71 10000 6.2 250 11:39 10.10.2019
443 Clouds 12 1012 76 10000 6.7 250 11:19 10.10.2019
444 Clouds 11 1012 76 10000 6.2 250 10:45 10.10.2019
445 Clouds 10 1012 81 10000 6.2 250 10:27 10.10.2019
446 Clouds 10 1012 81 10000 6.2 250 09:58 10.10.2019
447 Clouds 9 1011 81 10000 5.7 250 09:39 10.10.2019
448 Clouds 9 1011 87 10000 5.7 250 09:21 10.10.2019
449 Clouds 9 1010 87 10000 6.7 250 08:58 10.10.2019
450 Clouds 8 1010 87 10000 6.7 250 08:38 10.10.2019
451 Clouds 8 1010 87 10000 6.7 250 08:19 10.10.2019
452 Clouds 8 1010 87 10000 5.7 250 07:45 10.10.2019
453 Clouds 8 1009 87 10000 6.2 250 07:23 10.10.2019
454 Clouds 8 1009 87 10000 5.1 250 06:49 10.10.2019
455 Clouds 8 1008 93 10000 6.2 240 06:29 10.10.2019
456 Clear 8 1009 87 10000 5.7 250 05:28 10.10.2019
457 Clear 8 1008 87 10000 5.7 250 04:55 10.10.2019
458 Clear 8 1008 87 10000 5.7 250 04:33 10.10.2019
459 Clouds 9 1007 93 10000 4.1 260 02:19 10.10.2019
460 Clouds 9 1007 93 10000 4.1 260 02:19 10.10.2019
461 Clouds 9 1007 87 10000 4.1 270 01:36 10.10.2019
462 Clouds 9 1007 87 10000 4.1 270 01:18 10.10.2019
463 Clouds 9 1006 81 10000 6.7 250 00:29 10.10.2019
464 Rain 9 1006 81 10000 6.7 250 23:42 09.10.2019
465 Clear 10 1006 93 10000 4.6 240 23:24 09.10.2019
466 Clear 10 1006 93 10000 4.6 240 22:59 09.10.2019
467 Rain 10 1006 93 10000 4.6 230 22:41 09.10.2019
468 Rain 10 1006 93 10000 5.1 220 22:22 09.10.2019
469 Rain 10 1006 93 10000 5.1 220 21:56 09.10.2019
470 Rain 10 1006 93 10000 5.1 220 21:38 09.10.2019
471 Rain 10 1005 71 10000 5.1 240 21:19 09.10.2019
472 Rain 10 1006 87 10000 5.1 220 20:55 09.10.2019
473 Rain 10 1006 87 10000 5.1 220 20:36 09.10.2019
474 Clear 11 1006 81 10000 5.1 220 20:18 09.10.2019
475 Clear 11 1006 81 10000 5.1 220 20:18 09.10.2019
476 Clear 11 1006 81 10000 4.6 230 19:43 09.10.2019
477 Clouds 11 1005 71 10000 5.7 240 19:23 09.10.2019
478 Rain 12 1006 66 10000 5.1 240 18:40 09.10.2019
479 Rain 13 1005 58 10000 7.7 250 18:21 09.10.2019
480 Rain 13 1005 58 10000 7.7 250 17:59 09.10.2019
481 Rain 14 1005 58 10000 6.7 250 17:40 09.10.2019
482 Rain 14 1005 58 10000 6.7 250 17:40 09.10.2019
483 Rain 14 1005 54 10000 8.7 260 17:22 09.10.2019
484 Rain 14 1005 54 10000 8.7 260 16:58 09.10.2019
485 Rain 14 1005 51 10000 8.2 260 16:40 09.10.2019
486 Clouds 14 1005 54 10000 8.7 260 16:21 09.10.2019
487 Clouds 14 1005 54 10000 8.7 260 15:57 09.10.2019
488 Clouds 14 1004 51 10000 10.3 250 15:57 09.10.2019
489 Clouds 14 1004 51 10000 10.3 250 15:39 09.10.2019
490 Clouds 15 1004 54 10000 9.3 260 15:19 09.10.2019
491 Clouds 14 1004 58 10000 8.2 260 14:56 09.10.2019
492 Clouds 14 1004 58 10000 8.2 260 14:37 09.10.2019
493 Clouds 14 1004 58 10000 8.2 250 14:18 09.10.2019
494 Clouds 14 1004 58 10000 8.2 250 14:18 09.10.2019
495 Clouds 14 1004 62 10000 8.7 260 13:39 09.10.2019
496 Clouds 14 1004 67 10000 6.7 260 13:21 09.10.2019
497 Clouds 14 1003 71 10000 8.2 270 12:58 09.10.2019
498 Clouds 13 1004 67 10000 6.2 260 12:40 09.10.2019
499 Clouds 13 1004 67 10000 6.7 260 12:21 09.10.2019
500 Clouds 13 1004 67 10000 6.7 260 12:21 09.10.2019
501 Rain 13 1004 71 10000 6.7 250 11:55 09.10.2019
502 Rain 12 1004 71 10000 5.1 250 11:36 09.10.2019
503 Rain 12 1004 71 10000 5.1 250 11:18 09.10.2019
504 Rain 11 1004 76 10000 4.1 240 10:43 09.10.2019
505 Clear 11 1004 93 10000 3.6 220 10:21 09.10.2019
506 Rain 11 1004 93 10000 4.1 220 09:57 09.10.2019
507 Rain 11 1004 93 10000 3.6 220 09:57 09.10.2019
508 Rain 10 1004 93 10000 4.1 220 09:38 09.10.2019
509 Rain 10 1004 81 10000 4.6 250 09:18 09.10.2019
510 Rain 10 1004 81 10000 4.6 250 08:40 09.10.2019
511 Rain 10 1004 81 10000 3.6 250 08:21 09.10.2019
512 Rain 10 1004 81 10000 3.6 250 08:21 09.10.2019
513 Rain 10 1004 81 10000 4.1 250 07:56 09.10.2019
514 Rain 10 1004 81 10000 4.1 250 07:37 09.10.2019
515 Clouds 10 1005 76 10000 4.6 240 07:19 09.10.2019
516 Clouds 10 1005 76 10000 4.6 240 07:19 09.10.2019
517 Clouds 10 1005 76 10000 4.1 240 06:49 09.10.2019
518 Clouds 10 1005 76 10000 4.1 240 05:55 09.10.2019
519 Clouds 10 1005 81 10000 4.6 240 05:28 09.10.2019
520 Clouds 10 1006 76 10000 5.7 240 04:24 09.10.2019
521 Clouds 10 1006 81 10000 5.1 230 02:50 09.10.2019
522 Clouds 10 1007 81 10000 5.1 240 01:43 09.10.2019
523 Clouds 10 1006 76 10000 5.1 240 01:20 09.10.2019
524 Clouds 10 1006 76 10000 5.1 240 01:20 09.10.2019
525 Clouds 10 1006 76 10000 5.1 240 00:56 09.10.2019
526 Clouds 10 1006 76 10000 5.1 240 00:38 09.10.2019
527 Clear 10 1006 76 10000 4.6 240 00:20 09.10.2019
528 Clear 11 1007 87 10000 5.1 230 23:39 08.10.2019
529 Clear 11 1007 87 10000 5.1 240 23:19 08.10.2019
530 Clear 11 1007 87 10000 4.6 230 22:56 08.10.2019
531 Clear 11 1007 87 10000 4.6 230 22:38 08.10.2019
532 Clouds 11 1006 87 10000 5.1 220 22:19 08.10.2019
533 Clear 11 1006 76 10000 6.2 250 21:57 08.10.2019
534 Clear 11 1006 76 10000 6.2 250 21:39 08.10.2019
535 Clouds 11 1006 93 10000 6.2 240 21:19 08.10.2019
536 Clouds 11 1006 93 10000 6.2 240 21:19 08.10.2019
537 Clouds 12 1006 87 10000 6.2 240 20:56 08.10.2019
538 Clouds 12 1006 87 10000 6.2 240 20:37 08.10.2019
539 Clouds 12 1006 93 10000 6.2 220 20:19 08.10.2019
540 Clouds 12 1006 93 10000 6.2 220 19:57 08.10.2019
541 Rain 12 1006 93 10000 5.7 220 19:38 08.10.2019
542 Rain 13 1005 82 10000 5.1 240 19:20 08.10.2019
543 Rain 13 1005 82 10000 5.1 240 19:20 08.10.2019
544 Rain 13 1005 82 10000 5.1 240 18:54 08.10.2019
545 Rain 13 1005 82 10000 5.1 240 18:36 08.10.2019
546 Rain 13 1005 82 10000 5.1 240 18:18 08.10.2019
547 Rain 14 1005 76 10000 10.3 260 17:40 08.10.2019
548 Rain 15 1005 76 10000 6.2 230 17:20 08.10.2019
549 Rain 15 1005 59 10000 6.7 230 16:58 08.10.2019
550 Rain 15 1005 59 10000 6.7 230 16:39 08.10.2019
551 Rain 16 1005 63 10000 7.2 240 16:21 08.10.2019
552 Rain 16 1005 63 10000 7.2 240 15:41 08.10.2019
553 Rain 16 1005 63 10000 7.2 240 15:41 08.10.2019
554 Clouds 16 1006 67 10000 6.2 250 15:21 08.10.2019
555 Clouds 16 1006 67 10000 6.2 250 14:58 08.10.2019
556 Clouds 16 1006 67 10000 6.2 250 14:58 08.10.2019
557 Clouds 15 1006 67 10000 6.2 240 14:39 08.10.2019
558 Clouds 15 1006 63 10000 6.7 250 14:20 08.10.2019
559 Clouds 15 1006 67 10000 5.7 250 13:57 08.10.2019
560 Clouds 15 1006 67 10000 5.7 250 13:38 08.10.2019
561 Clouds 15 1007 67 10000 5.7 250 13:19 08.10.2019
562 Clouds 15 1007 72 10000 5.7 240 12:58 08.10.2019
563 Clouds 15 1007 72 10000 5.7 240 12:37 08.10.2019
564 Clouds 15 1007 72 10000 5.7 240 12:18 08.10.2019
565 Clouds 14 1007 77 10000 5.7 240 11:42 08.10.2019
566 Clouds 13 1007 77 10000 3.6 240 11:24 08.10.2019
567 Clouds 13 1008 82 10000 3.6 240 10:58 08.10.2019
568 Clouds 13 1008 82 10000 3.6 240 10:37 08.10.2019
569 Clear 12 1008 93 10000 4.1 220 10:19 08.10.2019
570 Clear 12 1008 100 10000 3.6 230 09:55 08.10.2019
571 Clear 12 1008 100 10000 3.6 230 09:37 08.10.2019
572 Mist 12 1008 93 10000 3.6 230 09:19 08.10.2019
573 Mist 11 1008 93 10000 3.6 230 08:42 08.10.2019
574 Mist 11 1008 100 10000 3.6 240 08:23 08.10.2019
575 Mist 12 1008 87 9000 3.6 240 07:44 08.10.2019
576 Clouds 12 1008 93 9000 4.1 250 07:21 08.10.2019
577 Clouds 12 1008 93 9000 3.6 250 06:51 08.10.2019
578 Clear 12 1008 93 8000 4.6 250 06:28 08.10.2019
579 Clouds 13 1008 93 8000 4.1 240 05:46 08.10.2019
580 Clouds 13 1008 93 8000 4.1 240 05:26 08.10.2019
581 Haze 13 1008 93 9000 4.6 240 04:31 08.10.2019
582 Clouds 14 1008 87 10000 3.1 250 03:29 08.10.2019
583 Rain 14 1009 93 9000 4.1 240 02:37 08.10.2019
584 Rain 14 1009 93 10000 4.1 230 01:47 08.10.2019
585 Rain 14 1009 100 10000 3.6 240 01:28 08.10.2019
586 Rain 14 1009 93 10000 3.6 250 00:48 08.10.2019
587 Rain 14 1009 93 10000 3.6 260 00:21 08.10.2019
588 Rain 15 1009 93 10000 3.1 240 23:41 07.10.2019
589 Rain 15 1009 100 10000 3.6 210 23:20 07.10.2019
590 Rain 15 1009 100 10000 3.6 210 23:20 07.10.2019
591 Rain 15 1010 100 7000 5.1 210 22:58 07.10.2019
592 Rain 15 1010 100 7000 5.1 210 22:40 07.10.2019
593 Rain 14 1010 93 10000 4.1 230 22:20 07.10.2019
594 Rain 14 1010 93 10000 4.1 230 21:57 07.10.2019
595 Rain 14 1010 93 4200 4.1 220 21:39 07.10.2019
596 Rain 14 1010 93 2700 5.1 210 21:20 07.10.2019
597 Rain 14 1011 87 10000 4.1 230 20:58 07.10.2019
598 Drizzle 14 1011 87 10000 4.1 230 20:39 07.10.2019
599 Rain 14 1010 87 10000 4.1 190 20:20 07.10.2019
600 Rain 14 1010 87 10000 4.1 190 19:58 07.10.2019
601 Rain 14 1011 87 10000 3.6 200 19:40 07.10.2019
602 Rain 14 1012 87 6000 4.1 210 19:19 07.10.2019
603 Rain 14 1012 82 10000 4.1 0 18:57 07.10.2019
604 Rain 14 1012 82 10000 4.1 0 18:38 07.10.2019
605 Rain 14 1012 82 10000 4.6 210 18:18 07.10.2019
606 Rain 14 1012 77 10000 5.7 210 17:43 07.10.2019
607 Rain 14 1013 87 10000 6.7 190 17:22 07.10.2019
608 Rain 14 1013 77 10000 5.7 200 16:58 07.10.2019
609 Rain 14 1013 77 10000 5.7 200 16:39 07.10.2019
610 Rain 14 1013 77 10000 5.7 200 16:39 07.10.2019
611 Rain 14 1014 87 10000 8.7 190 16:20 07.10.2019
612 Rain 14 1014 67 10000 5.1 210 15:45 07.10.2019
613 Rain 14 1014 63 10000 5.1 220 15:26 07.10.2019
614 Rain 14 1014 63 10000 5.1 220 15:26 07.10.2019
615 Rain 14 1015 63 10000 5.7 220 14:56 07.10.2019
616 Rain 14 1015 71 10000 6.2 210 14:38 07.10.2019
617 Rain 14 1015 63 10000 3.6 210 14:20 07.10.2019
618 Rain 14 1015 62 10000 3.6 210 13:43 07.10.2019
619 Clouds 14 1016 76 10000 3.1 0 13:21 07.10.2019
620 Rain 13 1016 82 10000 3.1 240 12:57 07.10.2019
621 Rain 13 1016 82 10000 3.1 240 12:39 07.10.2019
622 Rain 13 1017 87 10000 2.6 240 12:19 07.10.2019
623 Rain 12 1017 87 10000 2.6 240 11:57 07.10.2019
624 Rain 12 1017 87 10000 2.6 240 11:38 07.10.2019
625 Rain 12 1017 82 10000 3.6 250 11:20 07.10.2019
626 Rain 11 1017 87 10000 2.6 250 10:42 07.10.2019
627 Rain 11 1017 87 10000 2.1 0 10:21 07.10.2019
628 Rain 10 1016 87 10000 0.5 0 09:55 07.10.2019
629 Rain 10 1016 87 10000 0.5 0 09:54 07.10.2019
630 Rain 10 1016 87 10000 0.5 0 09:36 07.10.2019
631 Rain 10 1017 87 10000 1.5 0 09:18 07.10.2019
632 Rain 10 1017 87 10000 0.5 0 08:41 07.10.2019
633 Rain 10 1017 87 10000 1 0 08:20 07.10.2019
634 Clouds 10 1017 87 10000 1 0 07:44 07.10.2019
635 Clouds 10 1016 87 10000 1 0 07:25 07.10.2019
636 Mist 10 1017 93 10000 1 330 06:56 07.10.2019
637 Mist 10 1017 93 10000 1 330 06:37 07.10.2019
638 Clouds 10 1017 87 10000 2.1 280 05:54 07.10.2019
639 Clouds 10 1016 93 10000 1 0 05:25 07.10.2019
640 Clouds 10 1017 100 10000 1.5 0 04:47 07.10.2019
641 Clouds 10 1017 87 10000 1 0 03:45 07.10.2019
642 Clouds 11 1017 87 10000 1.5 0 03:27 07.10.2019
643 Clouds 11 1017 87 10000 2.1 300 02:37 07.10.2019
644 Clouds 11 1016 87 10000 1.5 0 02:18 07.10.2019
645 Clouds 12 1016 87 10000 1.5 0 02:18 07.10.2019
646 Rain 12 1016 87 10000 3.1 360 01:23 07.10.2019
647 Clouds 12 1016 82 10000 5.7 310 00:49 07.10.2019
648 Drizzle 13 1016 76 10000 5.7 300 00:24 07.10.2019
649 Drizzle 13 1016 76 10000 5.7 300 23:59 06.10.2019
650 Rain 13 1015 76 10000 6.2 300 23:40 06.10.2019
651 Rain 13 1015 76 10000 6.2 300 23:40 06.10.2019
652 Clouds 13 1016 71 10000 3.6 290 23:19 06.10.2019
653 Rain 13 1015 76 10000 4.6 300 22:56 06.10.2019
654 Rain 13 1015 76 10000 4.6 300 22:37 06.10.2019
655 Clouds 13 1014 76 10000 4.6 300 22:18 06.10.2019
656 Clouds 13 1014 71 10000 5.1 300 21:55 06.10.2019
657 Clouds 13 1014 71 10000 5.1 300 21:36 06.10.2019
658 Rain 14 1013 67 10000 7.2 300 21:18 06.10.2019
659 Rain 14 1013 71 10000 5.7 300 20:55 06.10.2019
660 Rain 14 1013 71 10000 5.7 300 20:36 06.10.2019
661 Rain 14 1013 71 10000 6.7 300 20:18 06.10.2019
662 Rain 14 1012 67 10000 5.7 310 19:55 06.10.2019
663 Rain 14 1012 59 10000 7.7 300 19:36 06.10.2019
664 Rain 15 1012 67 10000 6.7 300 19:18 06.10.2019
665 Rain 15 1011 55 10000 8.7 300 18:55 06.10.2019
666 Rain 15 1011 55 10000 8.7 300 18:36 06.10.2019
667 Clouds 16 1010 55 10000 7.2 290 18:18 06.10.2019
668 Clouds 16 1010 55 10000 9.3 290 17:42 06.10.2019
669 Clouds 16 1010 59 10000 6.2 290 17:20 06.10.2019
670 Clouds 16 1010 59 10000 6.2 290 17:20 06.10.2019
671 Clouds 16 1010 59 10000 6.2 290 17:20 06.10.2019
672 Rain 16 1010 59 10000 8.7 270 16:55 06.10.2019
673 Rain 16 1010 59 10000 8.7 270 16:37 06.10.2019
674 Rain 16 1009 59 10000 8.7 280 16:18 06.10.2019
675 Thunderstorm 16 1009 59 10000 10.3 280 15:43 06.10.2019
676 Rain 16 1009 59 10000 9.3 290 15:22 06.10.2019
677 Rain 16 1009 59 10000 7.7 280 14:56 06.10.2019
678 Rain 16 1009 59 10000 7.7 280 14:38 06.10.2019
679 Rain 16 1009 67 10000 6.7 290 14:19 06.10.2019
680 Rain 15 1009 67 10000 8.2 290 13:42 06.10.2019
681 Rain 15 1009 67 10000 8.2 290 13:42 06.10.2019
682 Clouds 15 1009 72 10000 8.2 280 13:24 06.10.2019
683 Clouds 15 1009 72 10000 8.2 280 12:59 06.10.2019
684 Clouds 15 1008 72 10000 9.3 290 12:41 06.10.2019
685 Clouds 14 1008 77 10000 7.7 290 12:21 06.10.2019
686 Clouds 14 1008 77 10000 7.7 290 11:59 06.10.2019
687 Clouds 14 1008 82 10000 6.7 290 11:41 06.10.2019
688 Rain 14 1008 82 10000 6.7 280 11:23 06.10.2019
689 Rain 13 1008 87 10000 6.7 280 10:56 06.10.2019
690 Rain 13 1008 87 10000 5.7 290 10:37 06.10.2019
691 Rain 13 1008 100 10000 6.7 280 10:19 06.10.2019
692 Rain 13 1008 100 10000 6.7 280 10:19 06.10.2019
693 Rain 13 1008 100 10000 5.7 280 09:41 06.10.2019
694 Rain 13 1008 100 10000 5.7 280 09:41 06.10.2019
695 Rain 13 1008 100 10000 6.2 280 09:19 06.10.2019
696 Rain 13 1008 100 10000 6.2 280 09:19 06.10.2019
697 Rain 13 1007 100 5000 3.1 260 08:49 06.10.2019
698 Rain 13 1007 93 3000 1 0 08:24 06.10.2019
699 Rain 13 1007 93 10000 4.1 140 07:58 06.10.2019
700 Rain 13 1007 93 10000 4.1 140 07:39 06.10.2019
701 Rain 13 1008 93 7000 3.6 130 06:53 06.10.2019
702 Rain 13 1009 100 3000 2.6 120 05:41 06.10.2019
703 Rain 13 1009 100 3000 2.6 120 05:41 06.10.2019
704 Rain 12 1011 93 1900 3.1 100 04:35 06.10.2019
705 Rain 12 1012 87 3800 2.6 100 02:56 06.10.2019
706 Rain 12 1012 87 3800 2.6 100 02:32 06.10.2019
707 Rain 12 1013 82 7000 3.6 110 01:49 06.10.2019
708 Rain 12 1013 82 7000 3.6 110 01:30 06.10.2019
709 Rain 12 1013 82 7000 3.6 110 01:30 06.10.2019
710 Rain 12 1014 82 10000 2.1 130 00:59 06.10.2019
711 Rain 12 1014 82 10000 2.1 130 00:38 06.10.2019
712 Rain 12 1014 82 10000 2.1 130 00:19 06.10.2019
713 Clouds 12 1014 82 10000 2.6 130 23:41 05.10.2019
714 Clouds 12 1015 76 10000 2.1 130 23:20 05.10.2019
715 Clouds 12 1015 76 10000 2.1 130 22:56 05.10.2019
716 Clouds 12 1015 76 10000 2.6 120 22:37 05.10.2019
717 Clouds 12 1015 76 10000 3.6 120 22:19 05.10.2019
718 Clouds 13 1015 76 10000 4.1 110 21:42 05.10.2019
719 Clouds 13 1015 76 10000 4.1 110 21:23 05.10.2019
720 Clouds 13 1015 76 10000 4.1 110 20:58 05.10.2019
721 Clouds 13 1015 71 10000 4.1 110 20:40 05.10.2019
722 Clouds 13 1015 76 10000 4.6 100 20:19 05.10.2019
723 Rain 13 1015 76 10000 4.1 100 19:56 05.10.2019
724 Rain 13 1015 76 10000 4.1 100 19:37 05.10.2019
725 Drizzle 14 1015 67 10000 4.1 100 19:18 05.10.2019
726 Clouds 14 1015 67 10000 3.6 120 18:55 05.10.2019
727 Clouds 14 1015 67 10000 3.6 120 18:36 05.10.2019
728 Clouds 14 1015 67 10000 3.1 110 18:18 05.10.2019
729 Clouds 15 1015 67 10000 3.6 120 17:42 05.10.2019
730 Rain 15 1015 67 10000 4.1 110 17:22 05.10.2019
731 Rain 15 1015 72 10000 5.1 90 16:56 05.10.2019
732 Rain 15 1015 72 10000 5.1 90 16:37 05.10.2019
733 Clouds 15 1015 67 10000 5.1 90 16:18 05.10.2019
734 Rain 15 1015 67 10000 5.7 80 15:56 05.10.2019
735 Rain 15 1015 67 10000 5.7 80 15:37 05.10.2019
736 Rain 15 1015 59 10000 3.6 110 15:19 05.10.2019
737 Clouds 15 1015 63 10000 4.6 90 14:42 05.10.2019
738 Clouds 15 1015 67 10000 4.1 110 14:23 05.10.2019
739 Clouds 15 1015 67 10000 4.6 90 13:44 05.10.2019
740 Clouds 15 1015 67 10000 3.6 110 13:26 05.10.2019
741 Clouds 15 1015 67 10000 3.6 110 12:59 05.10.2019
742 Clouds 15 1015 67 10000 3.6 110 12:59 05.10.2019
743 Clouds 14 1015 77 10000 2.6 110 12:41 05.10.2019
744 Clouds 14 1015 77 10000 3.1 90 12:19 05.10.2019
745 Mist 13 1015 82 10000 3.6 90 11:41 05.10.2019
746 Mist 13 1015 82 10000 3.6 90 11:41 05.10.2019
747 Mist 13 1015 82 10000 3.1 70 11:20 05.10.2019
748 Mist 13 1014 87 10000 2.6 60 10:57 05.10.2019
749 Mist 12 1014 87 10000 2.6 60 10:38 05.10.2019
750 Clouds 12 1014 87 10000 2.1 60 10:20 05.10.2019
751 Clouds 12 1014 87 10000 1.5 0 09:42 05.10.2019
752 Clouds 11 1013 87 10000 2.1 60 09:23 05.10.2019
753 Clouds 11 1013 87 10000 1.5 40 08:56 05.10.2019
754 Clouds 11 1013 87 10000 1.5 40 08:38 05.10.2019
755 Fog 11 1013 93 10000 1 10 08:18 05.10.2019
756 Fog 11 1012 93 10000 1 0 07:46 05.10.2019
757 Clouds 11 1012 87 10000 1 0 07:28 05.10.2019
758 Fog 11 1012 87 10000 1.5 0 06:56 05.10.2019
759 Fog 11 1012 87 10000 2.1 60 06:23 05.10.2019
760 Fog 11 1012 87 10000 2.1 50 05:39 05.10.2019
761 Fog 11 1011 87 10000 1 0 03:32 05.10.2019
762 Fog 11 1010 87 10000 1.5 0 02:38 05.10.2019
763 Fog 11 1010 93 8000 1.5 320 01:27 05.10.2019
764 Fog 11 1010 93 9000 1.5 310 00:49 05.10.2019
765 Fog 11 1010 93 7000 1 0 00:28 05.10.2019
766 Fog 11 1010 93 7000 1 0 23:58 04.10.2019
767 Fog 10 1009 93 10000 2.1 290 23:40 04.10.2019
768 Fog 11 1009 100 10000 1.5 290 23:22 04.10.2019
769 Mist 11 1008 93 10000 1.5 300 22:57 04.10.2019
770 Mist 11 1008 93 10000 1.5 300 22:57 04.10.2019
771 Mist 11 1008 93 10000 1.5 300 22:37 04.10.2019
772 Clear 11 1008 93 10000 2.1 250 22:19 04.10.2019
773 Clouds 11 1008 100 10000 2.6 250 21:40 04.10.2019
774 Clear 12 1008 100 10000 2.1 250 21:22 04.10.2019
775 Clear 12 1008 100 10000 2.1 250 20:59 04.10.2019
776 Clear 12 1007 100 10000 2.6 220 20:41 04.10.2019
777 Clear 13 1007 93 10000 1.5 0 20:23 04.10.2019
778 Rain 13 1007 100 10000 2.1 240 19:57 04.10.2019
779 Rain 13 1007 100 10000 2.1 240 19:38 04.10.2019
780 Rain 14 1006 82 10000 4.6 250 19:20 04.10.2019
781 Rain 14 1006 93 10000 3.1 260 18:56 04.10.2019
782 Rain 14 1005 72 10000 4.1 260 18:37 04.10.2019
783 Clouds 15 1005 72 10000 4.1 240 18:18 04.10.2019
784 Clouds 15 1005 72 10000 4.6 250 17:40 04.10.2019
785 Rain 15 1005 72 10000 5.1 250 17:22 04.10.2019
786 Rain 15 1005 72 10000 5.1 250 16:58 04.10.2019
787 Rain 15 1005 72 10000 5.1 260 16:40 04.10.2019
788 Rain 15 1004 72 10000 5.7 250 16:19 04.10.2019
789 Rain 15 1004 72 10000 5.7 250 15:57 04.10.2019
790 Rain 14 1004 72 10000 6.2 260 15:38 04.10.2019
791 Rain 14 1004 67 10000 6.7 250 15:19 04.10.2019
792 Drizzle 14 1004 67 10000 7.7 270 14:56 04.10.2019
793 Drizzle 14 1004 67 10000 7.7 270 14:38 04.10.2019
794 Rain 14 1004 67 10000 6.7 270 14:20 04.10.2019
795 Rain 14 1004 72 10000 5.1 250 13:44 04.10.2019
796 Rain 14 1005 77 10000 5.7 260 13:22 04.10.2019
797 Rain 14 1004 77 10000 5.1 250 12:55 04.10.2019
798 Rain 14 1004 77 10000 5.1 250 12:55 04.10.2019
799 Rain 14 1004 77 10000 5.1 250 12:36 04.10.2019
800 Rain 14 1004 72 10000 6.2 250 12:18 04.10.2019
801 Drizzle 14 1004 77 10000 6.2 250 11:42 04.10.2019
802 Drizzle 14 1004 77 10000 6.2 250 11:42 04.10.2019
803 Drizzle 14 1004 77 10000 6.2 250 11:42 04.10.2019
804 Drizzle 14 1004 77 10000 6.2 250 11:42 04.10.2019
805 Drizzle 14 1004 77 10000 6.2 250 11:42 04.10.2019
806 Rain 13 1004 82 10000 7.7 250 11:21 04.10.2019
807 Rain 13 1004 82 10000 7.7 250 11:21 04.10.2019
808 Rain 13 1004 76 10000 5.7 250 10:42 04.10.2019
809 Rain 13 1004 87 10000 6.7 250 10:21 04.10.2019
810 Rain 12 1004 87 10000 6.7 250 10:21 04.10.2019
811 Rain 12 1003 82 9000 6.2 250 09:58 04.10.2019
812 Rain 12 1003 82 9000 6.2 250 09:58 04.10.2019
813 Rain 12 1003 82 9000 6.2 250 09:40 04.10.2019
814 Rain 12 1003 82 9000 6.2 250 09:40 04.10.2019
815 Rain 11 1004 93 9000 5.7 240 09:22 04.10.2019
816 Clear 11 1003 87 10000 5.1 260 08:45 04.10.2019
817 Haze 11 1004 87 8000 4.6 250 08:26 04.10.2019
818 Clouds 11 1004 87 8000 5.1 250 07:47 04.10.2019
819 Clouds 11 1004 87 10000 5.1 260 07:24 04.10.2019
820 Clouds 11 1004 87 7000 4.6 250 06:58 04.10.2019
821 Clouds 11 1004 87 7000 4.6 250 06:39 04.10.2019
822 Clouds 12 1004 93 7000 4.6 260 06:20 04.10.2019
823 Clouds 12 1004 93 8000 5.7 260 05:20 04.10.2019
824 Clouds 12 1004 100 8000 4.6 260 04:37 04.10.2019
825 Rain 13 1003 87 10000 2.6 240 03:18 04.10.2019
826 Rain 13 1003 93 10000 4.1 190 02:43 04.10.2019
827 Rain 12 1005 87 10000 4.6 170 01:53 04.10.2019
828 Rain 12 1005 87 10000 3.6 150 01:26 04.10.2019
829 Rain 12 1007 87 5000 3.1 140 00:33 04.10.2019
830 Rain 11 1008 81 10000 4.6 130 23:40 03.10.2019
831 Rain 11 1009 81 10000 4.6 130 23:21 03.10.2019
832 Rain 11 1009 81 10000 4.6 130 22:58 03.10.2019
833 Rain 11 1009 81 10000 4.6 130 22:58 03.10.2019
834 Rain 11 1010 87 10000 4.1 150 22:39 03.10.2019
835 Rain 11 1010 76 10000 5.1 150 22:21 03.10.2019
836 Rain 11 1010 76 10000 5.1 150 21:58 03.10.2019
837 Rain 11 1011 81 10000 6.7 150 21:40 03.10.2019
838 Rain 11 1012 76 10000 6.2 160 21:20 03.10.2019
839 Rain 11 1012 66 10000 4.1 150 20:58 03.10.2019
840 Rain 11 1012 66 10000 4.1 150 20:39 03.10.2019
841 Rain 11 1013 81 10000 5.7 160 20:20 03.10.2019
842 Rain 12 1013 71 10000 5.1 160 19:57 03.10.2019
843 Rain 12 1013 71 10000 5.1 160 19:39 03.10.2019
844 Rain 12 1014 71 10000 5.1 160 19:20 03.10.2019
845 Rain 12 1014 71 10000 6.2 180 18:56 03.10.2019
846 Rain 13 1014 62 10000 5.1 210 18:38 03.10.2019
847 Rain 13 1014 62 10000 5.1 210 18:38 03.10.2019
848 Clouds 13 1014 67 10000 3.1 160 18:18 03.10.2019
849 Clouds 13 1014 67 10000 4.1 160 17:42 03.10.2019
850 Clouds 14 1015 67 10000 4.1 140 17:23 03.10.2019
851 Clouds 14 1015 67 10000 4.1 140 16:58 03.10.2019
852 Clouds 14 1016 62 10000 4.1 150 16:40 03.10.2019
853 Clouds 14 1016 62 10000 3.6 160 16:21 03.10.2019
854 Clouds 13 1016 58 10000 4.1 160 15:54 03.10.2019
855 Clouds 13 1016 58 10000 4.1 160 15:36 03.10.2019
856 Clouds 13 1017 58 10000 3.6 160 15:18 03.10.2019
857 Clouds 12 1018 58 10000 3.6 160 14:39 03.10.2019
858 Clouds 12 1018 54 10000 3.1 160 14:20 03.10.2019
859 Clouds 12 1018 58 10000 3.6 150 13:55 03.10.2019
860 Clouds 12 1018 58 10000 3.6 150 13:36 03.10.2019
861 Clouds 11 1018 58 10000 3.1 160 13:18 03.10.2019
862 Clouds 11 1019 58 10000 2.1 160 12:40 03.10.2019
863 Clouds 10 1019 71 10000 2.1 100 12:20 03.10.2019
864 Clouds 9 1019 71 10000 2.1 100 11:59 03.10.2019
865 Clouds 9 1019 76 10000 2.1 100 11:40 03.10.2019
866 Clouds 8 1020 81 10000 2.1 100 11:22 03.10.2019
867 Clouds 7 1020 81 10000 2.1 100 10:58 03.10.2019
868 Clouds 8 1020 81 10000 2.1 110 10:39 03.10.2019
869 Clouds 8 1020 81 10000 2.1 110 10:39 03.10.2019
870 Clouds 6 1020 81 10000 0.5 0 10:18 03.10.2019
871 Clouds 6 1020 81 10000 1.5 0 09:56 03.10.2019
872 Clouds 6 1020 81 10000 1.5 0 09:38 03.10.2019
873 Fog 4 1020 81 10000 1.5 0 09:19 03.10.2019
874 Fog 3 1020 87 10000 2.6 230 08:43 03.10.2019
875 Fog 3 1020 93 10000 2.6 200 08:25 03.10.2019
876 Fog 2 1021 87 10000 2.1 240 07:56 03.10.2019
877 Fog 2 1021 87 10000 2.1 240 07:37 03.10.2019
878 Fog 2 1021 100 10000 0.5 330 07:19 03.10.2019
879 Fog 2 1021 100 6000 0.5 0 06:35 03.10.2019
880 Fog 3 1021 93 8000 1.5 300 05:55 03.10.2019
881 Fog 3 1021 93 8000 1.5 300 05:37 03.10.2019
882 Fog 4 1021 81 10000 2.6 230 04:48 03.10.2019
883 Fog 4 1021 81 10000 1.5 240 04:24 03.10.2019
884 Fog 4 1022 87 10000 1 300 03:20 03.10.2019
885 Clear 4 1022 87 10000 1 300 02:33 03.10.2019
886 Clear 5 1022 81 10000 1 280 01:50 03.10.2019
887 Clouds 5 1022 81 10000 1 280 01:31 03.10.2019
888 Clouds 5 1022 75 10000 1 350 00:45 03.10.2019
889 Clouds 5 1022 93 10000 0.5 240 00:18 03.10.2019
890 Clear 6 1022 75 10000 2.1 280 23:43 02.10.2019
891 Clear 6 1022 75 10000 2.1 250 23:20 02.10.2019
892 Clear 7 1022 75 10000 2.1 260 22:43 02.10.2019
893 Clear 7 1022 75 10000 2.1 260 22:43 02.10.2019
894 Clear 7 1022 70 10000 1.5 0 22:21 02.10.2019
895 Clear 7 1022 70 10000 2.6 300 21:56 02.10.2019
896 Clear 7 1022 70 10000 2.6 300 21:38 02.10.2019
897 Clear 8 1021 66 10000 2.1 300 21:19 02.10.2019
898 Clear 8 1021 66 10000 2.1 280 20:56 02.10.2019
899 Clear 9 1021 66 10000 2.1 280 20:38 02.10.2019
900 Clear 10 1021 66 10000 3.1 300 20:20 02.10.2019
901 Clear 11 1020 61 10000 3.6 310 19:54 02.10.2019
902 Clear 11 1020 61 10000 3.6 310 19:36 02.10.2019
903 Clear 11 1020 61 10000 3.6 310 19:36 02.10.2019
904 Clear 12 1020 57 10000 4.1 310 19:18 02.10.2019
905 Clear 12 1020 57 10000 4.6 330 18:56 02.10.2019
906 Clear 12 1020 57 10000 4.6 330 18:36 02.10.2019
907 Clouds 13 1019 54 10000 4.6 330 18:18 02.10.2019
908 Clear 13 1019 47 10000 4.6 300 17:42 02.10.2019
909 Clouds 13 1019 50 10000 6.7 290 17:21 02.10.2019
910 Clouds 13 1019 47 10000 6.7 300 16:59 02.10.2019
911 Clouds 13 1019 47 10000 6.7 300 16:39 02.10.2019
912 Clouds 13 1019 54 10000 6.2 300 16:20 02.10.2019
913 Clouds 13 1019 54 10000 6.2 300 15:57 02.10.2019
914 Clouds 13 1018 50 10000 8.2 300 15:38 02.10.2019
915 Clouds 13 1018 50 10000 8.2 300 15:18 02.10.2019
916 Clouds 13 1018 54 10000 7.2 300 14:55 02.10.2019
917 Clouds 13 1018 50 10000 4.6 310 14:36 02.10.2019
918 Clouds 13 1018 50 10000 4.6 310 14:18 02.10.2019
919 Clear 13 1018 50 10000 5.1 310 13:42 02.10.2019
920 Clear 13 1018 50 10000 5.1 310 13:22 02.10.2019
921 Clear 12 1018 54 10000 4.6 310 12:56 02.10.2019
922 Clear 12 1018 62 10000 4.1 290 12:37 02.10.2019
923 Clear 11 1018 62 10000 4.1 290 12:18 02.10.2019
924 Clear 11 1017 71 10000 4.1 310 11:43 02.10.2019
925 Clear 10 1017 71 10000 4.1 310 11:22 02.10.2019
926 Clear 9 1016 76 10000 4.1 310 10:41 02.10.2019
927 Clear 8 1016 76 10000 4.1 310 10:20 02.10.2019
928 Clear 8 1016 81 10000 3.1 310 09:56 02.10.2019
929 Clear 7 1015 87 10000 3.1 310 09:36 02.10.2019
930 Clear 7 1015 87 10000 3.1 310 09:18 02.10.2019
931 Clear 6 1014 81 10000 2.6 330 08:42 02.10.2019
932 Clear 6 1015 87 10000 2.6 300 08:42 02.10.2019
933 Clear 6 1014 81 10000 2.6 330 08:22 02.10.2019
934 Clear 6 1014 87 10000 2.6 320 07:56 02.10.2019
935 Clear 6 1013 87 10000 3.6 340 07:37 02.10.2019
936 Clear 6 1013 87 10000 3.6 340 07:19 02.10.2019
937 Clear 6 1013 87 10000 3.6 340 07:19 02.10.2019
938 Clear 7 1012 81 10000 2.6 320 06:31 02.10.2019
939 Clear 7 1012 81 10000 3.1 340 05:52 02.10.2019
940 Clear 8 1012 87 10000 4.1 10 05:23 02.10.2019
941 Clear 8 1011 81 10000 3.6 340 04:43 02.10.2019
942 Clear 9 1011 76 10000 3.1 330 03:51 02.10.2019
943 Clouds 10 1009 81 10000 4.1 10 02:39 02.10.2019
944 Clouds 10 1009 76 10000 3.1 360 02:21 02.10.2019
945 Rain 11 1007 81 10000 4.6 360 01:19 02.10.2019
946 Rain 11 1007 81 10000 3.6 360 00:43 02.10.2019
947 Rain 11 1006 81 10000 5.1 10 00:23 02.10.2019
948 Rain 11 1005 87 10000 4.1 0 23:42 01.10.2019
949 Rain 11 1005 87 10000 4.1 0 23:24 01.10.2019
950 Rain 11 1004 93 4000 5.1 0 22:58 01.10.2019
951 Rain 12 1003 93 5000 3.6 0 22:39 01.10.2019
952 Rain 12 1003 93 5000 3.6 0 22:18 01.10.2019
953 Rain 12 1002 87 7000 4.6 0 21:55 01.10.2019
954 Rain 13 1000 93 4500 3.1 350 21:36 01.10.2019
955 Rain 13 1000 93 4500 3.1 350 21:18 01.10.2019
956 Rain 14 1000 93 10000 2.1 340 20:54 01.10.2019
957 Rain 14 999 93 10000 1.5 0 20:36 01.10.2019
958 Rain 14 999 93 10000 1.5 0 20:18 01.10.2019
959 Rain 15 999 87 7000 1.5 0 19:43 01.10.2019
960 Rain 15 999 87 6000 2.1 300 19:24 01.10.2019
961 Rain 15 998 87 10000 2.1 230 18:58 01.10.2019
962 Rain 16 997 82 10000 1.5 330 18:39 01.10.2019
963 Rain 16 997 82 10000 1.5 330 18:21 01.10.2019
964 Rain 16 998 82 1500 6.2 260 17:55 01.10.2019
965 Rain 17 997 63 10000 6.2 290 17:36 01.10.2019
966 Rain 17 998 82 10000 4.1 230 17:18 01.10.2019
967 Rain 17 997 68 10000 4.1 250 16:54 01.10.2019
968 Rain 18 997 93 10000 3.1 260 16:36 01.10.2019
969 Rain 18 997 93 10000 3.1 260 16:18 01.10.2019
970 Rain 18 997 77 10000 2.6 230 15:42 01.10.2019
971 Rain 18 997 77 10000 2.6 230 15:21 01.10.2019
972 Rain 18 998 88 10000 3.1 230 14:41 01.10.2019
973 Rain 17 998 87 3800 4.1 210 14:20 01.10.2019
974 -273 0 0 0 0 0 13:57 01.10.2019
975 Rain 17 998 82 7000 4.1 230 13:39 01.10.2019
976 Rain 17 998 82 7000 4.1 230 13:20 01.10.2019
977 Rain 17 998 82 7000 4.1 230 13:20 01.10.2019
978 Rain 17 998 77 10000 5.1 250 12:57 01.10.2019
979 Rain 16 999 82 10000 6.7 210 12:39 01.10.2019
980 Rain 17 999 82 10000 6.7 210 12:39 01.10.2019
981 Rain 16 998 77 10000 4.1 240 12:18 01.10.2019
982 Rain 17 998 77 10000 4.1 240 11:57 01.10.2019
983 Rain 17 998 77 10000 4.1 220 11:38 01.10.2019
984 Rain 16 998 77 10000 4.1 220 11:18 01.10.2019
985 -273 0 0 0 0 0 11:18 01.10.2019
986 Clouds 16 999 77 10000 3.6 220 10:49 01.10.2019
987 Rain 16 999 82 10000 3.1 220 10:29 01.10.2019
988 Clouds 15 998 93 10000 3.1 210 09:47 01.10.2019
989 Rain 15 999 87 10000 2.6 220 09:27 01.10.2019
990 Rain 14 999 100 10000 4.6 210 08:57 01.10.2019
991 Clouds 14 1000 100 10000 5.1 210 08:39 01.10.2019
992 Clouds 14 1000 100 10000 5.1 210 08:39 01.10.2019
993 Clouds 14 1000 100 10000 5.1 210 08:21 01.10.2019
994 Clouds 14 1000 100 10000 4.6 210 07:43 01.10.2019
995 Rain 14 999 87 10000 2.6 230 07:24 01.10.2019
996 Rain 15 999 93 10000 2.6 220 06:46 01.10.2019
997 Clouds 14 999 93 10000 2.6 220 06:18 01.10.2019
998 Clouds 14 999 93 10000 2.6 220 06:18 01.10.2019
999 Clouds 15 1000 87 10000 4.6 240 05:45 01.10.2019
1000 Clouds 15 1000 87 10000 4.1 230 05:18 01.10.2019
1001 Clouds 15 1000 93 10000 4.1 240 04:27 01.10.2019
1002 Rain 16 1001 93 10000 4.6 240 02:26 01.10.2019
1003 Rain 16 1002 93 10000 5.7 230 01:58 01.10.2019
1004 Rain 16 1002 100 10000 5.7 230 00:53 01.10.2019
1005 Rain 16 1001 100 1500 5.1 230 00:27 01.10.2019
1006 Rain 16 1002 93 4900 4.6 200 23:56 30.09.2019
1007 Rain 16 1003 88 8000 4.1 200 23:38 30.09.2019
1008 Rain 16 1003 88 8000 4.1 200 23:19 30.09.2019
1009 Rain 15 1004 87 10000 4.6 170 22:43 30.09.2019
1010 Rain 15 1004 87 10000 4.6 170 22:24 30.09.2019
1011 Rain 15 1005 87 8000 4.6 170 21:57 30.09.2019
1012 Rain 15 1005 87 4900 4.1 170 21:38 30.09.2019
1013 Rain 14 1004 100 10000 3.6 180 21:19 30.09.2019
1014 Rain 14 1004 100 10000 3.6 180 21:19 30.09.2019
1015 Rain 14 1005 100 9000 3.6 170 20:57 30.09.2019
1016 Rain 14 1007 100 3000 8.2 180 20:38 30.09.2019
1017 Rain 14 1007 100 3000 8.2 180 20:20 30.09.2019
1018 Rain 14 1007 93 4000 6.2 180 19:56 30.09.2019
1019 Rain 15 1007 82 10000 3.1 200 19:38 30.09.2019
1020 Rain 15 1007 82 10000 3.1 200 19:19 30.09.2019
1021 Rain 15 1008 82 9000 5.7 200 18:57 30.09.2019
1022 Rain 15 1008 82 9000 5.7 200 18:57 30.09.2019
1023 Rain 15 1007 87 4000 4.6 200 18:37 30.09.2019
1024 Rain 16 1008 77 10000 4.6 200 18:19 30.09.2019
1025 Rain 16 1010 82 10000 5.7 200 17:43 30.09.2019
1026 Rain 16 1010 82 10000 5.7 200 17:23 30.09.2019
1027 Clouds 17 1010 68 10000 3.6 210 16:57 30.09.2019
1028 Clouds 17 1010 68 10000 4.1 210 16:39 30.09.2019
1029 Clouds 17 1010 68 10000 4.1 210 16:19 30.09.2019
1030 Clouds 17 1011 68 10000 4.6 210 15:58 30.09.2019
1031 Clouds 17 1011 68 10000 3.6 210 15:38 30.09.2019
1032 Clouds 17 1011 68 10000 3.6 210 15:19 30.09.2019
1033 Rain 17 1011 68 10000 4.1 230 14:57 30.09.2019
1034 Rain 17 1011 63 10000 4.6 240 14:37 30.09.2019
1035 Rain 17 1011 63 10000 4.6 240 14:19 30.09.2019
1036 Clouds 17 1012 67 10000 3.6 240 13:57 30.09.2019
1037 Clouds 17 1012 67 10000 3.6 230 13:38 30.09.2019
1038 Clouds 17 1012 67 10000 3.6 230 13:20 30.09.2019
1039 Clouds 16 1012 72 10000 3.1 240 12:43 30.09.2019
1040 Clear 15 1012 77 10000 3.1 240 12:22 30.09.2019
1041 Clear 15 1012 77 10000 3.1 250 11:57 30.09.2019
1042 Clear 14 1012 82 10000 3.1 250 11:38 30.09.2019
1043 Clear 14 1012 82 10000 3.1 250 11:19 30.09.2019
1044 Clear 13 1012 82 10000 3.6 240 10:41 30.09.2019
1045 Clear 12 1012 82 10000 3.6 240 10:20 30.09.2019
1046 Clear 11 1012 82 10000 3.6 240 09:59 30.09.2019
1047 Clear 11 1011 87 10000 3.6 230 09:40 30.09.2019
1048 Clear 11 1011 87 10000 3.6 230 09:40 30.09.2019
1049 Clouds 11 1011 87 10000 3.6 230 09:21 30.09.2019
1050 Clouds 10 1011 87 10000 3.1 240 08:51 30.09.2019
1051 Clouds 10 1011 87 10000 3.6 240 08:33 30.09.2019
1052 Clouds 10 1010 87 10000 3.1 240 07:46 30.09.2019
1053 Clouds 10 1010 87 10000 3.1 240 07:28 30.09.2019
1054 Clouds 10 1010 93 10000 2.1 250 06:59 30.09.2019
1055 Clouds 10 1010 87 10000 4.6 230 06:41 30.09.2019
1056 Clouds 10 1010 87 10000 3.6 250 05:51 30.09.2019
1057 Clouds 10 1009 87 10000 3.6 250 05:33 30.09.2019
1058 Clouds 11 1009 93 10000 3.6 270 02:49 30.09.2019
1059 Clouds 12 1007 87 10000 4.6 290 01:41 30.09.2019
1060 Clouds 12 1007 87 10000 4.6 280 00:55 30.09.2019
1061 Clouds 13 1006 87 10000 5.1 290 00:37 30.09.2019
1062 Clouds 13 1006 87 10000 5.1 290 00:18 30.09.2019
1063 Drizzle 13 1005 87 10000 4.6 300 23:39 29.09.2019
1064 Drizzle 13 1005 87 10000 4.6 300 23:20 29.09.2019
1065 Rain 13 1004 93 4000 6.7 300 22:44 29.09.2019
1066 Rain 13 1004 93 4000 6.7 300 22:25 29.09.2019
1067 Rain 13 1004 93 4000 6.7 300 22:25 29.09.2019
1068 Rain 13 1004 93 4000 6.7 300 22:25 29.09.2019
1069 Rain 14 1002 82 10000 6.7 300 21:59 29.09.2019
1070 Drizzle 14 1000 87 10000 8.7 300 21:39 29.09.2019
1071 Drizzle 14 1000 87 10000 8.7 300 21:20 29.09.2019
1072 Drizzle 14 1000 87 10000 8.7 300 21:20 29.09.2019
1073 Rain 14 998 87 6000 9.8 280 20:59 29.09.2019
1074 Rain 15 997 77 10000 11.8 280 20:41 29.09.2019
1075 Rain 15 997 77 10000 11.8 280 20:41 29.09.2019
1076 Rain 15 997 77 10000 11.8 280 20:19 29.09.2019
1077 Drizzle 15 996 77 10000 9.3 280 19:55 29.09.2019
1078 Rain 16 995 77 10000 8.7 280 19:36 29.09.2019
1079 Rain 16 995 77 10000 8.7 280 19:18 29.09.2019
1080 Rain 16 995 87 10000 7.7 280 18:55 29.09.2019
1081 Rain 16 994 100 10000 7.2 260 18:36 29.09.2019
1082 Rain 16 994 100 10000 7.2 260 18:18 29.09.2019
1083 Rain 17 993 88 10000 6.7 240 17:55 29.09.2019
1084 Rain 17 993 88 5000 7.7 270 17:36 29.09.2019
1085 Rain 17 993 88 5000 7.7 270 17:18 29.09.2019
1086 Rain 17 992 77 10000 7.2 250 16:54 29.09.2019
1087 Rain 18 992 88 10000 6.7 250 16:36 29.09.2019
1088 Rain 18 992 88 10000 6.7 250 16:18 29.09.2019
1089 Rain 18 992 88 10000 6.7 250 16:18 29.09.2019
1090 Rain 18 992 88 10000 6.2 230 15:41 29.09.2019
1091 Rain 18 992 88 10000 6.2 230 15:19 29.09.2019
1092 Rain 18 993 72 10000 7.2 230 14:59 29.09.2019
1093 Rain 18 994 82 10000 6.2 240 14:38 29.09.2019
1094 Rain 18 994 82 10000 6.2 240 14:20 29.09.2019
1095 Rain 18 994 82 10000 6.2 240 13:57 29.09.2019
1096 Clouds 18 994 77 10000 5.7 240 13:38 29.09.2019
1097 Clouds 18 994 77 10000 5.7 240 13:18 29.09.2019
1098 Clouds 18 994 77 10000 5.7 240 13:18 29.09.2019
1099 Rain 17 994 77 10000 6.2 240 12:57 29.09.2019
1100 Rain 17 994 88 10000 7.7 230 12:38 29.09.2019
1101 Rain 17 994 88 10000 7.7 230 12:20 29.09.2019
1102 -273 0 0 0 0 0 11:55 29.09.2019
1103 Drizzle 17 995 93 5000 9.3 220 11:36 29.09.2019
1104 Drizzle 17 995 93 5000 9.3 220 11:18 29.09.2019
1105 Rain 16 994 93 10000 4.6 240 10:55 29.09.2019
1106 Rain 16 994 88 3100 5.1 230 10:36 29.09.2019
1107 Rain 16 994 88 3100 5.1 230 10:18 29.09.2019
1108 Rain 16 995 88 10000 4.6 230 09:42 29.09.2019
1109 Rain 16 995 88 10000 4.6 230 09:20 29.09.2019
1110 Rain 16 995 93 5000 4.1 220 08:57 29.09.2019
1111 Rain 16 995 93 10000 7.7 220 08:37 29.09.2019
1112 Rain 16 995 93 10000 7.7 220 08:18 29.09.2019
1113 Rain 15 995 100 10000 7.2 210 07:41 29.09.2019
1114 Rain 15 996 87 10000 5.7 200 07:23 29.09.2019
1115 Rain 15 998 87 10000 5.7 200 06:42 29.09.2019
1116 Rain 15 1000 100 7000 8.2 200 04:57 29.09.2019
1117 Rain 15 999 93 10000 7.2 210 04:25 29.09.2019
1118 Rain 15 1001 100 5000 7.7 200 03:55 29.09.2019
1119 Rain 15 1002 93 6000 6.2 210 02:40 29.09.2019
1120 Rain 15 1002 93 6000 6.2 210 02:18 29.09.2019
1121 Rain 15 1004 93 9000 5.1 180 01:30 29.09.2019
1122 Rain 14 1005 87 10000 4.1 180 00:47 29.09.2019
1123 Rain 14 1006 87 10000 3.6 160 00:20 29.09.2019
1124 Rain 14 1007 93 1900 3.6 180 23:42 28.09.2019
1125 Rain 14 1008 87 3600 4.1 200 23:22 28.09.2019
1126 Rain 14 1008 87 10000 3.6 210 22:56 28.09.2019
1127 Rain 14 1008 82 10000 4.1 230 22:38 28.09.2019
1128 Rain 14 1008 82 10000 4.1 230 22:19 28.09.2019
1129 Rain 14 1009 93 10000 6.2 210 21:56 28.09.2019
1130 Rain 14 1009 87 10000 5.7 220 21:37 28.09.2019
1131 Rain 14 1009 87 10000 5.7 220 21:19 28.09.2019
1132 Rain 14 1009 87 10000 5.7 220 21:19 28.09.2019
1133 Rain 15 1010 82 10000 6.2 210 20:57 28.09.2019
1134 Rain 15 1010 76 10000 6.2 220 20:37 28.09.2019
1135 Rain 15 1010 76 10000 6.2 220 20:18 28.09.2019
1136 Clouds 16 1009 67 10000 6.7 240 19:55 28.09.2019
1137 Clouds 16 1010 72 10000 7.2 220 19:36 28.09.2019
1138 Clouds 16 1010 72 10000 7.2 220 19:18 28.09.2019
1139 Clouds 17 1010 72 10000 5.7 220 18:41 28.09.2019
1140 Clouds 17 1010 72 10000 7.2 220 18:22 28.09.2019
1141 Clouds 17 1009 55 10000 7.7 250 17:59 28.09.2019
1142 Rain 18 1009 59 10000 6.2 250 17:40 28.09.2019
1143 Rain 18 1009 59 10000 6.2 250 17:21 28.09.2019
1144 Rain 18 1009 59 10000 7.2 250 16:55 28.09.2019
1145 Rain 18 1009 59 10000 6.7 250 16:37 28.09.2019
1146 Rain 18 1009 59 10000 6.7 250 16:18 28.09.2019
1147 Rain 18 1009 55 10000 8.2 250 15:40 28.09.2019
1148 Rain 18 1009 55 10000 8.2 250 15:21 28.09.2019
1149 Rain 18 1009 59 10000 8.2 250 14:55 28.09.2019
1150 Rain 18 1009 59 10000 9.8 250 14:37 28.09.2019
1151 Rain 18 1009 59 10000 9.8 250 14:37 28.09.2019
1152 Rain 18 1009 59 10000 9.8 250 14:18 28.09.2019
1153 Rain 18 1009 63 10000 9.3 250 13:43 28.09.2019
1154 Rain 18 1009 63 10000 9.3 250 13:20 28.09.2019
1155 Rain 18 1009 63 10000 9.3 250 13:20 28.09.2019
1156 Clouds 18 1009 72 10000 7.7 240 12:58 28.09.2019
1157 Clouds 17 1009 72 10000 7.7 240 12:39 28.09.2019
1158 Clouds 17 1009 72 10000 7.7 240 12:18 28.09.2019
1159 Rain 16 1008 72 10000 6.7 240 11:41 28.09.2019
1160 Rain 16 1008 72 10000 6.7 240 11:21 28.09.2019
1161 Clouds 16 1008 77 10000 6.2 240 10:59 28.09.2019
1162 Rain 15 1008 77 10000 7.2 230 10:39 28.09.2019
1163 Rain 15 1008 77 10000 7.2 230 10:19 28.09.2019
1164 Rain 14 1008 82 10000 6.7 230 09:41 28.09.2019
1165 Rain 14 1007 82 10000 7.7 230 09:22 28.09.2019
1166 Rain 13 1007 82 10000 6.7 230 08:55 28.09.2019
1167 Rain 13 1007 77 10000 5.7 240 08:37 28.09.2019
1168 Rain 13 1007 82 10000 5.7 240 08:18 28.09.2019
1169 Rain 12 1007 82 10000 4.6 230 07:43 28.09.2019
1170 Rain 12 1007 82 10000 4.6 230 07:19 28.09.2019
1171 Rain 12 1007 82 10000 4.6 230 06:51 28.09.2019
1172 Rain 12 1007 87 10000 4.6 240 06:30 28.09.2019
1173 Clear 12 1007 87 10000 4.6 230 05:43 28.09.2019
1174 Clear 11 1007 87 10000 4.6 230 05:20 28.09.2019
1175 Clear 11 1007 87 10000 4.6 240 04:38 28.09.2019
1176 Clear 12 1007 87 10000 4.6 240 03:48 28.09.2019
1177 Clear 12 1007 93 10000 4.1 250 03:21 28.09.2019
1178 Clear 12 1007 87 10000 5.1 230 02:44 28.09.2019
1179 Clear 12 1007 93 10000 4.6 240 02:26 28.09.2019
1180 Clear 12 1007 87 10000 4.6 240 01:47 28.09.2019
1181 Clear 12 1006 87 10000 4.1 250 01:26 28.09.2019
1182 Clear 12 1006 87 10000 4.6 240 00:51 28.09.2019
1183 Clear 12 1006 87 10000 4.6 240 00:31 28.09.2019
1184 Clear 12 1006 87 10000 4.6 240 00:31 28.09.2019
1185 Clear 13 1007 93 10000 4.1 230 23:58 27.09.2019
1186 Clouds 13 1006 93 10000 4.1 220 23:36 27.09.2019
1187 Clouds 13 1006 93 10000 4.1 220 23:18 27.09.2019
1188 Clear 13 1005 82 10000 5.7 240 22:44 27.09.2019
1189 Clouds 13 1005 93 10000 4.6 230 22:19 27.09.2019
1190 Rain 14 1005 93 10000 5.7 230 21:56 27.09.2019
1191 Clouds 14 1005 93 10000 5.1 230 21:37 27.09.2019
1192 Clouds 14 1005 93 10000 5.1 230 21:18 27.09.2019
1193 -273 0 0 0 0 0 20:55 27.09.2019
1194 Rain 14 1003 82 10000 5.7 230 20:37 27.09.2019
1195 Rain 14 1003 82 10000 5.7 230 20:18 27.09.2019
1196 Rain 15 1003 82 10000 9.8 220 19:43 27.09.2019
1197 Rain 15 1003 82 10000 9.8 220 19:23 27.09.2019
1198 Rain 16 1002 68 10000 7.7 230 18:58 27.09.2019
1199 Rain 16 1002 87 10000 6.2 250 18:39 27.09.2019
1200 Rain 16 1002 87 10000 6.2 250 18:20 27.09.2019
1201 Rain 16 1002 87 10000 6.2 250 18:20 27.09.2019
1202 Rain 16 1002 77 5000 8.2 240 17:55 27.09.2019
1203 Rain 16 1002 77 10000 6.2 220 17:36 27.09.2019
1204 Rain 17 1002 77 10000 6.2 220 17:18 27.09.2019
1205 Rain 17 1002 87 10000 5.1 210 16:54 27.09.2019
1206 Rain 17 1003 77 5000 6.7 230 16:36 27.09.2019
1207 Rain 17 1003 77 5000 6.7 230 16:18 27.09.2019
1208 Rain 17 1003 82 10000 6.2 230 15:43 27.09.2019
1209 Rain 17 1003 77 1900 7.2 210 15:20 27.09.2019
1210 Rain 17 1003 72 10000 8.2 230 14:56 27.09.2019
1211 Rain 17 1003 72 10000 6.2 220 14:38 27.09.2019
1212 Rain 17 1003 72 10000 6.2 220 14:38 27.09.2019
1213 Rain 17 1003 72 10000 6.2 220 14:18 27.09.2019
1214 Rain 17 1003 72 10000 7.2 220 13:57 27.09.2019
1215 Rain 17 1003 68 10000 7.7 220 13:38 27.09.2019
1216 Rain 17 1003 68 10000 7.7 220 13:19 27.09.2019
1217 Rain 17 1004 68 10000 6.2 230 12:44 27.09.2019
1218 Rain 17 1004 68 10000 6.2 230 12:22 27.09.2019
1219 Rain 17 1004 72 10000 6.2 230 11:57 27.09.2019
1220 Clouds 16 1004 72 10000 7.7 230 11:37 27.09.2019
1221 Clouds 16 1004 72 10000 7.7 230 11:19 27.09.2019
1222 Rain 15 1004 77 10000 4.6 220 10:42 27.09.2019
1223 Rain 15 1004 77 10000 4.6 220 10:21 27.09.2019
1224 Rain 14 1004 82 10000 4.6 210 09:56 27.09.2019
1225 Rain 14 1004 82 10000 4.6 210 09:56 27.09.2019
1226 Clouds 14 1004 82 10000 4.1 210 09:37 27.09.2019
1227 Clouds 13 1004 82 10000 4.1 210 09:18 27.09.2019
1228 Rain 13 1004 87 10000 4.1 210 08:41 27.09.2019
1229 Rain 13 1004 87 10000 4.1 210 08:21 27.09.2019
1230 Rain 13 1004 87 10000 4.1 210 08:21 27.09.2019
1231 Rain 13 1004 87 10000 4.1 210 08:20 27.09.2019
1232 Clouds 13 1004 87 10000 2.6 220 07:49 27.09.2019
1233 Clouds 13 1003 87 10000 3.6 230 07:26 27.09.2019
1234 Clouds 13 1004 87 10000 4.6 210 06:46 27.09.2019
1235 Clouds 13 1004 87 10000 3.6 220 06:28 27.09.2019
1236 Clouds 13 1004 87 10000 4.1 210 05:54 27.09.2019
1237 Clouds 13 1004 87 10000 4.1 210 05:54 27.09.2019
1238 Rain 13 1004 87 10000 3.1 220 05:33 27.09.2019
1239 Clouds 13 1004 87 10000 4.1 210 04:52 27.09.2019
1240 Clouds 13 1005 93 10000 3.1 230 03:38 27.09.2019
1241 Clouds 13 1005 82 10000 3.6 220 01:56 27.09.2019
1242 Clouds 13 1005 82 10000 4.6 210 01:31 27.09.2019
1243 Drizzle 13 1005 87 10000 4.6 230 00:41 27.09.2019
1244 Clear 14 1006 87 10000 5.7 220 23:57 26.09.2019
1245 Clear 14 1005 87 10000 6.2 210 23:39 26.09.2019
1246 Clear 14 1005 87 10000 6.2 210 23:20 26.09.2019
1247 Clear 14 1005 87 10000 6.2 210 22:58 26.09.2019
1248 Clear 14 1005 87 10000 6.2 210 22:58 26.09.2019
1249 Clear 14 1005 82 10000 7.2 220 22:40 26.09.2019
1250 Clear 14 1004 77 10000 7.2 230 22:18 26.09.2019
1251 Clear 15 1004 77 10000 7.2 230 21:59 26.09.2019
1252 Rain 15 1005 87 10000 6.2 210 21:38 26.09.2019
1253 Rain 15 1005 87 10000 6.2 210 21:19 26.09.2019
1254 Rain 15 1005 87 10000 6.2 210 21:19 26.09.2019
1255 Rain 15 1004 82 10000 6.7 220 20:58 26.09.2019
1256 Rain 15 1004 82 10000 7.2 220 20:40 26.09.2019
1257 Rain 16 1004 82 10000 7.2 220 20:21 26.09.2019
1258 Rain 16 1004 82 10000 6.7 220 19:59 26.09.2019
1259 Rain 16 1003 72 10000 6.2 230 19:39 26.09.2019
1260 Rain 17 1003 77 10000 5.1 240 19:18 26.09.2019
1261 Rain 17 1003 77 10000 5.1 240 18:56 26.09.2019
1262 Rain 18 1002 63 10000 8.2 230 18:37 26.09.2019
1263 Rain 18 1002 63 10000 8.2 230 18:18 26.09.2019
1264 Rain 18 1004 77 10000 5.7 220 17:38 26.09.2019
1265 Rain 18 1004 77 10000 5.7 220 17:38 26.09.2019
1266 Rain 18 1004 77 10000 5.7 220 17:38 26.09.2019
1267 Rain 18 1003 60 10000 6.2 230 17:19 26.09.2019
1268 Rain 18 1003 60 10000 7.2 240 16:57 26.09.2019
1269 Clouds 19 1003 60 10000 7.2 230 16:39 26.09.2019
1270 Clouds 19 1003 60 10000 7.2 230 16:20 26.09.2019
1271 Rain 19 1002 56 10000 7.2 240 15:56 26.09.2019
1272 Clouds 19 1002 60 10000 7.7 250 15:37 26.09.2019
1273 Clouds 19 1002 60 10000 7.7 250 15:18 26.09.2019
1274 Rain 19 1002 68 10000 7.2 240 14:41 26.09.2019
1275 Rain 19 1002 68 10000 7.2 240 14:23 26.09.2019
1276 Clouds 19 1002 77 10000 5.7 250 13:58 26.09.2019
1277 Rain 18 1002 77 10000 5.7 250 13:40 26.09.2019
1278 Rain 18 1002 77 10000 5.7 250 13:19 26.09.2019
1279 Rain 18 1002 88 10000 4.6 280 12:56 26.09.2019
1280 Rain 18 1002 82 7000 4.6 240 12:38 26.09.2019
1281 Rain 17 1002 82 7000 4.6 240 12:19 26.09.2019
1282 Rain 17 1002 82 10000 5.1 230 11:42 26.09.2019
1283 Rain 17 1003 93 10000 6.7 220 11:21 26.09.2019
1284 Rain 17 1003 93 10000 6.7 220 11:21 26.09.2019
1285 Rain 17 1001 88 10000 4.6 230 10:55 26.09.2019
1286 Rain 17 1002 100 10000 8.2 220 10:37 26.09.2019
1287 Rain 17 1002 100 10000 8.2 220 10:19 26.09.2019
1288 Rain 17 1002 100 10000 8.2 220 10:19 26.09.2019
1289 Rain 17 1001 93 10000 5.1 230 09:43 26.09.2019
1290 Rain 17 1001 93 10000 5.1 230 09:43 26.09.2019
1291 Rain 17 1002 100 4000 7.2 210 09:25 26.09.2019
1292 Rain 17 1001 93 4000 5.1 210 08:56 26.09.2019
1293 Rain 17 1002 100 9000 6.7 210 08:38 26.09.2019
1294 Rain 17 1002 100 9000 6.7 210 08:19 26.09.2019
1295 Rain 16 1001 100 10000 4.1 210 07:41 26.09.2019
1296 Rain 16 1001 100 10000 4.1 210 07:20 26.09.2019
1297 Rain 16 1002 93 10000 3.6 210 06:43 26.09.2019
1298 Rain 16 1002 93 10000 3.6 210 06:25 26.09.2019
1299 Rain 16 1002 93 10000 3.6 210 06:25 26.09.2019
1300 Rain 16 1002 100 7000 4.1 200 05:44 26.09.2019
1301 Rain 16 1001 93 10000 3.6 200 05:24 26.09.2019
1302 Rain 16 1003 93 10000 3.6 210 02:51 26.09.2019
1303 Rain 15 1003 93 10000 4.6 210 01:53 26.09.2019
1304 Rain 15 1003 93 10000 4.6 210 01:53 26.09.2019
1305 Clouds 15 1003 87 10000 3.6 220 01:28 26.09.2019
1306 Clouds 15 1003 87 10000 2.6 210 00:56 26.09.2019
1307 Clouds 15 1003 82 10000 2.6 230 00:37 26.09.2019
1308 Clouds 15 1004 93 10000 4.6 220 23:58 25.09.2019
1309 Clouds 15 1004 100 10000 5.1 220 23:39 25.09.2019
1310 Clouds 15 1004 100 10000 5.1 220 23:18 25.09.2019
1311 Clear 15 1003 100 10000 4.6 220 22:42 25.09.2019
1312 Clear 15 1003 100 10000 4.6 220 22:21 25.09.2019
1313 Clear 15 1003 93 10000 4.1 220 21:57 25.09.2019
1314 Clouds 15 1003 93 10000 4.1 220 21:39 25.09.2019
1315 Clouds 15 1003 93 10000 4.1 220 21:39 25.09.2019
1316 Clouds 16 1003 93 10000 4.1 220 21:19 25.09.2019
1317 Clouds 16 1003 93 10000 3.1 230 20:58 25.09.2019
1318 Rain 16 1003 93 10000 4.1 220 20:40 25.09.2019
1319 Rain 16 1003 93 10000 4.1 220 20:22 25.09.2019
1320 Rain 17 1003 93 10000 3.6 230 19:55 25.09.2019
1321 Rain 17 1002 93 10000 4.1 230 19:36 25.09.2019
1322 Rain 17 1002 93 10000 4.1 230 19:18 25.09.2019
1323 Rain 17 1002 93 10000 4.6 220 18:55 25.09.2019
1324 Rain 18 1002 88 10000 5.1 220 18:37 25.09.2019
1325 Rain 18 1001 88 10000 5.1 220 18:18 25.09.2019
1326 Rain 18 1000 64 10000 7.2 240 17:39 25.09.2019
1327 Rain 18 1000 64 10000 7.2 240 17:20 25.09.2019
1328 Rain 19 1000 72 10000 6.7 250 16:56 25.09.2019
1329 Rain 19 1000 72 10000 5.7 240 16:36 25.09.2019
1330 Rain 19 1000 77 10000 6.2 240 16:18 25.09.2019
1331 Rain 19 1000 77 10000 6.2 240 15:42 25.09.2019
1332 Rain 18 1000 77 10000 7.2 250 15:23 25.09.2019
1333 Rain 18 1000 77 10000 6.7 250 14:58 25.09.2019
1334 Rain 18 1000 88 10000 5.7 240 14:39 25.09.2019
1335 Rain 18 1000 88 10000 5.7 240 14:21 25.09.2019
1336 Rain 18 999 77 10000 6.7 230 13:56 25.09.2019
1337 -273 0 0 0 0 0 13:38 25.09.2019
1338 Rain 18 999 77 10000 6.2 240 13:19 25.09.2019
1339 Rain 17 999 82 10000 5.1 240 12:42 25.09.2019
1340 Rain 17 999 82 10000 5.1 240 12:23 25.09.2019
1341 Drizzle 17 999 88 10000 5.1 240 11:59 25.09.2019
1342 Rain 16 998 88 9000 5.1 230 11:40 25.09.2019
1343 Rain 16 998 88 8000 5.1 220 11:19 25.09.2019
1344 Rain 16 998 88 8000 5.1 220 10:45 25.09.2019
1345 Rain 16 999 93 9000 6.2 220 10:26 25.09.2019
1346 Rain 15 999 93 9000 6.2 220 09:58 25.09.2019
1347 Rain 15 999 93 9000 6.2 220 09:58 25.09.2019
1348 Rain 15 997 93 10000 4.1 220 09:38 25.09.2019
1349 Rain 15 997 93 10000 4.1 220 09:20 25.09.2019
1350 Rain 15 997 93 10000 4.6 220 08:55 25.09.2019
1351 Rain 15 998 93 10000 4.1 190 08:37 25.09.2019
1352 Rain 15 998 93 10000 4.1 190 08:18 25.09.2019
1353 Rain 15 997 93 10000 3.6 180 07:40 25.09.2019
1354 Rain 15 997 93 10000 3.6 180 07:22 25.09.2019
1355 Rain 15 998 93 10000 3.6 180 06:45 25.09.2019
1356 Rain 15 998 93 10000 3.6 180 06:23 25.09.2019
1357 Rain 15 999 93 10000 4.1 190 05:37 25.09.2019
1358 Rain 15 1000 93 10000 4.6 190 04:57 25.09.2019
1359 Rain 14 1000 93 10000 4.1 210 02:32 25.09.2019
1360 Rain 15 1001 93 10000 3.6 210 01:19 25.09.2019
1361 Rain 15 1001 93 9000 4.1 210 00:37 25.09.2019
1362 Rain 15 1001 93 9000 4.1 210 00:18 25.09.2019
1363 Rain 15 1002 93 10000 6.2 210 23:41 24.09.2019
1364 Rain 15 1002 93 10000 6.2 210 23:21 24.09.2019
1365 Rain 15 1002 87 10000 4.1 220 22:56 24.09.2019
1366 Rain 15 1002 93 10000 5.1 210 22:36 24.09.2019
1367 Rain 15 1002 93 10000 5.1 210 22:18 24.09.2019
1368 Rain 15 1002 93 10000 5.1 210 21:54 24.09.2019
1369 Rain 15 1002 93 10000 5.7 210 21:36 24.09.2019
1370 Rain 15 1002 93 10000 5.7 210 21:18 24.09.2019
1371 Rain 15 1002 93 10000 5.7 210 21:18 24.09.2019
1372 Clouds 15 1002 93 10000 6.2 210 20:55 24.09.2019
1373 Clouds 15 1002 93 10000 6.2 210 20:55 24.09.2019
1374 Rain 16 1001 88 10000 3.6 200 20:37 24.09.2019
1375 Rain 16 1001 88 10000 3.6 200 20:18 24.09.2019
1376 Rain 16 1001 82 10000 2.6 230 19:41 24.09.2019
1377 Rain 17 1001 88 10000 4.6 230 19:19 24.09.2019
1378 Rain 17 1001 88 10000 4.6 230 18:57 24.09.2019
1379 Rain 17 1000 93 9000 7.2 250 18:39 24.09.2019
1380 Thunderstorm 17 1000 93 9000 7.2 250 18:20 24.09.2019
1381 Rain 18 999 72 10000 4.6 220 17:56 24.09.2019
1382 Rain 18 999 68 10000 7.7 280 17:37 24.09.2019
1383 Rain 18 999 68 10000 7.7 280 17:19 24.09.2019
1384 Rain 19 999 68 10000 5.7 240 16:42 24.09.2019
1385 Rain 19 999 68 10000 6.7 220 16:20 24.09.2019
1386 Clouds 19 999 77 10000 6.2 270 15:58 24.09.2019
1387 Thunderstorm 19 999 82 10000 4.6 210 15:39 24.09.2019
1388 Thunderstorm 19 999 82 10000 4.6 210 15:21 24.09.2019
1389 Rain 18 1000 77 10000 6.7 220 14:39 24.09.2019
1390 Rain 18 1000 77 10000 6.7 220 14:18 24.09.2019
1391 Rain 17 1000 82 10000 4.1 240 13:45 24.09.2019
1392 Rain 17 1000 82 10000 4.1 240 13:45 24.09.2019
1393 Rain 17 1001 93 10000 7.2 200 13:22 24.09.2019
1394 Rain 17 1000 88 8000 6.2 220 12:57 24.09.2019
1395 Rain 17 1001 93 10000 9.3 200 12:39 24.09.2019
1396 Rain 17 1000 88 10000 4.6 170 12:18 24.09.2019
1397 Rain 17 999 93 10000 4.1 180 11:41 24.09.2019
1398 Rain 16 1000 100 4000 8.7 180 11:21 24.09.2019
1399 Rain 16 1000 93 5000 5.1 140 10:56 24.09.2019
1400 Rain 16 1001 93 10000 5.1 140 10:36 24.09.2019
1401 Rain 16 1001 93 4500 7.7 160 10:18 24.09.2019
1402 Rain 16 1001 93 9000 5.1 140 09:45 24.09.2019
1403 Rain 16 1001 93 10000 5.1 150 09:27 24.09.2019
1404 Rain 16 1002 93 10000 3.6 140 08:57 24.09.2019
1405 Rain 16 1002 93 10000 3.1 130 08:38 24.09.2019
1406 Rain 16 1002 93 10000 3.1 130 08:19 24.09.2019
1407 Rain 16 1002 93 10000 3.1 130 08:19 24.09.2019
1408 Rain 16 1003 93 4200 3.6 150 07:47 24.09.2019
1409 Rain 16 1003 93 5000 3.1 150 07:25 24.09.2019
1410 Rain 16 1003 93 10000 3.6 150 06:56 24.09.2019
1411 Rain 16 1004 93 10000 3.1 150 06:32 24.09.2019
1412 Rain 16 1005 93 10000 3.6 170 05:51 24.09.2019
1413 Rain 16 1005 93 7000 4.1 170 05:20 24.09.2019
1414 Rain 16 1007 93 10000 3.6 180 03:45 24.09.2019
1415 Rain 16 1007 93 10000 3.1 180 02:57 24.09.2019
1416 Rain 16 1007 93 10000 3.1 190 02:38 24.09.2019
1417 Rain 16 1008 93 8000 3.6 160 01:39 24.09.2019
1418 Rain 16 1008 88 4500 4.1 160 00:38 24.09.2019
1419 Rain 16 1008 88 4500 4.1 160 00:20 24.09.2019
1420 Rain 16 1009 93 5000 4.6 150 23:40 23.09.2019
1421 Rain 16 1009 93 5000 4.6 150 23:21 23.09.2019
1422 Rain 15 1010 100 4000 7.2 160 22:40 23.09.2019
1423 Drizzle 15 1010 100 4000 7.2 160 22:21 23.09.2019
1424 Drizzle 15 1010 100 4000 7.2 160 22:21 23.09.2019
1425 Drizzle 15 1010 93 6000 9.3 160 21:58 23.09.2019
1426 Rain 15 1010 93 10000 9.8 170 21:40 23.09.2019
1427 Rain 15 1010 93 10000 9.8 170 21:20 23.09.2019
1428 Rain 15 1010 93 10000 9.8 170 21:20 23.09.2019
1429 Rain 15 1009 93 10000 6.2 170 20:56 23.09.2019
1430 Rain 15 1010 93 10000 9.8 170 20:37 23.09.2019
1431 Rain 15 1010 93 10000 9.8 170 20:18 23.09.2019
1432 Rain 15 1010 82 10000 4.1 170 19:40 23.09.2019
1433 Rain 15 1010 82 10000 4.1 170 19:21 23.09.2019
1434 Rain 16 1010 82 10000 3.6 0 18:58 23.09.2019
1435 Rain 16 1011 93 10000 6.7 180 18:40 23.09.2019
1436 Rain 16 1011 77 10000 4.1 0 18:19 23.09.2019
1437 Rain 16 1011 87 10000 8.2 180 17:56 23.09.2019
1438 Rain 17 1011 63 10000 5.7 200 17:38 23.09.2019
1439 Rain 17 1011 63 10000 5.7 200 17:20 23.09.2019
1440 Rain 17 1011 63 10000 7.2 210 16:55 23.09.2019
1441 Rain 18 1011 60 10000 6.2 190 16:36 23.09.2019
1442 Rain 18 1011 60 10000 6.2 190 16:36 23.09.2019
1443 Rain 18 1012 77 10000 8.2 180 16:18 23.09.2019
1444 Rain 19 1011 52 10000 5.7 200 15:56 23.09.2019
1445 Rain 19 1011 60 10000 5.7 200 15:38 23.09.2019
1446 Rain 19 1011 60 10000 5.7 200 15:18 23.09.2019
1447 Rain 19 1011 56 10000 5.1 200 14:40 23.09.2019
1448 Rain 19 1011 56 10000 5.1 200 14:20 23.09.2019
1449 Rain 19 1011 56 10000 6.2 200 13:58 23.09.2019
1450 Rain 19 1011 59 10000 5.7 210 13:38 23.09.2019
1451 Rain 18 1011 59 10000 5.7 210 13:18 23.09.2019
1452 Rain 18 1012 55 10000 5.1 230 12:44 23.09.2019
1453 Rain 18 1012 55 10000 5.1 230 12:23 23.09.2019
1454 Rain 17 1012 63 10000 3.6 0 11:58 23.09.2019
1455 Rain 17 1012 67 10000 4.1 240 11:40 23.09.2019
1456 Rain 16 1012 67 10000 4.1 240 11:21 23.09.2019
1457 Clouds 16 1012 72 10000 4.6 240 10:49 23.09.2019
1458 Clouds 15 1011 72 10000 5.1 240 10:22 23.09.2019
1459 Clouds 14 1011 82 10000 4.6 230 09:59 23.09.2019
1460 Clouds 14 1011 82 10000 4.6 230 09:38 23.09.2019
1461 Clouds 13 1011 82 10000 4.6 230 09:20 23.09.2019
1462 Clouds 13 1010 82 10000 4.6 230 08:47 23.09.2019
1463 Clouds 13 1010 82 10000 4.1 240 08:28 23.09.2019
1464 Clouds 13 1009 87 10000 4.1 250 07:57 23.09.2019
1465 Clouds 13 1009 87 10000 4.6 250 07:28 23.09.2019
1466 Clouds 14 1009 87 10000 4.6 250 06:40 23.09.2019
1467 Clouds 14 1009 93 10000 3.6 240 05:54 23.09.2019
1468 Clear 14 1008 93 10000 3.1 240 05:21 23.09.2019
1469 Clouds 14 1008 93 10000 3.1 220 04:54 23.09.2019
1470 Clear 13 1008 87 10000 2.1 170 03:33 23.09.2019
1471 Drizzle 14 1007 93 10000 2.1 190 01:19 23.09.2019
1472 Clouds 14 1007 82 10000 2.1 170 00:23 23.09.2019
1473 Clouds 14 1006 93 10000 3.6 170 23:56 22.09.2019
1474 Clouds 14 1006 82 10000 2.6 170 23:33 22.09.2019
1475 Clear 14 1007 93 10000 4.1 180 22:59 22.09.2019
1476 Clear 15 1006 93 10000 4.6 190 22:41 22.09.2019
1477 Clear 15 1006 93 10000 4.6 190 22:22 22.09.2019
1478 Clear 15 1006 93 10000 4.6 190 21:55 22.09.2019
1479 Clear 15 1006 93 10000 4.6 190 21:55 22.09.2019
1480 Clear 15 1006 87 10000 5.1 200 21:36 22.09.2019
1481 Clear 16 1006 87 10000 5.1 200 21:18 22.09.2019
1482 Clouds 16 1005 93 10000 6.2 200 20:42 22.09.2019
1483 Clouds 16 1005 93 10000 6.2 200 20:23 22.09.2019
1484 Drizzle 17 1004 82 10000 3.6 200 19:55 22.09.2019
1485 Drizzle 17 1004 82 10000 3.6 200 19:55 22.09.2019
1486 Drizzle 17 1005 87 10000 6.7 200 19:37 22.09.2019
1487 Drizzle 17 1005 87 10000 6.7 200 19:18 22.09.2019
1488 Drizzle 17 1005 77 10000 4.6 210 18:55 22.09.2019
1489 Rain 17 1005 87 10000 6.7 200 18:36 22.09.2019
1490 Rain 17 1005 87 10000 6.7 200 18:18 22.09.2019
1491 Rain 17 1005 87 10000 7.2 200 17:41 22.09.2019
1492 Rain 17 1005 87 10000 7.2 200 17:22 22.09.2019
1493 Rain 17 1004 82 10000 2.6 240 16:46 22.09.2019
1494 Rain 17 1004 82 10000 2.6 240 16:27 22.09.2019
1495 Rain 17 1004 82 10000 3.6 230 15:58 22.09.2019
1496 Rain 17 1004 88 10000 4.1 240 15:40 22.09.2019
1497 Rain 17 1004 88 10000 4.1 240 15:21 22.09.2019
1498 Rain 18 1003 77 10000 7.2 240 14:46 22.09.2019
1499 Rain 18 1003 73 10000 4.1 170 14:26 22.09.2019
1500 Rain 18 1003 88 5000 6.2 260 13:59 22.09.2019
1501 Rain 19 1002 69 10000 5.1 170 13:41 22.09.2019
1502 Rain 19 1002 69 10000 5.1 170 13:22 22.09.2019
1503 Rain 20 1003 73 10000 4.6 150 12:56 22.09.2019
1504 Rain 20 1003 77 10000 3.1 0 12:38 22.09.2019
1505 Rain 20 1003 77 10000 3.1 0 12:18 22.09.2019
1506 Rain 20 1003 88 10000 2.6 80 11:43 22.09.2019
1507 Rain 20 1003 88 10000 2.6 80 11:24 22.09.2019
1508 Rain 19 1003 82 10000 2.1 50 10:55 22.09.2019
1509 Rain 19 1003 82 10000 2.1 50 10:55 22.09.2019
1510 Rain 19 1003 82 9000 3.1 170 10:37 22.09.2019
1511 Rain 18 1003 82 9000 3.1 170 10:18 22.09.2019
1512 Rain 18 1003 72 10000 1.5 0 09:42 22.09.2019
1513 Rain 18 1004 93 10000 5.7 150 09:42 22.09.2019
1514 Rain 17 1003 72 10000 1.5 0 09:21 22.09.2019
1515 Rain 17 1003 72 10000 2.1 70 08:48 22.09.2019
1516 Rain 17 1003 72 10000 2.1 70 08:26 22.09.2019
1517 Rain 17 1003 72 10000 2.1 90 07:58 22.09.2019
1518 Rain 17 1003 77 10000 2.6 90 07:39 22.09.2019
1519 Rain 17 1003 77 10000 2.6 90 07:21 22.09.2019
1520 Rain 17 1004 77 10000 2.6 60 06:56 22.09.2019
1521 Rain 17 1004 77 10000 3.6 90 05:45 22.09.2019
1522 Rain 17 1005 88 10000 2.1 70 03:53 22.09.2019
1523 Clouds 17 1006 88 10000 3.1 90 02:43 22.09.2019
1524 Clouds 16 1006 87 10000 2.6 100 02:23 22.09.2019
1525 Rain 16 1007 82 10000 2.6 90 01:35 22.09.2019
1526 Rain 16 1007 82 10000 3.6 80 00:40 22.09.2019
1527 Clouds 16 1007 82 10000 3.6 80 00:21 22.09.2019
1528 Clouds 16 1007 82 10000 3.6 80 00:21 22.09.2019
1529 Clouds 17 1008 72 10000 5.1 100 23:45 21.09.2019
1530 Clouds 17 1008 72 10000 5.1 100 23:27 21.09.2019
1531 Clouds 17 1008 72 10000 4.1 90 22:43 21.09.2019
1532 Clouds 17 1008 72 10000 4.1 90 22:23 21.09.2019
1533 Clouds 17 1009 72 10000 5.1 90 21:58 21.09.2019
1534 Clouds 18 1009 72 10000 5.1 90 21:40 21.09.2019
1535 Clear 18 1009 72 10000 5.1 90 21:18 21.09.2019
1536 Clear 19 1009 59 10000 5.7 90 20:41 21.09.2019
1537 Clear 19 1009 59 10000 5.7 90 20:23 21.09.2019
1538 Clear 20 1009 60 10000 4.1 90 19:58 21.09.2019
1539 Clear 20 1009 52 10000 5.7 90 19:39 21.09.2019
1540 Clear 21 1009 52 10000 5.7 90 19:18 21.09.2019
1541 Clear 21 1010 49 10000 5.7 90 18:39 21.09.2019
1542 Clear 23 1010 49 10000 5.7 90 18:21 21.09.2019
1543 Clear 23 1010 46 10000 6.7 100 17:42 21.09.2019
1544 Clear 23 1010 46 10000 6.7 100 17:42 21.09.2019
1545 Clear 23 1010 46 10000 6.7 100 17:23 21.09.2019
1546 Clear 23 1010 46 10000 6.7 100 17:23 21.09.2019
1547 Clear 24 1010 46 10000 6.7 100 17:23 21.09.2019
1548 Clear 24 1011 46 10000 6.2 90 16:56 21.09.2019
1549 Clear 24 1011 46 10000 6.7 90 16:37 21.09.2019
1550 Clear 24 1011 46 10000 6.7 90 16:19 21.09.2019
1551 Clear 24 1011 46 10000 6.2 90 15:42 21.09.2019
1552 Clear 23 1011 46 10000 6.2 90 15:21 21.09.2019
1553 Clear 23 1012 49 10000 6.7 80 14:48 21.09.2019
1554 Clear 23 1012 49 10000 6.2 80 14:29 21.09.2019
1555 Clear 22 1013 49 10000 6.2 90 13:50 21.09.2019
1556 Clear 21 1013 49 10000 6.2 90 13:29 21.09.2019
1557 Clear 20 1013 49 10000 5.1 100 12:59 21.09.2019
1558 Clear 20 1014 55 10000 7.2 90 12:41 21.09.2019
1559 Clear 19 1014 55 10000 7.2 90 12:21 21.09.2019
1560 Clear 18 1014 52 10000 6.2 100 11:59 21.09.2019
1561 Clear 18 1015 55 10000 6.2 90 11:41 21.09.2019
1562 Clear 17 1015 55 10000 6.2 90 11:21 21.09.2019
1563 Clear 15 1015 62 10000 6.7 90 10:41 21.09.2019
1564 Clear 15 1015 62 10000 6.7 90 10:23 21.09.2019
1565 Clear 14 1015 67 10000 7.2 90 09:57 21.09.2019
1566 Clear 13 1015 67 10000 6.7 90 09:38 21.09.2019
1567 Clouds 12 1015 67 10000 6.7 90 09:20 21.09.2019
1568 Clouds 11 1015 71 10000 4.6 100 08:51 21.09.2019
1569 Clouds 11 1015 71 10000 4.6 90 08:26 21.09.2019
1570 Clouds 11 1016 66 10000 5.1 90 07:41 21.09.2019
1571 Clouds 11 1016 66 10000 5.1 90 07:22 21.09.2019
1572 Clouds 11 1016 66 10000 5.7 100 06:49 21.09.2019
1573 Clouds 11 1016 66 10000 5.7 100 06:49 21.09.2019
1574 Clouds 11 1016 71 10000 5.1 90 06:30 21.09.2019
1575 Clouds 12 1017 67 10000 4.6 90 04:50 21.09.2019
1576 Clouds 12 1017 67 10000 5.1 90 04:32 21.09.2019
1577 Clouds 13 1019 62 10000 4.1 80 02:31 21.09.2019
1578 Clouds 13 1019 62 10000 4.1 80 01:54 21.09.2019
1579 Clouds 13 1019 67 10000 3.6 80 01:36 21.09.2019
1580 Clouds 13 1020 72 10000 5.7 100 00:40 21.09.2019
1581 Clear 14 1020 72 10000 5.7 100 00:19 21.09.2019
1582 Clear 13 1020 76 10000 4.6 100 23:42 20.09.2019
1583 Clear 14 1020 77 10000 4.6 80 23:23 20.09.2019
1584 Clear 14 1021 72 10000 7.2 80 22:41 20.09.2019
1585 Clear 14 1021 76 10000 4.6 80 22:23 20.09.2019
1586 Clear 14 1021 72 10000 7.7 80 21:57 20.09.2019
1587 Clear 15 1021 72 10000 7.2 80 21:37 20.09.2019
1588 Clear 15 1021 72 10000 7.2 80 21:19 20.09.2019
1589 Clear 15 1021 67 10000 6.7 90 20:56 20.09.2019
1590 Clear 16 1022 59 10000 8.7 90 20:37 20.09.2019
1591 Clear 16 1022 59 10000 8.7 90 20:18 20.09.2019
1592 Clear 17 1022 55 10000 9.3 100 19:45 20.09.2019
1593 Clear 17 1022 55 10000 9.3 100 19:25 20.09.2019
1594 Clear 18 1022 52 10000 9.3 90 18:58 20.09.2019
1595 Clear 19 1023 45 10000 8.7 100 18:38 20.09.2019
1596 Clear 19 1023 45 10000 8.7 100 18:38 20.09.2019
1597 Clear 19 1023 45 10000 8.7 100 18:18 20.09.2019
1598 Clear 20 1024 40 10000 8.7 100 17:45 20.09.2019
1599 Clear 20 1024 40 10000 8.7 100 17:45 20.09.2019
1600 Clear 20 1024 40 10000 8.7 100 17:45 20.09.2019
1601 Clear 20 1024 40 10000 8.7 100 17:26 20.09.2019
1602 Clear 21 1024 48 10000 8.2 90 16:44 20.09.2019
1603 Clear 21 1024 48 10000 8.2 90 16:23 20.09.2019
1604 Clear 21 1025 45 10000 7.7 90 15:59 20.09.2019
1605 Clear 21 1025 49 10000 7.7 90 15:41 20.09.2019
1606 Clear 20 1025 49 10000 7.7 90 15:22 20.09.2019
1607 Clear 20 1025 52 10000 7.7 90 14:44 20.09.2019
1608 Clear 20 1025 45 10000 6.2 100 14:20 20.09.2019
1609 Clear 20 1025 45 10000 6.2 100 14:20 20.09.2019
1610 Clear 20 1025 45 10000 6.2 100 13:59 20.09.2019
1611 Clear 19 1027 55 10000 8.2 100 13:40 20.09.2019
1612 Clear 19 1027 55 10000 8.2 100 13:21 20.09.2019
1613 Clear 18 1027 55 10000 8.2 90 12:40 20.09.2019
1614 Clear 17 1028 55 10000 6.7 90 12:22 20.09.2019
1615 Clear 17 1028 55 10000 6.7 90 11:51 20.09.2019
1616 Clear 16 1028 59 10000 6.7 100 11:25 20.09.2019
1617 Clear 15 1028 67 10000 4.1 90 10:58 20.09.2019
1618 Clear 14 1028 77 10000 2.6 100 10:40 20.09.2019
1619 Clear 13 1028 87 10000 1 0 10:22 20.09.2019
1620 Clear 13 1028 77 10000 2.6 100 10:22 20.09.2019
1621 Fog 10 1028 87 10000 1.5 10 09:38 20.09.2019
1622 Fog 10 1028 87 10000 1.5 10 09:38 20.09.2019
1623 Fog 10 1028 87 10000 1.5 10 09:19 20.09.2019
1624 Fog 9 1028 87 10000 1.5 10 08:48 20.09.2019
1625 Mist 8 1028 87 10000 2.1 10 08:28 20.09.2019
1626 Rain 8 1028 87 10000 1.5 10 07:59 20.09.2019
1627 Mist 8 1027 93 10000 1.5 40 07:40 20.09.2019
1628 Mist 8 1027 93 10000 1.5 40 07:22 20.09.2019
1629 Fog 8 1028 93 10000 1 310 06:42 20.09.2019
1630 Fog 8 1028 93 10000 1 310 06:42 20.09.2019
1631 Fog 8 1028 93 10000 1 310 06:18 20.09.2019
1632 Clear 9 1029 93 10000 1 50 04:32 20.09.2019
1633 Clear 9 1029 87 10000 0.5 50 03:27 20.09.2019
1634 Clear 10 1030 87 10000 0.5 50 02:22 20.09.2019
1635 Clear 10 1030 81 10000 0.5 50 01:43 20.09.2019
1636 Clear 11 1030 66 10000 1 90 00:42 20.09.2019
1637 Clear 12 1030 66 10000 2.6 90 23:50 19.09.2019
1638 Clear 12 1030 66 10000 2.6 90 23:50 19.09.2019
1639 Clear 12 1030 87 10000 2.6 130 23:29 19.09.2019
1640 Clear 13 1030 72 10000 3.1 100 22:59 19.09.2019
1641 Clear 13 1030 72 10000 4.1 100 22:40 19.09.2019
1642 Clear 13 1030 72 10000 4.1 100 22:22 19.09.2019
1643 Clear 14 1030 63 10000 3.1 90 21:57 19.09.2019
1644 Clear 14 1030 63 10000 4.1 100 21:39 19.09.2019
1645 Clear 14 1030 63 10000 4.1 100 21:39 19.09.2019
1646 Clear 15 1030 63 10000 4.1 100 21:19 19.09.2019
1647 Clear 15 1030 55 10000 4.1 100 20:57 19.09.2019
1648 Clear 16 1030 52 10000 4.6 110 20:39 19.09.2019
1649 Clear 17 1030 52 10000 4.6 110 20:19 19.09.2019
1650 Clear 17 1030 52 10000 5.7 100 19:54 19.09.2019
1651 Clear 18 1030 55 10000 4.6 120 19:36 19.09.2019
1652 Clear 19 1030 48 10000 6.2 100 19:18 19.09.2019
1653 Clear 19 1030 49 10000 5.7 100 18:41 19.09.2019
1654 Clear 20 1030 49 10000 5.7 100 18:22 19.09.2019
1655 Clear 20 1030 46 10000 4.6 100 17:43 19.09.2019
1656 Clear 20 1030 46 10000 4.6 100 17:24 19.09.2019
1657 Clear 20 1030 46 10000 4.1 100 16:59 19.09.2019
1658 Clear 20 1030 46 10000 4.1 100 16:59 19.09.2019
1659 Clear 21 1030 46 10000 4.1 90 16:40 19.09.2019
1660 Clear 21 1030 46 10000 4.1 90 16:20 19.09.2019
1661 Clear 20 1031 49 10000 2.1 120 15:41 19.09.2019
1662 Clear 20 1031 49 10000 2.1 120 15:22 19.09.2019
1663 Clear 20 1031 49 10000 3.6 110 14:58 19.09.2019
1664 Clear 19 1031 52 10000 3.1 100 14:39 19.09.2019
1665 Clear 19 1031 52 10000 3.1 100 14:21 19.09.2019
1666 Clear 19 1032 55 10000 2.6 100 13:57 19.09.2019
1667 Clear 19 1032 55 10000 2.6 100 13:37 19.09.2019
1668 Clear 19 1032 55 10000 2.6 100 13:37 19.09.2019
1669 Clear 18 1032 55 10000 2.6 100 13:18 19.09.2019
1670 Clear 17 1032 55 10000 1.5 0 12:37 19.09.2019
1671 Clear 16 1032 63 10000 1.5 0 12:18 19.09.2019
1672 Clear 15 1032 63 10000 1 0 11:41 19.09.2019
1673 Clear 15 1032 63 10000 1 0 11:22 19.09.2019
1674 Clear 14 1032 71 10000 1 0 10:59 19.09.2019
1675 Clear 13 1032 76 10000 1.5 0 10:40 19.09.2019
1676 Clear 12 1032 81 10000 1.5 330 10:21 19.09.2019
1677 Clear 12 1032 81 10000 1.5 330 09:58 19.09.2019
1678 Clear 10 1031 87 10000 1.5 340 09:40 19.09.2019
1679 Clear 8 1031 87 10000 1.5 340 09:20 19.09.2019
1680 Fog 7 1031 87 10000 1.5 340 08:51 19.09.2019
1681 Fog 7 1031 100 10000 1.09 313.258 08:26 19.09.2019
1682 Clear 6 1031 100 10000 1.09 313.258 07:45 19.09.2019
1683 Clear 7 1030 93 10000 0.5 330 07:24 19.09.2019
1684 Clear 7 1031 87 10000 1 310 06:59 19.09.2019
1685 Clear 7 1030 93 10000 1 350 06:40 19.09.2019
1686 Clear 7 1030 93 10000 1 350 06:21 19.09.2019
1687 Clear 7 1031 81 10000 0.5 340 05:49 19.09.2019
1688 Clear 8 1031 93 10000 1 320 04:20 19.09.2019
1689 Clear 8 1031 87 10000 1.5 320 03:20 19.09.2019
1690 Clear 9 1030 87 10000 0.5 330 01:40 19.09.2019
1691 Clear 10 1030 87 10000 0.5 330 01:19 19.09.2019
1692 Clear 10 1030 76 10000 1.45 178.659 00:43 19.09.2019
1693 Clear 10 1030 76 10000 1.45 178.659 00:43 19.09.2019
1694 Clear 10 1030 76 10000 1.32 42.731 00:20 19.09.2019
1695 Clear 11 1030 71 10000 2.1 80 23:38 18.09.2019
1696 Clear 11 1030 81 10000 1.5 150 23:19 18.09.2019
1697 Clear 12 1030 76 10000 2.1 150 22:42 18.09.2019
1698 Clear 12 1030 81 10000 1.5 130 22:20 18.09.2019
1699 Clear 12 1030 62 10000 4.1 100 21:58 18.09.2019
1700 Clear 13 1030 76 10000 2.1 80 21:40 18.09.2019
1701 Clear 14 1029 59 10000 4.6 90 21:18 18.09.2019
1702 Clear 14 1029 59 10000 4.6 90 20:58 18.09.2019
1703 Clear 15 1029 55 10000 4.1 100 20:40 18.09.2019
1704 Clear 16 1029 55 10000 4.1 100 20:22 18.09.2019
1705 Clear 16 1028 42 10000 3.6 70 19:57 18.09.2019
1706 Clear 17 1028 42 10000 3.1 60 19:38 18.09.2019
1707 Clear 17 1028 42 10000 2.6 0 19:19 18.09.2019
1708 Clear 18 1028 42 10000 2.6 0 18:55 18.09.2019
1709 Clear 18 1029 42 10000 4.1 60 18:37 18.09.2019
1710 Clear 18 1029 42 10000 4.1 60 18:18 18.09.2019
1711 Clear 19 1029 45 10000 2.1 0 17:57 18.09.2019
1712 Clear 19 1029 42 10000 3.1 60 17:39 18.09.2019
1713 Clear 19 1029 42 10000 3.1 60 17:18 18.09.2019
1714 Clear 19 1029 42 10000 3.1 60 17:18 18.09.2019
1715 Clear 18 1029 42 10000 3.1 60 16:55 18.09.2019
1716 Clear 18 1029 45 10000 3.6 60 16:37 18.09.2019
1717 Clear 18 1029 45 10000 3.6 60 16:18 18.09.2019
1718 Clear 18 1029 45 10000 3.1 0 15:54 18.09.2019
1719 Clear 18 1029 45 10000 3.1 40 15:36 18.09.2019
1720 Clear 18 1029 45 10000 3.1 40 15:36 18.09.2019
1721 Clear 18 1029 45 10000 3.1 40 15:18 18.09.2019
1722 Clear 18 1030 48 10000 3.1 50 14:57 18.09.2019
1723 Clear 18 1030 48 10000 3.6 60 14:37 18.09.2019
1724 Clear 18 1030 48 10000 3.6 60 14:37 18.09.2019
1725 Clear 17 1030 48 10000 3.6 60 14:19 18.09.2019
1726 Clear 17 1030 51 10000 2.6 50 13:42 18.09.2019
1727 Clear 17 1030 51 10000 2.6 50 13:19 18.09.2019
1728 Clear 17 1030 51 10000 2.6 50 13:19 18.09.2019
1729 Clear 16 1030 51 10000 3.1 70 12:53 18.09.2019
1730 Clear 16 1030 54 10000 2.1 0 12:32 18.09.2019
1731 Clear 16 1030 54 10000 2.1 0 12:32 18.09.2019
1732 Clear 15 1030 54 10000 3.6 60 11:59 18.09.2019
1733 Clear 14 1030 62 10000 3.6 60 11:39 18.09.2019
1734 Clear 13 1030 62 10000 3.6 60 11:19 18.09.2019
1735 Clear 12 1030 66 10000 0.5 0 10:40 18.09.2019
1736 Clear 11 1030 66 10000 0.5 0 10:21 18.09.2019
1737 Clear 11 1030 71 10000 0.5 0 09:58 18.09.2019
1738 Clear 9 1030 76 10000 1 0 09:40 18.09.2019
1739 Clear 7 1030 76 10000 1 0 09:22 18.09.2019
1740 Fog 6 1029 81 10000 1.5 0 08:46 18.09.2019
1741 Fog 6 1029 76 10000 0.5 0 08:26 18.09.2019
1742 Clear 6 1029 81 10000 1 0 07:59 18.09.2019
1743 Clear 6 1029 81 10000 1.5 0 07:41 18.09.2019
1744 Clear 6 1029 81 10000 1.5 0 07:22 18.09.2019
1745 Clear 6 1028 87 10000 2.6 30 06:41 18.09.2019
1746 Clear 7 1029 76 10000 1.5 0 05:54 18.09.2019
1747 Clear 7 1028 76 10000 1 340 05:22 18.09.2019
1748 Clouds 8 1028 71 10000 1.5 0 03:25 18.09.2019
1749 Clouds 9 1028 71 10000 2.1 50 02:40 18.09.2019
1750 Clouds 9 1028 71 10000 3.6 70 01:35 18.09.2019
1751 Clouds 10 1028 62 10000 4.1 60 00:51 18.09.2019
1752 Clouds 11 1028 62 10000 3.6 50 00:28 18.09.2019
1753 Clear 11 1028 76 10000 2.6 70 23:47 17.09.2019
1754 Clear 11 1027 62 10000 3.6 60 23:23 17.09.2019
1755 Clear 11 1027 62 10000 3.6 60 23:23 17.09.2019
1756 Clear 11 1027 76 10000 2.1 90 22:55 17.09.2019
1757 Clear 12 1027 71 10000 3.1 60 22:36 17.09.2019
1758 Clear 12 1027 71 10000 2.6 40 22:18 17.09.2019
1759 Clear 13 1027 71 10000 2.6 40 21:54 17.09.2019
1760 Clear 13 1026 51 10000 3.1 60 21:36 17.09.2019
1761 Clouds 14 1026 51 10000 3.1 60 21:18 17.09.2019
1762 Clear 14 1026 66 10000 3.1 20 20:54 17.09.2019
1763 Clouds 15 1026 48 10000 2.6 0 20:36 17.09.2019
1764 Clouds 15 1026 48 10000 2.6 0 20:18 17.09.2019
1765 Clouds 15 1026 48 10000 2.6 0 20:18 17.09.2019
1766 Clouds 17 1025 48 10000 3.1 30 19:40 17.09.2019
1767 Clouds 17 1025 48 10000 3.1 30 19:20 17.09.2019
1768 Clouds 18 1025 48 10000 2.6 30 18:59 17.09.2019
1769 Clouds 18 1025 45 10000 4.1 40 18:41 17.09.2019
1770 Clouds 18 1025 45 10000 4.1 40 18:22 17.09.2019
1771 Clouds 18 1025 42 10000 3.6 30 17:55 17.09.2019
1772 Clouds 19 1025 42 10000 3.6 30 17:36 17.09.2019
1773 Clouds 19 1025 42 10000 3.6 30 17:18 17.09.2019
1774 Clouds 19 1025 42 10000 3.6 30 17:18 17.09.2019
1775 Clouds 19 1025 45 10000 3.1 10 16:41 17.09.2019
1776 Clouds 19 1025 45 10000 3.1 10 16:22 17.09.2019
1777 Clouds 19 1025 48 10000 4.1 350 15:56 17.09.2019
1778 Clouds 18 1025 48 10000 4.1 320 15:37 17.09.2019
1779 Clear 18 1025 48 10000 4.1 320 15:19 17.09.2019
1780 Clear 18 1025 45 10000 3.6 0 14:55 17.09.2019
1781 Clear 18 1025 48 10000 4.6 350 14:37 17.09.2019
1782 Clear 18 1025 48 10000 4.6 350 14:18 17.09.2019
1783 Clear 17 1025 55 10000 4.1 340 13:42 17.09.2019
1784 Clear 17 1025 55 10000 4.1 340 13:23 17.09.2019
1785 Clear 17 1025 55 10000 4.1 340 13:23 17.09.2019
1786 Clear 17 1025 55 10000 4.1 360 12:56 17.09.2019
1787 Clear 16 1025 55 10000 3.1 330 12:37 17.09.2019
1788 Clear 15 1025 58 10000 3.1 320 12:18 17.09.2019
1789 Clouds 14 1025 67 10000 4.1 350 11:42 17.09.2019
1790 Clouds 14 1025 67 10000 4.1 350 11:24 17.09.2019
1791 Clouds 14 1025 67 10000 4.1 350 11:24 17.09.2019
1792 Clouds 14 1025 67 10000 4.1 350 11:24 17.09.2019
1793 Clear 13 1025 67 10000 3.1 360 10:55 17.09.2019
1794 Clear 13 1025 71 10000 2.6 350 10:37 17.09.2019
1795 Clear 12 1025 71 10000 2.6 350 10:18 17.09.2019
1796 Clear 11 1024 76 10000 2.1 340 09:41 17.09.2019
1797 Clear 10 1024 76 10000 2.1 340 09:21 17.09.2019
1798 Clouds 10 1024 76 10000 2.1 300 08:50 17.09.2019
1799 Clouds 10 1024 81 10000 3.1 300 08:32 17.09.2019
1800 Clouds 9 1024 81 10000 2.6 300 07:59 17.09.2019
1801 Clouds 9 1023 81 10000 2.1 300 07:39 17.09.2019
1802 Clouds 9 1023 81 10000 2.1 300 07:39 17.09.2019
1803 Clouds 10 1023 81 10000 2.1 300 07:19 17.09.2019
1804 Clouds 10 1023 87 10000 1.5 350 06:47 17.09.2019
1805 Clouds 11 1023 87 10000 1.5 350 06:23 17.09.2019
1806 Clouds 11 1023 76 10000 2.1 310 05:47 17.09.2019
1807 Clouds 13 1023 82 10000 1.5 0 04:31 17.09.2019
1808 Clouds 14 1023 77 10000 0.5 0 02:58 17.09.2019
1809 Clouds 14 1023 77 10000 1.5 10 02:38 17.09.2019
1810 Clouds 14 1023 72 10000 2.1 60 01:26 17.09.2019
1811 Clouds 15 1023 72 10000 2.6 360 00:40 17.09.2019
1812 Clouds 16 1023 77 10000 1.5 0 23:40 16.09.2019
1813 Clouds 16 1023 77 10000 1.5 0 23:19 16.09.2019
1814 Drizzle 16 1023 77 10000 3.1 360 22:56 16.09.2019
1815 Drizzle 16 1023 77 10000 2.6 350 22:38 16.09.2019
1816 Drizzle 16 1023 77 10000 2.6 350 22:19 16.09.2019
1817 Clouds 16 1023 72 10000 2.1 340 21:55 16.09.2019
1818 Clouds 16 1023 72 10000 2.1 340 21:55 16.09.2019
1819 Clouds 16 1022 72 10000 2.1 340 21:36 16.09.2019
1820 Clouds 16 1022 72 10000 2.1 340 21:18 16.09.2019
1821 Drizzle 17 1022 77 10000 2.1 340 20:40 16.09.2019
1822 Drizzle 17 1022 77 10000 2.1 340 20:40 16.09.2019
1823 Drizzle 17 1022 77 10000 2.1 340 20:40 16.09.2019
1824 Drizzle 17 1022 77 10000 2.1 340 20:21 16.09.2019
1825 Clouds 17 1022 77 10000 2.6 330 19:57 16.09.2019
1826 Drizzle 17 1022 77 10000 2.1 350 19:39 16.09.2019
1827 Drizzle 17 1022 77 10000 2.1 350 19:19 16.09.2019
1828 Rain 17 1022 88 6000 2.6 340 18:47 16.09.2019
1829 Rain 17 1022 88 6000 2.6 340 18:29 16.09.2019
1830 Rain 18 1022 88 5000 3.1 340 17:58 16.09.2019
1831 Rain 18 1022 88 10000 3.1 360 17:39 16.09.2019
1832 Drizzle 18 1022 88 4400 2.6 360 17:21 16.09.2019
1833 Drizzle 18 1022 88 4400 2.6 360 16:55 16.09.2019
1834 Drizzle 19 1022 82 7000 4.6 340 16:37 16.09.2019
1835 Drizzle 19 1022 82 7000 4.6 340 16:18 16.09.2019
1836 Clouds 20 1021 72 10000 3.1 290 15:55 16.09.2019
1837 Drizzle 19 1021 72 10000 3.6 280 15:37 16.09.2019
1838 Drizzle 20 1021 72 10000 3.6 280 15:37 16.09.2019
1839 Drizzle 20 1021 72 10000 3.6 280 15:18 16.09.2019
1840 Clouds 20 1021 77 10000 4.1 300 14:43 16.09.2019
1841 Clouds 19 1021 77 10000 4.1 300 14:23 16.09.2019
1842 Clouds 19 1021 72 10000 3.1 260 13:57 16.09.2019
1843 Drizzle 19 1022 77 10000 3.1 290 13:38 16.09.2019
1844 Drizzle 19 1022 77 10000 3.1 290 13:20 16.09.2019
1845 Mist 18 1022 77 10000 3.1 290 12:43 16.09.2019
1846 Mist 18 1022 77 10000 3.1 290 12:24 16.09.2019
1847 Mist 18 1021 82 10000 3.1 300 11:55 16.09.2019
1848 Mist 18 1021 82 10000 3.1 300 11:55 16.09.2019
1849 Rain 18 1021 82 10000 2.6 260 11:37 16.09.2019
1850 Rain 18 1021 82 10000 2.6 260 11:37 16.09.2019
1851 Rain 17 1021 82 10000 2.6 260 11:19 16.09.2019
1852 Clouds 17 1021 88 10000 2.6 250 10:38 16.09.2019
1853 Clouds 16 1021 88 10000 2.6 250 10:19 16.09.2019
1854 Rain 16 1021 88 8000 3.1 250 09:57 16.09.2019
1855 Rain 16 1021 87 9000 2.6 260 09:38 16.09.2019
1856 Mist 16 1022 100 4000 2.1 240 09:19 16.09.2019
1857 Mist 15 1021 100 4000 1.5 0 08:45 16.09.2019
1858 Mist 15 1021 100 4000 1.5 0 08:25 16.09.2019
1859 Clouds 15 1021 100 5000 1.5 0 07:56 16.09.2019
1860 Clouds 15 1021 100 5000 1.5 0 07:56 16.09.2019
1861 Clouds 15 1021 87 10000 3.1 280 07:37 16.09.2019
1862 Clouds 15 1021 87 10000 3.1 280 07:18 16.09.2019
1863 Clouds 15 1021 87 10000 2.1 280 06:44 16.09.2019
1864 Clouds 15 1021 87 10000 2.1 280 06:26 16.09.2019
1865 Mist 15 1021 93 8000 4.1 290 05:49 16.09.2019
1866 Mist 15 1021 87 10000 2.1 300 05:29 16.09.2019
1867 Rain 15 1021 93 10000 2.6 290 04:33 16.09.2019
1868 Rain 15 1021 93 10000 2.6 290 04:33 16.09.2019
1869 Mist 15 1022 87 10000 1.5 300 02:33 16.09.2019
1870 Clouds 16 1022 82 10000 2.1 290 00:44 16.09.2019
1871 Clouds 16 1022 82 10000 2.1 290 00:25 16.09.2019
1872 Clear 17 1023 82 10000 3.1 220 23:42 15.09.2019
1873 Clear 17 1023 82 10000 3.1 220 23:21 15.09.2019
1874 Clear 17 1023 77 10000 3.6 210 22:56 15.09.2019
1875 Clear 18 1023 77 10000 4.1 210 22:36 15.09.2019
1876 Clear 18 1023 77 10000 4.1 210 22:18 15.09.2019
1877 Clear 19 1023 82 10000 3.6 210 21:55 15.09.2019
1878 Clear 19 1023 77 10000 3.6 210 21:37 15.09.2019
1879 Clear 20 1023 77 10000 3.6 210 21:18 15.09.2019
1880 Clear 21 1023 60 10000 1.5 0 20:43 15.09.2019
1881 Clear 22 1023 60 10000 1.5 0 20:25 15.09.2019
1882 Clouds 22 1022 50 10000 3.6 290 19:47 15.09.2019
1883 Clouds 23 1022 50 10000 3.6 280 19:26 15.09.2019
1884 Clouds 24 1022 47 10000 2.6 280 18:55 15.09.2019
1885 Clouds 25 1022 47 10000 3.6 280 18:36 15.09.2019
1886 Clouds 25 1022 47 10000 3.1 240 18:18 15.09.2019
1887 Clouds 25 1022 47 10000 3.1 260 17:41 15.09.2019
1888 Clouds 25 1022 47 10000 3.1 260 17:22 15.09.2019
1889 Clouds 25 1023 47 10000 2.6 210 16:57 15.09.2019
1890 Clouds 25 1023 50 10000 3.1 240 16:38 15.09.2019
1891 Clouds 25 1023 50 10000 3.1 240 16:20 15.09.2019
1892 Clouds 25 1023 50 10000 3.1 240 15:55 15.09.2019
1893 Clouds 25 1024 50 10000 3.1 210 15:36 15.09.2019
1894 Clouds 24 1024 50 10000 2.1 0 15:18 15.09.2019
1895 Clouds 24 1024 53 10000 2.6 290 14:42 15.09.2019
1896 Clouds 23 1024 53 10000 2.6 290 14:23 15.09.2019
1897 Clouds 23 1024 53 10000 2.6 240 13:55 15.09.2019
1898 Clouds 23 1025 56 10000 3.1 250 13:37 15.09.2019
1899 Clouds 22 1025 56 10000 3.1 250 13:18 15.09.2019
1900 Clouds 21 1025 52 10000 3.6 260 12:40 15.09.2019
1901 Clouds 20 1025 52 10000 3.6 260 12:22 15.09.2019
1902 Clouds 19 1025 55 10000 3.1 250 11:54 15.09.2019
1903 Clouds 18 1025 63 10000 3.1 230 11:36 15.09.2019
1904 Clouds 17 1025 67 10000 3.1 220 11:18 15.09.2019
1905 Clouds 16 1025 72 10000 3.6 230 10:41 15.09.2019
1906 Clouds 14 1025 72 10000 3.6 230 10:22 15.09.2019
1907 Clouds 14 1025 76 10000 3.6 230 09:57 15.09.2019
1908 Clouds 12 1025 76 10000 3.1 240 09:36 15.09.2019
1909 Clear 11 1025 76 10000 3.1 240 09:18 15.09.2019
1910 Fog 10 1025 82 10000 3.1 250 08:41 15.09.2019
1911 Fog 9 1025 82 10000 3.1 250 08:20 15.09.2019
1912 Fog 9 1025 93 10000 1.5 0 07:48 15.09.2019
1913 Fog 9 1025 93 10000 1 0 06:59 15.09.2019
1914 Fog 9 1025 93 10000 1 0 06:59 15.09.2019
1915 Fog 9 1025 93 10000 0.5 130 06:31 15.09.2019
1916 Clear 11 1026 87 10000 0.5 270 03:25 15.09.2019
1917 Clear 11 1027 81 10000 0.5 260 02:30 15.09.2019
1918 Clouds 12 1027 76 10000 2.05 267.237 01:38 15.09.2019
1919 Clouds 12 1027 76 10000 2.05 267.237 01:38 15.09.2019
1920 Clouds 12 1028 72 10000 2.6 220 00:58 15.09.2019
1921 Clouds 12 1027 76 10000 0.5 250 00:39 15.09.2019
1922 Clouds 12 1027 76 10000 0.5 250 00:20 15.09.2019
1923 Clouds 13 1028 63 10000 3.1 220 23:57 14.09.2019
1924 Clouds 13 1028 62 10000 1.96 253.982 23:39 14.09.2019
1925 Clouds 13 1028 62 10000 1.96 253.982 23:39 14.09.2019
1926 Clear 13 1029 76 10000 4.1 190 23:19 14.09.2019
1927 Clear 14 1029 76 10000 4.1 190 22:58 14.09.2019
1928 Clear 14 1029 76 10000 4.1 190 22:39 14.09.2019
1929 Clear 14 1029 76 10000 4.1 190 22:19 14.09.2019
1930 Clear 15 1029 55 10000 2.1 200 21:40 14.09.2019
1931 Clear 16 1029 55 10000 2.1 200 21:22 14.09.2019
1932 Clear 17 1029 63 10000 2.6 200 20:59 14.09.2019
1933 Clear 17 1029 63 10000 2.6 200 20:59 14.09.2019
1934 Clouds 18 1028 52 10000 2.6 80 20:40 14.09.2019
1935 Clouds 19 1028 52 10000 2.6 80 20:22 14.09.2019
1936 Clouds 20 1028 52 10000 3.1 60 19:52 14.09.2019
1937 Clouds 21 1029 46 10000 2.1 90 19:23 14.09.2019
1938 Clouds 21 1029 43 10000 1.5 0 18:59 14.09.2019
1939 Clouds 22 1029 37 10000 1.5 0 18:40 14.09.2019
1940 Clear 22 1029 37 10000 1.5 0 18:21 14.09.2019
1941 Clear 23 1029 33 10000 2.1 120 17:58 14.09.2019
1942 Clear 22 1030 33 10000 1.5 0 17:39 14.09.2019
1943 Clear 23 1030 33 10000 1.5 0 17:21 14.09.2019
1944 Clear 22 1031 35 10000 1.5 0 16:43 14.09.2019
1945 Clear 22 1031 35 10000 1.5 0 16:21 14.09.2019
1946 Clear 22 1031 37 10000 1.5 0 15:55 14.09.2019
1947 Clear 22 1032 37 10000 2.1 60 15:36 14.09.2019
1948 Clouds 21 1032 37 10000 2.1 60 15:18 14.09.2019
1949 Clouds 21 1033 42 10000 2.1 80 14:42 14.09.2019
1950 Clouds 20 1033 42 10000 2.1 80 14:19 14.09.2019
1951 Clouds 20 1033 48 10000 2.1 100 13:47 14.09.2019
1952 Clear 20 1033 55 10000 2.1 80 13:22 14.09.2019
1953 Clear 19 1033 63 10000 1.5 0 12:48 14.09.2019
1954 Clear 18 1034 63 10000 2.1 110 12:27 14.09.2019
1955 Clear 16 1034 63 10000 1.5 0 11:44 14.09.2019
1956 Clear 15 1034 67 10000 0.5 0 11:22 14.09.2019
1957 Clear 15 1034 67 10000 1 30 10:59 14.09.2019
1958 Clear 14 1034 71 10000 1 0 10:37 14.09.2019
1959 Clear 13 1034 71 10000 1 0 10:19 14.09.2019
1960 Clear 12 1034 76 10000 1 0 09:56 14.09.2019
1961 Fog 11 1034 81 10000 1.5 340 09:38 14.09.2019
1962 Fog 9 1034 81 10000 1.5 340 09:19 14.09.2019
1963 Fog 8 1034 87 10000 2.1 350 08:45 14.09.2019
1964 Fog 7 1034 87 10000 2.1 350 08:23 14.09.2019
1965 Fog 7 1035 87 10000 1.5 350 07:46 14.09.2019
1966 Clear 7 1034 93 10000 1 10 07:28 14.09.2019
1967 Clear 7 1034 93 10000 0.5 350 06:44 14.09.2019
1968 Clear 8 1034 93 10000 0.5 350 06:25 14.09.2019
1969 Clear 8 1035 93 10000 1 360 05:26 14.09.2019
1970 Clear 9 1036 87 10000 1.5 10 03:46 14.09.2019
1971 Clear 10 1036 87 10000 1 0 02:54 14.09.2019
1972 Clear 10 1036 87 10000 1 0 02:54 14.09.2019
1973 Clear 11 1036 76 10000 3.1 70 01:52 14.09.2019
1974 Clear 11 1036 76 10000 2.6 90 01:23 14.09.2019
1975 Clear 12 1036 82 10000 3.6 100 00:59 14.09.2019
1976 Clear 12 1036 77 10000 3.1 70 00:39 14.09.2019
1977 Clear 12 1036 77 10000 3.1 70 00:20 14.09.2019
1978 Clear 13 1036 93 10000 2.6 100 23:38 13.09.2019
1979 Clear 13 1036 72 10000 5.1 80 23:19 13.09.2019
1980 Clear 13 1036 77 10000 4.6 80 22:59 13.09.2019
1981 Clear 13 1036 77 10000 4.1 90 22:38 13.09.2019
1982 Clear 14 1036 77 10000 4.1 90 22:20 13.09.2019
1983 Clear 14 1035 72 10000 6.2 90 21:55 13.09.2019
1984 Clear 14 1035 77 10000 5.7 90 21:37 13.09.2019
1985 Clear 15 1035 77 10000 5.7 90 21:18 13.09.2019
1986 Clear 16 1035 68 10000 5.1 80 20:55 13.09.2019
1987 Clear 17 1035 59 10000 6.2 100 20:36 13.09.2019
1988 Clear 18 1035 59 10000 6.2 100 20:18 13.09.2019
1989 Clear 19 1034 37 10000 2.6 30 19:42 13.09.2019
1990 Clear 19 1034 37 10000 2.6 30 19:21 13.09.2019
1991 Clear 20 1034 37 10000 3.6 40 18:57 13.09.2019
1992 Clear 20 1034 37 10000 2.6 20 18:37 13.09.2019
1993 Clouds 21 1034 37 10000 3.1 60 18:19 13.09.2019
1994 Clouds 21 1034 37 10000 2.6 0 17:43 13.09.2019
1995 Clouds 21 1034 37 10000 2.6 0 17:20 13.09.2019
1996 Clouds 21 1034 40 10000 2.1 40 16:55 13.09.2019
1997 -273 0 0 0 0 0 16:55 13.09.2019
1998 Clouds 21 1034 40 10000 2.6 0 16:37 13.09.2019
1999 Clouds 21 1034 40 10000 2.6 0 16:18 13.09.2019
2000 Clouds 21 1034 42 10000 4.1 60 16:18 13.09.2019
2001 Clouds 20 1034 42 10000 3.1 0 15:40 13.09.2019
2002 Clouds 20 1034 42 10000 3.1 0 15:21 13.09.2019
2003 Clouds 20 1035 45 10000 2.6 50 15:21 13.09.2019
2004 Clouds 20 1035 48 10000 3.1 0 14:44 13.09.2019
2005 Clouds 19 1035 48 10000 3.1 0 14:23 13.09.2019
2006 Clouds 19 1035 48 10000 2.6 340 13:59 13.09.2019
2007 Clouds 19 1035 52 10000 3.6 330 13:40 13.09.2019
2008 Clouds 19 1035 55 10000 2.6 30 13:21 13.09.2019
2009 Clouds 18 1035 59 10000 2.1 30 12:45 13.09.2019
2010 Clouds 17 1035 59 10000 2.1 30 12:24 13.09.2019
2011 Clouds 16 1035 59 10000 2.6 350 11:57 13.09.2019
2012 Clouds 16 1034 67 10000 3.1 330 11:20 13.09.2019
2013 Clouds 15 1034 67 10000 2.6 10 10:41 13.09.2019
2014 Clouds 15 1034 67 10000 2.6 10 10:21 13.09.2019
2015 Clouds 15 1034 67 10000 2.6 10 10:21 13.09.2019
2016 Clouds 15 1034 67 10000 2.6 10 10:21 13.09.2019
2017 Clouds 14 1034 72 10000 2.6 360 09:56 13.09.2019
2018 Clouds 14 1033 77 10000 2.6 340 09:37 13.09.2019
2019 Clouds 14 1033 77 10000 2.6 340 09:19 13.09.2019
2020 Clouds 13 1033 77 10000 3.1 330 08:41 13.09.2019
2021 Clouds 13 1033 77 10000 3.1 330 08:21 13.09.2019
2022 Clouds 13 1032 77 10000 2.1 350 07:59 13.09.2019
2023 Clouds 13 1032 72 10000 2.6 340 07:40 13.09.2019
2024 Clouds 14 1031 67 10000 3.1 320 06:54 13.09.2019
2025 Drizzle 15 1031 77 10000 3.6 310 06:34 13.09.2019
2026 Drizzle 16 1030 82 10000 4.1 300 05:30 13.09.2019
2027 Drizzle 17 1029 88 10000 3.6 250 03:48 13.09.2019
2028 Clouds 17 1029 82 10000 5.1 250 03:24 13.09.2019
2029 Clouds 17 1029 77 10000 5.1 250 02:19 13.09.2019
2030 Clouds 17 1029 77 10000 5.1 250 01:35 13.09.2019
2031 Clouds 17 1029 77 10000 5.1 250 01:35 13.09.2019
2032 Rain 17 1029 88 7000 5.1 230 00:59 13.09.2019
2033 Clouds 17 1029 77 10000 5.7 240 00:34 13.09.2019
2034 Clouds 18 1028 82 10000 4.6 240 23:48 12.09.2019
2035 Rain 18 1028 82 10000 5.1 240 23:24 12.09.2019
2036 Rain 18 1028 82 10000 5.1 240 22:57 12.09.2019
2037 Clouds 18 1028 82 10000 4.6 240 22:39 12.09.2019
2038 Clouds 18 1028 82 10000 4.6 240 22:21 12.09.2019
2039 Clouds 18 1028 77 10000 6.2 230 21:55 12.09.2019
2040 Clouds 18 1027 77 10000 6.2 240 21:36 12.09.2019
2041 Clouds 18 1027 77 10000 6.2 240 21:18 12.09.2019
2042 Clouds 19 1027 73 10000 6.2 230 20:44 12.09.2019
2043 Clouds 19 1027 73 10000 6.2 230 20:22 12.09.2019
2044 Clouds 20 1027 68 10000 6.2 240 19:57 12.09.2019
2045 Clouds 20 1027 68 10000 6.2 230 19:39 12.09.2019
2046 Clouds 21 1027 68 10000 6.2 230 19:19 12.09.2019
2047 Clouds 21 1026 60 10000 6.2 240 18:56 12.09.2019
2048 Clouds 22 1026 60 10000 6.7 230 18:36 12.09.2019
2049 Clouds 22 1026 57 10000 6.7 240 18:18 12.09.2019
2050 Clouds 22 1026 57 10000 6.2 230 17:40 12.09.2019
2051 Clouds 23 1026 57 10000 6.2 230 17:20 12.09.2019
2052 Clouds 23 1026 57 10000 5.7 230 16:56 12.09.2019
2053 Clouds 23 1026 57 10000 6.7 230 16:38 12.09.2019
2054 Clouds 23 1026 57 10000 6.7 230 16:19 12.09.2019
2055 Clouds 23 1027 60 10000 5.1 260 15:41 12.09.2019
2056 Clouds 23 1027 60 10000 5.1 260 15:23 12.09.2019
2057 Clouds 22 1027 60 10000 5.7 260 14:46 12.09.2019
2058 Clouds 22 1027 64 10000 6.2 250 14:22 12.09.2019
2059 Clouds 21 1028 73 10000 5.1 240 13:59 12.09.2019
2060 Clouds 21 1028 73 10000 5.7 250 13:38 12.09.2019
2061 Clouds 21 1028 73 10000 5.7 250 13:20 12.09.2019
2062 Clouds 20 1028 77 10000 5.7 230 12:47 12.09.2019
2063 Clouds 20 1028 72 10000 5.7 250 12:19 12.09.2019
2064 Clouds 19 1027 72 10000 5.7 240 11:57 12.09.2019
2065 Drizzle 19 1027 72 10000 4.6 240 11:39 12.09.2019
2066 Drizzle 18 1027 72 10000 4.6 240 11:21 12.09.2019
2067 Clouds 18 1027 77 10000 4.6 250 10:48 12.09.2019
2068 Clouds 17 1027 77 10000 4.6 240 10:26 12.09.2019
2069 Clouds 15 1027 82 10000 4.6 240 09:56 12.09.2019
2070 Clouds 15 1027 82 10000 4.6 240 09:36 12.09.2019
2071 Clear 15 1027 82 10000 4.6 240 09:18 12.09.2019
2072 Fog 13 1026 87 10000 4.1 250 08:41 12.09.2019
2073 Fog 13 1026 100 10000 3.6 250 08:22 12.09.2019
2074 Clouds 13 1026 100 10000 3.1 230 07:45 12.09.2019
2075 Clouds 13 1025 93 10000 3.6 250 07:20 12.09.2019
2076 Clouds 13 1025 87 10000 5.1 240 06:51 12.09.2019
2077 Clouds 13 1025 87 10000 5.1 240 06:31 12.09.2019
2078 Clouds 13 1025 93 10000 3.1 240 05:52 12.09.2019
2079 Clouds 13 1025 82 10000 5.1 240 05:34 12.09.2019
2080 Clouds 14 1024 87 10000 4.1 260 04:42 12.09.2019
2081 Clouds 15 1024 82 10000 4.6 240 03:18 12.09.2019
2082 Clouds 15 1023 87 10000 3.1 260 01:38 12.09.2019
2083 Clouds 15 1023 87 10000 3.1 260 01:19 12.09.2019
2084 Clouds 15 1024 82 10000 4.1 240 00:45 12.09.2019
2085 Clouds 16 1023 87 10000 3.6 260 00:27 12.09.2019
2086 Clouds 16 1023 93 10000 3.6 230 23:43 11.09.2019
2087 Clouds 16 1023 93 10000 3.6 230 23:24 11.09.2019
2088 Clouds 17 1023 100 10000 4.1 230 22:57 11.09.2019
2089 Clouds 17 1023 100 10000 3.6 240 22:38 11.09.2019
2090 Clouds 17 1023 100 10000 3.6 240 22:19 11.09.2019
2091 Clouds 17 1022 93 10000 4.1 230 21:57 11.09.2019
2092 Clouds 18 1022 93 10000 4.1 220 21:38 11.09.2019
2093 Clouds 18 1022 93 10000 4.1 220 21:38 11.09.2019
2094 Drizzle 18 1022 93 10000 4.1 230 21:19 11.09.2019
2095 Drizzle 18 1021 82 10000 4.6 230 20:54 11.09.2019
2096 Drizzle 19 1020 82 10000 5.7 230 20:36 11.09.2019
2097 Drizzle 19 1020 82 10000 5.7 230 20:18 11.09.2019
2098 Drizzle 19 1020 77 10000 5.7 240 19:55 11.09.2019
2099 Drizzle 19 1020 77 10000 5.7 240 19:37 11.09.2019
2100 Drizzle 20 1020 77 10000 5.7 240 19:18 11.09.2019
2101 Rain 20 1020 77 10000 6.2 230 18:42 11.09.2019
2102 Rain 20 1020 77 10000 6.2 230 18:23 11.09.2019
2103 Rain 20 1020 82 10000 4.6 240 17:58 11.09.2019
2104 Rain 20 1019 77 10000 6.2 240 17:40 11.09.2019
2105 Rain 20 1019 77 10000 6.2 240 17:21 11.09.2019
2106 Clouds 20 1019 77 10000 6.7 240 16:54 11.09.2019
2107 Clouds 20 1019 77 10000 6.7 240 16:54 11.09.2019
2108 Drizzle 20 1019 73 10000 7.2 250 16:36 11.09.2019
2109 Drizzle 20 1019 73 10000 7.2 250 16:18 11.09.2019
2110 Rain 20 1019 68 10000 7.2 240 15:45 11.09.2019
2111 Rain 20 1019 68 10000 7.2 240 15:22 11.09.2019
2112 Rain 20 1019 68 10000 7.7 240 14:57 11.09.2019
2113 Rain 20 1018 68 10000 7.7 250 14:38 11.09.2019
2114 Rain 20 1018 68 10000 7.7 250 14:19 11.09.2019
2115 Drizzle 20 1018 68 10000 7.2 240 13:55 11.09.2019
2116 Clouds 19 1018 72 10000 5.7 230 13:36 11.09.2019
2117 Clouds 20 1018 72 10000 5.7 230 13:18 11.09.2019
2118 Clouds 19 1019 72 10000 6.7 230 12:41 11.09.2019
2119 Clouds 18 1017 72 10000 6.7 220 12:21 11.09.2019
2120 Clouds 18 1019 77 10000 6.7 230 11:56 11.09.2019
2121 Clouds 17 1019 77 10000 5.7 230 11:36 11.09.2019
2122 Clouds 17 1019 77 10000 6.2 240 11:18 11.09.2019
2123 Clouds 17 1019 77 10000 5.7 230 11:18 11.09.2019
2124 Clouds 16 1018 72 10000 6.2 240 10:40 11.09.2019
2125 Clouds 16 1018 72 10000 6.2 240 10:22 11.09.2019
2126 Clouds 15 1018 72 10000 6.2 240 09:56 11.09.2019
2127 Clouds 15 1018 77 10000 5.7 230 09:36 11.09.2019
2128 Clouds 14 1018 77 10000 5.7 230 09:18 11.09.2019
2129 Clouds 14 1018 72 10000 5.7 230 08:40 11.09.2019
2130 Clouds 14 1018 76 10000 5.1 240 08:21 11.09.2019
2131 Clouds 13 1018 76 10000 4.6 230 07:49 11.09.2019
2132 Rain 13 1018 71 10000 5.1 230 07:23 11.09.2019
2133 Rain 13 1019 76 10000 5.1 230 06:56 11.09.2019
2134 Rain 13 1019 82 10000 4.1 240 06:36 11.09.2019
2135 Rain 13 1019 71 10000 5.1 230 05:50 11.09.2019
2136 Clouds 13 1019 71 10000 4.1 230 05:30 11.09.2019
2137 Clouds 13 1020 71 10000 5.1 230 04:52 11.09.2019
2138 Clouds 13 1020 71 10000 4.1 230 03:58 11.09.2019
2139 Rain 13 1020 71 10000 4.1 240 03:25 11.09.2019
2140 Clouds 13 1020 71 10000 4.1 250 02:28 11.09.2019
2141 Clouds 14 1020 71 10000 5.1 260 01:28 11.09.2019
2142 Clouds 14 1020 72 10000 4.6 260 00:32 11.09.2019
2143 Clear 14 1021 82 10000 3.6 220 23:58 10.09.2019
2144 Clear 14 1021 82 10000 2.6 220 23:40 10.09.2019
2145 Clear 14 1021 82 10000 2.6 220 23:21 10.09.2019
2146 Clear 14 1021 82 10000 2.6 220 22:54 10.09.2019
2147 Clear 14 1021 82 10000 2.1 220 22:36 10.09.2019
2148 Clear 14 1021 82 10000 2.1 220 22:18 10.09.2019
2149 Clear 15 1021 82 10000 2.1 220 21:54 10.09.2019
2150 Clear 15 1020 77 10000 2.1 220 21:36 10.09.2019
2151 Clear 16 1020 77 10000 2.1 220 21:18 10.09.2019
2152 Clouds 16 1020 63 10000 2.6 300 20:54 10.09.2019
2153 Clouds 17 1020 63 10000 2.6 300 20:36 10.09.2019
2154 Clouds 17 1020 63 10000 2.6 300 20:18 10.09.2019
2155 Clouds 17 1020 63 10000 3.1 310 19:54 10.09.2019
2156 Clouds 17 1019 59 10000 3.6 300 19:36 10.09.2019
2157 Rain 18 1019 59 10000 3.1 290 19:18 10.09.2019
2158 Rain 18 1020 55 10000 3.1 300 18:42 10.09.2019
2159 Rain 18 1020 55 10000 3.1 300 18:22 10.09.2019
2160 Rain 18 1019 59 10000 3.1 290 17:56 10.09.2019
2161 Clouds 18 1019 55 10000 3.1 300 17:38 10.09.2019
2162 Clouds 18 1019 55 10000 3.1 300 17:19 10.09.2019
2163 Clouds 18 1019 55 10000 2.6 260 16:56 10.09.2019
2164 Rain 18 1019 59 10000 2.1 260 16:37 10.09.2019
2165 Rain 19 1019 59 10000 2.1 260 16:19 10.09.2019
2166 Rain 19 1019 59 10000 1.5 0 15:43 10.09.2019
2167 Clouds 19 1019 59 10000 1.5 0 15:23 10.09.2019
2168 Clouds 19 1019 63 10000 2.6 330 14:57 10.09.2019
2169 Clouds 19 1019 63 10000 2.6 320 14:39 10.09.2019
2170 Clouds 18 1019 63 10000 2.6 320 14:19 10.09.2019
2171 Rain 18 1019 59 10000 1.5 0 13:47 10.09.2019
2172 Rain 17 1019 59 10000 1.5 0 13:23 10.09.2019
2173 Clouds 17 1019 67 10000 1.5 0 12:53 10.09.2019
2174 Clouds 17 1019 67 10000 1.5 0 12:53 10.09.2019
2175 Clouds 16 1019 77 10000 2.6 280 12:28 10.09.2019
2176 Clouds 16 1019 72 10000 1 0 11:59 10.09.2019
2177 Clouds 15 1019 72 10000 1 0 11:41 10.09.2019
2178 Clouds 14 1019 72 10000 1 0 11:22 10.09.2019
2179 Mist 14 1019 82 10000 1 0 10:57 10.09.2019
2180 Mist 13 1019 87 10000 2.1 300 10:36 10.09.2019
2181 Haze 12 1018 87 10000 1.5 0 10:18 10.09.2019
2182 Mist 12 1018 87 10000 1 0 09:44 10.09.2019
2183 Mist 11 1018 87 10000 1 0 09:20 10.09.2019
2184 Mist 10 1017 93 10000 1.88 315.668 08:49 10.09.2019
2185 Mist 9 1017 87 10000 1.88 315.668 08:29 10.09.2019
2186 Fog 9 1017 100 10000 1 0 07:59 10.09.2019
2187 Fog 9 1016 87 10000 1.5 360 07:41 10.09.2019
2188 Fog 9 1017 100 7000 1 0 07:23 10.09.2019
2189 Fog 9 1016 100 1800 1.88 315.668 06:46 10.09.2019
2190 Fog 9 1015 100 9000 1 210 06:28 10.09.2019
2191 Mist 10 1015 93 10000 0.5 320 04:25 10.09.2019
2192 Fog 11 1014 82 10000 1 0 02:41 10.09.2019
2193 Fog 11 1014 82 10000 1 0 02:21 10.09.2019
2194 Fog 11 1014 82 10000 1 0 02:21 10.09.2019
2195 Fog 11 1014 87 10000 1 70 01:52 10.09.2019
2196 Haze 11 1014 81 10000 0.5 210 01:23 10.09.2019
2197 Clouds 12 1013 76 10000 1.5 140 00:43 10.09.2019
2198 Clouds 12 1013 76 10000 1.5 140 00:23 10.09.2019
2199 Clouds 12 1013 93 10000 1.5 120 23:41 09.09.2019
2200 Clouds 12 1013 93 10000 1.5 120 23:19 09.09.2019
2201 Rain 13 1013 100 10000 1.5 110 22:55 09.09.2019
2202 Rain 13 1013 93 10000 2.1 120 22:37 09.09.2019
2203 Rain 13 1012 82 10000 0.5 10 22:19 09.09.2019
2204 Rain 13 1012 82 10000 0.5 10 21:55 09.09.2019
2205 Rain 13 1012 87 10000 2.1 120 21:37 09.09.2019
2206 Rain 13 1012 87 10000 2.1 120 21:19 09.09.2019
2207 Rain 13 1012 87 10000 1 310 20:55 09.09.2019
2208 Rain 13 1012 82 10000 2.6 150 20:37 09.09.2019
2209 Rain 14 1012 82 10000 2.6 150 20:18 09.09.2019
2210 Rain 14 1012 87 10000 2.1 150 19:56 09.09.2019
2211 Rain 14 1012 87 10000 2.1 150 19:38 09.09.2019
2212 Rain 14 1012 87 10000 2.6 150 19:19 09.09.2019
2213 Rain 14 1012 87 10000 2.6 150 18:56 09.09.2019
2214 Rain 14 1011 77 10000 2.1 120 18:38 09.09.2019
2215 Rain 15 1011 93 10000 3.6 150 18:19 09.09.2019
2216 Rain 15 1011 93 10000 3.6 150 17:56 09.09.2019
2217 Rain 15 1011 82 10000 2.6 150 17:38 09.09.2019
2218 Rain 15 1011 82 10000 2.6 150 17:38 09.09.2019
2219 Rain 15 1011 82 10000 2.6 150 17:20 09.09.2019
2220 Drizzle 14 1011 82 10000 3.1 160 16:55 09.09.2019
2221 Rain 14 1012 82 10000 3.1 170 16:37 09.09.2019
2222 Rain 14 1012 82 10000 3.1 180 16:18 09.09.2019
2223 Rain 14 1012 82 10000 2.6 150 15:43 09.09.2019
2224 Rain 14 1012 82 10000 2.6 150 15:24 09.09.2019
2225 Rain 14 1012 87 10000 3.1 110 14:58 09.09.2019
2226 Rain 14 1012 87 10000 3.6 120 14:40 09.09.2019
2227 Rain 14 1012 87 10000 3.6 120 14:21 09.09.2019
2228 Rain 14 1013 87 8000 2.6 150 13:57 09.09.2019
2229 Rain 14 1013 93 7000 3.1 140 13:39 09.09.2019
2230 Rain 14 1013 93 7000 3.1 140 13:18 09.09.2019
2231 Rain 14 1013 93 10000 5.1 170 12:54 09.09.2019
2232 Rain 14 1013 93 8000 4.1 160 12:36 09.09.2019
2233 Rain 14 1013 82 10000 4.6 190 12:18 09.09.2019
2234 Rain 13 1013 76 10000 4.1 180 11:43 09.09.2019
2235 Rain 13 1013 76 10000 4.1 180 11:20 09.09.2019
2236 Rain 13 1014 76 10000 3.6 200 10:54 09.09.2019
2237 Rain 13 1014 76 10000 2.1 180 10:36 09.09.2019
2238 Drizzle 12 1014 82 10000 2.6 150 10:18 09.09.2019
2239 Rain 12 1014 82 10000 2.6 170 09:46 09.09.2019
2240 Rain 12 1014 82 10000 2.6 170 09:27 09.09.2019
2241 Rain 12 1014 82 10000 3.1 170 08:56 09.09.2019
2242 Rain 11 1014 82 10000 3.1 150 08:38 09.09.2019
2243 Rain 11 1014 82 10000 3.1 150 08:19 09.09.2019
2244 Rain 11 1015 76 10000 2.1 210 07:41 09.09.2019
2245 Rain 11 1015 76 10000 2.1 220 07:20 09.09.2019
2246 Rain 11 1015 76 10000 2.1 220 06:54 09.09.2019
2247 Rain 11 1015 71 10000 2.1 170 06:27 09.09.2019
2248 Rain 11 1018 54 10000 1 0 03:21 09.09.2019
2249 Clouds 11 1018 66 10000 1.5 170 02:42 09.09.2019
2250 Clouds 11 1019 71 10000 1 230 01:25 09.09.2019
2251 Clouds 11 1019 62 10000 3.6 130 00:24 09.09.2019
2252 Clouds 11 1020 62 10000 2.1 190 23:58 08.09.2019
2253 Clouds 11 1019 66 10000 0.79 324.021 23:39 08.09.2019
2254 Clouds 11 1019 66 10000 0.79 324.021 23:21 08.09.2019
2255 Clear 11 1020 71 10000 1.5 200 22:41 08.09.2019
2256 Clear 11 1020 71 10000 1.5 200 22:23 08.09.2019
2257 Clear 12 1021 54 10000 1 0 21:59 08.09.2019
2258 Clear 12 1021 62 10000 1.5 230 21:40 08.09.2019
2259 Clear 13 1021 62 10000 1.5 230 21:22 08.09.2019
2260 Clear 14 1020 44 10000 1.5 0 20:56 08.09.2019
2261 Clear 15 1021 42 10000 1.5 0 20:37 08.09.2019
2262 Clear 15 1021 42 10000 1.5 0 20:37 08.09.2019
2263 Clear 15 1021 39 10000 2.1 300 20:19 08.09.2019
2264 Clear 16 1021 39 10000 2.1 300 19:56 08.09.2019
2265 Clear 16 1021 42 10000 1.5 310 19:37 08.09.2019
2266 Clear 17 1021 44 10000 2.6 300 19:18 08.09.2019
2267 Clear 17 1021 44 10000 2.6 300 18:55 08.09.2019
2268 Clear 17 1021 39 10000 1.5 310 18:37 08.09.2019
2269 Clear 17 1021 39 10000 3.1 340 18:18 08.09.2019
2270 Clear 17 1022 39 10000 2.6 340 17:38 08.09.2019
2271 Clear 17 1022 42 10000 1.5 0 17:19 08.09.2019
2272 Clear 18 1022 42 10000 1.5 0 16:59 08.09.2019
2273 Clouds 18 1022 45 10000 2.6 0 16:40 08.09.2019
2274 Clouds 17 1022 45 10000 2.6 0 16:21 08.09.2019
2275 Clouds 17 1023 42 10000 2.6 0 15:57 08.09.2019
2276 Clouds 17 1023 45 10000 5.1 310 15:39 08.09.2019
2277 Clouds 17 1023 45 10000 5.1 310 15:20 08.09.2019
2278 Clouds 17 1023 51 10000 3.6 360 14:54 08.09.2019
2279 Clouds 16 1023 48 10000 3.1 0 14:36 08.09.2019
2280 Clouds 16 1024 54 10000 3.6 290 14:18 08.09.2019
2281 Clouds 16 1024 54 10000 3.6 290 13:54 08.09.2019
2282 Clouds 16 1024 54 10000 3.1 320 13:36 08.09.2019
2283 Clouds 15 1024 58 10000 3.1 330 13:18 08.09.2019
2284 Clouds 15 1024 51 10000 4.6 360 12:41 08.09.2019
2285 Clouds 14 1024 51 10000 4.6 360 12:23 08.09.2019
2286 Clouds 13 1025 67 10000 2.6 310 11:58 08.09.2019
2287 Clouds 13 1025 71 10000 2.6 290 11:38 08.09.2019
2288 Clouds 13 1025 71 10000 2.6 290 11:38 08.09.2019
2289 Clouds 13 1025 71 10000 2.6 290 11:38 08.09.2019
2290 Clouds 12 1025 71 10000 2.6 290 11:20 08.09.2019
2291 Clouds 12 1025 76 10000 3.1 320 10:56 08.09.2019
2292 Clouds 11 1025 76 10000 2.6 310 10:38 08.09.2019
2293 Clouds 11 1025 76 10000 2.6 310 10:19 08.09.2019
2294 Clouds 9 1025 81 10000 2.1 0 09:38 08.09.2019
2295 Clouds 8 1025 81 10000 2.1 0 09:20 08.09.2019
2296 Clouds 7 1025 87 10000 1.5 0 08:56 08.09.2019
2297 Clouds 7 1025 87 10000 1 0 08:37 08.09.2019
2298 Clouds 6 1025 87 10000 1 0 08:18 08.09.2019
2299 Clouds 6 1025 87 10000 1 0 07:39 08.09.2019
2300 Clouds 6 1025 93 10000 2.6 330 07:20 08.09.2019
2301 Clouds 6 1025 93 10000 2.6 330 06:49 08.09.2019
2302 Clouds 7 1025 81 10000 1.5 0 06:31 08.09.2019
2303 Clear 7 1025 81 10000 2.1 320 05:37 08.09.2019
2304 Clear 8 1025 81 10000 2.1 320 03:56 08.09.2019
2305 Clouds 8 1025 81 10000 1.5 0 02:57 08.09.2019
2306 Clouds 8 1026 81 10000 2.1 340 02:26 08.09.2019
2307 Clouds 9 1026 76 10000 2.1 300 01:49 08.09.2019
2308 Clouds 9 1026 71 10000 2.1 300 01:22 08.09.2019
2309 Clouds 10 1026 71 10000 2.1 350 00:45 08.09.2019
2310 Clouds 10 1026 71 10000 2.1 350 00:26 08.09.2019
2311 Clouds 10 1026 66 10000 1.5 0 23:38 07.09.2019
2312 Clouds 10 1026 66 10000 1.5 0 23:20 07.09.2019
2313 Clear 11 1026 71 10000 3.6 360 22:58 07.09.2019
2314 Clouds 11 1026 58 10000 2.1 10 22:39 07.09.2019
2315 Clear 11 1025 66 10000 4.6 10 22:20 07.09.2019
2316 Clouds 12 1025 54 10000 3.1 50 21:43 07.09.2019
2317 Clouds 13 1025 54 10000 3.1 50 21:25 07.09.2019
2318 Clear 14 1025 62 10000 4.1 20 20:58 07.09.2019
2319 Clear 14 1024 62 10000 5.1 360 20:39 07.09.2019
2320 Clear 15 1024 54 10000 4.6 350 20:20 07.09.2019
2321 Clouds 15 1024 48 10000 3.6 360 19:55 07.09.2019
2322 Clouds 16 1024 48 10000 4.6 350 19:37 07.09.2019
2323 Clouds 16 1024 45 10000 4.6 10 19:19 07.09.2019
2324 Clouds 16 1024 45 10000 4.6 10 18:56 07.09.2019
2325 Clouds 17 1024 54 10000 5.1 360 18:36 07.09.2019
2326 Clouds 17 1024 48 10000 6.2 20 18:18 07.09.2019
2327 Clouds 17 1024 48 10000 6.2 20 18:18 07.09.2019
2328 Clouds 17 1024 48 10000 6.2 20 17:56 07.09.2019
2329 Clouds 17 1024 48 10000 6.2 20 17:56 07.09.2019
2330 Clouds 17 1023 48 10000 5.1 10 17:37 07.09.2019
2331 Clouds 17 1023 48 10000 5.1 10 17:18 07.09.2019
2332 Clouds 17 1023 48 10000 4.6 10 17:18 07.09.2019
2333 Clouds 17 1023 52 10000 4.6 340 16:43 07.09.2019
2334 Clouds 17 1023 52 10000 4.6 340 16:21 07.09.2019
2335 Clouds 17 1023 51 10000 5.1 330 15:57 07.09.2019
2336 Clouds 17 1023 55 10000 5.1 340 15:38 07.09.2019
2337 Clouds 17 1023 55 10000 5.1 340 15:20 07.09.2019
2338 Clouds 17 1023 55 10000 3.1 330 14:55 07.09.2019
2339 Clouds 17 1023 63 10000 4.1 300 14:36 07.09.2019
2340 Clouds 17 1023 63 10000 4.1 300 14:18 07.09.2019
2341 Rain 17 1023 67 10000 3.1 20 13:43 07.09.2019
2342 Clouds 17 1023 67 10000 3.1 20 13:25 07.09.2019
2343 Clouds 17 1023 67 10000 3.1 20 13:25 07.09.2019
2344 Rain 16 1023 67 10000 3.6 330 12:54 07.09.2019
2345 Clouds 16 1023 72 10000 4.6 350 12:36 07.09.2019
2346 Clouds 16 1022 72 10000 4.1 340 12:18 07.09.2019
2347 Clouds 15 1022 72 10000 4.1 350 11:40 07.09.2019
2348 Clouds 15 1022 72 10000 4.1 350 11:21 07.09.2019
2349 Clouds 14 1022 76 10000 4.6 300 10:41 07.09.2019
2350 Clouds 14 1022 76 10000 4.6 300 10:41 07.09.2019
2351 Clouds 14 1022 76 10000 4.6 300 10:22 07.09.2019
2352 Clouds 13 1022 76 10000 3.1 310 09:58 07.09.2019
2353 Clouds 13 1021 76 10000 3.6 290 09:40 07.09.2019
2354 Clouds 12 1022 87 10000 3.1 290 09:21 07.09.2019
2355 Clouds 12 1021 87 10000 3.1 290 08:48 07.09.2019
2356 Clouds 12 1021 81 10000 2.1 310 08:30 07.09.2019
2357 Clouds 11 1021 81 10000 1.5 320 07:48 07.09.2019
2358 Clouds 11 1021 81 10000 1.5 320 07:28 07.09.2019
2359 Clouds 11 1021 81 10000 1.5 0 06:57 07.09.2019
2360 Clouds 11 1021 87 10000 2.6 320 06:39 07.09.2019
2361 Clouds 11 1021 81 10000 2.1 280 05:38 07.09.2019
2362 Clouds 11 1021 87 10000 1.5 290 04:26 07.09.2019
2363 Clouds 11 1021 93 10000 1.5 300 03:27 07.09.2019
2364 Clouds 11 1021 81 10000 0.5 320 02:22 07.09.2019
2365 Clear 11 1020 76 10000 2.1 330 01:27 07.09.2019
2366 Clear 11 1021 82 10000 1.5 300 00:52 07.09.2019
2367 Mist 12 1020 93 10000 1.5 340 00:23 07.09.2019
2368 Clouds 12 1020 76 10000 2.1 300 23:57 06.09.2019
2369 Clouds 12 1020 93 10000 2.1 240 23:37 06.09.2019
2370 Clouds 12 1020 87 10000 1 0 23:19 06.09.2019
2371 Clouds 12 1020 87 10000 1 0 23:18 06.09.2019
2372 Clouds 13 1020 87 10000 1 0 22:55 06.09.2019
2373 Clouds 13 1020 93 10000 1 0 22:36 06.09.2019
2374 Clouds 13 1019 72 10000 1 0 22:18 06.09.2019
2375 Clouds 14 1019 82 10000 2.6 250 21:42 06.09.2019
2376 Clouds 14 1019 82 10000 2.6 250 21:23 06.09.2019
2377 Rain 15 1019 67 10000 2.1 10 20:59 06.09.2019
2378 Rain 15 1019 87 10000 4.1 240 20:40 06.09.2019
2379 Rain 15 1019 87 10000 4.1 240 20:21 06.09.2019
2380 Clouds 16 1019 77 10000 4.1 250 19:58 06.09.2019
2381 Rain 16 1019 82 10000 3.6 320 19:40 06.09.2019
2382 Clouds 17 1018 72 10000 4.6 260 19:21 06.09.2019
2383 Clouds 17 1018 72 10000 4.6 260 18:55 06.09.2019
2384 Rain 17 1018 68 10000 5.1 240 18:37 06.09.2019
2385 Rain 18 1018 72 10000 6.7 240 18:18 06.09.2019
2386 Clouds 17 1019 72 10000 5.1 250 17:39 06.09.2019
2387 Clouds 17 1020 72 10000 5.7 230 17:20 06.09.2019
2388 Rain 17 1020 77 10000 5.7 230 16:43 06.09.2019
2389 Rain 17 1020 77 10000 5.7 230 16:20 06.09.2019
2390 Rain 16 1020 77 10000 6.2 230 15:59 06.09.2019
2391 Rain 16 1021 67 10000 6.2 240 15:41 06.09.2019
2392 Rain 16 1021 67 10000 6.2 240 15:22 06.09.2019
2393 Rain 16 1021 63 10000 7.2 240 14:46 06.09.2019
2394 Clouds 16 1021 63 10000 7.2 240 14:19 06.09.2019
2395 Clouds 17 1021 63 10000 8.2 240 13:44 06.09.2019
2396 Clouds 16 1021 63 10000 8.2 240 13:23 06.09.2019
2397 Clouds 16 1020 67 10000 6.2 250 12:58 06.09.2019
2398 Clouds 16 1022 72 10000 5.7 240 12:37 06.09.2019
2399 Clouds 16 1022 72 10000 5.7 240 12:18 06.09.2019
2400 Clouds 14 1022 72 10000 4.6 210 11:41 06.09.2019
2401 Clouds 14 1022 72 10000 4.6 210 11:23 06.09.2019
2402 Rain 13 1023 72 10000 6.2 240 10:57 06.09.2019
2403 Rain 13 1023 67 10000 5.1 230 10:39 06.09.2019
2404 Clouds 12 1023 71 10000 3.6 0 10:19 06.09.2019
2405 Rain 12 1024 76 10000 4.1 230 09:40 06.09.2019
2406 Rain 11 1024 76 10000 4.1 230 09:20 06.09.2019
2407 Clouds 10 1024 76 10000 4.1 240 08:56 06.09.2019
2408 Clouds 10 1024 81 10000 4.1 230 08:38 06.09.2019
2409 Clouds 10 1024 81 10000 4.6 230 08:20 06.09.2019
2410 Clouds 10 1024 81 10000 4.6 230 08:20 06.09.2019
2411 Clouds 10 1025 76 10000 4.1 230 07:45 06.09.2019
2412 Clouds 9 1025 76 10000 4.1 230 07:26 06.09.2019
2413 Clouds 9 1024 87 10000 3.1 200 06:56 06.09.2019
2414 Clouds 9 1025 71 10000 3.1 250 05:58 06.09.2019
2415 Clouds 9 1025 71 10000 3.6 230 05:27 06.09.2019
2416 Clouds 9 1026 71 10000 3.6 230 04:41 06.09.2019
2417 Clouds 9 1026 81 10000 1 240 03:45 06.09.2019
2418 Clouds 9 1026 81 10000 1 240 03:45 06.09.2019
2419 Clouds 10 1027 76 10000 3.6 270 01:51 06.09.2019
2420 Clouds 10 1026 76 10000 2.1 220 00:38 06.09.2019
2421 Clear 11 1028 71 10000 2.6 220 23:44 05.09.2019
2422 Clear 11 1028 71 10000 2.6 220 23:25 05.09.2019
2423 Clear 12 1028 66 10000 1.5 0 22:56 05.09.2019
2424 Clear 12 1028 66 10000 1.5 0 22:37 05.09.2019
2425 Clear 12 1028 66 10000 1.5 0 22:19 05.09.2019
2426 Clear 13 1028 62 10000 2.6 300 21:56 05.09.2019
2427 Clear 14 1027 62 10000 2.6 290 21:37 05.09.2019
2428 Clear 14 1027 62 10000 3.6 290 21:19 05.09.2019
2429 Clouds 15 1027 51 10000 4.6 300 20:55 05.09.2019
2430 Clear 15 1027 58 10000 1 290 20:36 05.09.2019
2431 Clouds 16 1027 54 10000 4.1 290 20:18 05.09.2019
2432 Clouds 17 1026 48 10000 4.1 300 19:42 05.09.2019
2433 Clouds 17 1026 45 10000 4.1 300 19:23 05.09.2019
2434 Clouds 17 1026 45 10000 4.1 300 18:58 05.09.2019
2435 Clouds 17 1026 45 10000 4.1 300 18:39 05.09.2019
2436 Clouds 17 1026 42 10000 4.6 300 18:20 05.09.2019
2437 Clouds 17 1026 36 10000 4.1 310 17:55 05.09.2019
2438 Clouds 18 1026 36 10000 4.1 310 17:37 05.09.2019
2439 Clouds 18 1026 36 10000 5.1 300 17:18 05.09.2019
2440 Clouds 17 1026 36 10000 5.1 300 16:40 05.09.2019
2441 Clouds 17 1026 42 10000 5.1 320 16:20 05.09.2019
2442 Clouds 17 1026 42 10000 5.1 320 15:58 05.09.2019
2443 Clouds 17 1026 39 10000 5.7 300 15:39 05.09.2019
2444 Clouds 17 1026 39 10000 6.7 300 15:18 05.09.2019
2445 Clouds 17 1026 39 10000 6.7 300 15:18 05.09.2019
2446 Clouds 17 1026 44 10000 5.1 310 14:43 05.09.2019
2447 Clouds 17 1026 44 10000 6.2 300 14:22 05.09.2019
2448 Clouds 17 1026 48 10000 6.2 300 13:44 05.09.2019
2449 Clouds 16 1026 48 10000 6.2 300 13:24 05.09.2019
2450 Clouds 16 1026 58 10000 6.2 290 12:59 05.09.2019
2451 Clouds 16 1025 47 10000 5.7 320 12:41 05.09.2019
2452 Clouds 15 1025 62 10000 2.6 330 12:22 05.09.2019
2453 Clouds 14 1025 58 10000 3.6 330 11:44 05.09.2019
2454 Clouds 14 1025 58 10000 3.6 330 11:20 05.09.2019
2455 Clouds 14 1025 58 10000 3.6 330 10:57 05.09.2019
2456 Clouds 13 1024 54 10000 2.6 330 10:37 05.09.2019
2457 Clouds 13 1024 54 10000 2.6 330 10:37 05.09.2019
2458 Clear 13 1024 62 10000 3.6 0 10:18 05.09.2019
2459 Drizzle 12 1024 66 10000 3.6 310 09:41 05.09.2019
2460 Rain 12 1023 71 10000 4.1 300 09:21 05.09.2019
2461 Rain 12 1023 71 10000 4.1 300 08:56 05.09.2019
2462 Rain 12 1023 76 10000 5.7 300 08:38 05.09.2019
2463 Clouds 12 1022 76 10000 4.6 300 08:19 05.09.2019
2464 Clouds 12 1022 81 10000 3.6 320 07:44 05.09.2019
2465 Clouds 12 1022 81 10000 3.6 320 07:24 05.09.2019
2466 Clouds 12 1021 71 10000 4.1 340 06:46 05.09.2019
2467 Clouds 12 1021 71 10000 4.1 340 06:26 05.09.2019
2468 Rain 12 1020 71 10000 5.7 300 05:46 05.09.2019
2469 Rain 12 1020 71 10000 5.7 300 05:27 05.09.2019
2470 Clouds 12 1019 71 10000 5.7 290 04:41 05.09.2019
2471 Clouds 12 1019 76 10000 6.2 290 04:18 05.09.2019
2472 Clouds 13 1019 71 10000 5.1 300 02:59 05.09.2019
2473 Clouds 13 1019 71 10000 5.1 300 02:59 05.09.2019
2474 Clouds 13 1018 67 10000 6.2 320 02:38 05.09.2019
2475 Clouds 13 1017 72 10000 6.7 290 02:18 05.09.2019
2476 Clear 13 1018 76 10000 5.1 290 00:58 05.09.2019
2477 Clear 14 1017 76 10000 5.7 290 00:40 05.09.2019
2478 Clouds 14 1017 76 10000 7.2 270 00:19 05.09.2019
2479 Clouds 14 1017 82 10000 4.1 260 23:41 04.09.2019
2480 Clouds 14 1017 82 10000 4.1 260 23:41 04.09.2019
2481 Clouds 14 1017 82 10000 4.1 260 23:22 04.09.2019
2482 Rain 15 1016 76 10000 4.6 250 22:49 04.09.2019
2483 Rain 15 1015 63 10000 6.7 250 22:21 04.09.2019
2484 Rain 15 1016 76 10000 4.6 250 21:58 04.09.2019
2485 Rain 16 1015 55 10000 7.2 260 21:38 04.09.2019
2486 Clouds 16 1015 55 10000 6.7 260 21:19 04.09.2019
2487 Clouds 16 1015 55 10000 6.7 260 20:55 04.09.2019
2488 Clear 17 1016 59 10000 4.6 260 20:37 04.09.2019
2489 Clouds 17 1014 51 10000 6.2 260 20:18 04.09.2019
2490 Clouds 18 1014 48 10000 8.7 260 19:43 04.09.2019
2491 Clouds 18 1014 45 10000 9.3 260 19:23 04.09.2019
2492 Clouds 18 1014 42 10000 8.7 270 18:55 04.09.2019
2493 Clouds 19 1014 42 10000 8.7 270 18:36 04.09.2019
2494 Clouds 19 1014 40 10000 8.7 260 18:18 04.09.2019
2495 Clouds 19 1014 45 10000 7.7 280 17:41 04.09.2019
2496 Clouds 19 1014 45 10000 7.7 280 17:22 04.09.2019
2497 Clouds 19 1014 42 10000 8.2 270 16:57 04.09.2019
2498 Clouds 19 1014 42 10000 7.7 270 16:38 04.09.2019
2499 Clouds 19 1014 42 10000 7.7 270 16:19 04.09.2019
2500 Clouds 19 1014 42 10000 9.8 280 15:41 04.09.2019
2501 Rain 19 1014 42 10000 9.8 280 15:22 04.09.2019
2502 Rain 19 1014 42 10000 9.3 280 14:59 04.09.2019
2503 Clouds 19 1014 49 10000 8.2 280 14:39 04.09.2019
2504 Clouds 19 1014 55 10000 9.3 280 14:21 04.09.2019
2505 Clouds 19 1014 55 10000 9.3 280 14:00 04.09.2019
2506 Clouds 19 1014 59 10000 8.2 280 13:39 04.09.2019
2507 Clouds 19 1013 55 10000 6.7 280 13:21 04.09.2019
2508 Clouds 18 1014 64 10000 8.2 270 12:45 04.09.2019
2509 Clouds 18 1014 82 10000 6.2 260 12:26 04.09.2019
2510 Clouds 18 1014 82 10000 6.2 260 12:26 04.09.2019
2511 Clouds 18 1013 77 10000 5.1 280 11:58 04.09.2019
2512 Clouds 17 1014 82 10000 6.2 250 11:39 04.09.2019
2513 Clouds 17 1014 82 10000 6.2 250 11:21 04.09.2019
2514 Clouds 17 1014 82 10000 6.2 250 11:21 04.09.2019
2515 Clouds 17 1014 88 10000 5.1 250 10:57 04.09.2019
2516 Rain 17 1014 93 10000 4.1 240 10:38 04.09.2019
2517 Rain 16 1014 93 10000 4.1 240 10:20 04.09.2019
2518 Rain 16 1014 88 8000 5.1 230 09:46 04.09.2019
2519 Rain 16 1015 100 3500 5.7 220 09:21 04.09.2019
2520 Rain 16 1014 93 8000 4.6 230 08:57 04.09.2019
2521 Rain 15 1014 93 6000 4.1 230 08:38 04.09.2019
2522 Rain 15 1014 93 6000 4.1 220 08:19 04.09.2019
2523 Rain 15 1015 93 5000 4.6 220 07:43 04.09.2019
2524 Rain 15 1014 100 10000 5.7 220 07:24 04.09.2019
2525 Rain 15 1015 93 3900 4.1 220 06:39 04.09.2019
2526 Rain 15 1016 82 10000 4.1 210 04:56 04.09.2019
2527 Rain 15 1016 82 10000 4.6 230 04:25 04.09.2019
2528 Clouds 15 1017 87 10000 4.1 220 03:45 04.09.2019
2529 Clear 16 1020 93 10000 3.1 200 01:22 04.09.2019
2530 Clouds 16 1020 77 10000 3.6 210 00:50 04.09.2019
2531 Clouds 16 1019 72 10000 5.7 210 00:31 04.09.2019
2532 Clouds 16 1022 82 10000 4.6 210 23:54 03.09.2019
2533 Clouds 17 1020 68 10000 4.6 230 23:28 03.09.2019
2534 Clouds 17 1021 68 10000 4.1 230 22:57 03.09.2019
2535 Clouds 17 1022 82 10000 3.6 220 22:39 03.09.2019
2536 Clouds 17 1022 82 10000 3.6 220 22:21 03.09.2019
2537 Clouds 18 1022 77 10000 3.1 220 21:56 03.09.2019
2538 Clouds 18 1022 77 10000 3.1 230 21:36 03.09.2019
2539 Clouds 18 1021 64 10000 5.1 240 21:18 03.09.2019
2540 Clouds 19 1021 68 10000 6.2 250 20:42 03.09.2019
2541 Clouds 19 1021 68 10000 6.2 250 20:24 03.09.2019
2542 Clouds 19 1021 68 10000 6.2 250 20:24 03.09.2019
2543 Clouds 19 1021 60 10000 4.1 240 19:56 03.09.2019
2544 Clouds 19 1021 64 10000 4.6 240 19:38 03.09.2019
2545 Clouds 19 1021 64 10000 5.7 240 19:18 03.09.2019
2546 Clouds 20 1021 64 10000 6.2 250 18:45 03.09.2019
2547 Clouds 20 1021 64 10000 6.2 250 18:27 03.09.2019
2548 Clouds 20 1021 60 10000 6.2 240 17:59 03.09.2019
2549 Clouds 20 1022 56 10000 5.7 240 17:40 03.09.2019
2550 Clouds 21 1022 52 10000 6.2 250 17:19 03.09.2019
2551 Clouds 21 1022 52 10000 6.2 250 16:58 03.09.2019
2552 Clouds 21 1022 52 10000 5.7 250 16:38 03.09.2019
2553 Clouds 21 1023 52 10000 5.1 240 16:19 03.09.2019
2554 Clouds 20 1023 52 10000 6.7 260 15:41 03.09.2019
2555 Clouds 20 1023 52 10000 6.7 260 15:21 03.09.2019
2556 Clouds 20 1023 49 10000 5.1 260 14:58 03.09.2019
2557 Clouds 20 1023 52 10000 6.2 250 14:40 03.09.2019
2558 Clouds 20 1023 55 10000 5.1 280 14:20 03.09.2019
2559 Rain 19 1023 55 10000 5.1 280 13:57 03.09.2019
2560 Rain 19 1023 55 10000 5.1 280 13:57 03.09.2019
2561 Clouds 19 1023 59 10000 4.6 240 13:37 03.09.2019
2562 Clouds 19 1023 59 10000 4.6 240 13:37 03.09.2019
2563 Clouds 19 1024 59 10000 4.6 260 13:19 03.09.2019
2564 Clouds 19 1024 59 10000 4.6 260 13:19 03.09.2019
2565 Clouds 19 1024 59 10000 4.6 260 13:19 03.09.2019
2566 Clouds 19 1024 59 10000 4.6 260 12:55 03.09.2019
2567 Clouds 19 1024 59 10000 4.6 260 12:55 03.09.2019
2568 Clouds 18 1024 59 10000 5.7 250 12:37 03.09.2019
2569 Clouds 18 1024 59 10000 5.1 250 12:19 03.09.2019
2570 Clouds 18 1024 63 10000 5.1 240 11:39 03.09.2019
2571 Clouds 18 1024 63 10000 5.1 240 11:39 03.09.2019
2572 Clouds 18 1024 63 10000 5.1 240 11:21 03.09.2019
2573 Clouds 17 1024 67 10000 5.1 240 10:56 03.09.2019
2574 Rain 17 1024 67 10000 5.1 240 10:38 03.09.2019
2575 Clouds 16 1024 67 10000 5.7 250 10:19 03.09.2019
2576 Clouds 16 1023 67 10000 5.7 250 09:44 03.09.2019
2577 Clouds 15 1024 82 10000 3.6 240 09:25 03.09.2019
2578 Rain 15 1024 82 10000 3.6 230 08:54 03.09.2019
2579 Drizzle 15 1023 72 10000 5.1 240 08:36 03.09.2019
2580 Clouds 15 1023 77 10000 3.6 240 08:18 03.09.2019
2581 Clouds 15 1022 82 10000 4.1 240 07:40 03.09.2019
2582 Clouds 15 1022 82 10000 4.6 240 07:21 03.09.2019
2583 Clouds 15 1023 72 10000 3.6 230 06:44 03.09.2019
2584 Clouds 15 1022 82 10000 3.1 240 05:53 03.09.2019
2585 Clouds 15 1023 72 10000 5.7 260 03:36 03.09.2019
2586 Clouds 15 1023 72 10000 3.1 250 02:44 03.09.2019
2587 Clouds 15 1023 72 10000 3.1 250 02:23 03.09.2019
2588 Clouds 15 1023 72 10000 5.1 250 01:49 03.09.2019
2589 Clouds 15 1023 72 10000 5.1 250 01:29 03.09.2019
2590 Clouds 16 1024 82 10000 3.1 230 00:40 03.09.2019
2591 Clouds 16 1023 67 10000 5.1 260 00:20 03.09.2019
2592 Clouds 16 1023 63 10000 5.7 240 23:40 02.09.2019
2593 Clouds 16 1023 63 10000 5.7 240 23:40 02.09.2019
2594 Clouds 16 1023 63 10000 5.7 240 23:20 02.09.2019
2595 Clear 16 1024 77 10000 4.1 230 22:56 02.09.2019
2596 Clear 16 1024 77 10000 3.6 230 22:38 02.09.2019
2597 Clear 17 1024 77 10000 3.6 230 22:19 02.09.2019
2598 Clear 17 1023 72 10000 4.1 220 21:56 02.09.2019
2599 Clouds 17 1022 59 10000 5.1 250 21:38 02.09.2019
2600 Clouds 17 1023 67 10000 3.6 240 21:20 02.09.2019
2601 Clouds 17 1023 67 10000 3.6 240 21:20 02.09.2019
2602 Clouds 18 1023 67 10000 3.6 240 20:57 02.09.2019
2603 Clouds 18 1022 63 10000 5.1 240 20:39 02.09.2019
2604 Clouds 18 1022 52 10000 6.2 250 20:18 02.09.2019
2605 Clouds 19 1022 52 10000 6.2 250 19:55 02.09.2019
2606 Clouds 19 1022 52 10000 6.2 250 19:55 02.09.2019
2607 Clouds 19 1022 52 10000 4.6 240 19:37 02.09.2019
2608 Clouds 19 1023 67 10000 3.6 230 19:19 02.09.2019
2609 Clouds 19 1022 46 10000 6.2 250 18:39 02.09.2019
2610 Clouds 20 1023 46 10000 6.2 220 18:21 02.09.2019
2611 Clouds 20 1023 46 10000 6.2 220 17:57 02.09.2019
2612 Clear 20 1024 52 10000 4.6 250 17:39 02.09.2019
2613 Clouds 20 1023 40 10000 6.2 230 17:19 02.09.2019
2614 Clouds 20 1023 43 10000 5.1 250 16:42 02.09.2019
2615 Clouds 21 1023 43 10000 5.1 250 16:23 02.09.2019
2616 Clouds 21 1023 40 10000 5.7 240 15:59 02.09.2019
2617 Clouds 21 1023 40 10000 5.1 240 15:41 02.09.2019
2618 Clouds 21 1024 45 10000 5.7 260 15:21 02.09.2019
2619 Clouds 21 1024 45 10000 5.7 260 14:56 02.09.2019
2620 Clouds 21 1024 43 10000 5.7 240 14:37 02.09.2019
2621 Clouds 20 1024 43 10000 5.7 240 14:19 02.09.2019
2622 Clouds 20 1023 48 10000 4.6 250 13:44 02.09.2019
2623 Clouds 20 1023 48 10000 4.6 250 13:25 02.09.2019
2624 Clouds 20 1023 48 10000 4.6 250 13:25 02.09.2019
2625 Clouds 19 1025 59 10000 4.1 240 12:56 02.09.2019
2626 Clouds 19 1024 55 10000 4.6 270 12:38 02.09.2019
2627 Clouds 18 1024 59 10000 4.6 250 12:18 02.09.2019
2628 Clouds 17 1024 59 10000 4.6 250 11:55 02.09.2019
2629 Clouds 17 1024 63 10000 4.1 250 11:36 02.09.2019
2630 Clouds 16 1024 63 10000 4.1 250 11:18 02.09.2019
2631 Clouds 15 1024 62 10000 4.1 230 10:42 02.09.2019
2632 Clouds 14 1024 62 10000 4.1 230 10:22 02.09.2019
2633 Clouds 13 1024 62 10000 3.6 230 09:58 02.09.2019
2634 Clouds 13 1024 62 10000 3.6 230 09:58 02.09.2019
2635 Clouds 12 1024 66 10000 4.6 220 09:38 02.09.2019
2636 Clouds 11 1024 66 10000 3.6 240 09:20 02.09.2019
2637 Clouds 9 1024 71 10000 3.1 230 08:43 02.09.2019
2638 Clouds 9 1023 71 10000 3.1 230 08:22 02.09.2019
2639 Clouds 8 1023 71 10000 3.1 230 07:57 02.09.2019
2640 Clouds 8 1023 87 10000 2.1 200 07:37 02.09.2019
2641 Clouds 8 1023 71 10000 3.1 230 07:19 02.09.2019
2642 Clouds 8 1023 71 10000 3.1 230 06:42 02.09.2019
2643 Clear 8 1022 87 10000 2.1 210 05:53 02.09.2019
2644 Clear 8 1022 87 10000 2.1 210 05:53 02.09.2019
2645 Clear 8 1022 87 10000 2.1 210 05:53 02.09.2019
2646 Clear 8 1023 87 10000 0.5 110 05:25 02.09.2019
2647 Clear 8 1023 81 10000 0.5 290 04:48 02.09.2019
2648 Clear 10 1023 71 10000 3.1 280 02:20 02.09.2019
2649 Clear 10 1023 71 10000 3.1 280 01:37 02.09.2019
2650 Clear 10 1023 71 10000 3.1 280 01:37 02.09.2019
2651 Clear 11 1022 54 10000 2.1 290 00:42 02.09.2019
2652 Thunderstorm 12 1022 51 10000 3.1 290 00:20 02.09.2019
2653 Clear 12 1022 54 10000 2.1 290 23:39 01.09.2019
2654 Clear 12 1022 54 10000 2.1 290 23:19 01.09.2019
2655 Clear 13 1021 50 10000 2.6 290 22:56 01.09.2019
2656 Clear 13 1021 50 10000 3.1 290 22:38 01.09.2019
2657 Clear 14 1021 47 10000 3.6 310 22:18 01.09.2019
2658 Clear 14 1021 47 10000 3.6 310 21:54 01.09.2019
2659 Clear 15 1020 42 10000 5.1 290 21:36 01.09.2019
2660 Clear 16 1020 48 10000 4.6 310 21:18 01.09.2019
2661 Clear 16 1020 48 10000 4.6 310 20:54 01.09.2019
2662 Clouds 17 1019 37 10000 6.7 300 20:36 01.09.2019
2663 Clouds 17 1019 42 10000 6.2 290 20:18 01.09.2019
2664 Clouds 18 1019 39 10000 5.1 300 19:40 01.09.2019
2665 Clouds 19 1018 37 10000 6.2 290 19:21 01.09.2019
2666 Clouds 19 1018 37 10000 6.2 290 19:21 01.09.2019
2667 Clouds 19 1018 40 10000 5.1 290 18:49 01.09.2019
2668 Clouds 19 1018 40 10000 5.1 290 18:30 01.09.2019
2669 Rain 19 1018 40 10000 5.7 300 17:59 01.09.2019
2670 Rain 19 1017 37 10000 5.7 260 17:40 01.09.2019
2671 Rain 19 1017 37 10000 5.7 260 17:22 01.09.2019
2672 Rain 19 1017 35 10000 6.7 270 16:58 01.09.2019
2673 Rain 19 1017 40 10000 4.6 290 16:38 01.09.2019
2674 Rain 19 1017 45 10000 5.1 290 16:18 01.09.2019
2675 Rain 19 1017 42 10000 5.1 280 15:42 01.09.2019
2676 Clear 19 1017 42 10000 5.1 280 15:24 01.09.2019
2677 Clear 19 1017 42 10000 5.1 270 14:45 01.09.2019
2678 Clear 19 1017 42 10000 5.1 270 14:27 01.09.2019
2679 Clouds 19 1017 45 10000 4.6 250 13:59 01.09.2019
2680 Clouds 19 1017 52 10000 3.6 260 13:41 01.09.2019
2681 Clouds 19 1017 52 10000 3.6 260 13:23 01.09.2019
2682 Clouds 18 1017 51 10000 4.1 280 12:45 01.09.2019
2683 Clouds 18 1017 51 10000 4.1 280 12:26 01.09.2019
2684 Clouds 17 1017 55 10000 3.6 260 11:59 01.09.2019
2685 Clouds 17 1017 59 10000 3.1 270 11:39 01.09.2019
2686 Clouds 16 1017 63 10000 3.6 270 11:19 01.09.2019
2687 Clouds 15 1017 63 10000 3.6 280 10:45 01.09.2019
2688 Clouds 15 1017 63 10000 3.6 280 10:23 01.09.2019
2689 Clouds 14 1017 67 10000 3.1 280 09:56 01.09.2019
2690 Clouds 13 1016 71 10000 2.6 260 09:38 01.09.2019
2691 Clouds 12 1016 71 10000 2.6 260 09:19 01.09.2019
2692 Clouds 11 1016 71 10000 2.6 270 08:42 01.09.2019
2693 Clouds 11 1016 71 10000 2.6 270 08:21 01.09.2019
2694 Clear 11 1015 87 10000 1.5 310 07:46 01.09.2019
2695 Clear 11 1015 87 10000 1.5 310 07:22 01.09.2019
2696 Clear 11 1015 93 10000 2.1 220 06:39 01.09.2019
2697 Clouds 11 1015 93 10000 2.6 280 05:59 01.09.2019
2698 Clouds 11 1015 93 10000 2.6 280 05:59 01.09.2019
2699 Clouds 11 1015 87 10000 2.1 290 05:27 01.09.2019
2700 Clouds 12 1015 76 10000 3.6 280 04:22 01.09.2019
2701 Clouds 12 1014 76 10000 3.07 278.959 03:38 01.09.2019
2702 Clouds 12 1015 76 10000 4.1 270 02:52 01.09.2019
2703 -273 0 0 0 0 0 02:25 01.09.2019
2704 Clouds 12 1014 81 10000 1.5 270 01:40 01.09.2019
2705 Clouds 13 1014 81 10000 1.5 250 01:21 01.09.2019
2706 Clear 13 1014 87 10000 3.1 270 00:42 01.09.2019
2707 Clear 13 1014 87 10000 3.1 270 00:21 01.09.2019
2708 Clouds 14 1013 71 10000 2.1 290 23:47 31.08.2019
2709 Clear 14 1013 76 10000 3.1 250 23:21 31.08.2019
2710 Clear 15 1013 76 10000 3.1 250 22:56 31.08.2019
2711 Clear 14 1013 76 10000 3.1 250 22:56 31.08.2019
2712 Clear 15 1013 76 10000 3.1 240 22:38 31.08.2019
2713 Clouds 15 1011 68 10000 3.1 250 22:20 31.08.2019
2714 Clouds 16 1011 68 10000 3.1 250 21:55 31.08.2019
2715 Clouds 16 1011 72 10000 3.6 240 21:37 31.08.2019
2716 Rain 17 1011 68 10000 4.1 250 21:18 31.08.2019
2717 Rain 17 1011 68 10000 4.6 240 20:43 31.08.2019
2718 Rain 18 1011 68 10000 4.6 240 20:24 31.08.2019
2719 Clouds 18 1010 72 10000 3.6 260 19:47 31.08.2019
2720 Clouds 18 1010 72 10000 3.6 260 19:23 31.08.2019
2721 Rain 18 1010 72 10000 3.6 260 18:59 31.08.2019
2722 Rain 18 1010 77 10000 7.2 280 18:39 31.08.2019
2723 Drizzle 19 1010 72 10000 5.1 230 18:19 31.08.2019
2724 Rain 19 1009 56 10000 6.2 240 17:55 31.08.2019
2725 Rain 19 1009 56 10000 6.2 240 17:37 31.08.2019
2726 Drizzle 20 1009 53 10000 7.2 240 17:18 31.08.2019
2727 Clouds 21 1009 53 10000 7.2 240 16:55 31.08.2019
2728 Clouds 21 1009 46 10000 7.2 250 16:37 31.08.2019
2729 Clouds 21 1009 47 10000 5.7 240 16:18 31.08.2019
2730 Clouds 22 1009 47 10000 5.1 220 15:42 31.08.2019
2731 Clouds 22 1009 47 10000 5.1 220 15:19 31.08.2019
2732 Clouds 23 1009 53 10000 5.7 200 14:56 31.08.2019
2733 Clouds 23 1010 56 10000 5.7 240 14:37 31.08.2019
2734 Clouds 23 1010 56 10000 5.7 240 14:19 31.08.2019
2735 Clouds 23 1010 56 10000 5.7 240 14:19 31.08.2019
2736 Clouds 22 1010 49 10000 5.7 210 13:40 31.08.2019
2737 Clouds 21 1011 60 10000 4.6 250 13:22 31.08.2019
2738 Clouds 21 1011 60 10000 4.6 250 12:58 31.08.2019
2739 Clouds 20 1011 64 10000 4.6 240 12:38 31.08.2019
2740 Clouds 20 1012 64 10000 4.6 250 12:19 31.08.2019
2741 Clouds 20 1012 64 10000 4.6 250 12:19 31.08.2019
2742 Clouds 19 1012 64 10000 5.1 260 11:48 31.08.2019
2743 Clouds 19 1012 64 10000 5.1 260 11:29 31.08.2019
2744 Clouds 18 1012 68 10000 1.5 0 10:59 31.08.2019
2745 Clouds 17 1012 77 10000 2.1 210 10:41 31.08.2019
2746 Fog 17 1012 82 10000 1.5 0 10:19 31.08.2019
2747 Fog 16 1012 82 10000 1.5 0 09:55 31.08.2019
2748 Fog 15 1013 87 10000 2.1 230 09:37 31.08.2019
2749 Fog 14 1013 82 10000 1.5 0 09:19 31.08.2019
2750 Fog 13 1013 87 10000 1.5 0 08:42 31.08.2019
2751 Fog 13 1013 87 10000 1.5 0 08:22 31.08.2019
2752 Fog 12 1014 87 10000 1.5 210 07:40 31.08.2019
2753 Fog 12 1014 87 10000 1.5 210 07:21 31.08.2019
2754 Mist 12 1014 87 10000 1.5 230 06:28 31.08.2019
2755 Clouds 13 1014 93 10000 3.6 200 05:59 31.08.2019
2756 Clouds 13 1015 82 10000 0.5 0 05:32 31.08.2019
2757 Clouds 13 1015 82 10000 1.5 0 04:34 31.08.2019
2758 Clouds 13 1016 82 10000 1.5 130 03:45 31.08.2019
2759 Clouds 14 1017 77 10000 2.1 200 02:36 31.08.2019
2760 Clouds 14 1017 77 10000 3.1 200 01:53 31.08.2019
2761 Clouds 14 1017 77 10000 3.1 200 01:33 31.08.2019
2762 Clear 14 1017 82 10000 3.1 190 00:50 31.08.2019
2763 Clear 14 1017 82 10000 3.1 190 00:50 31.08.2019
2764 Clouds 14 1018 77 10000 2.6 200 00:30 31.08.2019
2765 Clouds 15 1018 77 10000 3.1 200 23:57 30.08.2019
2766 Clouds 15 1018 77 10000 3.1 200 23:57 30.08.2019
2767 Clouds 15 1018 68 10000 4.1 200 23:38 30.08.2019
2768 Clear 15 1019 87 10000 5.1 190 23:18 30.08.2019
2769 Clear 16 1019 82 10000 4.1 200 22:42 30.08.2019
2770 Clear 16 1019 82 10000 4.1 200 22:22 30.08.2019
2771 Clouds 17 1018 72 10000 3.6 200 21:58 30.08.2019
2772 Clear 17 1019 77 10000 3.6 190 21:38 30.08.2019
2773 Clouds 19 1018 60 10000 5.1 210 21:19 30.08.2019
2774 Clouds 19 1018 60 10000 5.1 210 20:59 30.08.2019
2775 Clear 19 1020 68 10000 4.6 210 20:40 30.08.2019
2776 Clouds 20 1019 56 10000 5.1 210 20:20 30.08.2019
2777 Clouds 20 1019 56 10000 5.1 210 19:58 30.08.2019
2778 Clouds 21 1019 56 10000 5.1 210 19:39 30.08.2019
2779 Clouds 21 1019 53 10000 5.1 220 19:19 30.08.2019
2780 Clouds 22 1019 53 10000 4.6 210 18:55 30.08.2019
2781 Clouds 22 1019 53 10000 4.6 210 18:37 30.08.2019
2782 Clouds 22 1019 53 10000 4.6 210 18:37 30.08.2019
2783 Clouds 22 1019 53 10000 5.1 210 18:18 30.08.2019
2784 Clouds 23 1019 53 10000 5.1 210 17:55 30.08.2019
2785 Clouds 23 1019 53 10000 5.1 210 17:55 30.08.2019
2786 Clouds 23 1020 50 10000 5.1 220 17:37 30.08.2019
2787 Clouds 23 1020 47 10000 5.7 200 17:18 30.08.2019
2788 Clouds 23 1020 50 10000 5.1 210 16:43 30.08.2019
2789 Clouds 23 1020 50 10000 5.1 210 16:22 30.08.2019
2790 Clouds 24 1021 49 10000 4.6 210 15:45 30.08.2019
2791 Clouds 24 1021 49 10000 4.6 210 15:45 30.08.2019
2792 Clouds 23 1021 49 10000 6.2 230 15:25 30.08.2019
2793 Clouds 23 1021 49 10000 6.2 230 14:58 30.08.2019
2794 Clouds 23 1021 49 10000 5.7 220 14:40 30.08.2019
2795 Clouds 22 1021 49 10000 5.7 220 14:22 30.08.2019
2796 Clouds 22 1021 56 10000 4.6 240 13:43 30.08.2019
2797 Clouds 21 1022 60 10000 6.2 240 13:23 30.08.2019
2798 Clouds 21 1022 60 10000 6.2 240 12:58 30.08.2019
2799 Clouds 20 1021 60 10000 7.7 230 12:40 30.08.2019
2800 Clouds 20 1021 64 10000 5.7 240 12:21 30.08.2019
2801 Clouds 20 1021 60 10000 5.7 230 12:21 30.08.2019
2802 Clouds 20 1021 68 10000 5.1 230 11:42 30.08.2019
2803 Clouds 19 1022 68 10000 5.7 230 11:24 30.08.2019
2804 Clouds 18 1022 72 10000 4.6 230 10:42 30.08.2019
2805 Clouds 17 1022 72 10000 4.6 230 10:23 30.08.2019
2806 Clouds 17 1021 72 10000 3.1 230 09:58 30.08.2019
2807 Clouds 16 1021 77 10000 3.1 220 09:40 30.08.2019
2808 Clouds 15 1021 77 10000 3.1 220 09:19 30.08.2019
2809 Clouds 15 1022 77 10000 2.6 230 08:56 30.08.2019
2810 Clear 14 1022 100 10000 4.6 210 08:38 30.08.2019
2811 Clear 14 1022 100 10000 4.6 210 08:20 30.08.2019
2812 Fog 13 1022 87 10000 2.6 230 07:40 30.08.2019
2813 Fog 13 1022 87 10000 2.6 230 07:21 30.08.2019
2814 Clouds 13 1021 100 10000 3.1 200 06:47 30.08.2019
2815 Clouds 13 1021 100 10000 3.1 200 06:28 30.08.2019
2816 Clouds 13 1021 93 10000 1.5 200 05:46 30.08.2019
2817 Clouds 13 1022 93 10000 3.6 230 04:20 30.08.2019
2818 Clouds 13 1021 87 10000 1.5 220 03:38 30.08.2019
2819 Clouds 13 1021 87 10000 1.5 220 03:38 30.08.2019
2820 Clouds 13 1022 82 10000 4.1 230 03:18 30.08.2019
2821 Clouds 13 1022 82 10000 4.1 230 03:18 30.08.2019
2822 Clouds 14 1021 87 10000 2.6 220 02:29 30.08.2019
2823 Clouds 14 1022 77 10000 3.6 230 01:30 30.08.2019
2824 Clouds 15 1022 77 10000 3.6 230 00:45 30.08.2019
2825 Clouds 15 1021 72 10000 3.6 220 00:18 30.08.2019
2826 Clouds 16 1021 72 10000 3.6 230 23:41 29.08.2019
2827 Clouds 16 1021 72 10000 3.6 230 23:21 29.08.2019
2828 Clear 16 1022 82 10000 4.1 210 22:44 29.08.2019
2829 Clear 16 1022 82 10000 4.1 210 22:26 29.08.2019
2830 Clear 17 1021 77 10000 4.6 210 21:57 29.08.2019
2831 Clear 17 1021 77 10000 4.1 210 21:39 29.08.2019
2832 Clouds 18 1020 60 10000 4.1 240 21:21 29.08.2019
2833 Clouds 18 1020 60 10000 5.1 230 21:21 29.08.2019
2834 Clouds 18 1020 60 10000 5.1 230 21:21 29.08.2019
2835 Clouds 19 1020 56 10000 5.7 250 20:56 29.08.2019
2836 Clouds 19 1020 56 10000 5.7 250 20:37 29.08.2019
2837 Clouds 19 1020 49 10000 6.2 230 20:18 29.08.2019
2838 Clouds 20 1020 46 10000 5.1 240 19:46 29.08.2019
2839 Clouds 21 1020 46 10000 5.1 240 19:25 29.08.2019
2840 Clouds 21 1020 43 10000 4.6 250 18:54 29.08.2019
2841 Clouds 21 1020 40 10000 5.7 250 18:36 29.08.2019
2842 Clouds 21 1020 40 10000 5.7 250 18:18 29.08.2019
2843 Clouds 22 1020 38 10000 5.7 240 17:54 29.08.2019
2844 Clouds 22 1020 40 10000 5.7 240 17:36 29.08.2019
2845 Clouds 22 1020 40 10000 5.7 240 17:18 29.08.2019
2846 Clouds 22 1020 40 10000 6.2 230 16:41 29.08.2019
2847 Clouds 22 1020 38 10000 4.6 260 16:22 29.08.2019
2848 Clouds 23 1020 43 10000 5.7 230 15:41 29.08.2019
2849 Clouds 22 1020 43 10000 5.7 230 15:21 29.08.2019
2850 Clouds 22 1020 43 10000 4.6 230 14:58 29.08.2019
2851 Clouds 22 1020 46 10000 5.1 260 14:40 29.08.2019
2852 Clouds 22 1020 46 10000 4.1 230 14:20 29.08.2019
2853 Clouds 22 1020 46 10000 4.1 230 13:57 29.08.2019
2854 Clouds 21 1020 46 10000 3.6 240 13:38 29.08.2019
2855 Clouds 21 1020 45 10000 3.6 230 13:18 29.08.2019
2856 Clouds 20 1020 45 10000 3.6 230 12:56 29.08.2019
2857 Clouds 20 1020 55 10000 3.1 240 12:38 29.08.2019
2858 Clouds 19 1020 55 10000 3.1 210 12:19 29.08.2019
2859 Clouds 18 1020 63 10000 4.1 240 11:42 29.08.2019
2860 Clouds 17 1020 63 10000 4.1 240 11:21 29.08.2019
2861 Clouds 17 1020 67 10000 3.1 230 10:57 29.08.2019
2862 Clouds 16 1019 67 10000 3.1 230 10:38 29.08.2019
2863 Clouds 15 1019 67 10000 3.1 230 10:20 29.08.2019
2864 Clouds 14 1019 72 10000 3.6 290 09:41 29.08.2019
2865 Clouds 14 1019 72 10000 3.6 290 09:41 29.08.2019
2866 Clouds 13 1019 77 10000 2.6 290 09:19 29.08.2019
2867 Clouds 12 1019 77 10000 2.6 290 08:56 29.08.2019
2868 Clouds 12 1018 77 10000 3.6 290 08:36 29.08.2019
2869 Clouds 12 1018 77 10000 3.6 290 08:18 29.08.2019
2870 Clouds 12 1017 77 10000 5.1 280 07:41 29.08.2019
2871 Clouds 12 1017 77 10000 5.1 280 07:23 29.08.2019
2872 Clouds 13 1017 77 10000 4.1 290 06:41 29.08.2019
2873 Clouds 13 1016 82 10000 5.1 290 05:54 29.08.2019
2874 Clouds 13 1016 82 10000 4.1 290 05:34 29.08.2019
2875 Clouds 14 1016 82 10000 4.6 290 04:50 29.08.2019
2876 Drizzle 14 1016 87 10000 5.7 300 04:28 29.08.2019
2877 Rain 16 1015 77 10000 4.1 220 02:27 29.08.2019
2878 Rain 16 1015 82 10000 2.6 210 01:41 29.08.2019
2879 Rain 17 1015 77 10000 4.1 230 00:56 29.08.2019
2880 Rain 17 1015 77 10000 4.1 230 00:37 29.08.2019
2881 Drizzle 17 1015 72 10000 3.6 220 00:18 29.08.2019
2882 Clouds 18 1014 68 10000 5.1 230 23:41 28.08.2019
2883 Clouds 18 1014 68 10000 4.6 230 23:23 28.08.2019
2884 Clouds 18 1014 68 10000 4.6 230 22:58 28.08.2019
2885 Rain 18 1015 87 10000 4.1 210 22:38 28.08.2019
2886 Clear 18 1015 82 10000 4.1 210 22:18 28.08.2019
2887 Clouds 18 1014 68 10000 4.6 230 21:57 28.08.2019
2888 Rain 18 1014 68 10000 4.6 220 21:38 28.08.2019
2889 Rain 18 1014 68 10000 4.6 220 21:20 28.08.2019
2890 Clouds 19 1013 64 10000 5.7 220 20:41 28.08.2019
2891 Clouds 19 1013 64 10000 5.7 220 20:22 28.08.2019
2892 Rain 19 1013 60 10000 4.6 230 19:55 28.08.2019
2893 Rain 20 1013 64 10000 5.7 210 19:37 28.08.2019
2894 Rain 20 1013 64 10000 5.7 200 19:18 28.08.2019
2895 Rain 21 1013 53 10000 5.7 230 18:42 28.08.2019
2896 Rain 21 1013 60 10000 6.2 220 18:21 28.08.2019
2897 Rain 22 1013 60 10000 6.2 220 17:55 28.08.2019
2898 Rain 22 1013 41 10000 5.7 230 17:37 28.08.2019
2899 Clouds 23 1013 39 10000 5.1 220 17:19 28.08.2019
2900 Rain 24 1013 41 10000 5.1 250 16:42 28.08.2019
2901 Clouds 24 1013 44 10000 5.1 250 16:19 28.08.2019
2902 Clouds 24 1013 44 10000 5.1 250 15:58 28.08.2019
2903 Clouds 24 1013 44 10000 5.1 240 15:37 28.08.2019
2904 Clouds 24 1013 44 10000 5.1 240 15:18 28.08.2019
2905 Clouds 24 1013 44 10000 5.1 240 14:56 28.08.2019
2906 Clouds 24 1013 53 10000 4.1 230 14:37 28.08.2019
2907 Clouds 24 1013 53 10000 4.1 220 14:19 28.08.2019
2908 Clouds 24 1013 56 10000 4.6 210 13:56 28.08.2019
2909 Clouds 23 1013 56 10000 4.6 210 13:36 28.08.2019
2910 Clouds 23 1013 64 10000 5.1 200 13:18 28.08.2019
2911 Drizzle 22 1014 64 10000 3.1 0 12:41 28.08.2019
2912 Rain 21 1014 68 10000 3.1 230 12:23 28.08.2019
2913 Rain 20 1014 68 10000 3.6 230 11:41 28.08.2019
2914 Rain 20 1014 68 10000 3.6 230 11:23 28.08.2019
2915 Rain 19 1014 73 10000 4.1 250 10:59 28.08.2019
2916 Rain 19 1013 77 10000 3.6 230 10:41 28.08.2019
2917 Rain 18 1013 82 10000 2.6 0 10:20 28.08.2019
2918 Rain 18 1013 82 10000 2.6 0 09:56 28.08.2019
2919 Rain 18 1013 82 10000 3.1 240 09:37 28.08.2019
2920 Rain 18 1013 88 10000 2.6 250 09:18 28.08.2019
2921 Rain 18 1013 88 10000 2.1 230 08:38 28.08.2019
2922 Rain 17 1013 88 10000 2.1 230 08:20 28.08.2019
2923 Rain 17 1013 88 10000 1.5 200 07:39 28.08.2019
2924 Rain 18 1013 88 10000 1.5 0 07:20 28.08.2019
2925 Rain 18 1013 88 10000 1.5 0 06:51 28.08.2019
2926 Rain 18 1013 88 10000 1 270 06:31 28.08.2019
2927 Rain 18 1013 88 10000 1.5 270 05:29 28.08.2019
2928 Rain 20 1013 68 10000 2.6 290 02:46 28.08.2019
2929 Rain 20 1013 68 10000 1.5 260 01:32 28.08.2019
2930 Rain 20 1013 77 10000 1.5 250 00:55 28.08.2019
2931 Clouds 20 1013 82 10000 1.5 270 00:35 28.08.2019
2932 Clear 21 1014 77 10000 3.1 220 23:58 27.08.2019
2933 Clear 21 1014 73 10000 3.6 200 23:39 27.08.2019
2934 Clear 21 1014 73 10000 3.6 200 23:20 27.08.2019
2935 Clear 22 1014 68 10000 3.6 210 22:42 27.08.2019
2936 Clear 22 1014 68 10000 3.6 210 22:23 27.08.2019
2937 Clear 23 1014 64 10000 3.1 220 21:57 27.08.2019
2938 Clear 24 1013 64 10000 3.6 220 21:39 27.08.2019
2939 Thunderstorm 24 1013 53 10000 3.6 180 21:21 27.08.2019
2940 Thunderstorm 25 1013 53 10000 3.6 180 20:59 27.08.2019
2941 Thunderstorm 26 1012 57 10000 5.7 280 20:40 27.08.2019
2942 Thunderstorm 27 1013 47 10000 4.6 170 20:20 27.08.2019
2943 Clouds 28 1012 33 10000 4.1 170 19:56 27.08.2019
2944 Clouds 28 1012 33 10000 4.1 170 19:38 27.08.2019
2945 Clouds 29 1012 38 10000 4.1 170 19:20 27.08.2019
2946 Clouds 30 1012 35 10000 4.1 160 18:42 27.08.2019
2947 Clear 30 1012 35 10000 4.1 170 18:19 27.08.2019
2948 Clear 31 1012 38 10000 3.6 170 17:56 27.08.2019
2949 Clear 31 1012 38 10000 3.6 170 17:38 27.08.2019
2950 Clear 31 1012 36 10000 3.1 160 17:19 27.08.2019
2951 Clear 31 1013 38 10000 2.6 0 16:47 27.08.2019
2952 Clear 32 1013 35 10000 2.6 160 16:28 27.08.2019
2953 Clear 32 1013 35 10000 2.6 160 15:57 27.08.2019
2954 Clear 32 1013 35 10000 3.1 150 15:39 27.08.2019
2955 Clouds 31 1013 35 10000 3.1 150 15:20 27.08.2019
2956 Clouds 31 1014 51 10000 2.6 70 14:54 27.08.2019
2957 Clouds 31 1014 51 10000 2.6 70 14:36 27.08.2019
2958 Clouds 30 1014 54 10000 3.1 80 14:18 27.08.2019
2959 Clouds 30 1014 54 10000 2.6 70 13:41 27.08.2019
2960 Clouds 29 1014 57 9000 2.6 80 13:20 27.08.2019
2961 Clouds 28 1015 57 8000 2.6 90 12:42 27.08.2019
2962 Clouds 27 1015 57 8000 2.6 90 12:21 27.08.2019
2963 Clouds 26 1015 61 8000 2.1 80 11:58 27.08.2019
2964 Clouds 25 1015 60 7000 2.6 70 11:40 27.08.2019
2965 Clouds 24 1015 60 7000 2.6 70 11:21 27.08.2019
2966 Clouds 24 1015 68 8000 2.1 80 10:41 27.08.2019
2967 Clouds 23 1015 68 8000 2.1 80 10:20 27.08.2019
2968 Clouds 22 1015 68 9000 1.5 80 09:56 27.08.2019
2969 Clear 20 1015 68 9000 2.1 80 09:37 27.08.2019
2970 Clouds 19 1015 68 9000 2.1 80 09:19 27.08.2019
2971 Mist 17 1015 77 10000 2.1 100 08:45 27.08.2019
2972 Mist 16 1015 77 10000 2.1 100 08:24 27.08.2019
2973 Mist 15 1016 82 10000 1 0 07:55 27.08.2019
2974 Mist 15 1015 93 10000 0.5 320 07:37 27.08.2019
2975 Mist 15 1015 82 10000 1 50 07:18 27.08.2019
2976 Mist 15 1016 87 10000 1 10 06:45 27.08.2019
2977 Haze 16 1015 72 10000 1 0 06:19 27.08.2019
2978 Haze 16 1015 87 10000 1 330 05:29 27.08.2019
2979 Clouds 16 1016 82 10000 1 310 03:45 27.08.2019
2980 Clear 17 1016 82 10000 1 310 03:21 27.08.2019
2981 Clear 18 1016 68 10000 0.5 50 01:55 27.08.2019
2982 Clear 18 1016 88 10000 1 0 01:30 27.08.2019
2983 Clear 19 1017 60 10000 2.1 140 00:50 27.08.2019
2984 Clear 19 1016 68 10000 2.6 90 00:29 27.08.2019
2985 Clear 20 1016 56 10000 1.17 237.056 23:46 26.08.2019
2986 Clear 21 1016 56 10000 1.17 237.056 23:26 26.08.2019
2987 Clear 21 1017 72 10000 1.5 190 22:59 26.08.2019
2988 Clear 22 1017 64 10000 2.6 200 22:38 26.08.2019
2989 Clear 22 1017 64 10000 2.6 200 22:19 26.08.2019
2990 Clear 23 1017 53 10000 2.1 200 21:55 26.08.2019
2991 Clear 24 1016 39 10000 2.6 220 21:37 26.08.2019
2992 Clear 25 1017 53 10000 2.6 170 21:18 26.08.2019
2993 Clear 27 1017 50 10000 2.1 170 20:41 26.08.2019
2994 Clear 27 1017 47 10000 2.6 170 20:22 26.08.2019
2995 Clear 28 1017 44 10000 3.1 160 19:59 26.08.2019
2996 Clear 28 1017 44 10000 3.1 160 19:41 26.08.2019
2997 Clear 29 1015 33 10000 3.6 170 19:19 26.08.2019
2998 Clear 30 1016 33 10000 3.1 200 18:56 26.08.2019
2999 Clear 30 1016 33 10000 3.1 200 18:37 26.08.2019
3000 Clear 31 1016 33 10000 4.1 210 18:18 26.08.2019
3001 Clear 31 1016 31 10000 3.6 160 17:43 26.08.2019
3002 Clear 31 1016 31 10000 3.6 160 17:19 26.08.2019
3003 Clear 31 1016 31 10000 3.6 160 17:19 26.08.2019
3004 Clear 32 1016 31 10000 3.6 200 16:57 26.08.2019
3005 Clear 32 1016 31 10000 3.6 200 16:39 26.08.2019
3006 Clear 32 1016 31 10000 3.6 180 16:18 26.08.2019
3007 Clear 32 1016 31 10000 3.6 180 16:18 26.08.2019
3008 Clear 32 1017 31 10000 4.1 140 15:54 26.08.2019
3009 Clear 32 1017 31 10000 4.1 140 15:36 26.08.2019
3010 Clear 31 1017 40 10000 4.1 90 15:18 26.08.2019
3011 Clear 31 1017 45 10000 3.6 80 14:42 26.08.2019
3012 Clear 30 1017 54 10000 4.1 80 14:22 26.08.2019
3013 Clear 30 1017 51 10000 4.1 80 13:44 26.08.2019
3014 Clear 29 1018 54 10000 4.1 80 13:23 26.08.2019
3015 Clear 29 1018 51 10000 3.1 90 12:57 26.08.2019
3016 Clear 28 1018 51 10000 3.1 90 12:39 26.08.2019
3017 Clear 27 1018 57 10000 2.1 90 12:20 26.08.2019
3018 Clear 25 1018 64 8000 3.1 80 11:39 26.08.2019
3019 Clear 24 1018 64 8000 3.6 90 11:21 26.08.2019
3020 Clear 24 1018 68 7000 2.1 80 10:58 26.08.2019
3021 Clear 23 1018 68 7000 2.1 90 10:40 26.08.2019
3022 Clear 22 1018 68 7000 2.1 90 10:19 26.08.2019
3023 Clear 21 1018 77 7000 1.5 70 09:45 26.08.2019
3024 Mist 18 1018 77 7000 1.5 70 09:25 26.08.2019
3025 Haze 17 1018 82 10000 2.1 80 08:59 26.08.2019
3026 Haze 16 1018 82 10000 2.1 80 08:40 26.08.2019
3027 Haze 15 1018 93 10000 0.5 310 08:21 26.08.2019
3028 Haze 14 1018 93 10000 0.5 80 07:45 26.08.2019
3029 Haze 14 1018 93 10000 0.5 360 07:25 26.08.2019
3030 Haze 14 1018 93 10000 0.5 0 06:58 26.08.2019
3031 Haze 15 1018 93 10000 0.5 0 06:39 26.08.2019
3032 Haze 15 1018 87 10000 1.5 300 06:19 26.08.2019
3033 Haze 15 1018 88 10000 0.5 100 05:41 26.08.2019
3034 Clear 16 1018 87 10000 1 40 04:22 26.08.2019
3035 Clear 17 1019 77 10000 1.5 170 02:42 26.08.2019
3036 Clear 18 1019 68 10000 0.5 30 01:23 26.08.2019
3037 Clear 19 1019 68 10000 3.1 90 00:45 26.08.2019
3038 Clear 20 1019 68 10000 3.1 90 00:27 26.08.2019
3039 Clear 20 1019 64 10000 3.1 90 23:55 25.08.2019
3040 Clear 20 1019 64 10000 3.1 90 23:36 25.08.2019
3041 Clear 21 1019 64 10000 3.6 80 23:18 25.08.2019
3042 Clear 21 1019 60 10000 3.6 80 22:41 25.08.2019
3043 Clear 22 1019 50 10000 5.1 90 22:21 25.08.2019
3044 Clear 23 1018 50 10000 4.6 90 21:59 25.08.2019
3045 Clear 24 1018 50 10000 4.6 90 21:41 25.08.2019
3046 Clear 24 1018 50 10000 4.6 90 21:41 25.08.2019
3047 Clear 25 1018 47 10000 5.1 90 21:19 25.08.2019
3048 Clear 26 1018 47 10000 4.1 80 20:59 25.08.2019
3049 Clear 27 1018 47 10000 4.1 80 20:39 25.08.2019
3050 Clear 28 1018 42 10000 4.6 90 20:19 25.08.2019
3051 -273 0 0 0 0 0 19:55 25.08.2019
3052 Clear 29 1017 40 10000 5.1 90 19:37 25.08.2019
3053 Clear 29 1017 40 10000 5.1 90 19:37 25.08.2019
3054 Clear 29 1017 40 10000 4.6 80 19:18 25.08.2019
3055 Clear 30 1017 38 10000 4.6 90 18:55 25.08.2019
3056 Clear 30 1017 33 10000 3.1 100 18:37 25.08.2019
3057 Clear 31 1017 33 10000 3.1 100 18:18 25.08.2019
3058 Clear 31 1017 31 10000 2.1 0 17:40 25.08.2019
3059 Clear 32 1017 31 10000 3.6 120 17:22 25.08.2019
3060 Clear 32 1017 29 10000 2.6 160 16:45 25.08.2019
3061 Clear 32 1018 29 10000 3.1 170 16:24 25.08.2019
3062 Clear 32 1018 29 10000 2.1 160 15:59 25.08.2019
3063 Clear 32 1018 29 10000 2.1 160 15:40 25.08.2019
3064 Clouds 31 1018 33 10000 2.6 120 15:21 25.08.2019
3065 Clouds 31 1018 45 10000 2.6 70 14:41 25.08.2019
3066 Clouds 31 1018 42 10000 3.6 80 14:23 25.08.2019
3067 Clouds 31 1018 42 10000 3.6 90 13:55 25.08.2019
3068 Clouds 30 1018 42 10000 3.6 90 13:36 25.08.2019
3069 Clouds 30 1018 51 10000 3.1 80 13:18 25.08.2019
3070 Clouds 28 1018 51 10000 3.6 90 12:41 25.08.2019
3071 Clouds 26 1018 61 10000 3.1 80 12:22 25.08.2019
3072 Clouds 26 1018 64 8000 3.1 90 11:57 25.08.2019
3073 Clouds 25 1018 64 8000 3.1 90 11:37 25.08.2019
3074 Haze 24 1018 73 7000 3.6 80 11:19 25.08.2019
3075 Haze 23 1018 77 5000 3.6 90 10:56 25.08.2019
3076 Haze 23 1018 77 5000 3.6 90 10:37 25.08.2019
3077 Haze 21 1018 82 3500 2.6 70 10:19 25.08.2019
3078 Haze 20 1018 82 3400 2.6 90 09:42 25.08.2019
3079 Haze 17 1018 88 2500 2.6 80 09:24 25.08.2019
3080 Haze 15 1018 88 2600 2.1 60 08:47 25.08.2019
3081 Haze 15 1017 88 2600 1.5 70 08:29 25.08.2019
3082 Haze 14 1017 88 2800 1.5 100 07:54 25.08.2019
3083 Haze 14 1017 87 9000 0.5 350 07:32 25.08.2019
3084 Haze 14 1017 82 8000 0.5 30 06:38 25.08.2019
3085 Haze 15 1017 93 10000 1 350 05:27 25.08.2019
3086 Haze 15 1017 82 10000 1.5 40 03:45 25.08.2019
3087 Clouds 16 1017 77 10000 1 0 02:42 25.08.2019
3088 Clouds 16 1017 68 10000 1 50 01:54 25.08.2019
3089 Clouds 17 1018 72 10000 2.1 80 00:54 25.08.2019
3090 Clouds 17 1017 72 10000 3.1 90 00:23 25.08.2019
3091 Clouds 18 1017 73 10000 3.1 80 23:58 24.08.2019
3092 Clouds 18 1017 73 10000 3.1 80 23:39 24.08.2019
3093 Clouds 19 1017 73 10000 3.6 90 23:21 24.08.2019
3094 Clouds 19 1017 73 10000 4.1 90 22:54 24.08.2019
3095 Clouds 20 1017 73 10000 4.1 90 22:36 24.08.2019
3096 Clouds 20 1017 73 10000 3.6 80 22:18 24.08.2019
3097 Clouds 21 1017 69 10000 3.6 80 21:42 24.08.2019
3098 Clouds 23 1017 57 10000 3.1 80 21:23 24.08.2019
3099 Rain 24 1017 36 9000 2.1 160 20:58 24.08.2019
3100 Rain 24 1017 36 9000 2.1 160 20:58 24.08.2019
3101 Rain 25 1017 36 9000 2.1 160 20:39 24.08.2019
3102 Rain 25 1017 36 10000 3.1 170 20:20 24.08.2019
3103 Clouds 26 1017 34 9000 3.6 170 19:58 24.08.2019
3104 Clouds 26 1017 34 9000 3.6 170 19:39 24.08.2019
3105 Clouds 27 1017 34 10000 4.1 170 19:21 24.08.2019
3106 Clouds 27 1017 34 10000 4.1 170 19:21 24.08.2019
3107 Clouds 27 1017 37 10000 3.6 160 18:47 24.08.2019
3108 Clouds 28 1017 37 10000 3.6 180 18:25 24.08.2019
3109 Clouds 28 1017 35 10000 3.6 160 17:59 24.08.2019
3110 Clouds 28 1017 35 10000 3.6 160 17:41 24.08.2019
3111 Clouds 28 1018 32 10000 3.6 160 17:22 24.08.2019
3112 Clouds 29 1018 35 10000 3.1 150 16:42 24.08.2019
3113 Clouds 29 1018 32 10000 3.6 140 16:19 24.08.2019
3114 Clouds 28 1018 35 10000 2.6 150 15:55 24.08.2019
3115 Clear 28 1019 44 10000 3.1 160 15:37 24.08.2019
3116 Clouds 28 1018 42 10000 4.6 90 15:18 24.08.2019
3117 Clouds 28 1019 44 10000 3.6 80 14:41 24.08.2019
3118 Clouds 27 1019 42 10000 4.1 100 14:19 24.08.2019
3119 Clouds 28 1019 47 10000 5.1 80 13:55 24.08.2019
3120 Clouds 27 1019 47 10000 5.1 80 13:36 24.08.2019
3121 Clouds 27 1019 50 10000 3.1 90 13:18 24.08.2019
3122 Clouds 26 1020 60 10000 1.5 0 12:42 24.08.2019
3123 Clouds 26 1020 60 10000 1.5 0 12:42 24.08.2019
3124 Clouds 24 1020 64 8000 1.5 80 12:23 24.08.2019
3125 Clouds 23 1020 68 7000 1.5 0 11:55 24.08.2019
3126 Clouds 23 1020 68 7000 1.5 0 11:37 24.08.2019
3127 Haze 21 1020 77 5000 2.1 70 11:18 24.08.2019
3128 Haze 20 1020 82 5000 2.1 90 10:41 24.08.2019
3129 Haze 19 1020 88 4400 1.5 90 10:21 24.08.2019
3130 Haze 19 1020 88 4400 1.5 80 09:44 24.08.2019
3131 Haze 15 1020 88 4700 1.5 70 09:19 24.08.2019
3132 Haze 13 1020 87 5000 1 50 08:44 24.08.2019
3133 Haze 13 1020 87 5000 1.5 0 08:26 24.08.2019
3134 Fog 12 1020 93 10000 0.5 30 07:54 24.08.2019
3135 Fog 12 1020 93 10000 0.5 30 07:54 24.08.2019
3136 Fog 12 1020 87 7000 1.5 10 07:33 24.08.2019
3137 Fog 12 1020 93 10000 0.5 0 06:58 24.08.2019
3138 Mist 12 1020 100 10000 0.72 135.509 06:23 24.08.2019
3139 Mist 12 1021 82 8000 1.5 80 05:40 24.08.2019
3140 Clouds 13 1021 93 10000 1.5 80 03:54 24.08.2019
3141 Clouds 13 1021 93 10000 0.5 270 03:34 24.08.2019
3142 Clear 14 1022 88 10000 2.6 80 02:24 24.08.2019
3143 Clear 15 1022 82 10000 3.1 90 01:30 24.08.2019
3144 Clear 15 1022 82 10000 1.5 0 00:49 24.08.2019
3145 Clear 16 1022 77 10000 2.6 80 00:24 24.08.2019
3146 Clear 17 1022 77 10000 3.1 90 23:57 23.08.2019
3147 Clear 17 1022 72 10000 3.1 90 23:37 23.08.2019
3148 Clear 17 1022 72 10000 3.1 90 23:18 23.08.2019
3149 Clear 18 1022 68 10000 3.6 90 22:41 23.08.2019
3150 Clear 19 1022 64 10000 4.1 100 22:20 23.08.2019
3151 Rain 20 1022 60 10000 4.6 90 21:38 23.08.2019
3152 Rain 21 1022 64 10000 4.6 90 21:20 23.08.2019
3153 Clear 22 1022 60 10000 5.1 90 20:55 23.08.2019
3154 Clear 23 1022 60 10000 5.1 90 20:37 23.08.2019
3155 Clear 23 1022 57 10000 5.1 90 20:18 23.08.2019
3156 Clear 24 1022 57 10000 5.7 90 19:42 23.08.2019
3157 Clear 24 1022 57 10000 5.1 90 19:18 23.08.2019
3158 Clear 25 1022 57 10000 5.7 80 18:45 23.08.2019
3159 Clear 26 1022 54 10000 4.6 80 18:27 23.08.2019
3160 Clouds 26 1023 44 10000 3.1 140 17:54 23.08.2019
3161 Clouds 26 1023 44 10000 3.1 140 17:36 23.08.2019
3162 Clear 26 1023 44 10000 2.6 0 17:18 23.08.2019
3163 Clear 26 1023 47 10000 1.5 0 16:44 23.08.2019
3164 Clear 26 1023 47 10000 2.6 140 16:25 23.08.2019
3165 Clear 26 1024 50 10000 3.1 150 15:56 23.08.2019
3166 Clear 26 1024 50 10000 3.1 150 15:37 23.08.2019
3167 Clouds 25 1024 50 10000 1 0 15:19 23.08.2019
3168 Clouds 25 1024 53 10000 3.1 130 14:41 23.08.2019
3169 Clouds 25 1024 57 10000 2.1 0 14:21 23.08.2019
3170 Clouds 25 1024 57 10000 2.1 140 13:57 23.08.2019
3171 Clouds 24 1024 57 10000 2.1 140 13:39 23.08.2019
3172 Clouds 24 1025 60 10000 2.1 140 13:20 23.08.2019
3173 Clouds 23 1025 60 10000 1.5 0 12:57 23.08.2019
3174 Clouds 23 1025 60 10000 1.5 0 12:38 23.08.2019
3175 Clouds 22 1025 64 10000 0.5 0 12:20 23.08.2019
3176 Clouds 21 1026 68 10000 0.5 0 11:56 23.08.2019
3177 Clouds 21 1026 68 10000 0.5 0 11:37 23.08.2019
3178 Clouds 20 1026 72 10000 1 0 11:18 23.08.2019
3179 Clouds 19 1026 72 10000 0.5 0 10:43 23.08.2019
3180 Clouds 19 1026 77 10000 1 0 10:22 23.08.2019
3181 Clouds 17 1025 77 10000 2.1 240 09:57 23.08.2019
3182 Clouds 17 1025 77 10000 2.1 240 09:38 23.08.2019
3183 Clouds 16 1025 77 10000 2.1 230 09:18 23.08.2019
3184 Clouds 14 1025 82 10000 2.1 220 08:41 23.08.2019
3185 Fog 13 1025 87 10000 1.5 0 08:19 23.08.2019
3186 Fog 13 1026 93 10000 1.5 240 07:43 23.08.2019
3187 Fog 13 1025 100 10000 0.5 190 07:24 23.08.2019
3188 Fog 13 1025 100 10000 0.5 190 07:24 23.08.2019
3189 Fog 13 1025 100 10000 0.5 190 07:24 23.08.2019
3190 Mist 13 1025 93 10000 1.5 0 06:57 23.08.2019
3191 Mist 13 1025 93 10000 1.5 0 06:39 23.08.2019
3192 Mist 13 1025 93 10000 1.5 0 06:39 23.08.2019
3193 Mist 13 1025 87 10000 2.1 230 06:20 23.08.2019
3194 Clouds 13 1025 93 10000 1 250 05:42 23.08.2019
3195 Clouds 13 1025 93 10000 1 320 05:21 23.08.2019
3196 Clouds 15 1025 87 10000 1 210 03:22 23.08.2019
3197 Clouds 15 1025 87 10000 1 230 02:23 23.08.2019
3198 Clouds 15 1025 87 10000 1 230 02:23 23.08.2019
3199 Clouds 15 1026 82 10000 2.1 240 01:47 23.08.2019
3200 Clouds 16 1025 82 10000 3.1 240 00:46 23.08.2019
3201 Clouds 16 1025 82 10000 2.1 240 00:22 23.08.2019
3202 Clear 16 1026 82 10000 3.6 200 23:50 22.08.2019
3203 Clear 17 1026 82 10000 4.1 210 23:32 22.08.2019
3204 Clear 17 1026 82 10000 4.6 200 22:58 22.08.2019
3205 Clear 17 1026 82 10000 4.6 200 22:40 22.08.2019
3206 Clear 18 1026 77 10000 4.1 200 22:22 22.08.2019
3207 Clear 18 1025 77 10000 3.1 210 21:57 22.08.2019
3208 Clear 19 1025 77 10000 3.1 210 21:39 22.08.2019
3209 Clouds 19 1024 60 10000 4.1 240 21:20 22.08.2019
3210 Clear 20 1025 68 10000 3.1 230 20:57 22.08.2019
3211 Clouds 21 1024 56 10000 4.1 250 20:39 22.08.2019
3212 Clouds 21 1023 53 10000 4.6 250 20:19 22.08.2019
3213 Clouds 22 1023 53 10000 5.1 250 19:56 22.08.2019
3214 Clouds 22 1023 53 10000 5.1 250 19:37 22.08.2019
3215 Clouds 22 1024 50 10000 5.7 240 19:19 22.08.2019
3216 Clouds 22 1024 50 10000 5.7 250 18:56 22.08.2019
3217 Clouds 22 1024 50 10000 5.7 250 18:38 22.08.2019
3218 Clouds 23 1024 50 10000 4.6 220 18:18 22.08.2019
3219 Clouds 23 1024 53 10000 5.1 230 17:42 22.08.2019
3220 Clouds 23 1024 47 10000 6.2 260 17:23 22.08.2019
3221 Clouds 23 1024 47 10000 6.2 260 16:58 22.08.2019
3222 Clouds 23 1024 47 10000 6.2 260 16:40 22.08.2019
3223 Clouds 23 1024 47 10000 5.1 240 16:21 22.08.2019
3224 Clouds 23 1024 47 10000 5.1 240 16:21 22.08.2019
3225 Clouds 23 1024 47 10000 5.1 240 16:21 22.08.2019
3226 Clouds 23 1024 47 10000 4.6 240 15:59 22.08.2019
3227 Clouds 23 1024 47 10000 4.6 240 15:39 22.08.2019
3228 Clouds 23 1024 47 10000 4.6 240 15:39 22.08.2019
3229 Clear 23 1024 47 10000 5.7 240 15:21 22.08.2019
3230 Clear 23 1024 47 10000 5.7 240 15:21 22.08.2019
3231 Clear 23 1024 47 10000 5.7 240 15:20 22.08.2019
3232 Clear 23 1024 46 10000 5.1 220 14:57 22.08.2019
3233 Clear 23 1024 49 10000 5.7 240 14:38 22.08.2019
3234 Clear 23 1024 49 10000 5.7 240 14:18 22.08.2019
3235 Clear 23 1024 49 10000 5.7 240 14:18 22.08.2019
3236 Clear 22 1025 49 10000 5.1 220 13:56 22.08.2019
3237 Clear 22 1025 49 10000 5.1 220 13:37 22.08.2019
3238 Clear 22 1025 49 10000 4.6 230 13:18 22.08.2019
3239 Clear 21 1025 49 10000 5.7 250 12:40 22.08.2019
3240 Clear 20 1025 56 10000 5.7 250 12:21 22.08.2019
3241 Clear 20 1025 56 10000 5.7 240 11:57 22.08.2019
3242 Clear 19 1025 59 10000 5.7 240 11:39 22.08.2019
3243 Clear 18 1025 59 10000 5.7 240 11:19 22.08.2019
3244 Clear 18 1025 63 10000 4.6 240 10:57 22.08.2019
3245 Clear 18 1025 63 10000 4.6 240 10:57 22.08.2019
3246 Clear 17 1025 63 10000 4.6 240 10:36 22.08.2019
3247 Clear 16 1025 67 10000 4.1 240 10:18 22.08.2019
3248 Clear 15 1025 67 10000 4.6 250 09:54 22.08.2019
3249 Clear 15 1025 82 10000 3.6 230 09:36 22.08.2019
3250 Clear 15 1025 82 10000 3.6 230 09:36 22.08.2019
3251 Clouds 14 1025 82 10000 3.6 230 09:18 22.08.2019
3252 Clouds 13 1025 77 10000 3.1 220 08:40 22.08.2019
3253 Fog 12 1025 93 10000 3.6 210 08:21 22.08.2019
3254 Fog 12 1025 82 10000 2.1 230 07:55 22.08.2019
3255 Mist 11 1024 93 10000 1.5 180 07:37 22.08.2019
3256 Mist 11 1024 93 10000 1.5 180 07:18 22.08.2019
3257 Clouds 11 1024 87 10000 2.1 220 06:44 22.08.2019
3258 Clouds 12 1024 87 10000 2.1 220 06:20 22.08.2019
3259 Clouds 12 1024 93 10000 3.1 220 04:58 22.08.2019
3260 Clouds 13 1024 77 10000 3.1 230 03:20 22.08.2019
3261 Clouds 13 1025 77 10000 2.6 220 02:36 22.08.2019
3262 Clouds 13 1025 76 10000 2.6 230 01:30 22.08.2019
3263 Clouds 13 1025 77 10000 3.6 210 00:50 22.08.2019
3264 Clouds 14 1025 72 10000 2.6 230 00:30 22.08.2019
3265 Clouds 14 1025 67 10000 3.1 220 23:59 21.08.2019
3266 Clouds 14 1025 67 10000 3.1 220 23:40 21.08.2019
3267 Clouds 15 1025 67 10000 3.6 210 23:21 21.08.2019
3268 Clear 15 1026 82 10000 4.1 190 22:57 21.08.2019
3269 Clouds 15 1025 63 10000 3.6 210 22:39 21.08.2019
3270 Clear 16 1026 76 10000 4.1 200 22:20 21.08.2019
3271 Clear 16 1026 76 10000 4.1 200 22:20 21.08.2019
3272 Clouds 16 1025 55 10000 4.1 200 21:55 21.08.2019
3273 Clouds 16 1025 55 10000 4.1 200 21:37 21.08.2019
3274 Clouds 16 1025 55 10000 4.1 200 21:37 21.08.2019
3275 Clouds 17 1025 52 10000 4.1 200 21:19 21.08.2019
3276 Clear 18 1026 67 10000 4.6 200 20:55 21.08.2019
3277 Clouds 19 1025 49 10000 4.6 200 20:37 21.08.2019
3278 Clouds 19 1025 49 10000 4.6 200 20:19 21.08.2019
3279 Clouds 20 1025 46 10000 4.1 180 19:42 21.08.2019
3280 Clouds 20 1025 46 10000 4.6 0 19:23 21.08.2019
3281 Clouds 21 1025 46 10000 3.6 190 18:56 21.08.2019
3282 Clouds 21 1025 46 10000 3.6 190 18:56 21.08.2019
3283 Clouds 21 1025 46 10000 4.1 210 18:38 21.08.2019
3284 Clouds 21 1025 46 10000 4.1 210 18:20 21.08.2019
3285 Clouds 22 1025 43 10000 3.6 200 17:44 21.08.2019
3286 Clouds 22 1025 49 10000 3.6 0 17:22 21.08.2019
3287 Clouds 22 1026 52 10000 4.6 210 16:58 21.08.2019
3288 Clouds 22 1026 52 10000 4.6 210 16:39 21.08.2019
3289 Clouds 22 1026 49 10000 4.6 230 16:20 21.08.2019
3290 Clouds 22 1026 49 10000 4.1 220 15:56 21.08.2019
3291 Clouds 22 1026 46 10000 4.6 190 15:38 21.08.2019
3292 Clouds 22 1026 46 10000 4.6 190 15:19 21.08.2019
3293 Clouds 22 1026 46 10000 3.1 220 14:56 21.08.2019
3294 Clouds 22 1027 43 10000 4.6 220 14:38 21.08.2019
3295 Clouds 21 1027 43 10000 4.6 220 14:19 21.08.2019
3296 Clouds 21 1027 52 10000 3.6 230 13:43 21.08.2019
3297 Clouds 21 1027 56 10000 3.6 240 13:21 21.08.2019
3298 Clouds 20 1027 56 10000 4.6 260 12:58 21.08.2019
3299 Clouds 20 1027 56 10000 2.6 210 12:40 21.08.2019
3300 Clouds 19 1027 56 10000 2.6 210 12:20 21.08.2019
3301 Clouds 19 1027 63 10000 2.6 230 11:54 21.08.2019
3302 Clouds 19 1027 63 10000 2.6 230 11:36 21.08.2019
3303 Clouds 18 1027 68 10000 2.6 240 11:18 21.08.2019
3304 Clouds 17 1028 68 10000 3.6 240 10:55 21.08.2019
3305 Clouds 17 1028 68 10000 3.6 240 10:37 21.08.2019
3306 Clouds 16 1028 72 10000 2.6 230 10:19 21.08.2019
3307 Clouds 15 1028 72 10000 2.6 230 09:42 21.08.2019
3308 Clouds 14 1028 77 10000 3.1 240 09:23 21.08.2019
3309 Clouds 13 1027 72 10000 3.1 230 08:57 21.08.2019
3310 Clouds 11 1027 76 10000 2.6 220 08:38 21.08.2019
3311 Clouds 11 1027 76 10000 2.6 220 08:19 21.08.2019
3312 Clouds 10 1027 93 10000 0.5 180 07:40 21.08.2019
3313 Clouds 10 1027 93 10000 0.5 180 07:20 21.08.2019
3314 Clouds 10 1027 87 10000 2.1 170 06:47 21.08.2019
3315 Clear 10 1027 93 10000 0.5 250 06:21 21.08.2019
3316 Clear 10 1027 87 10000 1 0 05:41 21.08.2019
3317 Clear 10 1027 93 10000 2.13 246.631 05:19 21.08.2019
3318 Clouds 11 1026 81 10000 0.5 230 03:28 21.08.2019
3319 Clouds 12 1027 71 10000 2.1 270 01:42 21.08.2019
3320 Clouds 12 1027 67 10000 4.1 250 00:45 21.08.2019
3321 Clouds 13 1026 67 10000 2.6 260 00:24 21.08.2019
3322 Clear 13 1027 66 10000 2.6 230 23:57 20.08.2019
3323 Clear 13 1027 66 10000 2.6 230 23:38 20.08.2019
3324 Clear 14 1027 66 10000 2.6 210 23:18 20.08.2019
3325 Clear 14 1027 66 10000 2.6 220 22:56 20.08.2019
3326 Clear 14 1027 66 10000 2.6 220 22:37 20.08.2019
3327 Clear 14 1026 62 10000 2.6 210 22:18 20.08.2019
3328 Clear 15 1026 62 10000 2.1 240 21:57 20.08.2019
3329 Clear 16 1026 62 10000 2.1 240 21:37 20.08.2019
3330 Clear 17 1026 55 10000 2.6 250 21:19 20.08.2019
3331 Clear 18 1025 42 10000 4.1 280 20:42 20.08.2019
3332 Clear 18 1024 40 10000 5.7 250 20:24 20.08.2019
3333 Clear 19 1024 42 10000 5.7 280 19:56 20.08.2019
3334 Clear 19 1024 42 10000 5.7 280 19:38 20.08.2019
3335 Clear 20 1024 37 10000 5.1 260 19:20 20.08.2019
3336 Clear 20 1023 37 10000 5.7 250 18:55 20.08.2019
3337 Clear 20 1024 42 10000 4.1 260 18:37 20.08.2019
3338 Clear 20 1023 35 10000 4.6 240 18:18 20.08.2019
3339 Clear 21 1023 35 10000 6.7 250 17:39 20.08.2019
3340 Clear 20 1023 35 10000 6.2 250 17:21 20.08.2019
3341 Clear 21 1023 35 10000 6.2 250 16:58 20.08.2019
3342 Clear 21 1023 40 10000 5.1 270 16:40 20.08.2019
3343 Clear 20 1023 40 10000 5.1 270 16:22 20.08.2019
3344 Clear 20 1023 40 10000 5.7 240 15:41 20.08.2019
3345 Clear 20 1023 42 10000 6.7 270 15:18 20.08.2019
3346 Clear 20 1023 42 10000 6.7 270 14:56 20.08.2019
3347 Clear 20 1022 42 10000 6.2 250 14:38 20.08.2019
3348 Clear 19 1022 42 10000 5.7 250 14:19 20.08.2019
3349 Clear 19 1022 42 10000 5.7 250 13:55 20.08.2019
3350 Clouds 19 1022 48 10000 5.1 240 13:37 20.08.2019
3351 Clouds 19 1022 52 10000 4.6 270 13:18 20.08.2019
3352 Clouds 18 1022 59 10000 4.6 270 12:48 20.08.2019
3353 Clouds 18 1022 59 10000 4.6 270 12:24 20.08.2019
3354 Clouds 17 1022 63 10000 5.7 270 11:56 20.08.2019
3355 Clear 17 1022 63 10000 4.1 240 11:38 20.08.2019
3356 Clear 17 1022 72 10000 4.1 250 11:18 20.08.2019
3357 Clear 16 1022 72 10000 4.1 250 10:56 20.08.2019
3358 Clear 16 1022 77 10000 3.6 240 10:37 20.08.2019
3359 Clear 15 1022 77 10000 3.6 240 10:18 20.08.2019
3360 Clear 14 1021 82 10000 3.1 230 09:41 20.08.2019
3361 Clear 13 1021 82 10000 3.1 230 09:22 20.08.2019
3362 Clear 12 1020 82 10000 3.6 230 08:43 20.08.2019
3363 Clear 11 1020 82 10000 3.1 230 08:24 20.08.2019
3364 Clear 11 1020 82 10000 3.1 230 07:58 20.08.2019
3365 Clear 11 1020 82 10000 3.1 230 07:40 20.08.2019
3366 Clear 11 1020 82 10000 3.1 230 07:22 20.08.2019
3367 Clear 11 1020 82 10000 3.6 240 06:55 20.08.2019
3368 Clear 11 1020 87 10000 3.1 230 06:22 20.08.2019
3369 Clear 11 1019 93 10000 1 250 05:48 20.08.2019
3370 Clear 11 1019 87 10000 3.6 230 04:56 20.08.2019
3371 Clear 11 1019 87 10000 2.1 250 03:37 20.08.2019
3372 Clear 12 1019 82 10000 3.1 240 02:34 20.08.2019
3373 Clear 12 1019 76 10000 3.1 250 01:24 20.08.2019
3374 Clear 13 1018 71 10000 3.1 250 00:50 20.08.2019
3375 Clear 13 1018 71 10000 3.1 250 00:31 20.08.2019
3376 Clear 13 1019 93 10000 3.6 220 23:57 19.08.2019
3377 Clear 13 1019 93 10000 4.1 220 23:38 19.08.2019
3378 Clear 14 1018 93 10000 4.6 210 23:18 19.08.2019
3379 Rain 14 1018 93 10000 4.6 210 22:41 19.08.2019
3380 Clear 15 1018 82 10000 4.6 210 22:21 19.08.2019
3381 Clear 15 1017 63 10000 4.6 220 21:58 19.08.2019
3382 Rain 15 1017 82 10000 4.6 210 21:39 19.08.2019
3383 Rain 16 1017 82 10000 4.6 210 21:21 19.08.2019
3384 Rain 17 1017 82 10000 5.7 210 20:59 19.08.2019
3385 Rain 17 1016 52 10000 5.7 230 20:39 19.08.2019
3386 Rain 17 1016 52 10000 5.7 230 20:39 19.08.2019
3387 Rain 18 1015 52 10000 5.7 230 20:20 19.08.2019
3388 Rain 18 1015 52 10000 5.7 230 19:58 19.08.2019
3389 Rain 18 1015 52 10000 5.7 230 19:39 19.08.2019
3390 Rain 19 1015 49 10000 6.2 240 19:19 19.08.2019
3391 Rain 19 1015 49 10000 6.7 240 18:45 19.08.2019
3392 Rain 19 1015 49 10000 6.7 240 18:27 19.08.2019
3393 Rain 19 1015 59 10000 5.7 300 17:59 19.08.2019
3394 Thunderstorm 20 1014 52 10000 5.7 240 17:41 19.08.2019
3395 Rain 20 1014 56 10000 6.2 240 17:20 19.08.2019
3396 Rain 20 1014 56 10000 6.2 240 16:58 19.08.2019
3397 Rain 20 1014 56 10000 6.2 240 16:37 19.08.2019
3398 Rain 20 1014 56 10000 6.7 250 16:19 19.08.2019
3399 Rain 20 1014 72 10000 6.7 250 15:55 19.08.2019
3400 Rain 20 1014 72 10000 6.7 250 15:37 19.08.2019
3401 Rain 19 1014 82 10000 5.1 250 15:18 19.08.2019
3402 Rain 19 1014 56 10000 4.6 240 14:41 19.08.2019
3403 Rain 19 1013 59 10000 6.2 270 14:22 19.08.2019
3404 Rain 19 1013 52 10000 6.2 250 13:57 19.08.2019
3405 Rain 19 1013 56 10000 6.2 250 13:38 19.08.2019
3406 Rain 19 1013 56 10000 6.2 250 13:38 19.08.2019
3407 Rain 19 1013 56 10000 6.2 250 13:19 19.08.2019
3408 Rain 19 1013 56 10000 6.2 250 13:19 19.08.2019
3409 Rain 19 1013 63 10000 5.7 250 12:45 19.08.2019
3410 Rain 18 1013 63 10000 7.2 250 12:25 19.08.2019
3411 Clouds 18 1013 68 10000 5.7 250 11:59 19.08.2019
3412 Clouds 18 1013 68 10000 6.7 240 11:39 19.08.2019
3413 Clouds 18 1013 68 10000 6.7 240 11:20 19.08.2019
3414 Clouds 17 1012 72 10000 5.7 240 10:55 19.08.2019
3415 Rain 16 1012 72 10000 7.2 250 10:37 19.08.2019
3416 Rain 16 1012 72 10000 7.2 250 10:18 19.08.2019
3417 Rain 15 1012 77 10000 6.2 240 09:43 19.08.2019
3418 Rain 14 1012 82 10000 5.7 240 09:23 19.08.2019
3419 Clear 14 1012 77 10000 5.7 240 08:56 19.08.2019
3420 Clear 14 1012 77 10000 5.7 240 08:38 19.08.2019
3421 Rain 13 1012 77 10000 5.1 230 08:18 19.08.2019
3422 Clear 13 1012 93 10000 5.7 220 07:45 19.08.2019
3423 Rain 13 1011 82 10000 5.1 230 07:27 19.08.2019
3424 Clear 13 1011 82 10000 4.6 230 06:48 19.08.2019
3425 Clear 12 1011 82 10000 3.6 240 06:26 19.08.2019
3426 Clear 12 1011 82 10000 3.6 240 06:26 19.08.2019
3427 Clear 12 1011 93 10000 3.1 230 04:56 19.08.2019
3428 Clear 12 1010 93 10000 4.1 240 04:26 19.08.2019
3429 Clouds 13 1010 93 10000 3.1 230 03:22 19.08.2019
3430 Clouds 13 1010 87 10000 4.1 240 02:24 19.08.2019
3431 Clouds 13 1010 82 10000 5.1 240 01:34 19.08.2019
3432 Clouds 14 1010 93 10000 4.6 220 00:44 19.08.2019
3433 Rain 14 1009 93 10000 3.6 230 00:23 19.08.2019
3434 Rain 14 1009 93 10000 4.1 220 23:42 18.08.2019
3435 Rain 14 1009 77 10000 3.6 230 23:21 18.08.2019
3436 Rain 14 1008 82 10000 4.6 240 22:57 18.08.2019
3437 Rain 15 1008 82 10000 4.6 240 22:38 18.08.2019
3438 Rain 15 1008 82 10000 5.7 230 22:20 18.08.2019
3439 Rain 15 1008 77 10000 8.7 250 21:56 18.08.2019
3440 Rain 15 1008 77 10000 8.7 250 21:37 18.08.2019
3441 Rain 16 1007 63 10000 6.2 230 21:19 18.08.2019
3442 Rain 18 1007 63 10000 6.2 230 20:44 18.08.2019
3443 Rain 18 1007 60 10000 5.7 240 20:25 18.08.2019
3444 Rain 18 1006 60 10000 6.2 230 19:56 18.08.2019
3445 Rain 19 1006 60 10000 6.2 230 19:38 18.08.2019
3446 Clouds 19 1006 49 10000 5.7 230 19:19 18.08.2019
3447 Rain 20 1006 46 10000 6.7 250 18:54 18.08.2019
3448 Rain 20 1006 46 10000 6.7 250 18:36 18.08.2019
3449 Rain 20 1006 49 10000 7.2 240 18:18 18.08.2019
3450 Rain 21 1006 46 10000 7.7 250 17:42 18.08.2019
3451 Rain 21 1005 46 10000 6.7 240 17:19 18.08.2019
3452 Rain 21 1005 46 10000 6.7 230 16:59 18.08.2019
3453 Rain 21 1005 46 10000 6.7 230 16:40 18.08.2019
3454 Clouds 20 1005 49 10000 7.2 250 16:20 18.08.2019
3455 Clouds 20 1005 56 10000 5.7 240 15:58 18.08.2019
3456 Clouds 20 1005 56 10000 5.7 240 15:38 18.08.2019
3457 Clouds 20 1005 56 10000 6.7 240 15:20 18.08.2019
3458 Clouds 20 1005 56 10000 6.7 240 15:20 18.08.2019
3459 Clouds 20 1005 60 10000 5.7 240 14:56 18.08.2019
3460 Clouds 20 1005 60 10000 5.7 240 14:37 18.08.2019
3461 Rain 19 1005 63 10000 5.1 250 14:18 18.08.2019
3462 Rain 17 1005 72 10000 4.6 250 13:43 18.08.2019
3463 Rain 16 1004 82 10000 4.1 260 13:24 18.08.2019
3464 Rain 15 1005 82 10000 4.1 240 12:59 18.08.2019
3465 Rain 15 1005 82 10000 4.1 240 12:40 18.08.2019
3466 Rain 15 1005 87 6000 6.7 260 12:22 18.08.2019
3467 Rain 15 1004 72 10000 6.7 250 11:54 18.08.2019
3468 Rain 15 1004 72 10000 6.7 250 11:36 18.08.2019
3469 Rain 16 1003 68 10000 5.1 240 11:18 18.08.2019
3470 Rain 16 1003 68 10000 4.6 240 10:41 18.08.2019
3471 Drizzle 16 1003 77 10000 3.6 230 10:19 18.08.2019
3472 Rain 16 1003 77 10000 2.6 220 09:48 18.08.2019
3473 Clouds 15 1003 82 10000 2.6 240 09:21 18.08.2019
3474 Clouds 15 1003 82 10000 2.6 230 08:54 18.08.2019
3475 Clouds 15 1003 82 10000 2.6 230 08:36 18.08.2019
3476 Clouds 14 1003 82 10000 2.1 210 08:18 18.08.2019
3477 Clouds 14 1003 82 10000 2.1 230 07:43 18.08.2019
3478 Clouds 14 1003 82 10000 2.6 210 07:24 18.08.2019
3479 Rain 15 1003 82 10000 2.6 220 05:47 18.08.2019
3480 Rain 15 1004 77 10000 3.1 210 04:53 18.08.2019
3481 Rain 15 1004 82 10000 4.1 200 03:36 18.08.2019
3482 Clouds 15 1005 77 10000 2.6 220 02:46 18.08.2019
3483 Clouds 16 1005 77 10000 3.1 210 02:23 18.08.2019
3484 Clouds 16 1005 77 10000 3.6 230 01:31 18.08.2019
3485 Clouds 16 1005 77 10000 4.6 230 00:59 18.08.2019
3486 Clouds 16 1005 77 10000 4.6 230 00:38 18.08.2019
3487 Rain 16 1005 77 10000 4.6 230 00:18 18.08.2019
3488 Rain 16 1005 72 10000 6.7 230 23:56 17.08.2019
3489 Rain 16 1005 72 10000 6.7 230 23:37 17.08.2019
3490 Rain 16 1005 68 10000 5.1 220 23:18 17.08.2019
3491 Rain 17 1005 68 10000 5.7 230 22:42 17.08.2019
3492 Rain 17 1005 63 10000 6.2 230 22:23 17.08.2019
3493 Rain 18 1005 63 10000 6.2 230 21:59 17.08.2019
3494 Rain 18 1005 63 10000 6.2 230 21:40 17.08.2019
3495 Rain 18 1005 63 10000 6.2 230 21:40 17.08.2019
3496 Rain 18 1005 60 10000 5.7 230 21:22 17.08.2019
3497 Rain 19 1005 64 10000 5.7 220 20:41 17.08.2019
3498 Rain 20 1005 60 10000 5.1 220 20:21 17.08.2019
3499 Clouds 20 1004 60 10000 6.7 220 19:59 17.08.2019
3500 Clouds 20 1004 60 10000 6.7 220 19:40 17.08.2019
3501 Clouds 20 1004 56 10000 5.1 220 19:21 17.08.2019
3502 Clouds 20 1004 56 10000 5.1 220 18:54 17.08.2019
3503 Clouds 20 1004 56 10000 5.7 210 18:36 17.08.2019
3504 Clouds 21 1004 56 10000 5.7 210 18:18 17.08.2019
3505 Clouds 21 1004 49 10000 5.7 240 17:41 17.08.2019
3506 Rain 21 1004 53 10000 5.7 240 17:21 17.08.2019
3507 Rain 21 1004 53 10000 5.7 240 17:21 17.08.2019
3508 Clouds 22 1004 49 10000 6.7 250 16:55 17.08.2019
3509 Clouds 22 1004 49 10000 6.7 250 16:36 17.08.2019
3510 Clouds 21 1005 53 10000 6.7 230 16:18 17.08.2019
3511 Clouds 21 1004 49 10000 6.2 240 15:42 17.08.2019
3512 Clouds 21 1004 56 10000 6.2 240 15:21 17.08.2019
3513 Rain 21 1005 60 10000 6.2 240 14:57 17.08.2019
3514 Rain 21 1005 60 10000 6.2 240 14:38 17.08.2019
3515 Clouds 20 1005 64 10000 6.7 250 14:19 17.08.2019
3516 Clouds 20 1005 64 10000 6.2 240 13:43 17.08.2019
3517 Clouds 20 1005 64 10000 6.2 240 13:19 17.08.2019
3518 Clouds 19 1005 68 10000 6.2 240 12:43 17.08.2019
3519 Clouds 19 1005 64 10000 4.6 240 12:20 17.08.2019
3520 Clouds 18 1005 68 10000 6.7 250 11:58 17.08.2019
3521 Rain 18 1005 68 10000 6.7 250 11:38 17.08.2019
3522 Rain 18 1004 68 10000 5.1 230 11:20 17.08.2019
3523 Clear 18 1005 68 10000 5.7 230 10:41 17.08.2019
3524 Clear 17 1005 72 10000 6.7 240 10:21 17.08.2019
3525 Clear 17 1004 72 10000 6.2 250 09:57 17.08.2019
3526 Clear 17 1004 72 10000 6.2 250 09:38 17.08.2019
3527 Clouds 16 1004 72 10000 4.6 240 09:20 17.08.2019
3528 Clouds 16 1004 82 10000 4.6 250 08:50 17.08.2019
3529 Clouds 15 1004 82 10000 4.1 240 08:21 17.08.2019
3530 Clouds 15 1004 82 10000 3.6 240 07:42 17.08.2019
3531 Clouds 15 1003 88 10000 4.1 260 07:20 17.08.2019
3532 Rain 16 1003 88 10000 4.1 230 06:34 17.08.2019
3533 Rain 17 1003 93 10000 2.6 230 04:48 17.08.2019
3534 Rain 17 1003 93 7000 3.6 230 04:23 17.08.2019
3535 Rain 17 1003 93 4900 5.1 210 02:45 17.08.2019
3536 Rain 17 1003 100 8000 6.2 200 01:40 17.08.2019
3537 Rain 17 1003 93 9000 5.1 220 01:20 17.08.2019
3538 Rain 16 1004 93 5000 5.7 210 00:48 17.08.2019
3539 Rain 16 1004 93 3900 5.7 210 00:25 17.08.2019
3540 Rain 16 1004 100 5000 6.7 200 23:47 16.08.2019
3541 Rain 16 1006 100 7000 10.3 200 23:25 16.08.2019
3542 Rain 16 1006 100 7000 11.8 190 22:44 16.08.2019
3543 Rain 16 1006 100 8000 12.3 190 22:20 16.08.2019
3544 Rain 16 1005 93 5000 7.2 210 21:59 16.08.2019
3545 Rain 16 1005 93 5000 7.2 210 21:39 16.08.2019
3546 Rain 16 1007 100 10000 11.3 200 21:19 16.08.2019
3547 Rain 16 1007 100 10000 10.3 190 20:43 16.08.2019
3548 Rain 16 1007 100 10000 10.3 190 20:43 16.08.2019
3549 Rain 16 1008 100 10000 10.3 190 20:22 16.08.2019
3550 Rain 16 1006 93 8000 6.2 200 19:59 16.08.2019
3551 Rain 16 1006 93 8000 6.2 200 19:40 16.08.2019
3552 Rain 16 1008 93 10000 9.3 190 19:22 16.08.2019
3553 Rain 16 1009 77 10000 6.7 210 18:43 16.08.2019
3554 Rain 16 1009 82 10000 4.6 200 18:25 16.08.2019
3555 Rain 16 1009 82 10000 4.6 200 18:25 16.08.2019
3556 Rain 16 1009 82 10000 5.1 200 17:56 16.08.2019
3557 Rain 16 1009 82 10000 5.1 200 17:37 16.08.2019
3558 Rain 16 1010 82 10000 6.2 210 17:18 16.08.2019
3559 Rain 17 1010 72 10000 6.7 210 16:41 16.08.2019
3560 Rain 17 1010 72 10000 7.2 210 16:21 16.08.2019
3561 Rain 17 1010 72 10000 7.2 210 16:21 16.08.2019
3562 Rain 17 1011 72 10000 5.7 210 15:59 16.08.2019
3563 Rain 17 1011 72 10000 5.7 210 15:40 16.08.2019
3564 Rain 17 1011 72 10000 5.7 210 15:21 16.08.2019
3565 Rain 17 1011 68 10000 6.2 210 14:57 16.08.2019
3566 Rain 17 1011 68 10000 6.2 210 14:38 16.08.2019
3567 Rain 17 1012 82 10000 8.2 200 14:19 16.08.2019
3568 Rain 18 1012 63 10000 6.7 210 13:41 16.08.2019
3569 Rain 17 1012 63 10000 6.7 210 13:41 16.08.2019
3570 Rain 17 1012 68 10000 5.7 210 13:23 16.08.2019
3571 Rain 17 1012 68 10000 6.7 210 12:56 16.08.2019
3572 Rain 17 1012 68 10000 6.7 210 12:37 16.08.2019
3573 Rain 17 1012 68 10000 6.7 210 12:37 16.08.2019
3574 Rain 18 1013 72 10000 5.1 210 12:19 16.08.2019
3575 Rain 17 1013 72 10000 4.6 190 11:42 16.08.2019
3576 Rain 17 1013 72 10000 6.2 220 11:24 16.08.2019
3577 Clouds 17 1014 77 10000 5.1 0 10:43 16.08.2019
3578 Clouds 17 1014 72 10000 5.1 200 10:25 16.08.2019
3579 Clouds 16 1014 77 10000 4.6 210 09:56 16.08.2019
3580 Clouds 16 1014 77 10000 4.6 210 09:37 16.08.2019
3581 Clouds 16 1014 77 10000 4.6 210 09:37 16.08.2019
3582 Clouds 15 1015 82 10000 3.1 210 09:18 16.08.2019
3583 Clouds 15 1015 82 10000 3.1 210 09:18 16.08.2019
3584 Clouds 14 1015 93 10000 4.6 200 08:41 16.08.2019
3585 Clouds 14 1015 82 10000 2.1 240 08:21 16.08.2019
3586 Clouds 13 1015 82 10000 1.5 0 07:55 16.08.2019
3587 Drizzle 13 1015 82 10000 2.1 220 07:33 16.08.2019
3588 Drizzle 12 1015 82 10000 2.6 220 06:59 16.08.2019
3589 Clouds 12 1015 93 10000 0.5 230 06:32 16.08.2019
3590 Clouds 12 1016 93 10000 2.1 180 05:43 16.08.2019
3591 Clouds 12 1016 93 10000 1 160 04:32 16.08.2019
3592 Clouds 12 1017 87 10000 3.6 230 02:47 16.08.2019
3593 Clouds 13 1017 87 10000 2.1 260 01:43 16.08.2019
3594 Clouds 13 1017 76 10000 1 270 01:21 16.08.2019
3595 Clouds 14 1017 77 10000 2.6 250 00:43 16.08.2019
3596 Clouds 14 1017 76 10000 1 280 00:22 16.08.2019
3597 Clouds 15 1017 82 10000 2.6 240 23:45 15.08.2019
3598 Clear 15 1017 82 10000 3.1 240 23:22 15.08.2019
3599 Clear 15 1017 77 10000 2.6 250 22:58 15.08.2019
3600 Clear 16 1017 77 10000 2.6 250 22:40 15.08.2019
3601 Clear 16 1017 72 10000 2.6 270 22:21 15.08.2019
3602 Clouds 17 1016 67 10000 2.6 270 21:56 15.08.2019
3603 Clouds 17 1016 67 10000 2.6 270 21:38 15.08.2019
3604 Clouds 18 1016 52 10000 6.7 290 21:18 15.08.2019
3605 Clouds 19 1016 59 10000 5.7 280 20:44 15.08.2019
3606 Clouds 19 1016 59 10000 5.1 290 20:22 15.08.2019
3607 Clouds 19 1016 59 10000 5.1 290 20:22 15.08.2019
3608 Clouds 20 1014 49 10000 8.2 280 19:58 15.08.2019
3609 Clouds 20 1014 49 10000 8.2 280 19:39 15.08.2019
3610 Clouds 20 1014 46 10000 7.2 270 19:21 15.08.2019
3611 Clouds 21 1013 46 10000 7.2 270 18:47 15.08.2019
3612 Clouds 21 1013 46 10000 6.7 270 18:24 15.08.2019
3613 Clouds 22 1013 43 10000 8.2 270 17:58 15.08.2019
3614 Clouds 22 1013 43 10000 8.2 270 17:38 15.08.2019
3615 Clouds 22 1013 49 10000 8.7 270 17:20 15.08.2019
3616 Clouds 22 1013 49 10000 8.2 280 16:58 15.08.2019
3617 Clouds 22 1013 49 10000 8.2 280 16:40 15.08.2019
3618 Clouds 22 1012 46 10000 7.7 270 16:21 15.08.2019
3619 Clouds 21 1012 49 10000 7.2 280 15:39 15.08.2019
3620 Clouds 21 1012 52 10000 7.2 270 15:20 15.08.2019
3621 Clouds 21 1012 56 10000 7.7 290 14:57 15.08.2019
3622 Clouds 20 1012 56 10000 7.7 290 14:38 15.08.2019
3623 Clouds 20 1012 56 10000 7.2 280 14:20 15.08.2019
3624 Clouds 20 1011 60 10000 6.7 290 13:56 15.08.2019
3625 Clouds 20 1011 60 10000 6.7 290 13:38 15.08.2019
3626 Clouds 20 1011 60 10000 7.7 280 13:19 15.08.2019
3627 Clouds 19 1011 60 10000 7.2 280 12:40 15.08.2019
3628 Clouds 19 1010 60 10000 8.7 260 12:21 15.08.2019
3629 Clouds 19 1010 68 10000 7.2 270 11:59 15.08.2019
3630 Clouds 18 1010 68 10000 7.2 270 11:39 15.08.2019
3631 Clouds 18 1010 72 10000 7.2 270 11:20 15.08.2019
3632 Clouds 18 1010 72 10000 6.7 260 10:59 15.08.2019
3633 Clouds 18 1010 72 10000 6.7 260 10:37 15.08.2019
3634 Clouds 18 1010 72 10000 6.7 260 10:37 15.08.2019
3635 Clouds 18 1010 72 10000 6.7 260 10:37 15.08.2019
3636 Clouds 17 1010 77 10000 7.7 250 10:19 15.08.2019
3637 Clouds 17 1009 77 10000 7.7 250 09:44 15.08.2019
3638 Rain 16 1009 82 10000 6.7 250 09:23 15.08.2019
3639 Rain 16 1009 82 10000 6.7 250 09:23 15.08.2019
3640 -273 0 0 0 0 0 08:55 15.08.2019
3641 -273 0 0 0 0 0 08:55 15.08.2019
3642 Rain 15 1009 87 10000 4.6 240 08:36 15.08.2019
3643 Rain 15 1009 87 10000 4.6 240 08:18 15.08.2019
3644 Clouds 15 1009 87 10000 6.2 250 07:42 15.08.2019
3645 Clouds 15 1008 87 10000 5.7 250 07:22 15.08.2019
3646 Clouds 15 1008 87 10000 5.7 250 06:53 15.08.2019
3647 Clouds 15 1008 93 10000 2.6 250 06:32 15.08.2019
3648 Rain 15 1008 87 10000 5.1 260 05:43 15.08.2019
3649 Clouds 15 1008 88 10000 5.1 250 05:23 15.08.2019
3650 Clouds 16 1008 93 10000 6.2 260 04:32 15.08.2019
3651 Clouds 16 1008 93 10000 5.7 250 03:37 15.08.2019
3652 Clouds 16 1008 93 10000 4.6 240 02:44 15.08.2019
3653 Clouds 17 1008 100 10000 5.7 240 01:52 15.08.2019
3654 Rain 17 1007 93 10000 3.1 230 01:30 15.08.2019
3655 Rain 17 1008 100 10000 3.6 230 00:41 15.08.2019
3656 Rain 17 1007 93 10000 4.1 220 00:21 15.08.2019
3657 Rain 17 1008 100 10000 6.7 210 23:57 14.08.2019
3658 Rain 17 1008 100 10000 6.7 210 23:38 14.08.2019
3659 Rain 17 1008 100 10000 5.7 210 23:19 14.08.2019
3660 Clouds 17 1008 93 10000 5.7 210 22:57 14.08.2019
3661 Clouds 17 1008 93 10000 5.7 210 22:39 14.08.2019
3662 Rain 17 1009 93 10000 5.1 220 22:20 14.08.2019
3663 Drizzle 17 1009 100 2000 6.2 220 21:55 14.08.2019
3664 Drizzle 17 1008 100 9000 7.7 200 21:37 14.08.2019
3665 Rain 17 1008 100 9000 7.7 200 21:18 14.08.2019
3666 Rain 17 1008 93 10000 4.6 230 20:42 14.08.2019
3667 Rain 17 1007 100 10000 4.6 210 20:21 14.08.2019
3668 Rain 17 1007 100 10000 4.6 210 20:21 14.08.2019
3669 Rain 17 1007 100 10000 4.6 210 20:21 14.08.2019
3670 Rain 16 1008 93 8000 4.1 210 19:56 14.08.2019
3671 Rain 17 1009 88 10000 5.1 200 19:38 14.08.2019
3672 Rain 17 1009 88 10000 5.1 200 19:20 14.08.2019
3673 Drizzle 16 1009 82 10000 6.2 200 18:57 14.08.2019
3674 Drizzle 16 1009 82 10000 6.2 200 18:38 14.08.2019
3675 Rain 17 1010 93 8000 4.6 190 18:20 14.08.2019
3676 Rain 16 1010 93 7000 5.1 200 17:56 14.08.2019
3677 Rain 16 1010 93 7000 5.1 200 17:37 14.08.2019
3678 Rain 16 1010 88 4700 3.6 190 17:19 14.08.2019
3679 Rain 16 1011 88 10000 4.6 190 16:43 14.08.2019
3680 Rain 16 1012 93 7000 8.7 190 16:21 14.08.2019
3681 Rain 16 1012 93 7000 8.7 190 16:21 14.08.2019
3682 Rain 15 1012 82 10000 4.1 180 15:59 14.08.2019
3683 Rain 15 1012 93 10000 2.6 160 15:40 14.08.2019
3684 Rain 15 1012 93 10000 2.6 160 15:18 14.08.2019
3685 Rain 15 1013 87 5000 3.1 160 14:54 14.08.2019
3686 Rain 15 1013 82 9000 3.1 180 14:36 14.08.2019
3687 Rain 15 1013 82 9000 3.1 180 14:18 14.08.2019
3688 Rain 14 1014 82 7000 6.2 200 13:43 14.08.2019
3689 Rain 14 1014 87 10000 4.1 190 13:23 14.08.2019
3690 Rain 14 1013 93 8000 4.6 200 12:56 14.08.2019
3691 Rain 14 1013 93 8000 4.6 200 12:38 14.08.2019
3692 Rain 14 1014 100 10000 6.2 180 12:20 14.08.2019
3693 Rain 15 1014 87 7000 3.1 180 11:55 14.08.2019
3694 Rain 15 1015 82 6000 5.1 200 11:37 14.08.2019
3695 Rain 15 1015 82 6000 5.1 200 11:18 14.08.2019
3696 Rain 16 1015 77 10000 4.1 200 10:42 14.08.2019
3697 Rain 15 1015 77 10000 4.6 200 10:23 14.08.2019
3698 Rain 16 1015 77 10000 3.6 210 09:56 14.08.2019
3699 Rain 15 1015 77 10000 4.6 220 09:37 14.08.2019
3700 Rain 15 1015 77 10000 4.6 220 09:19 14.08.2019
3701 Rain 15 1016 93 10000 4.1 200 08:37 14.08.2019
3702 Rain 14 1015 82 10000 2.1 200 08:19 14.08.2019
3703 Clouds 14 1016 82 10000 3.1 200 07:50 14.08.2019
3704 Clouds 13 1015 87 10000 1.5 190 07:31 14.08.2019
3705 Clouds 14 1016 87 10000 2.1 210 06:45 14.08.2019
3706 Clouds 14 1016 82 10000 2.1 210 05:52 14.08.2019
3707 Clouds 13 1016 82 10000 2.6 210 04:54 14.08.2019
3708 Clouds 14 1017 77 10000 2.1 210 03:38 14.08.2019
3709 Clouds 14 1017 72 10000 3.6 230 02:33 14.08.2019
3710 Clouds 14 1017 72 10000 3.1 230 01:45 14.08.2019
3711 Clouds 14 1017 67 10000 3.6 240 00:59 14.08.2019
3712 Clouds 15 1017 67 10000 4.1 230 23:50 13.08.2019
3713 Clouds 15 1017 63 10000 4.1 230 23:25 13.08.2019
3714 Clouds 15 1017 63 10000 5.1 240 22:59 13.08.2019
3715 Clouds 15 1017 63 10000 5.1 240 22:39 13.08.2019
3716 Clear 16 1018 77 10000 4.6 210 22:21 13.08.2019
3717 Clear 16 1018 77 10000 5.7 220 21:58 13.08.2019
3718 Clear 17 1018 77 10000 5.7 220 21:38 13.08.2019
3719 Rain 18 1016 40 10000 4.1 260 21:19 13.08.2019
3720 Clear 18 1017 67 10000 5.1 210 20:56 13.08.2019
3721 Rain 19 1016 37 10000 5.1 270 20:37 13.08.2019
3722 Rain 19 1016 37 10000 5.1 270 20:18 13.08.2019
3723 Rain 20 1016 35 10000 5.7 250 19:43 13.08.2019
3724 Rain 20 1016 35 10000 4.1 240 19:22 13.08.2019
3725 Rain 20 1016 35 10000 4.1 240 19:22 13.08.2019
3726 Rain 20 1016 35 10000 5.1 240 18:59 13.08.2019
3727 Rain 20 1016 35 10000 5.1 240 18:41 13.08.2019
3728 Clouds 21 1016 40 10000 5.7 280 18:20 13.08.2019
3729 Clouds 21 1016 37 10000 6.7 250 17:43 13.08.2019
3730 Clouds 21 1016 37 10000 6.2 250 17:22 13.08.2019
3731 Clouds 21 1017 37 10000 4.6 250 16:58 13.08.2019
3732 Clouds 21 1017 40 10000 4.6 260 16:40 13.08.2019
3733 Clouds 21 1017 40 10000 4.6 260 16:21 13.08.2019
3734 Clouds 21 1017 40 10000 5.1 240 15:59 13.08.2019
3735 Clouds 20 1017 40 10000 5.7 290 15:38 13.08.2019
3736 Clouds 20 1017 40 10000 5.7 290 15:19 13.08.2019
3737 Clouds 20 1017 40 10000 5.1 270 14:43 13.08.2019
3738 Clouds 20 1017 45 10000 6.2 270 14:20 13.08.2019
3739 Clouds 19 1017 48 10000 4.6 270 13:58 13.08.2019
3740 Clouds 19 1017 48 10000 4.6 270 13:40 13.08.2019
3741 Clouds 19 1017 52 10000 4.6 260 13:20 13.08.2019
3742 Clouds 19 1017 55 10000 4.6 290 12:56 13.08.2019
3743 Clouds 18 1018 55 10000 4.6 290 12:38 13.08.2019
3744 Clouds 18 1018 55 10000 4.6 290 12:19 13.08.2019
3745 Clouds 17 1018 59 10000 4.6 270 11:42 13.08.2019
3746 Clouds 16 1018 63 10000 4.1 270 11:22 13.08.2019
3747 Clouds 16 1018 67 10000 3.6 280 10:57 13.08.2019
3748 Clouds 15 1018 72 10000 4.6 260 10:38 13.08.2019
3749 Clouds 14 1018 72 10000 4.6 260 10:19 13.08.2019
3750 Clouds 14 1018 72 10000 4.6 260 10:19 13.08.2019
3751 Clouds 13 1018 72 10000 3.6 250 09:46 13.08.2019
3752 Clouds 13 1018 72 10000 3.6 250 09:46 13.08.2019
3753 Clouds 13 1017 76 10000 3.6 250 09:25 13.08.2019
3754 Clouds 12 1017 82 10000 4.1 250 08:59 13.08.2019
3755 Clouds 11 1017 82 10000 4.1 250 08:39 13.08.2019
3756 Clouds 11 1017 82 10000 3.6 250 08:20 13.08.2019
3757 Clouds 10 1017 87 10000 3.1 230 07:46 13.08.2019
3758 Clouds 10 1017 87 10000 2.1 230 07:25 13.08.2019
3759 Clouds 10 1017 87 10000 2.6 220 06:44 13.08.2019
3760 Clouds 10 1017 87 10000 2.6 240 05:59 13.08.2019
3761 Clouds 10 1017 87 10000 2.1 240 05:32 13.08.2019
3762 Clear 11 1017 81 10000 2.6 280 02:22 13.08.2019
3763 Clear 11 1018 76 10000 4.1 260 01:46 13.08.2019
3764 Rain 11 1017 87 10000 2.6 230 00:52 13.08.2019
3765 Clear 12 1017 87 10000 2.6 230 00:22 13.08.2019
3766 Clear 12 1017 87 10000 2.6 220 23:47 12.08.2019
3767 Clear 13 1017 87 10000 3.1 220 23:21 12.08.2019
3768 Clear 13 1016 82 10000 3.1 240 22:57 12.08.2019
3769 Clear 13 1016 82 10000 3.1 240 22:38 12.08.2019
3770 Clear 13 1016 82 10000 3.6 0 22:19 12.08.2019
3771 Clear 13 1016 82 10000 3.1 220 21:55 12.08.2019
3772 Clear 14 1016 82 10000 3.1 220 21:36 12.08.2019
3773 Rain 15 1015 82 10000 3.1 220 21:18 12.08.2019
3774 Rain 15 1015 77 10000 3.6 220 20:55 12.08.2019
3775 Rain 16 1015 77 10000 3.6 220 20:36 12.08.2019
3776 Rain 16 1015 82 10000 3.1 220 20:18 12.08.2019
3777 Rain 16 1015 82 10000 3.6 210 19:54 12.08.2019
3778 Rain 16 1015 82 10000 3.6 210 19:36 12.08.2019
3779 Rain 16 1015 82 10000 3.6 170 19:18 12.08.2019
3780 Rain 16 1015 82 10000 2.6 140 18:41 12.08.2019
3781 Rain 16 1015 82 8000 1.5 0 18:21 12.08.2019
3782 Rain 17 1014 82 10000 1 0 17:58 12.08.2019
3783 Rain 17 1014 82 10000 1 0 17:40 12.08.2019
3784 Rain 16 1014 82 10000 2.6 140 17:21 12.08.2019
3785 Rain 17 1015 82 6000 2.6 180 16:56 12.08.2019
3786 Rain 17 1015 82 6000 2.6 180 16:56 12.08.2019
3787 Rain 16 1015 82 6000 2.6 180 16:38 12.08.2019
3788 Rain 16 1015 87 6000 1 0 16:19 12.08.2019
3789 Rain 16 1014 77 10000 3.1 90 15:56 12.08.2019
3790 -273 0 0 0 0 0 15:38 12.08.2019
3791 Rain 16 1014 77 10000 2.1 70 15:20 12.08.2019
3792 Rain 17 1014 77 3900 3.6 340 14:43 12.08.2019
3793 Rain 17 1014 59 10000 3.1 120 14:23 12.08.2019
3794 Rain 17 1014 59 10000 3.6 130 13:59 12.08.2019
3795 Rain 17 1014 59 10000 3.6 130 13:41 12.08.2019
3796 Rain 17 1014 59 10000 2.6 110 13:22 12.08.2019
3797 Rain 17 1014 55 10000 1 0 12:43 12.08.2019
3798 Thunderstorm 16 1014 55 10000 1.5 0 12:22 12.08.2019
3799 Rain 16 1014 67 10000 2.6 350 11:56 12.08.2019
3800 Rain 16 1014 67 10000 3.6 350 11:38 12.08.2019
3801 Rain 16 1014 67 10000 3.6 350 11:19 12.08.2019
3802 Rain 15 1014 72 10000 1.5 0 10:40 12.08.2019
3803 Rain 15 1014 72 10000 1.5 0 10:22 12.08.2019
3804 Rain 15 1014 77 10000 2.1 330 09:56 12.08.2019
3805 Rain 15 1014 77 10000 2.1 330 09:37 12.08.2019
3806 Rain 14 1014 82 10000 0.5 0 09:18 12.08.2019
3807 Clouds 14 1013 87 10000 2.1 210 08:42 12.08.2019
3808 Clouds 13 1014 93 10000 2.1 230 08:24 12.08.2019
3809 Clouds 13 1013 87 10000 1.5 0 07:57 12.08.2019
3810 Clouds 13 1013 87 10000 1.5 0 07:39 12.08.2019
3811 Clouds 13 1013 93 10000 1.5 330 07:19 12.08.2019
3812 Clouds 13 1013 93 10000 1.5 270 06:42 12.08.2019
3813 Clouds 13 1013 87 10000 2.6 230 04:40 12.08.2019
3814 Clouds 13 1013 87 10000 2.6 210 02:43 12.08.2019
3815 Clouds 14 1013 82 10000 3.1 230 01:52 12.08.2019
3816 Clouds 14 1013 82 10000 3.6 240 01:20 12.08.2019
3817 Clouds 14 1013 82 10000 4.6 230 00:56 12.08.2019
3818 Clouds 14 1013 77 10000 4.1 240 00:38 12.08.2019
3819 Clouds 15 1013 77 10000 3.6 230 00:18 12.08.2019
3820 Rain 15 1013 72 10000 4.6 250 23:41 11.08.2019
3821 Clouds 15 1013 72 10000 5.1 230 23:20 11.08.2019
3822 Rain 15 1012 72 10000 4.1 230 22:58 11.08.2019
3823 Rain 16 1012 72 10000 4.1 230 22:39 11.08.2019
3824 Rain 16 1012 68 10000 4.6 230 22:19 11.08.2019
3825 Rain 16 1012 68 10000 5.1 230 21:58 11.08.2019
3826 Rain 17 1012 68 10000 5.1 230 21:39 11.08.2019
3827 Rain 17 1012 72 10000 6.2 210 21:20 11.08.2019
3828 Rain 18 1011 59 10000 7.2 280 20:56 11.08.2019
3829 Rain 18 1011 59 10000 7.2 280 20:38 11.08.2019
3830 Rain 18 1012 68 10000 5.7 220 20:19 11.08.2019
3831 Thunderstorm 19 1010 56 10000 6.2 230 19:42 11.08.2019
3832 Rain 19 1010 53 10000 7.2 0 19:18 11.08.2019
3833 Rain 20 1010 52 10000 7.2 230 18:41 11.08.2019
3834 Rain 20 1010 52 10000 7.2 230 18:22 11.08.2019
3835 Clouds 20 1010 52 10000 8.2 230 17:59 11.08.2019
3836 Clouds 21 1010 52 10000 8.2 230 17:40 11.08.2019
3837 Rain 21 1010 49 10000 7.2 240 17:20 11.08.2019
3838 Clouds 21 1010 53 10000 6.7 220 16:56 11.08.2019
3839 Clouds 21 1010 53 10000 6.7 220 16:38 11.08.2019
3840 Clouds 21 1010 49 10000 7.7 230 16:19 11.08.2019
3841 Clouds 21 1010 49 10000 8.2 230 15:44 11.08.2019
3842 Clouds 21 1010 49 10000 8.2 240 15:24 11.08.2019
3843 Clouds 21 1010 49 10000 7.7 230 14:59 11.08.2019
3844 Clouds 21 1010 49 10000 7.7 230 14:39 11.08.2019
3845 Clouds 21 1011 53 10000 7.2 220 14:20 11.08.2019
3846 Clouds 21 1011 53 10000 7.7 210 13:44 11.08.2019
3847 Clouds 21 1011 52 10000 7.7 220 13:25 11.08.2019
3848 Clouds 21 1011 52 10000 7.7 220 13:25 11.08.2019
3849 Clouds 20 1011 52 10000 6.7 230 12:56 11.08.2019
3850 Clouds 20 1011 52 10000 6.7 230 12:37 11.08.2019
3851 Clouds 20 1011 56 10000 8.2 230 12:18 11.08.2019
3852 Clouds 19 1010 60 10000 6.7 240 11:39 11.08.2019
3853 Rain 19 1010 60 10000 7.7 230 11:21 11.08.2019
3854 Rain 19 1010 63 10000 6.7 230 10:55 11.08.2019
3855 Rain 18 1010 63 10000 6.7 230 10:37 11.08.2019
3856 Clouds 18 1011 72 10000 6.2 230 10:18 11.08.2019
3857 Clouds 17 1011 72 10000 6.7 230 09:42 11.08.2019
3858 Clouds 17 1011 77 10000 5.1 230 09:23 11.08.2019
3859 Clear 16 1011 77 10000 5.7 210 08:49 11.08.2019
3860 Clear 16 1011 82 10000 5.1 210 08:30 11.08.2019
3861 Rain 15 1010 77 10000 4.1 210 07:59 11.08.2019
3862 Rain 15 1010 77 10000 3.6 220 07:31 11.08.2019
3863 Clear 14 1011 77 10000 4.1 220 06:51 11.08.2019
3864 Clear 15 1011 77 10000 5.1 230 06:31 11.08.2019
3865 Clear 15 1011 77 10000 6.2 230 04:44 11.08.2019
3866 Clouds 15 1011 77 10000 6.7 220 02:50 11.08.2019
3867 Clouds 16 1011 72 10000 5.7 230 01:57 11.08.2019
3868 Clear 16 1011 72 10000 6.2 230 01:31 11.08.2019
3869 Clouds 16 1011 72 10000 7.2 230 00:56 11.08.2019
3870 Clouds 16 1011 72 10000 7.2 230 00:36 11.08.2019
3871 -273 0 0 0 0 0 23:55 10.08.2019
3872 Clear 16 1011 72 10000 7.7 230 23:34 10.08.2019
3873 Clouds 17 1011 77 10000 6.2 220 22:57 10.08.2019
3874 Clear 17 1010 72 10000 6.2 230 22:38 10.08.2019
3875 Clouds 17 1011 77 10000 9.8 220 22:19 10.08.2019
3876 Clouds 17 1009 68 10000 8.2 230 21:40 10.08.2019
3877 Clouds 18 1009 63 10000 8.7 230 21:21 10.08.2019
3878 Rain 18 1008 63 10000 9.3 230 20:59 10.08.2019
3879 Rain 18 1008 63 10000 9.3 230 20:59 10.08.2019
3880 Rain 18 1008 64 10000 8.7 230 20:40 10.08.2019
3881 Rain 19 1008 64 10000 9.3 220 20:20 10.08.2019
3882 Rain 19 1007 60 10000 9.3 240 19:56 10.08.2019
3883 Clouds 19 1007 60 10000 8.7 220 19:37 10.08.2019
3884 Rain 19 1007 60 10000 10.3 230 19:18 10.08.2019
3885 Clouds 20 1007 60 10000 9.3 230 18:39 10.08.2019
3886 Rain 20 1007 77 7000 9.3 240 18:20 10.08.2019
3887 Rain 20 1006 60 10000 11.3 230 17:41 10.08.2019
3888 Rain 20 1006 56 10000 9.8 230 17:23 10.08.2019
3889 Rain 20 1005 56 10000 10.3 220 16:45 10.08.2019
3890 Rain 20 1005 56 10000 11.8 230 16:26 10.08.2019
3891 Rain 20 1005 56 10000 10.8 230 15:53 10.08.2019
3892 Rain 20 1004 56 10000 11.8 230 15:24 10.08.2019
3893 Rain 20 1004 60 10000 10.3 230 14:45 10.08.2019
3894 Rain 20 1004 64 10000 10.3 230 14:21 10.08.2019
3895 Rain 19 1004 60 10000 10.8 230 13:42 10.08.2019
3896 Rain 19 1004 60 10000 10.8 230 13:42 10.08.2019
3897 Rain 19 1004 68 10000 10.3 220 13:21 10.08.2019
3898 Rain 19 1003 64 10000 9.3 220 12:58 10.08.2019
3899 Rain 19 1003 64 10000 9.3 220 12:39 10.08.2019
3900 Rain 19 1003 64 10000 10.3 230 12:21 10.08.2019
3901 Rain 19 1003 72 10000 9.8 220 11:42 10.08.2019
3902 Rain 19 1003 64 10000 9.3 230 11:23 10.08.2019
3903 Rain 18 1003 72 10000 8.7 220 10:59 10.08.2019
3904 Rain 18 1003 72 10000 8.7 220 10:38 10.08.2019
3905 Rain 18 1002 77 10000 7.7 230 10:19 10.08.2019
3906 Rain 18 1002 72 10000 7.7 230 09:43 10.08.2019
3907 Rain 17 1002 77 10000 7.7 220 09:24 10.08.2019
3908 Haze 17 1001 72 10000 8.7 230 08:56 10.08.2019
3909 Haze 17 1001 72 10000 8.7 230 08:38 10.08.2019
3910 Haze 17 1001 77 10000 8.7 230 08:18 10.08.2019
3911 Rain 17 1000 82 10000 8.7 220 07:46 10.08.2019
3912 Rain 16 999 77 10000 8.7 230 07:25 10.08.2019
3913 Clouds 17 999 82 10000 8.2 220 06:47 10.08.2019
3914 Rain 16 998 82 10000 6.2 230 06:18 10.08.2019
3915 Rain 17 999 88 10000 6.2 210 05:22 10.08.2019
3916 Rain 17 998 88 8000 6.7 210 04:18 10.08.2019
3917 Rain 17 998 82 10000 7.2 220 02:52 10.08.2019
3918 Rain 17 999 88 10000 6.7 200 01:57 10.08.2019
3919 Rain 17 999 88 10000 6.7 200 01:38 10.08.2019
3920 Rain 17 999 82 10000 5.7 200 01:19 10.08.2019
3921 Rain 18 999 82 10000 6.7 200 00:43 10.08.2019
3922 Rain 18 999 82 10000 5.7 200 00:21 10.08.2019
3923 Rain 18 1000 82 10000 6.7 210 23:42 09.08.2019
3924 Rain 18 1000 82 10000 5.7 210 23:22 09.08.2019
3925 Rain 18 1000 88 10000 6.7 200 22:56 09.08.2019
3926 Rain 18 1000 88 10000 6.7 200 22:38 09.08.2019
3927 Rain 18 1000 88 10000 9.8 190 22:19 09.08.2019
3928 Rain 19 1000 73 10000 7.2 200 21:41 09.08.2019
3929 Rain 19 1000 73 10000 7.2 200 21:41 09.08.2019
3930 Rain 19 1000 73 10000 9.3 200 21:23 09.08.2019
3931 Rain 20 1000 93 10000 7.7 210 20:58 09.08.2019
3932 Rain 20 999 73 10000 7.7 200 20:40 09.08.2019
3933 Rain 20 999 68 10000 8.7 210 20:20 09.08.2019
3934 Thunderstorm 20 1000 73 10000 6.7 220 19:56 09.08.2019
3935 Rain 20 1000 73 10000 6.7 220 19:38 09.08.2019
3936 Rain 21 999 64 10000 7.7 200 19:18 09.08.2019
3937 Rain 21 999 88 10000 9.3 230 18:41 09.08.2019
3938 Rain 22 999 57 10000 10.3 200 18:22 09.08.2019
3939 Rain 23 1000 53 10000 8.2 200 17:57 09.08.2019
3940 Rain 23 1000 53 10000 8.7 200 17:39 09.08.2019
3941 Rain 23 1000 53 10000 8.7 200 17:20 09.08.2019
3942 Rain 23 1000 53 10000 7.7 230 16:41 09.08.2019
3943 Rain 23 1000 57 10000 7.7 200 16:23 09.08.2019
3944 Rain 23 1001 57 10000 8.2 200 15:57 09.08.2019
3945 Rain 23 1001 53 10000 7.7 210 15:39 09.08.2019
3946 Rain 23 1001 53 10000 7.7 210 15:20 09.08.2019
3947 Rain 23 1001 53 10000 7.7 210 15:20 09.08.2019
3948 Rain 23 1001 53 10000 7.2 210 14:55 09.08.2019
3949 Clouds 23 1001 53 10000 7.2 210 14:37 09.08.2019
3950 Clouds 24 1001 53 10000 7.2 210 14:19 09.08.2019
3951 Clouds 24 1001 53 10000 6.7 210 13:43 09.08.2019
3952 Clouds 23 1001 64 10000 6.7 220 13:20 09.08.2019
3953 -273 0 0 0 0 0 12:46 09.08.2019
3954 Clouds 22 1001 73 10000 6.7 220 12:24 09.08.2019
3955 Clouds 22 1001 83 10000 4.1 200 11:59 09.08.2019
3956 Clouds 21 1001 83 10000 4.1 200 11:59 09.08.2019
3957 Clouds 21 1001 83 10000 4.1 200 11:37 09.08.2019
3958 Rain 21 1001 83 10000 5.1 200 11:19 09.08.2019
3959 Rain 20 1001 83 10000 5.1 200 10:41 09.08.2019
3960 Rain 20 1001 83 10000 5.1 200 10:41 09.08.2019
3961 Clouds 20 1001 88 10000 4.6 200 10:22 09.08.2019
3962 Rain 20 1001 88 6000 4.1 200 09:46 09.08.2019
3963 Rain 19 1002 100 4000 7.7 180 09:20 09.08.2019
3964 Rain 19 1001 88 10000 3.1 150 08:59 09.08.2019
3965 Rain 19 1001 88 10000 3.1 150 08:40 09.08.2019
3966 Rain 19 1002 100 8000 6.7 170 08:21 09.08.2019
3967 Rain 19 1002 93 10000 4.6 160 07:53 09.08.2019
3968 Rain 18 1001 88 10000 3.6 140 07:24 09.08.2019
3969 Rain 18 1002 93 10000 3.6 120 06:57 09.08.2019
3970 Rain 18 1002 88 10000 3.6 100 06:36 09.08.2019
3971 Rain 18 1002 88 10000 3.6 100 06:18 09.08.2019
3972 Rain 18 1003 88 10000 7.7 100 04:37 09.08.2019
3973 Rain 18 1006 88 8000 3.1 160 02:26 09.08.2019
3974 Rain 19 1007 88 10000 4.1 110 00:58 09.08.2019
3975 Rain 19 1007 88 10000 4.1 110 00:40 09.08.2019
3976 Rain 19 1007 77 10000 5.1 140 00:22 09.08.2019
3977 Rain 19 1008 77 10000 3.6 120 23:55 08.08.2019
3978 Rain 19 1008 77 10000 3.6 120 23:36 08.08.2019
3979 Rain 19 1009 88 10000 2.1 100 23:18 08.08.2019
3980 Rain 20 1008 64 10000 3.6 120 22:37 08.08.2019
3981 Rain 20 1008 68 10000 3.1 130 22:19 08.08.2019
3982 Clear 20 1009 88 10000 1.5 0 21:59 08.08.2019
3983 Rain 20 1008 60 10000 3.1 160 21:41 08.08.2019
3984 Clouds 21 1008 60 10000 3.1 140 21:22 08.08.2019
3985 Clouds 21 1009 60 10000 3.6 150 20:57 08.08.2019
3986 Clouds 22 1009 60 10000 3.6 150 20:39 08.08.2019
3987 Clouds 22 1009 60 10000 3.6 150 20:19 08.08.2019
3988 Clouds 22 1010 60 10000 3.6 190 19:47 08.08.2019
3989 Clouds 23 1009 60 10000 3.1 170 19:28 08.08.2019
3990 Clouds 23 1010 56 10000 3.6 160 18:54 08.08.2019
3991 Clouds 23 1010 53 10000 4.6 230 18:36 08.08.2019
3992 Clouds 23 1010 53 10000 4.6 230 18:18 08.08.2019
3993 Clouds 23 1010 53 10000 3.1 180 17:41 08.08.2019
3994 Clouds 23 1010 53 10000 3.6 230 17:23 08.08.2019
3995 Clouds 23 1010 53 10000 3.6 230 17:23 08.08.2019
3996 Clouds 23 1010 57 10000 4.1 200 16:56 08.08.2019
3997 Clouds 23 1010 57 10000 4.1 200 16:37 08.08.2019
3998 Clouds 23 1010 60 10000 4.1 170 16:37 08.08.2019
3999 Clouds 23 1010 60 10000 4.1 170 16:19 08.08.2019
4000 Clouds 23 1010 56 10000 3.1 0 15:56 08.08.2019
4001 Clouds 23 1010 53 10000 4.1 230 15:37 08.08.2019
4002 Clouds 23 1010 53 10000 4.1 230 15:19 08.08.2019
4003 Clouds 23 1010 49 10000 4.1 0 14:37 08.08.2019
4004 Clouds 22 1011 46 10000 4.1 230 14:18 08.08.2019
4005 Clouds 22 1011 46 10000 4.1 230 14:18 08.08.2019
4006 Clouds 23 1011 49 10000 3.1 200 13:42 08.08.2019
4007 Clouds 22 1011 49 10000 4.6 230 13:23 08.08.2019
4008 Clouds 22 1010 49 10000 4.6 220 12:57 08.08.2019
4009 Clouds 21 1010 60 10000 4.1 250 12:38 08.08.2019
4010 Clouds 21 1010 56 10000 4.1 260 12:18 08.08.2019
4011 Clouds 20 1010 56 10000 4.1 250 11:42 08.08.2019
4012 Rain 20 1011 64 10000 3.6 240 11:24 08.08.2019
4013 Clouds 19 1010 68 10000 3.6 240 10:42 08.08.2019
4014 Clouds 18 1010 68 10000 3.6 240 10:22 08.08.2019
4015 Clouds 17 1010 72 10000 3.6 250 09:58 08.08.2019
4016 Clouds 17 1010 72 10000 3.6 250 09:39 08.08.2019
4017 Clouds 16 1010 77 10000 3.6 250 09:20 08.08.2019
4018 Clear 15 1011 93 10000 3.1 220 08:42 08.08.2019
4019 Fog 14 1011 93 10000 2.6 230 08:21 08.08.2019
4020 Clear 13 1010 93 10000 2.1 210 07:56 08.08.2019
4021 Clear 13 1010 93 10000 2.1 210 07:56 08.08.2019
4022 Clear 13 1010 93 10000 2.1 210 07:37 08.08.2019
4023 Fog 13 1010 87 10000 4.1 230 07:18 08.08.2019
4024 Clouds 13 1010 93 10000 2.1 220 06:41 08.08.2019
4025 Clouds 13 1010 93 10000 2.1 250 05:58 08.08.2019
4026 Clouds 13 1010 93 10000 2.1 250 05:39 08.08.2019
4027 Clouds 14 1009 87 10000 3.1 270 04:18 08.08.2019
4028 Clouds 14 1009 87 10000 3.6 270 03:41 08.08.2019
4029 Clear 15 1009 77 10000 4.6 250 01:47 08.08.2019
4030 Clouds 15 1009 77 10000 4.6 260 01:20 08.08.2019
4031 Clear 16 1008 72 10000 3.6 270 00:25 08.08.2019
4032 Clear 17 1009 93 10000 4.1 220 23:39 07.08.2019
4033 Clear 17 1008 72 10000 5.1 230 23:18 07.08.2019
4034 Clouds 17 1009 87 10000 4.6 210 22:41 07.08.2019
4035 Clouds 17 1009 87 10000 4.6 210 22:41 07.08.2019
4036 Clear 18 1007 72 10000 5.1 230 22:21 07.08.2019
4037 Rain 18 1007 72 10000 4.6 230 21:58 07.08.2019
4038 Rain 18 1007 72 10000 4.6 230 21:40 07.08.2019
4039 Rain 18 1007 72 10000 4.6 230 21:40 07.08.2019
4040 Rain 19 1007 64 10000 5.7 230 21:21 07.08.2019
4041 Rain 19 1007 64 10000 5.7 230 20:59 07.08.2019
4042 Rain 20 1007 64 10000 5.1 230 20:41 07.08.2019
4043 Rain 20 1007 64 10000 5.1 230 20:22 07.08.2019
4044 Rain 20 1006 64 10000 5.1 230 19:56 07.08.2019
4045 Rain 20 1006 64 10000 5.1 230 19:56 07.08.2019
4046 Rain 21 1006 64 10000 5.1 230 19:37 07.08.2019
4047 Rain 21 1006 64 10000 6.2 230 19:19 07.08.2019
4048 Rain 21 1006 64 10000 5.7 220 18:41 07.08.2019
4049 Rain 21 1006 60 10000 5.1 240 18:20 07.08.2019
4050 Rain 21 1006 60 10000 6.2 230 17:57 07.08.2019
4051 Rain 22 1006 60 10000 6.2 230 17:38 07.08.2019
4052 Rain 21 1006 60 10000 6.7 220 17:20 07.08.2019
4053 Rain 22 1006 56 10000 5.7 210 16:57 07.08.2019
4054 Rain 22 1006 56 10000 5.7 210 16:57 07.08.2019
4055 Rain 21 1006 56 10000 5.7 210 16:38 07.08.2019
4056 Rain 21 1006 60 10000 4.6 220 16:19 07.08.2019
4057 Rain 21 1006 64 10000 5.1 260 15:55 07.08.2019
4058 Rain 21 1006 64 10000 5.1 260 15:37 07.08.2019
4059 Rain 21 1007 77 10000 5.7 290 15:37 07.08.2019
4060 Rain 21 1007 77 10000 5.7 290 15:18 07.08.2019
4061 Rain 21 1006 53 10000 6.2 250 14:45 07.08.2019
4062 Rain 21 1006 53 10000 4.6 230 14:24 07.08.2019
4063 Rain 21 1006 60 10000 5.7 260 13:44 07.08.2019
4064 Rain 21 1006 56 10000 5.7 250 13:19 07.08.2019
4065 Clouds 21 1006 56 10000 5.7 260 12:58 07.08.2019
4066 Clouds 21 1006 56 10000 5.7 260 12:58 07.08.2019
4067 Clouds 21 1006 56 10000 5.7 260 12:58 07.08.2019
4068 Clouds 21 1006 56 10000 5.7 260 12:39 07.08.2019
4069 Clouds 20 1006 56 10000 4.6 240 12:20 07.08.2019
4070 Clouds 20 1006 60 10000 5.7 240 11:59 07.08.2019
4071 Clouds 20 1006 60 10000 5.7 240 11:41 07.08.2019
4072 Clouds 19 1006 64 10000 5.1 240 11:19 07.08.2019
4073 Clouds 19 1006 68 10000 6.2 240 10:55 07.08.2019
4074 Clouds 18 1006 68 10000 5.7 250 10:37 07.08.2019
4075 Clouds 18 1006 68 10000 5.7 250 10:18 07.08.2019
4076 Clouds 17 1006 77 10000 5.1 240 09:44 07.08.2019
4077 Clear 16 1006 77 10000 4.6 250 09:21 07.08.2019
4078 Clear 16 1006 77 10000 4.6 230 08:55 07.08.2019
4079 Clear 15 1006 77 10000 4.6 230 08:37 07.08.2019
4080 Clouds 15 1006 82 10000 4.6 240 08:19 07.08.2019
4081 Clear 14 1005 82 10000 3.6 240 07:39 07.08.2019
4082 Clear 14 1005 93 10000 2.6 260 07:20 07.08.2019
4083 Clear 14 1005 93 10000 3.1 240 06:29 07.08.2019
4084 Clouds 14 1006 87 10000 3.6 220 05:49 07.08.2019
4085 Clear 15 1006 93 10000 3.6 210 04:53 07.08.2019
4086 Clouds 15 1005 93 10000 3.6 230 03:21 07.08.2019
4087 Clouds 15 1006 82 10000 4.1 240 02:47 07.08.2019
4088 Clouds 15 1006 82 10000 4.1 220 01:58 07.08.2019
4089 Clouds 16 1006 82 10000 4.1 220 01:39 07.08.2019
4090 Clouds 16 1006 77 10000 5.1 230 00:43 07.08.2019
4091 Rain 16 1006 77 10000 5.7 230 00:22 07.08.2019
4092 Clouds 17 1007 87 10000 5.1 210 23:41 06.08.2019
4093 Rain 17 1007 87 10000 6.2 210 23:21 06.08.2019
4094 Rain 17 1007 87 10000 5.7 210 22:57 06.08.2019
4095 Rain 17 1007 87 10000 5.7 210 22:38 06.08.2019
4096 Rain 17 1007 87 10000 5.1 210 22:19 06.08.2019
4097 Rain 18 1005 68 10000 6.2 230 21:43 06.08.2019
4098 Rain 18 1006 82 10000 7.7 210 21:25 06.08.2019
4099 Rain 19 1005 64 10000 7.2 230 20:58 06.08.2019
4100 Rain 19 1005 64 10000 7.2 230 20:40 06.08.2019
4101 Clouds 20 1005 56 10000 6.2 210 20:21 06.08.2019
4102 Rain 20 1005 56 10000 6.7 220 19:43 06.08.2019
4103 Clouds 21 1006 56 10000 7.2 210 19:25 06.08.2019
4104 Clouds 21 1006 53 10000 6.7 210 18:54 06.08.2019
4105 Clouds 22 1006 53 10000 7.2 210 18:36 06.08.2019
4106 Clouds 22 1006 53 10000 7.2 210 18:18 06.08.2019
4107 Clouds 22 1006 53 10000 8.2 210 17:54 06.08.2019
4108 Clouds 22 1006 53 10000 8.2 210 17:36 06.08.2019
4109 Clouds 22 1006 53 10000 6.2 210 17:18 06.08.2019
4110 Clouds 22 1006 53 10000 6.2 210 17:18 06.08.2019
4111 Clouds 23 1006 53 10000 7.2 210 16:41 06.08.2019
4112 Clouds 23 1007 53 10000 6.2 210 16:21 06.08.2019
4113 Clouds 23 1007 53 10000 6.7 210 15:57 06.08.2019
4114 Clouds 23 1007 53 10000 6.7 210 15:39 06.08.2019
4115 Clouds 23 1007 53 10000 6.2 210 15:20 06.08.2019
4116 Clouds 23 1007 53 10000 5.1 220 14:44 06.08.2019
4117 -273 0 0 0 0 0 14:26 06.08.2019
4118 Clouds 22 1008 49 10000 6.2 230 13:58 06.08.2019
4119 Clouds 22 1008 49 10000 6.2 230 13:40 06.08.2019
4120 Clouds 22 1008 53 10000 5.1 220 13:21 06.08.2019
4121 Clouds 22 1008 60 10000 5.7 220 12:58 06.08.2019
4122 Clouds 22 1008 60 10000 5.7 220 12:39 06.08.2019
4123 Clouds 21 1009 60 10000 5.1 230 12:21 06.08.2019
4124 Clouds 21 1009 60 10000 5.7 230 11:43 06.08.2019
4125 Clouds 20 1009 68 10000 5.1 230 11:19 06.08.2019
4126 Clouds 20 1009 68 10000 6.7 230 10:56 06.08.2019
4127 Clouds 19 1009 68 10000 6.7 230 10:37 06.08.2019
4128 Clouds 19 1009 72 10000 5.7 240 10:19 06.08.2019
4129 Clouds 18 1009 72 10000 6.2 230 09:40 06.08.2019
4130 Clouds 17 1009 77 10000 4.6 230 09:20 06.08.2019
4131 Clouds 17 1009 77 10000 4.1 230 08:48 06.08.2019
4132 Clouds 16 1009 82 10000 4.1 220 08:26 06.08.2019
4133 Clouds 15 1009 82 10000 3.6 210 07:47 06.08.2019
4134 Clouds 15 1009 93 10000 3.6 220 07:23 06.08.2019
4135 Clouds 15 1009 87 10000 3.6 200 06:43 06.08.2019
4136 Clouds 15 1009 87 10000 3.6 220 06:19 06.08.2019
4137 Clouds 15 1010 87 10000 2.6 220 04:36 06.08.2019
4138 Rain 16 1010 82 10000 4.6 230 01:59 06.08.2019
4139 Rain 16 1010 77 10000 4.6 230 01:24 06.08.2019
4140 Rain 16 1010 72 10000 4.6 230 00:39 06.08.2019
4141 Rain 17 1010 68 10000 4.1 230 23:51 05.08.2019
4142 Rain 18 1010 60 10000 4.1 220 23:19 05.08.2019
4143 Rain 18 1010 60 10000 4.1 220 23:19 05.08.2019
4144 Clear 18 1010 72 10000 5.1 220 22:42 05.08.2019
4145 Rain 18 1010 63 10000 5.1 210 22:23 05.08.2019
4146 Clouds 19 1009 52 10000 6.2 240 21:58 05.08.2019
4147 Rain 19 1009 56 10000 6.2 230 21:39 05.08.2019
4148 Rain 20 1009 56 10000 6.7 230 21:19 05.08.2019
4149 Clouds 21 1009 53 10000 6.2 230 20:56 05.08.2019
4150 Clouds 21 1009 53 10000 6.2 230 20:37 05.08.2019
4151 Clouds 22 1008 53 10000 5.7 240 20:18 05.08.2019
4152 Clouds 22 1008 50 10000 5.7 240 19:43 05.08.2019
4153 Clouds 22 1008 50 10000 5.7 230 19:24 05.08.2019
4154 Clouds 23 1008 47 10000 5.7 240 18:58 05.08.2019
4155 Clouds 23 1008 47 10000 5.7 240 18:40 05.08.2019
4156 Clear 23 1008 44 10000 6.2 260 18:19 05.08.2019
4157 Clear 24 1008 41 10000 5.1 250 17:45 05.08.2019
4158 Clear 24 1008 41 10000 5.1 250 17:45 05.08.2019
4159 Clear 24 1008 41 10000 7.2 250 17:26 05.08.2019
4160 Clear 24 1008 41 10000 6.7 240 16:46 05.08.2019
4161 Clear 24 1008 47 10000 7.2 260 16:26 05.08.2019
4162 Clear 24 1008 44 10000 6.7 240 15:56 05.08.2019
4163 Clear 24 1008 44 10000 6.7 240 15:38 05.08.2019
4164 Clouds 23 1008 56 10000 6.7 260 15:19 05.08.2019
4165 Clouds 23 1008 60 10000 6.2 200 14:39 05.08.2019
4166 Clouds 23 1008 60 10000 6.2 200 14:19 05.08.2019
4167 Clouds 22 1009 64 10000 5.1 220 13:44 05.08.2019
4168 Clouds 22 1009 77 10000 5.1 190 13:23 05.08.2019
4169 Rain 21 1009 88 10000 4.1 200 12:49 05.08.2019
4170 Rain 19 1009 88 10000 4.1 0 12:21 05.08.2019
4171 Drizzle 19 1009 88 10000 4.6 200 11:54 05.08.2019
4172 Rain 19 1009 88 10000 4.1 210 11:36 05.08.2019
4173 Rain 18 1009 88 10000 4.1 210 11:18 05.08.2019
4174 Rain 18 1010 88 4500 4.1 220 10:43 05.08.2019
4175 Rain 18 1010 82 10000 4.1 220 10:22 05.08.2019
4176 Rain 17 1009 88 10000 4.1 210 09:44 05.08.2019
4177 Rain 17 1011 93 10000 7.7 190 09:26 05.08.2019
4178 Rain 17 1010 88 4500 4.1 210 08:59 05.08.2019
4179 Rain 17 1010 88 4500 4.1 210 08:41 05.08.2019
4180 Rain 17 1010 88 4500 4.1 210 08:41 05.08.2019
4181 Drizzle 17 1010 82 10000 3.6 210 08:20 05.08.2019
4182 Clouds 16 1010 88 10000 4.1 210 07:45 05.08.2019
4183 Clouds 16 1010 82 10000 3.1 210 07:26 05.08.2019
4184 Clouds 16 1010 88 10000 2.1 210 06:39 05.08.2019
4185 Clouds 16 1011 82 10000 2.1 210 05:52 05.08.2019
4186 Clouds 16 1011 82 10000 3.1 230 05:20 05.08.2019
4187 Clouds 16 1011 87 10000 2.6 230 04:28 05.08.2019
4188 Clouds 16 1011 88 10000 3.6 230 03:42 05.08.2019
4189 Clouds 16 1011 77 10000 3.6 230 02:37 05.08.2019
4190 Clouds 17 1011 72 10000 5.1 240 01:36 05.08.2019
4191 Clouds 17 1012 77 10000 5.1 230 00:54 05.08.2019
4192 Clouds 18 1011 72 10000 3.6 220 00:36 05.08.2019
4193 Clouds 18 1011 77 10000 3.6 230 00:18 05.08.2019
4194 Clouds 19 1012 72 10000 5.1 220 23:41 04.08.2019
4195 Clouds 19 1011 73 10000 3.1 210 23:20 04.08.2019
4196 Rain 19 1011 68 10000 3.1 220 22:56 04.08.2019
4197 Rain 19 1011 68 10000 3.1 220 22:37 04.08.2019
4198 Clouds 20 1011 64 10000 3.6 210 22:19 04.08.2019
4199 Clouds 20 1011 60 10000 4.6 230 21:44 04.08.2019
4200 Clouds 21 1011 64 10000 4.1 210 21:22 04.08.2019
4201 Clouds 21 1011 68 10000 4.6 200 20:56 04.08.2019
4202 Clouds 21 1011 68 10000 4.6 200 20:37 04.08.2019
4203 Rain 21 1011 68 10000 3.6 170 20:18 04.08.2019
4204 Rain 22 1011 64 10000 3.1 190 19:43 04.08.2019
4205 Rain 22 1011 60 10000 5.1 200 19:24 04.08.2019
4206 Clouds 23 1011 57 10000 5.1 200 18:44 04.08.2019
4207 Clouds 23 1011 53 10000 5.1 160 18:21 04.08.2019
4208 Rain 24 1012 47 10000 5.1 180 17:59 04.08.2019
4209 Rain 24 1012 47 10000 5.1 180 17:40 04.08.2019
4210 Clouds 24 1012 47 10000 4.6 170 17:21 04.08.2019
4211 Clouds 25 1012 47 10000 5.1 150 16:44 04.08.2019
4212 Clouds 25 1012 47 10000 5.1 140 16:26 04.08.2019
4213 Clouds 25 1012 50 10000 5.1 150 15:45 04.08.2019
4214 Rain 25 1013 50 10000 5.1 140 15:23 04.08.2019
4215 Clouds 24 1013 53 10000 4.6 160 14:57 04.08.2019
4216 Clouds 24 1013 53 10000 4.6 160 14:39 04.08.2019
4217 Clouds 24 1013 50 10000 4.6 150 14:20 04.08.2019
4218 Clouds 24 1013 57 10000 4.6 140 13:43 04.08.2019
4219 Clouds 24 1014 60 10000 4.1 160 13:23 04.08.2019
4220 Clouds 24 1014 60 10000 4.6 130 12:46 04.08.2019
4221 Clouds 23 1014 64 10000 3.1 140 12:27 04.08.2019
4222 Clouds 23 1014 64 10000 3.6 120 11:57 04.08.2019
4223 Clouds 23 1014 64 10000 3.6 120 11:37 04.08.2019
4224 Clouds 22 1014 68 10000 3.6 110 11:19 04.08.2019
4225 Clouds 22 1014 68 10000 3.6 110 11:19 04.08.2019
4226 Clouds 21 1015 73 10000 3.1 90 10:41 04.08.2019
4227 Clouds 20 1015 77 10000 3.6 90 10:21 04.08.2019
4228 Clouds 19 1015 77 10000 3.1 80 09:45 04.08.2019
4229 Clouds 18 1015 77 10000 3.6 90 09:25 04.08.2019
4230 Clouds 17 1015 82 10000 3.1 100 08:53 04.08.2019
4231 Clouds 16 1015 88 10000 3.6 90 08:32 04.08.2019
4232 Clouds 15 1015 88 10000 3.1 80 07:53 04.08.2019
4233 Clouds 15 1015 82 10000 2.1 90 07:22 04.08.2019
4234 Clouds 14 1016 87 10000 1.5 100 06:28 04.08.2019
4235 Clouds 14 1016 87 10000 3.6 100 05:42 04.08.2019
4236 Clouds 15 1017 82 10000 1.5 110 02:47 04.08.2019
4237 Clouds 16 1017 77 10000 2.6 100 01:51 04.08.2019
4238 Clouds 16 1017 82 10000 2.1 140 01:27 04.08.2019
4239 Clouds 17 1017 72 10000 3.1 90 00:41 04.08.2019
4240 Clouds 17 1017 77 10000 1.5 120 00:22 04.08.2019
4241 Clouds 18 1017 68 10000 2.1 110 23:42 03.08.2019
4242 Clouds 18 1017 68 10000 2.1 120 23:19 03.08.2019
4243 Clouds 19 1017 64 10000 2.6 160 22:57 03.08.2019
4244 Clouds 19 1017 64 10000 2.6 160 22:38 03.08.2019
4245 Clouds 19 1017 64 10000 3.1 140 22:18 03.08.2019
4246 Clouds 20 1017 64 10000 4.1 140 21:39 03.08.2019
4247 Rain 21 1017 68 10000 4.1 140 21:20 03.08.2019
4248 Rain 21 1017 64 10000 4.1 130 20:43 03.08.2019
4249 Clouds 22 1017 68 10000 4.1 140 20:24 03.08.2019
4250 Clouds 22 1017 60 10000 4.1 130 19:43 03.08.2019
4251 Clouds 22 1017 60 10000 4.1 130 19:43 03.08.2019
4252 Clouds 22 1018 60 10000 4.6 130 19:25 03.08.2019
4253 Clouds 23 1018 60 10000 4.6 120 18:57 03.08.2019
4254 Clouds 23 1018 60 10000 4.6 120 18:39 03.08.2019
4255 Clouds 23 1018 56 10000 4.6 100 18:20 03.08.2019
4256 Clouds 23 1018 53 10000 3.1 130 17:42 03.08.2019
4257 Clouds 23 1018 50 10000 2.6 130 17:18 03.08.2019
4258 Clouds 23 1018 53 10000 2.6 100 16:38 03.08.2019
4259 Clouds 23 1019 50 10000 2.1 0 16:19 03.08.2019
4260 Clouds 23 1019 50 10000 1 0 15:45 03.08.2019
4261 Clouds 23 1019 50 10000 1 0 15:25 03.08.2019
4262 Clouds 23 1019 50 10000 1.5 0 14:46 03.08.2019
4263 Clouds 23 1019 56 10000 2.1 70 14:23 03.08.2019
4264 Clouds 23 1019 56 10000 2.1 70 13:57 03.08.2019
4265 Clouds 23 1019 56 10000 2.1 70 13:36 03.08.2019
4266 Clouds 23 1019 60 10000 2.1 90 13:18 03.08.2019
4267 Clouds 22 1020 68 10000 2.6 90 12:41 03.08.2019
4268 Clouds 21 1020 68 10000 2.6 90 12:23 03.08.2019
4269 Clouds 21 1020 72 10000 2.1 90 11:52 03.08.2019
4270 Clouds 21 1020 72 10000 2.1 90 11:34 03.08.2019
4271 Clouds 20 1020 72 10000 2.6 90 10:46 03.08.2019
4272 Clouds 19 1020 77 10000 2.6 90 10:24 03.08.2019
4273 Clouds 19 1020 77 10000 2.6 90 10:24 03.08.2019
4274 Clouds 18 1020 82 10000 3.1 100 09:45 03.08.2019
4275 Clouds 17 1020 82 10000 2.6 80 09:24 03.08.2019
4276 Fog 17 1020 88 10000 3.1 90 08:56 03.08.2019
4277 Fog 15 1020 88 10000 2.6 70 08:25 03.08.2019
4278 Fog 14 1020 88 10000 2.1 60 07:38 03.08.2019
4279 Mist 14 1020 93 10000 2.1 80 06:47 03.08.2019
4280 Mist 14 1020 93 10000 1.5 90 05:59 03.08.2019
4281 Clouds 16 1020 88 10000 2.1 90 02:50 03.08.2019
4282 Clouds 16 1020 88 10000 2.1 60 02:23 03.08.2019
4283 Clouds 17 1020 82 10000 3.1 90 00:58 03.08.2019
4284 Clouds 17 1020 82 10000 3.6 90 00:32 03.08.2019
4285 Rain 18 1020 82 10000 4.6 90 23:42 02.08.2019
4286 Rain 18 1020 82 10000 5.1 100 23:20 02.08.2019
4287 Rain 19 1020 77 10000 5.1 80 22:58 02.08.2019
4288 Rain 19 1020 77 10000 5.1 80 22:40 02.08.2019
4289 Rain 20 1019 73 10000 6.2 80 22:21 02.08.2019
4290 Rain 20 1019 53 10000 4.1 110 21:56 02.08.2019
4291 Rain 21 1019 53 10000 4.1 110 21:37 02.08.2019
4292 Rain 22 1018 50 10000 3.1 350 21:18 02.08.2019
4293 Rain 22 1018 50 10000 3.1 330 20:42 02.08.2019
4294 Rain 23 1018 47 10000 3.1 60 20:22 02.08.2019
4295 Rain 23 1018 47 10000 3.6 360 19:50 02.08.2019
4296 Rain 23 1018 47 10000 3.6 360 19:50 02.08.2019
4297 Rain 23 1018 50 10000 3.1 0 19:30 02.08.2019
4298 Rain 24 1018 50 10000 3.6 0 18:50 02.08.2019
4299 Clouds 24 1018 50 10000 3.1 350 18:32 02.08.2019
4300 Clouds 24 1018 47 10000 3.1 340 17:57 02.08.2019
4301 Clouds 24 1018 47 10000 3.1 340 17:39 02.08.2019
4302 Clouds 24 1019 50 10000 2.6 0 17:20 02.08.2019
4303 Rain 24 1019 50 10000 3.1 10 16:39 02.08.2019
4304 Rain 24 1019 56 10000 2.6 0 16:20 02.08.2019
4305 Rain 24 1019 56 10000 4.1 360 15:56 02.08.2019
4306 Rain 24 1019 56 10000 4.1 360 15:36 02.08.2019
4307 Clouds 23 1019 60 10000 3.6 340 15:18 02.08.2019
4308 Clouds 23 1019 60 10000 2.6 340 14:41 02.08.2019
4309 Clouds 23 1019 56 10000 2.6 0 14:18 02.08.2019
4310 Clouds 22 1019 64 10000 2.1 60 13:46 02.08.2019
4311 Clouds 22 1019 64 10000 2.1 0 13:21 02.08.2019
4312 Rain 21 1019 72 10000 3.6 10 12:44 02.08.2019
4313 Rain 21 1019 72 10000 3.6 10 12:20 02.08.2019
4314 Clouds 20 1019 72 10000 2.6 350 11:41 02.08.2019
4315 Clouds 20 1019 77 10000 3.1 330 11:23 02.08.2019
4316 Clouds 19 1019 82 10000 2.6 310 10:48 02.08.2019
4317 Clouds 19 1019 82 10000 3.1 340 10:24 02.08.2019
4318 Mist 18 1019 82 10000 3.1 350 09:58 02.08.2019
4319 Mist 18 1019 82 10000 3.1 350 09:40 02.08.2019
4320 Clouds 17 1019 82 10000 3.1 340 09:22 02.08.2019
4321 Mist 16 1019 88 10000 2.6 340 08:41 02.08.2019
4322 Mist 16 1019 88 8000 2.1 0 08:20 02.08.2019
4323 Mist 15 1018 87 10000 1.5 320 07:45 02.08.2019
4324 Mist 15 1018 93 10000 1.5 320 07:26 02.08.2019
4325 Mist 15 1018 88 10000 2.1 290 06:41 02.08.2019
4326 Mist 15 1018 88 10000 2.1 350 05:47 02.08.2019
4327 Clear 16 1018 82 10000 2.1 340 03:54 02.08.2019
4328 Clouds 17 1018 77 10000 2.1 360 03:24 02.08.2019
4329 Rain 18 1018 68 10000 3.1 50 01:44 02.08.2019
4330 Rain 18 1018 64 10000 2.1 50 00:34 02.08.2019
4331 Rain 19 1018 64 10000 2.1 50 23:46 01.08.2019
4332 Rain 19 1018 60 10000 2.6 50 23:27 01.08.2019
4333 Rain 19 1018 60 10000 2.6 50 23:27 01.08.2019
4334 Rain 20 1017 56 10000 2.1 50 22:46 01.08.2019
4335 Rain 20 1018 72 10000 2.6 30 22:26 01.08.2019
4336 Rain 20 1017 60 10000 3.1 40 21:59 01.08.2019
4337 Rain 21 1017 60 10000 3.1 40 21:41 01.08.2019
4338 Rain 22 1017 50 10000 3.1 350 21:23 01.08.2019
4339 Clear 22 1016 53 10000 3.1 330 20:47 01.08.2019
4340 Clear 23 1016 50 10000 2.6 340 20:23 01.08.2019
4341 Clear 23 1016 50 10000 2.6 350 19:59 01.08.2019
4342 Clear 24 1016 50 10000 2.6 350 19:38 01.08.2019
4343 Clear 24 1016 50 10000 2.6 350 19:19 01.08.2019
4344 Clouds 24 1016 53 10000 3.1 290 18:43 01.08.2019
4345 Clouds 24 1016 50 10000 3.1 270 18:24 01.08.2019
4346 Clear 25 1016 47 10000 2.1 300 17:51 01.08.2019
4347 Clouds 24 1016 50 10000 3.6 320 17:32 01.08.2019
4348 Clouds 24 1017 50 10000 3.1 290 16:57 01.08.2019
4349 Clouds 24 1017 50 10000 3.1 290 16:39 01.08.2019
4350 Clouds 24 1017 53 10000 3.6 280 16:19 01.08.2019
4351 Clouds 23 1017 53 10000 3.6 300 15:41 01.08.2019
4352 Rain 23 1017 60 10000 3.1 280 15:19 01.08.2019
4353 Clouds 22 1017 60 10000 3.1 260 14:43 01.08.2019
4354 Clouds 22 1017 60 10000 2.6 280 14:20 01.08.2019
4355 Clouds 22 1017 64 10000 2.1 280 13:58 01.08.2019
4356 Clouds 21 1017 64 10000 2.1 280 13:40 01.08.2019
4357 Clouds 21 1017 64 10000 3.1 290 13:21 01.08.2019
4358 Clouds 20 1017 64 10000 2.6 300 12:48 01.08.2019
4359 Clouds 20 1017 68 10000 2.6 280 12:27 01.08.2019
4360 Clouds 20 1017 68 10000 3.1 290 11:44 01.08.2019
4361 Clouds 19 1017 72 10000 3.6 300 11:25 01.08.2019
4362 Clouds 19 1017 72 10000 3.6 300 10:59 01.08.2019
4363 Clouds 19 1017 72 10000 3.6 300 10:40 01.08.2019
4364 Clouds 18 1017 72 10000 4.1 260 10:22 01.08.2019
4365 Clouds 17 1017 72 10000 3.6 240 09:48 01.08.2019
4366 Clouds 16 1017 77 10000 3.6 240 09:23 01.08.2019
4367 Clouds 16 1017 77 10000 4.1 240 08:50 01.08.2019
4368 Clear 15 1017 82 10000 3.6 230 08:21 01.08.2019
4369 Clear 15 1016 77 10000 3.6 230 07:55 01.08.2019
4370 Clear 14 1016 77 10000 3.6 230 07:29 01.08.2019
4371 Clouds 14 1016 77 10000 3.6 240 06:58 01.08.2019
4372 Clouds 14 1016 72 10000 4.1 240 06:36 01.08.2019
4373 Clouds 14 1016 67 10000 3.6 220 05:32 01.08.2019
4374 Clouds 15 1016 72 10000 4.1 260 02:36 01.08.2019
4375 Clouds 16 1016 63 10000 3.6 270 01:33 01.08.2019
4376 Clouds 17 1015 68 10000 3.1 280 00:27 01.08.2019
4377 Clear 17 1016 87 10000 3.6 220 23:59 31.07.2019
4378 Clear 17 1016 87 10000 3.6 220 23:41 31.07.2019
4379 Clear 17 1016 93 10000 3.6 220 23:20 31.07.2019
4380 Rain 18 1015 93 10000 3.6 220 22:45 31.07.2019
4381 Rain 18 1015 88 10000 5.1 220 22:27 31.07.2019
4382 Clouds 19 1014 43 10000 4.6 260 21:45 31.07.2019
4383 Clouds 20 1013 43 10000 6.7 260 21:24 31.07.2019
4384 Clear 20 1013 43 10000 6.2 270 20:56 31.07.2019
4385 Clear 20 1013 43 10000 6.2 270 20:38 31.07.2019
4386 Clouds 21 1013 43 10000 6.7 250 20:20 31.07.2019
4387 Clouds 21 1013 43 10000 6.7 250 19:41 31.07.2019
4388 Clouds 21 1013 53 10000 5.7 230 19:22 31.07.2019
4389 Clouds 21 1013 49 10000 5.7 230 18:41 31.07.2019
4390 Rain 22 1013 46 10000 7.2 250 18:23 31.07.2019
4391 Clouds 22 1013 53 10000 5.7 230 17:56 31.07.2019
4392 Clouds 22 1013 53 10000 5.7 230 17:37 31.07.2019
4393 Clouds 21 1013 53 10000 8.2 230 17:19 31.07.2019
4394 Clouds 21 1013 56 10000 7.2 230 16:41 31.07.2019
4395 Rain 21 1013 56 10000 6.2 230 16:19 31.07.2019
4396 Rain 21 1013 56 10000 5.7 230 15:44 31.07.2019
4397 Rain 21 1013 60 10000 6.7 230 15:24 31.07.2019
4398 Rain 21 1013 56 10000 6.2 240 14:42 31.07.2019
4399 Rain 21 1012 60 10000 6.7 240 14:21 31.07.2019
4400 Rain 20 1012 60 10000 8.2 250 13:57 31.07.2019
4401 Rain 20 1012 60 10000 8.2 250 13:57 31.07.2019
4402 Rain 20 1012 60 10000 8.2 250 13:38 31.07.2019
4403 Clouds 20 1012 60 10000 8.2 250 13:20 31.07.2019
4404 Clouds 20 1012 60 10000 7.2 260 12:45 31.07.2019
4405 Clouds 20 1012 60 10000 7.2 260 12:45 31.07.2019
4406 Clouds 20 1012 64 10000 6.7 260 12:26 31.07.2019
4407 Clouds 19 1012 64 10000 8.7 260 11:58 31.07.2019
4408 Clouds 19 1012 64 10000 8.7 260 11:38 31.07.2019
4409 Clouds 19 1012 68 10000 7.7 250 11:19 31.07.2019
4410 Rain 18 1012 77 10000 7.2 240 10:41 31.07.2019
4411 Clouds 17 1011 77 10000 7.2 240 10:20 31.07.2019
4412 Clouds 17 1011 77 10000 6.7 240 09:43 31.07.2019
4413 Clouds 17 1011 77 10000 6.2 240 09:24 31.07.2019
4414 Clouds 17 1011 77 10000 6.2 240 08:56 31.07.2019
4415 Clouds 16 1011 82 10000 5.7 240 08:37 31.07.2019
4416 Rain 16 1011 82 10000 6.2 240 08:19 31.07.2019
4417 Clouds 16 1010 82 10000 6.2 230 07:34 31.07.2019
4418 Rain 16 1009 82 10000 6.2 240 06:31 31.07.2019
4419 Rain 16 1009 88 10000 6.2 240 04:49 31.07.2019
4420 Rain 16 1007 82 10000 6.2 240 01:32 31.07.2019
4421 Clouds 17 1007 82 10000 5.7 210 23:58 30.07.2019
4422 Clouds 17 1007 82 10000 5.7 210 23:39 30.07.2019
4423 Rain 17 1006 82 10000 6.7 230 23:18 30.07.2019
4424 Rain 17 1006 82 10000 6.2 220 22:45 30.07.2019
4425 Rain 17 1006 88 10000 6.2 230 22:25 30.07.2019
4426 Rain 17 1005 77 10000 5.7 190 21:39 30.07.2019
4427 Rain 17 1005 77 10000 5.7 190 21:20 30.07.2019
4428 Rain 18 1004 77 10000 6.2 220 20:59 30.07.2019
4429 Rain 18 1004 77 10000 6.2 220 20:41 30.07.2019
4430 Rain 18 1004 77 10000 6.7 220 20:23 30.07.2019
4431 Rain 18 1004 82 10000 7.2 200 19:56 30.07.2019
4432 Rain 18 1004 82 10000 7.2 200 19:36 30.07.2019
4433 Rain 18 1004 82 10000 6.7 180 18:55 30.07.2019
4434 Rain 18 1004 82 10000 6.7 180 18:37 30.07.2019
4435 Rain 18 1003 82 10000 7.7 190 18:18 30.07.2019
4436 Rain 18 1004 72 9000 7.7 170 17:41 30.07.2019
4437 Rain 18 1004 77 10000 7.7 180 17:19 30.07.2019
4438 Rain 18 1004 72 10000 8.7 170 16:50 30.07.2019
4439 Rain 18 1004 72 10000 7.7 170 16:20 30.07.2019
4440 Rain 18 1002 82 5000 9.8 170 15:56 30.07.2019
4441 Rain 18 1004 82 10000 6.7 160 15:37 30.07.2019
4442 Rain 18 1005 82 6000 6.7 170 15:18 30.07.2019
4443 Rain 18 1005 77 10000 5.7 150 14:41 30.07.2019
4444 Rain 18 1005 82 4300 6.2 160 14:19 30.07.2019
4445 Rain 18 1005 82 4900 6.7 150 13:46 30.07.2019
4446 Rain 18 1005 82 10000 5.7 140 13:28 30.07.2019
4447 Rain 18 1005 88 6000 6.7 140 12:58 30.07.2019
4448 Rain 18 1005 88 6000 6.7 140 12:39 30.07.2019
4449 Rain 18 1005 82 10000 6.7 130 12:21 30.07.2019
4450 Rain 19 1006 68 10000 7.2 150 11:40 30.07.2019
4451 Rain 19 1006 64 10000 7.2 140 11:20 30.07.2019
4452 Rain 19 1006 60 10000 6.7 160 10:46 30.07.2019
4453 Rain 19 1006 64 10000 5.1 150 10:27 30.07.2019
4454 Rain 19 1006 68 10000 5.1 140 09:50 30.07.2019
4455 Rain 19 1006 68 10000 5.7 140 09:31 30.07.2019
4456 Rain 19 1006 72 10000 5.7 140 08:53 30.07.2019
4457 Rain 18 1006 72 10000 4.6 150 08:31 30.07.2019
4458 Rain 17 1006 68 10000 4.6 150 07:47 30.07.2019
4459 Rain 17 1006 68 10000 4.6 150 07:29 30.07.2019
4460 Rain 17 1006 77 10000 4.1 140 06:48 30.07.2019
4461 Clouds 17 1006 68 10000 4.1 160 06:22 30.07.2019
4462 Clouds 17 1006 77 10000 2.6 130 05:33 30.07.2019
4463 Clouds 18 1007 72 10000 2.1 100 03:28 30.07.2019
4464 Rain 19 1007 64 10000 6.2 100 01:20 30.07.2019
4465 Rain 19 1007 56 10000 4.6 110 00:21 30.07.2019
4466 Rain 20 1008 53 10000 5.7 110 23:46 29.07.2019
4467 Clear 20 1009 63 10000 4.1 120 23:27 29.07.2019
4468 Clear 20 1009 63 10000 3.6 120 22:58 29.07.2019
4469 Rain 20 1008 49 10000 4.6 110 22:39 29.07.2019
4470 Rain 20 1008 49 10000 4.1 110 22:20 29.07.2019
4471 Rain 21 1008 47 10000 3.6 120 21:59 29.07.2019
4472 Rain 21 1008 47 10000 3.6 120 21:40 29.07.2019
4473 Clear 22 1008 47 10000 3.6 130 21:22 29.07.2019
4474 Clear 23 1008 47 10000 3.6 160 20:55 29.07.2019
4475 Clear 23 1008 47 10000 3.6 160 20:36 29.07.2019
4476 Clear 23 1008 47 10000 4.6 150 20:18 29.07.2019
4477 Clear 24 1008 47 10000 4.1 160 19:41 29.07.2019
4478 Clear 24 1008 41 10000 4.6 140 19:21 29.07.2019
4479 Clear 24 1008 38 10000 4.6 160 18:43 29.07.2019
4480 Clear 24 1009 41 10000 4.1 160 18:23 29.07.2019
4481 Clear 25 1009 38 10000 4.6 170 17:57 29.07.2019
4482 Clear 25 1009 38 10000 4.6 170 17:39 29.07.2019
4483 Clear 25 1009 41 10000 4.1 0 17:20 29.07.2019
4484 Clear 25 1009 44 10000 5.1 150 16:43 29.07.2019
4485 Clear 25 1009 44 10000 4.1 220 16:23 29.07.2019
4486 Clear 25 1009 47 10000 4.6 210 15:53 29.07.2019
4487 Clear 24 1009 44 10000 4.1 200 15:35 29.07.2019
4488 Clouds 24 1009 47 10000 5.1 220 14:57 29.07.2019
4489 Clouds 24 1009 47 10000 5.1 220 14:38 29.07.2019
4490 Clouds 24 1009 47 10000 4.6 180 14:20 29.07.2019
4491 Clouds 24 1009 49 10000 4.1 220 13:43 29.07.2019
4492 Rain 23 1009 49 10000 4.1 240 13:23 29.07.2019
4493 Clear 23 1010 53 10000 4.1 220 12:43 29.07.2019
4494 Clouds 22 1010 53 10000 4.6 210 12:25 29.07.2019
4495 Clouds 21 1010 60 10000 3.6 210 11:45 29.07.2019
4496 Clear 20 1010 56 10000 3.1 230 11:24 29.07.2019
4497 Clear 20 1010 60 10000 3.6 230 10:59 29.07.2019
4498 Clear 20 1010 60 10000 3.6 230 10:40 29.07.2019
4499 Clear 19 1010 59 10000 3.1 230 10:21 29.07.2019
4500 Clear 18 1010 63 10000 2.6 230 09:41 29.07.2019
4501 Clouds 16 1010 68 10000 2.1 230 09:21 29.07.2019
4502 Clouds 15 1010 67 10000 2.6 210 08:43 29.07.2019
4503 Clouds 14 1009 77 10000 2.1 210 08:24 29.07.2019
4504 Clouds 13 1009 82 10000 2.1 240 07:46 29.07.2019
4505 Clouds 12 1009 82 10000 2.6 230 07:26 29.07.2019
4506 Clouds 13 1009 82 10000 1.5 0 05:57 29.07.2019
4507 Clouds 13 1008 87 10000 0.5 280 05:31 29.07.2019
4508 Clouds 14 1008 77 10000 3.6 270 02:49 29.07.2019
4509 Clouds 14 1008 72 10000 4.6 260 01:48 29.07.2019
4510 Clouds 15 1008 72 10000 4.1 260 01:27 29.07.2019
4511 Clouds 15 1008 68 10000 5.7 260 00:56 29.07.2019
4512 Clouds 16 1007 68 10000 3.6 260 00:23 29.07.2019
4513 Clouds 17 1007 63 10000 6.2 260 23:42 28.07.2019
4514 Clouds 17 1007 68 10000 1.5 0 23:23 28.07.2019
4515 Clouds 18 1007 52 10000 5.1 250 22:43 28.07.2019
4516 Clear 18 1008 59 10000 3.1 230 22:25 28.07.2019
4517 Clouds 19 1006 46 10000 4.1 260 21:51 28.07.2019
4518 Clear 20 1007 59 10000 2.6 230 21:20 28.07.2019
4519 Clouds 21 1006 46 10000 6.2 260 20:49 28.07.2019
4520 Clouds 21 1006 46 10000 5.7 250 20:31 28.07.2019
4521 Clouds 22 1005 46 10000 5.7 250 19:58 28.07.2019
4522 Clouds 22 1005 46 10000 5.7 250 19:40 28.07.2019
4523 Clouds 22 1005 49 10000 3.6 260 19:20 28.07.2019
4524 Clouds 22 1005 49 10000 3.6 260 19:20 28.07.2019
4525 Clouds 22 1005 53 10000 3.6 260 18:46 28.07.2019
4526 Clouds 22 1005 56 10000 4.6 290 18:26 28.07.2019
4527 Clouds 22 1005 56 10000 5.1 290 17:56 28.07.2019
4528 Clouds 22 1005 56 10000 5.1 290 17:38 28.07.2019
4529 Clouds 22 1005 56 10000 5.1 260 17:19 28.07.2019
4530 Clouds 22 1005 56 10000 6.2 270 16:42 28.07.2019
4531 Clouds 22 1005 60 10000 7.2 270 16:23 28.07.2019
4532 Clouds 21 1006 64 10000 6.2 280 15:46 28.07.2019
4533 Clouds 20 1006 64 10000 7.2 270 15:26 28.07.2019
4534 Clouds 20 1006 68 10000 6.2 290 14:40 28.07.2019
4535 Haze 19 1006 68 10000 5.7 290 14:21 28.07.2019
4536 Clouds 19 1005 72 10000 6.2 290 13:59 28.07.2019
4537 Clouds 19 1005 72 10000 6.2 290 13:39 28.07.2019
4538 Clouds 19 1005 72 10000 7.2 280 13:19 28.07.2019
4539 Rain 18 1005 77 10000 8.2 290 12:43 28.07.2019
4540 Clouds 18 1005 77 10000 5.1 280 12:25 28.07.2019
4541 Rain 17 1005 77 10000 6.7 280 11:50 28.07.2019
4542 Drizzle 17 1005 77 10000 5.7 280 11:29 28.07.2019
4543 Rain 17 1005 82 9000 6.2 280 10:59 28.07.2019
4544 Rain 17 1005 82 9000 6.2 280 10:38 28.07.2019
4545 Rain 16 1005 82 10000 6.7 270 10:18 28.07.2019
4546 Drizzle 16 1005 82 10000 5.7 290 09:40 28.07.2019
4547 Drizzle 16 1004 82 10000 6.7 280 09:22 28.07.2019
4548 Drizzle 16 1004 82 10000 6.2 280 08:42 28.07.2019
4549 Drizzle 15 1005 82 10000 4.6 290 08:22 28.07.2019
4550 Drizzle 15 1005 87 10000 5.1 280 07:44 28.07.2019
4551 Drizzle 15 1005 82 10000 4.6 290 07:25 28.07.2019
4552 Rain 15 1005 93 10000 3.6 280 06:36 28.07.2019
4553 Rain 15 1005 82 10000 4.6 300 05:22 28.07.2019
4554 Rain 15 1006 93 10000 4.1 280 02:43 28.07.2019
4555 Rain 16 1006 88 10000 3.6 290 02:00 28.07.2019
4556 Rain 16 1006 93 10000 3.1 280 01:18 28.07.2019
4557 Rain 16 1007 88 10000 3.1 290 00:43 28.07.2019
4558 Rain 16 1006 82 10000 4.1 300 23:56 27.07.2019
4559 Rain 17 1007 93 10000 3.1 310 23:29 27.07.2019
4560 Rain 17 1007 93 10000 2.6 310 22:56 27.07.2019
4561 Rain 17 1007 93 10000 2.6 310 22:37 27.07.2019
4562 Rain 17 1007 93 10000 3.1 310 22:18 27.07.2019
4563 Rain 17 1006 88 10000 4.1 330 21:38 27.07.2019
4564 Rain 17 1006 77 10000 4.1 290 21:19 27.07.2019
4565 Rain 18 1006 77 10000 4.6 300 20:49 27.07.2019
4566 Rain 18 1006 77 10000 4.6 300 20:23 27.07.2019
4567 Rain 18 1005 77 10000 6.2 300 19:43 27.07.2019
4568 Rain 18 1005 77 10000 4.1 310 19:25 27.07.2019
4569 Rain 18 1006 77 10000 5.1 300 18:50 27.07.2019
4570 Rain 19 1006 88 10000 3.6 300 18:32 27.07.2019
4571 Rain 19 1006 82 10000 2.6 300 17:52 27.07.2019
4572 Rain 19 1006 77 10000 4.6 300 17:33 27.07.2019
4573 Rain 19 1006 77 10000 4.6 290 16:58 27.07.2019
4574 Rain 19 1006 77 10000 4.6 290 16:39 27.07.2019
4575 Rain 19 1006 77 10000 4.6 300 16:20 27.07.2019
4576 Rain 19 1005 77 10000 4.6 300 15:46 27.07.2019
4577 Rain 19 1006 82 10000 4.1 300 15:20 27.07.2019
4578 Rain 19 1006 82 10000 4.1 300 14:49 27.07.2019
4579 Rain 18 1006 82 10000 4.6 290 14:31 27.07.2019
4580 Rain 18 1006 88 10000 4.1 280 13:52 27.07.2019
4581 Rain 18 1006 88 10000 4.6 280 13:25 27.07.2019
4582 Rain 18 1006 88 10000 5.7 270 12:57 27.07.2019
4583 Rain 17 1006 93 10000 5.7 270 12:37 27.07.2019
4584 Rain 17 1006 93 10000 5.7 270 12:19 27.07.2019
4585 Rain 17 1006 88 10000 4.6 280 11:41 27.07.2019
4586 Rain 17 1006 93 10000 3.6 270 11:23 27.07.2019
4587 Rain 17 1007 93 8000 3.6 290 10:41 27.07.2019
4588 Rain 17 1007 88 4800 4.1 280 10:23 27.07.2019
4589 Rain 16 1007 88 7000 5.1 290 09:42 27.07.2019
4590 Rain 16 1007 88 7000 4.6 280 09:23 27.07.2019
4591 Rain 16 1007 88 10000 6.2 270 08:50 27.07.2019
4592 Rain 16 1007 88 10000 4.1 250 08:32 27.07.2019
4593 Rain 16 1007 88 5000 3.6 270 07:57 27.07.2019
4594 -273 0 0 0 0 0 07:35 27.07.2019
4595 Rain 17 1007 88 10000 5.7 290 06:58 27.07.2019
4596 Rain 17 1007 88 10000 5.7 290 06:37 27.07.2019
4597 Rain 17 1007 88 10000 5.1 280 06:18 27.07.2019
4598 Rain 17 1007 77 10000 3.6 250 05:34 27.07.2019
4599 Rain 17 1008 100 5000 2.6 290 04:38 27.07.2019
4600 Rain 17 1008 77 10000 4.6 290 03:39 27.07.2019
4601 Rain 18 1009 93 10000 3.6 290 02:42 27.07.2019
4602 Rain 18 1008 77 10000 4.6 250 01:54 27.07.2019
4603 Rain 18 1009 77 6000 5.1 270 01:32 27.07.2019
4604 Rain 19 1009 73 10000 6.7 260 00:38 27.07.2019
4605 Rain 19 1009 73 10000 3.6 250 00:18 27.07.2019
4606 Rain 20 1009 73 10000 3.6 240 23:41 26.07.2019
4607 Rain 20 1009 78 10000 3.6 240 23:23 26.07.2019
4608 Rain 21 1009 69 10000 3.6 240 22:43 26.07.2019
4609 Rain 21 1009 69 10000 4.6 250 22:25 26.07.2019
4610 Rain 21 1009 64 10000 3.6 250 21:51 26.07.2019
4611 Rain 22 1010 60 10000 2.6 230 21:20 26.07.2019
4612 Rain 22 1010 57 10000 3.6 250 20:52 26.07.2019
4613 Rain 23 1010 57 10000 3.6 260 20:33 26.07.2019
4614 Rain 23 1010 57 10000 3.6 250 19:56 26.07.2019
4615 Rain 24 1010 57 10000 3.6 250 19:38 26.07.2019
4616 Rain 24 1010 57 10000 2.1 230 19:20 26.07.2019
4617 Clouds 24 1010 57 10000 2.1 240 18:41 26.07.2019
4618 Clouds 25 1010 57 10000 3.1 210 18:21 26.07.2019
4619 Clouds 25 1010 61 10000 3.1 290 17:56 26.07.2019
4620 Clouds 25 1010 61 10000 3.1 290 17:37 26.07.2019
4621 Clouds 25 1010 61 10000 3.1 250 17:18 26.07.2019
4622 Rain 25 1010 64 10000 3.1 240 16:54 26.07.2019
4623 Rain 24 1010 64 10000 3.1 240 16:36 26.07.2019
4624 Clouds 24 1010 73 10000 3.1 270 16:18 26.07.2019
4625 Rain 23 1011 73 10000 1 0 15:44 26.07.2019
4626 Rain 23 1010 78 10000 1 0 15:21 26.07.2019
4627 Rain 23 1011 88 10000 1.5 0 14:46 26.07.2019
4628 Rain 23 1011 88 10000 2.1 270 14:25 26.07.2019
4629 Rain 22 1012 83 10000 1.5 0 13:54 26.07.2019
4630 Rain 22 1012 83 10000 1.5 0 13:36 26.07.2019
4631 Rain 22 1011 83 10000 3.6 240 13:18 26.07.2019
4632 Rain 22 1011 88 10000 2.1 0 12:42 26.07.2019
4633 Thunderstorm 21 1011 88 10000 1 0 12:18 26.07.2019
4634 Rain 21 1011 83 10000 2.1 250 11:38 26.07.2019
4635 Rain 21 1011 83 10000 2.1 250 11:19 26.07.2019
4636 Thunderstorm 20 1011 88 10000 5.1 310 10:47 26.07.2019
4637 Rain 20 1011 82 10000 4.1 250 10:28 26.07.2019
4638 Rain 20 1011 77 10000 5.1 250 09:53 26.07.2019
4639 Rain 20 1011 77 10000 5.1 250 09:34 26.07.2019
4640 Rain 19 1012 77 10000 4.6 240 08:42 26.07.2019
4641 Rain 19 1011 77 10000 2.1 280 08:22 26.07.2019
4642 Rain 19 1012 77 10000 3.6 230 07:57 26.07.2019
4643 Rain 19 1012 77 10000 4.1 240 07:27 26.07.2019
4644 Rain 19 1011 93 10000 3.6 170 06:41 26.07.2019
4645 Rain 21 1009 68 10000 2.6 290 05:19 26.07.2019
4646 Thunderstorm 22 1010 60 10000 3.6 270 04:21 26.07.2019
4647 Rain 23 1010 47 10000 3.6 250 02:41 26.07.2019
4648 Rain 24 1009 51 10000 2.1 120 01:42 26.07.2019
4649 Rain 25 1009 45 10000 1 0 00:43 26.07.2019
4650 Clouds 25 1009 42 10000 1 0 23:56 25.07.2019
4651 Rain 26 1009 45 10000 2.1 320 23:24 25.07.2019
4652 Thunderstorm 27 1009 40 10000 4.1 130 22:56 25.07.2019
4653 Thunderstorm 27 1009 40 10000 4.1 130 22:37 25.07.2019
4654 Rain 28 1009 38 10000 6.2 140 22:18 25.07.2019
4655 Rain 29 1009 36 10000 8.7 150 21:44 25.07.2019
4656 Rain 30 1008 49 10000 2.6 100 21:21 25.07.2019
4657 Rain 31 1008 52 10000 4.1 90 20:47 25.07.2019
4658 Rain 32 1008 46 10000 5.1 90 20:22 25.07.2019
4659 Rain 32 1008 34 10000 4.1 130 19:44 25.07.2019
4660 Rain 33 1008 34 10000 3.6 130 19:26 25.07.2019
4661 Clouds 34 1009 36 10000 3.6 150 18:57 25.07.2019
4662 Clouds 34 1009 36 10000 3.6 150 18:38 25.07.2019
4663 Clouds 34 1008 39 10000 3.1 130 18:20 25.07.2019
4664 Rain 35 1009 36 10000 2.6 160 17:43 25.07.2019
4665 Clouds 36 1009 36 10000 4.1 130 17:24 25.07.2019
4666 Clouds 36 1009 36 10000 4.6 130 16:44 25.07.2019
4667 Clouds 36 1009 32 10000 5.1 170 16:26 25.07.2019
4668 Clouds 36 1009 32 10000 5.1 170 15:56 25.07.2019
4669 Thunderstorm 36 1009 35 10000 3.6 160 15:21 25.07.2019
4670 Clear 36 1010 37 10000 3.6 140 14:59 25.07.2019
4671 Clear 35 1010 37 10000 3.6 140 14:40 25.07.2019
4672 Clear 35 1010 41 10000 1.5 0 14:21 25.07.2019
4673 Clear 34 1010 41 10000 2.6 140 13:42 25.07.2019
4674 Clouds 34 1010 41 10000 2.6 140 13:23 25.07.2019
4675 Clouds 32 1010 43 10000 3.1 110 12:39 25.07.2019
4676 Clouds 31 1011 48 10000 3.1 90 12:21 25.07.2019
4677 Clouds 30 1011 54 10000 4.1 80 11:41 25.07.2019
4678 Clouds 30 1011 51 10000 4.6 90 11:23 25.07.2019
4679 Clouds 28 1011 51 10000 5.1 90 10:45 25.07.2019
4680 Clouds 28 1011 54 10000 5.1 90 10:26 25.07.2019
4681 Clouds 26 1011 47 10000 5.1 90 09:57 25.07.2019
4682 Clouds 24 1011 50 10000 5.7 90 09:39 25.07.2019
4683 Clouds 23 1012 60 10000 5.1 90 08:54 25.07.2019
4684 Clouds 22 1012 56 10000 3.6 130 08:36 25.07.2019
4685 Clouds 20 1012 73 10000 4.1 80 07:49 25.07.2019
4686 Clouds 19 1012 77 10000 3.1 80 07:26 25.07.2019
4687 Clouds 19 1012 77 10000 2.6 70 06:40 25.07.2019
4688 Clear 18 1012 73 10000 3.6 80 05:37 25.07.2019
4689 Clear 18 1012 72 10000 1.5 80 04:55 25.07.2019
4690 Clear 18 1012 77 10000 2.26 101.136 04:19 25.07.2019
4691 Clouds 19 1014 64 10000 1 130 01:31 25.07.2019
4692 Clouds 20 1014 60 10000 2.1 210 00:42 25.07.2019
4693 Clouds 21 1014 56 10000 0.5 220 00:19 25.07.2019
4694 Clear 21 1015 73 10000 3.1 180 23:44 24.07.2019
4695 Clear 22 1015 73 10000 2.1 160 23:25 24.07.2019
4696 Clear 23 1015 60 10000 3.1 180 22:47 24.07.2019
4697 Clear 24 1015 56 10000 2.1 180 22:23 24.07.2019
4698 Clouds 25 1013 32 10000 2.6 240 21:56 24.07.2019
4699 Clouds 26 1013 32 10000 2.6 240 21:38 24.07.2019
4700 Clear 26 1014 44 10000 3.1 210 21:20 24.07.2019
4701 Clear 26 1014 44 10000 3.1 210 21:20 24.07.2019
4702 Clouds 27 1013 30 10000 3.6 0 20:48 24.07.2019
4703 Clear 28 1014 42 10000 4.1 220 20:29 24.07.2019
4704 Clouds 29 1012 31 10000 4.6 250 19:59 24.07.2019
4705 Clouds 29 1012 29 10000 5.7 240 19:41 24.07.2019
4706 Clouds 29 1012 29 10000 5.7 240 19:21 24.07.2019
4707 Clouds 30 1013 29 10000 6.2 250 18:45 24.07.2019
4708 Clouds 30 1013 33 10000 5.1 220 18:24 24.07.2019
4709 Clouds 31 1012 33 10000 5.1 210 17:49 24.07.2019
4710 Clouds 31 1012 29 10000 5.7 230 17:25 24.07.2019
4711 Clouds 31 1012 29 10000 5.1 230 16:59 24.07.2019
4712 Clouds 31 1012 33 10000 5.7 240 16:39 24.07.2019
4713 Clouds 31 1012 33 10000 5.7 240 16:21 24.07.2019
4714 Clouds 31 1012 38 10000 4.1 210 15:38 24.07.2019
4715 Clouds 30 1012 35 10000 4.6 220 15:20 24.07.2019
4716 Clouds 30 1012 40 10000 4.6 210 14:47 24.07.2019
4717 Clouds 30 1012 43 10000 5.7 250 14:22 24.07.2019
4718 Clouds 30 1012 45 10000 4.6 240 13:58 24.07.2019
4719 Clouds 29 1012 43 10000 5.1 230 13:36 24.07.2019
4720 Clouds 29 1012 43 10000 5.1 230 13:18 24.07.2019
4721 Clouds 29 1011 48 10000 4.6 250 12:45 24.07.2019
4722 Clear 27 1012 58 10000 3.6 280 12:22 24.07.2019
4723 Clear 27 1012 61 10000 4.6 240 11:37 24.07.2019
4724 Clear 26 1012 61 10000 4.1 240 11:19 24.07.2019
4725 Clear 25 1012 61 10000 4.1 240 10:43 24.07.2019
4726 Clear 25 1011 65 10000 4.6 250 10:24 24.07.2019
4727 Clear 23 1011 61 10000 4.1 240 09:44 24.07.2019
4728 Clear 23 1011 61 10000 4.1 240 09:44 24.07.2019
4729 Rain 22 1011 64 10000 4.6 240 09:24 24.07.2019
4730 Rain 21 1011 60 10000 4.6 230 08:55 24.07.2019
4731 Clear 21 1011 73 10000 6.7 200 08:30 24.07.2019
4732 Clear 20 1011 64 10000 4.6 200 07:51 24.07.2019
4733 Rain 20 1009 78 10000 1 0 07:23 24.07.2019
4734 Rain 20 1009 73 10000 2.1 0 06:29 24.07.2019
4735 Rain 21 1009 83 10000 3.1 90 05:33 24.07.2019
4736 Thunderstorm 22 1011 73 10000 5.7 90 02:45 24.07.2019
4737 Rain 23 1012 69 10000 6.7 90 01:29 24.07.2019
4738 Rain 23 1013 73 10000 6.2 80 00:57 24.07.2019
4739 Clear 24 1013 64 10000 5.1 80 00:22 24.07.2019
4740 Clear 24 1014 64 10000 5.1 80 23:42 23.07.2019
4741 Clear 25 1014 61 10000 4.6 80 23:23 23.07.2019
4742 Clear 25 1014 61 10000 5.7 80 22:40 23.07.2019
4743 Clear 26 1014 54 10000 6.2 90 22:20 23.07.2019
4744 Clear 27 1014 57 10000 6.2 80 21:59 23.07.2019
4745 Clear 27 1014 57 10000 6.2 80 21:41 23.07.2019
4746 Clear 28 1014 51 10000 6.7 100 21:22 23.07.2019
4747 Clear 29 1014 51 10000 7.2 90 20:47 23.07.2019
4748 Clear 30 1015 48 10000 6.7 100 20:25 23.07.2019
4749 Clear 31 1015 48 10000 7.2 90 19:43 23.07.2019
4750 Clear 31 1015 45 10000 6.7 90 19:22 23.07.2019
4751 Clear 31 1015 43 10000 6.7 80 18:52 23.07.2019
4752 Clear 32 1015 40 10000 4.6 90 18:24 23.07.2019
4753 Clear 32 1016 33 10000 5.1 140 17:56 23.07.2019
4754 Clear 32 1016 31 10000 4.6 130 17:38 23.07.2019
4755 Clear 32 1016 31 10000 4.6 130 17:19 23.07.2019
4756 Clear 32 1016 35 10000 4.1 150 16:41 23.07.2019
4757 Clear 32 1016 33 10000 5.1 150 16:21 23.07.2019
4758 Clear 32 1017 38 10000 5.1 140 15:46 23.07.2019
4759 Clear 31 1017 38 10000 5.1 130 15:24 23.07.2019
4760 Clear 31 1018 40 10000 4.1 140 14:40 23.07.2019
4761 Clear 30 1018 40 10000 4.1 140 14:22 23.07.2019
4762 Clear 30 1018 42 10000 3.6 130 13:59 23.07.2019
4763 Clear 30 1018 45 10000 4.1 130 13:40 23.07.2019
4764 Clear 30 1018 45 10000 4.1 130 13:21 23.07.2019
4765 Clear 28 1018 57 10000 3.1 80 12:48 23.07.2019
4766 Clear 27 1019 61 10000 3.1 70 12:26 23.07.2019
4767 Clear 26 1019 65 10000 3.1 80 11:51 23.07.2019
4768 Clear 25 1019 69 10000 3.1 80 11:32 23.07.2019
4769 Clear 24 1019 73 10000 3.1 80 10:59 23.07.2019
4770 Clear 23 1020 78 10000 2.1 90 10:41 23.07.2019
4771 Clear 23 1020 78 10000 2.1 90 10:21 23.07.2019
4772 Clear 23 1020 78 10000 2.1 90 10:21 23.07.2019
4773 Clear 21 1020 83 10000 2.1 110 09:41 23.07.2019
4774 Clear 20 1020 83 10000 2.1 110 09:20 23.07.2019
4775 Mist 18 1020 83 10000 1.5 80 08:43 23.07.2019
4776 Mist 17 1021 100 10000 1 130 08:19 23.07.2019
4777 Fog 16 1020 88 10000 0.5 0 07:55 23.07.2019
4778 Fog 16 1020 100 10000 0.5 290 07:36 23.07.2019
4779 Fog 15 1021 100 8000 1.5 170 06:48 23.07.2019
4780 Fog 15 1020 100 10000 0.5 210 06:29 23.07.2019
4781 Fog 17 1021 100 10000 0.5 190 03:27 23.07.2019
4782 Clear 18 1021 82 10000 0.5 230 01:34 23.07.2019
4783 Clear 19 1021 78 10000 2.6 230 00:31 23.07.2019
4784 Clear 20 1022 88 10000 3.6 210 23:56 22.07.2019
4785 Clear 20 1021 73 10000 2.6 230 23:36 22.07.2019
4786 Clear 21 1021 73 10000 2.6 230 23:18 22.07.2019
4787 Clear 21 1021 69 10000 2.6 220 22:42 22.07.2019
4788 Clear 22 1022 88 10000 3.1 210 22:21 22.07.2019
4789 Clear 23 1021 65 10000 3.6 240 21:43 22.07.2019
4790 Clouds 24 1021 61 10000 3.6 220 21:23 22.07.2019
4791 Clouds 24 1021 61 10000 3.6 240 20:51 22.07.2019
4792 Clouds 25 1021 57 10000 4.1 240 20:33 22.07.2019
4793 Clouds 26 1020 61 10000 4.1 210 19:58 22.07.2019
4794 Clouds 26 1020 61 10000 4.1 210 19:38 22.07.2019
4795 Clouds 26 1021 57 10000 4.1 230 19:20 22.07.2019
4796 Clouds 26 1021 57 10000 4.1 230 18:47 22.07.2019
4797 Clouds 26 1021 61 10000 4.6 220 18:28 22.07.2019
4798 Clouds 27 1021 61 10000 4.6 220 17:57 22.07.2019
4799 Clouds 27 1021 61 10000 4.6 220 17:38 22.07.2019
4800 Clouds 27 1021 61 10000 4.1 220 17:19 22.07.2019
4801 Clouds 26 1022 61 10000 4.6 230 16:40 22.07.2019
4802 Clouds 26 1022 61 10000 5.1 220 16:21 22.07.2019
4803 Clouds 26 1022 61 10000 5.7 210 15:44 22.07.2019
4804 Clouds 26 1022 65 10000 5.7 230 15:20 22.07.2019
4805 Clouds 25 1022 69 10000 5.7 240 14:44 22.07.2019
4806 Clouds 25 1022 69 10000 5.1 230 14:25 22.07.2019
4807 Clouds 24 1022 69 10000 5.7 230 13:52 22.07.2019
4808 Clouds 24 1022 69 10000 5.7 240 13:33 22.07.2019
4809 Clouds 23 1022 69 10000 5.7 240 12:56 22.07.2019
4810 Clouds 23 1022 73 10000 5.7 240 12:36 22.07.2019
4811 Clouds 22 1022 73 10000 6.2 250 11:57 22.07.2019
4812 Clouds 22 1022 73 10000 6.2 240 11:39 22.07.2019
4813 Clouds 22 1022 73 10000 6.2 240 11:20 22.07.2019
4814 Clouds 21 1022 68 10000 6.2 240 10:41 22.07.2019
4815 Clouds 21 1022 73 10000 4.6 250 10:23 22.07.2019
4816 Clouds 20 1022 72 10000 4.6 250 09:42 22.07.2019
4817 Clouds 19 1021 72 10000 5.1 230 09:22 22.07.2019
4818 Clouds 18 1021 77 10000 5.1 230 08:43 22.07.2019
4819 Clouds 18 1021 82 10000 3.1 210 08:23 22.07.2019
4820 Clouds 17 1021 82 10000 4.1 220 07:54 22.07.2019
4821 Clouds 17 1021 82 10000 3.1 220 07:31 22.07.2019
4822 Clouds 17 1021 82 10000 4.1 230 06:33 22.07.2019
4823 Clouds 16 1021 82 10000 5.1 230 03:50 22.07.2019
4824 Clouds 16 1022 88 10000 5.1 210 01:51 22.07.2019
4825 Clouds 16 1021 77 10000 4.1 210 00:50 22.07.2019
4826 Clouds 17 1021 72 10000 4.04 207.085 00:24 22.07.2019
4827 Clouds 17 1022 68 10000 4.1 200 23:54 21.07.2019
4828 Clouds 18 1021 63 10000 4.04 207.085 23:27 21.07.2019
4829 Clear 18 1021 63 10000 3.1 210 22:41 21.07.2019
4830 Clear 19 1022 77 10000 6.2 200 22:22 21.07.2019
4831 Clear 19 1022 68 10000 4.6 210 21:57 21.07.2019
4832 Clear 19 1022 68 10000 4.6 210 21:37 21.07.2019
4833 Clouds 20 1021 53 10000 5.1 230 21:19 21.07.2019
4834 Clouds 21 1021 56 10000 4.6 230 20:44 21.07.2019
4835 Clouds 21 1021 53 10000 5.1 240 20:25 21.07.2019
4836 Clouds 22 1021 53 10000 5.1 240 19:55 21.07.2019
4837 Clouds 22 1021 53 10000 5.1 240 19:36 21.07.2019
4838 Clouds 22 1021 53 10000 5.7 250 19:18 21.07.2019
4839 Clouds 22 1021 53 10000 5.1 240 18:44 21.07.2019
4840 Clouds 22 1021 53 10000 4.1 230 18:25 21.07.2019
4841 Clouds 22 1021 53 10000 5.1 230 17:42 21.07.2019
4842 Clouds 22 1021 53 10000 5.7 210 17:20 21.07.2019
4843 Clouds 22 1021 56 10000 5.1 210 16:45 21.07.2019
4844 Clouds 22 1021 53 10000 5.1 240 16:25 21.07.2019
4845 Clouds 22 1021 49 10000 4.6 230 15:57 21.07.2019
4846 Clouds 23 1021 49 10000 4.6 230 15:36 21.07.2019
4847 Clouds 22 1021 49 10000 5.1 220 15:18 21.07.2019
4848 Clouds 22 1021 53 10000 4.1 230 14:41 21.07.2019
4849 Clouds 22 1021 56 10000 5.1 220 14:22 21.07.2019
4850 Clouds 21 1021 56 10000 5.1 240 13:45 21.07.2019
4851 Clouds 21 1021 56 10000 3.6 250 13:27 21.07.2019
4852 Clouds 21 1021 56 10000 5.1 250 12:43 21.07.2019
4853 Clouds 20 1021 60 10000 5.1 240 12:24 21.07.2019
4854 Clouds 20 1021 56 10000 3.6 250 11:47 21.07.2019
4855 Clouds 20 1020 64 10000 3.6 260 11:29 21.07.2019
4856 Clouds 20 1020 64 10000 3.6 260 11:29 21.07.2019
4857 Clouds 19 1020 63 10000 2.6 220 10:57 21.07.2019
4858 Clouds 19 1020 63 10000 2.6 220 10:39 21.07.2019
4859 Clouds 18 1020 72 10000 2.6 240 10:20 21.07.2019
4860 Clouds 17 1020 77 10000 4.1 240 09:38 21.07.2019
4861 Clouds 16 1020 82 10000 3.6 230 09:20 21.07.2019
4862 Clouds 15 1020 82 10000 3.6 230 08:43 21.07.2019
4863 Clouds 14 1019 82 10000 4.1 240 08:25 21.07.2019
4864 Mist 13 1019 82 10000 3.1 240 07:37 21.07.2019
4865 Fog 12 1018 87 10000 2.1 250 06:45 21.07.2019
4866 Clouds 13 1017 82 10000 3.1 230 05:28 21.07.2019
4867 Clouds 14 1016 82 10000 4.1 260 02:43 21.07.2019
4868 Clouds 16 1015 77 10000 4.1 270 00:58 21.07.2019
4869 Clouds 16 1015 77 10000 4.1 270 00:39 21.07.2019
4870 Clouds 16 1015 72 10000 5.34 268.433 00:18 21.07.2019
4871 Clouds 17 1015 68 10000 5.1 270 23:40 20.07.2019
4872 Clouds 17 1014 68 10000 5.34 268.433 23:21 20.07.2019
4873 Clear 18 1014 67 10000 3.1 250 22:44 20.07.2019
4874 Clear 18 1014 68 10000 3.6 260 22:22 20.07.2019
4875 Clouds 19 1012 60 10000 3.1 270 21:46 20.07.2019
4876 Clouds 20 1013 72 10000 3.6 240 21:28 20.07.2019
4877 Clouds 20 1011 56 10000 5.7 280 20:57 20.07.2019
4878 Clouds 21 1011 56 10000 5.7 280 20:38 20.07.2019
4879 Clouds 21 1010 53 10000 7.7 270 20:18 20.07.2019
4880 Clouds 22 1011 72 10000 4.6 230 19:45 20.07.2019
4881 Clouds 22 1010 53 10000 7.7 270 19:20 20.07.2019
4882 Clouds 22 1009 50 10000 8.2 270 18:42 20.07.2019
4883 Clear 23 1009 47 10000 8.2 260 18:20 20.07.2019
4884 Clear 23 1009 44 10000 8.2 260 17:53 20.07.2019
4885 Clouds 23 1008 50 10000 7.7 250 17:23 20.07.2019
4886 Clouds 23 1008 47 10000 6.2 240 16:44 20.07.2019
4887 Clouds 23 1008 50 10000 8.2 250 16:26 20.07.2019
4888 Clouds 23 1008 53 10000 8.7 250 15:58 20.07.2019
4889 Clouds 23 1008 53 10000 8.7 250 15:38 20.07.2019
4890 Clouds 22 1008 64 10000 8.7 250 15:20 20.07.2019
4891 Thunderstorm 22 1007 68 10000 6.2 240 14:47 20.07.2019
4892 Thunderstorm 22 1007 77 10000 6.7 240 14:27 20.07.2019
4893 Rain 21 1007 82 10000 7.7 250 13:39 20.07.2019
4894 Rain 21 1006 60 10000 6.2 230 13:20 20.07.2019
4895 Rain 21 1006 60 10000 6.7 240 12:57 20.07.2019
4896 Rain 20 1006 77 10000 5.1 250 12:26 20.07.2019
4897 Rain 20 1006 77 10000 5.1 250 12:26 20.07.2019
4898 Rain 20 1006 77 10000 4.6 230 11:57 20.07.2019
4899 Rain 20 1006 77 10000 4.6 230 11:37 20.07.2019
4900 Rain 19 1006 82 10000 5.1 230 11:19 20.07.2019
4901 Rain 19 1006 82 10000 3.6 220 10:37 20.07.2019
4902 Rain 18 1006 88 10000 3.6 220 10:18 20.07.2019
4903 Rain 18 1006 88 10000 3.6 220 09:45 20.07.2019
4904 Rain 17 1006 100 5000 6.2 190 09:24 20.07.2019
4905 Rain 17 1006 93 10000 3.6 220 08:47 20.07.2019
4906 Rain 17 1006 88 10000 3.6 230 08:20 20.07.2019
4907 Rain 16 1006 93 10000 4.1 210 07:28 20.07.2019
4908 Clouds 16 1006 88 10000 2.1 220 06:43 20.07.2019
4909 Thunderstorm 16 1007 93 10000 2.6 230 05:21 20.07.2019
4910 Rain 16 1006 100 10000 4.5 207.846 04:30 20.07.2019
4911 Rain 17 1008 93 10000 3.97 197.947 01:23 20.07.2019
4912 Rain 17 1008 93 10000 3.1 200 00:49 20.07.2019
4913 Rain 17 1008 93 10000 3.97 197.947 00:26 20.07.2019
4914 Rain 18 1009 88 10000 4.6 200 23:56 19.07.2019
4915 Rain 18 1009 88 10000 4.6 200 23:37 19.07.2019
4916 Drizzle 18 1009 88 10000 4.6 210 23:18 19.07.2019
4917 Rain 18 1010 100 10000 6.7 200 22:40 19.07.2019
4918 Rain 18 1009 88 10000 5.1 210 22:20 19.07.2019
4919 Drizzle 18 1009 88 10000 4.6 210 21:43 19.07.2019
4920 Drizzle 18 1010 100 2500 8.7 200 21:24 19.07.2019
4921 Rain 18 1009 100 10000 3.6 180 20:44 19.07.2019
4922 Rain 18 1009 82 10000 4.6 200 20:25 19.07.2019
4923 Rain 18 1009 88 9000 4.1 200 19:40 19.07.2019
4924 Rain 18 1011 93 10000 7.7 200 19:19 19.07.2019
4925 Rain 18 1009 88 10000 6.2 180 18:41 19.07.2019
4926 Rain 18 1009 88 10000 6.2 180 18:19 19.07.2019
4927 Rain 18 1010 88 10000 5.7 210 17:46 19.07.2019
4928 Rain 18 1010 82 10000 6.2 200 17:25 19.07.2019
4929 Drizzle 18 1011 82 10000 6.2 200 16:48 19.07.2019
4930 Drizzle 18 1011 82 10000 4.6 190 16:25 19.07.2019
4931 Rain 17 1011 88 10000 4.1 0 15:50 19.07.2019
4932 Rain 17 1011 88 10000 4.6 180 15:30 19.07.2019
4933 Rain 17 1011 88 8000 4.1 180 14:56 19.07.2019
4934 Rain 17 1012 82 6000 4.1 170 14:38 19.07.2019
4935 Rain 17 1012 82 6000 4.1 170 14:20 19.07.2019
4936 Rain 17 1012 88 10000 2.6 160 13:43 19.07.2019
4937 Rain 17 1012 88 10000 2.6 160 13:43 19.07.2019
4938 Rain 17 1012 82 2700 4.6 210 13:24 19.07.2019
4939 Rain 17 1013 82 10000 7.7 200 12:54 19.07.2019
4940 Rain 17 1012 68 10000 5.7 200 12:31 19.07.2019
4941 Rain 17 1012 68 10000 5.1 200 11:58 19.07.2019
4942 Rain 17 1012 68 10000 4.1 180 11:40 19.07.2019
4943 Rain 17 1012 68 10000 4.1 180 11:18 19.07.2019
4944 Rain 17 1012 68 10000 2.6 180 10:41 19.07.2019
4945 Rain 16 1013 68 10000 3.6 170 10:21 19.07.2019
4946 Rain 15 1013 72 10000 3.1 0 09:44 19.07.2019
4947 Rain 15 1012 82 10000 2.1 210 09:22 19.07.2019
4948 Rain 14 1013 82 10000 3.6 180 08:59 19.07.2019
4949 Rain 14 1013 82 10000 3.6 180 08:40 19.07.2019
4950 Clear 13 1013 87 10000 3.1 200 07:48 19.07.2019
4951 Clouds 13 1012 72 10000 2.6 220 07:26 19.07.2019
4952 Clouds 12 1013 76 10000 2.6 210 05:55 19.07.2019
4953 Clouds 14 1013 67 10000 2.6 270 02:23 19.07.2019
4954 Clear 15 1013 67 10000 1.5 230 00:59 19.07.2019
4955 Clouds 16 1012 59 10000 2.1 250 00:31 19.07.2019
4956 Clear 17 1013 72 10000 2.6 250 23:43 18.07.2019
4957 Clear 17 1013 67 10000 2.1 240 23:24 18.07.2019
4958 Clear 18 1012 67 10000 2.6 240 22:59 18.07.2019
4959 Clear 18 1012 67 10000 2.6 240 22:39 18.07.2019
4960 Clear 19 1012 63 10000 2.6 230 22:18 18.07.2019
4961 Clouds 20 1011 46 10000 4.6 300 21:43 18.07.2019
4962 Clouds 20 1011 46 10000 5.1 300 21:24 18.07.2019
4963 Clouds 20 1011 46 10000 5.1 300 21:24 18.07.2019
4964 Clouds 21 1011 52 10000 3.6 250 20:49 18.07.2019
4965 Clouds 21 1011 56 10000 3.1 240 20:29 18.07.2019
4966 Clouds 21 1011 56 10000 3.1 240 20:29 18.07.2019
4967 Clouds 22 1010 43 10000 4.6 280 19:53 18.07.2019
4968 Clouds 22 1010 43 10000 3.6 290 19:32 18.07.2019
4969 Clouds 22 1010 46 10000 5.1 250 18:58 18.07.2019
4970 Clouds 22 1010 46 10000 5.1 250 18:40 18.07.2019
4971 Clouds 22 1010 47 10000 5.7 230 18:20 18.07.2019
4972 Clouds 22 1010 53 10000 5.1 240 17:42 18.07.2019
4973 Clouds 22 1010 56 10000 5.1 240 17:24 18.07.2019
4974 Clouds 22 1010 53 10000 5.1 240 16:55 18.07.2019
4975 Clouds 22 1010 53 10000 6.2 240 16:30 18.07.2019
4976 Clouds 21 1010 53 10000 6.2 250 15:59 18.07.2019
4977 Clouds 21 1010 53 10000 6.2 250 15:39 18.07.2019
4978 Rain 21 1009 56 10000 6.7 250 15:21 18.07.2019
4979 Clouds 21 1009 64 10000 5.7 250 14:43 18.07.2019
4980 Clouds 20 1009 68 10000 5.1 250 14:25 18.07.2019
4981 Clouds 20 1009 77 10000 4.1 250 13:48 18.07.2019
4982 Rain 19 1009 77 10000 4.1 280 13:23 18.07.2019
4983 Rain 19 1009 82 10000 5.1 280 12:50 18.07.2019
4984 Rain 19 1009 82 10000 5.1 280 12:21 18.07.2019
4985 Rain 18 1009 88 9000 3.1 230 11:58 18.07.2019
4986 Rain 18 1009 88 9000 3.1 230 11:39 18.07.2019
4987 Rain 18 1009 77 10000 5.1 210 11:20 18.07.2019
4988 Drizzle 17 1009 82 10000 5.1 210 10:41 18.07.2019
4989 Drizzle 17 1010 93 4000 5.1 180 09:50 18.07.2019
4990 Rain 17 1009 82 9000 4.1 210 09:26 18.07.2019
4991 Drizzle 17 1009 82 10000 4.1 210 08:52 18.07.2019
4992 Drizzle 16 1010 93 10000 4.6 200 08:25 18.07.2019
4993 Rain 16 1009 82 10000 4.1 240 07:56 18.07.2019
4994 Rain 16 1010 82 10000 3.1 210 07:35 18.07.2019
4995 Rain 16 1010 82 10000 2.1 220 06:46 18.07.2019
4996 Rain 15 1010 82 10000 2.6 210 06:20 18.07.2019
4997 Rain 16 1011 77 10000 2.6 230 03:34 18.07.2019
4998 Clouds 17 1011 68 10000 4.1 240 01:53 18.07.2019
4999 Rain 17 1011 63 10000 4.1 240 01:34 18.07.2019
5000 Rain 18 1011 56 10000 4.6 230 23:59 17.07.2019
5001 Rain 19 1011 49 10000 4.6 230 23:22 17.07.2019
5002 Rain 19 1012 72 10000 4.1 190 22:59 17.07.2019
5003 Rain 19 1012 72 10000 4.1 190 22:41 17.07.2019
5004 Rain 19 1011 49 10000 4.6 220 22:22 17.07.2019
5005 Rain 20 1011 53 10000 5.1 230 21:56 17.07.2019
5006 Rain 20 1011 49 10000 5.1 230 21:37 17.07.2019
5007 Clouds 21 1011 49 10000 5.1 230 21:19 17.07.2019
5008 Rain 21 1011 53 10000 4.6 230 20:55 17.07.2019
5009 Clouds 22 1012 44 10000 4.6 240 20:36 17.07.2019
5010 Clouds 22 1012 44 10000 4.6 240 20:18 17.07.2019
5011 Clouds 22 1012 44 10000 4.6 240 20:18 17.07.2019
5012 Clouds 22 1012 44 10000 4.6 240 20:18 17.07.2019
5013 Clouds 23 1012 44 10000 4.1 230 19:40 17.07.2019
5014 Clouds 23 1012 44 10000 4.1 230 19:40 17.07.2019
5015 Clouds 23 1012 44 10000 4.1 230 19:19 17.07.2019
5016 Clouds 23 1012 41 10000 3.6 0 18:44 17.07.2019
5017 Clouds 24 1012 41 10000 3.6 0 18:21 17.07.2019
5018 Clouds 24 1012 38 10000 4.1 200 17:57 17.07.2019
5019 Clouds 24 1012 38 10000 4.1 200 17:39 17.07.2019
5020 Clouds 25 1013 41 10000 3.6 180 17:20 17.07.2019
5021 Clouds 25 1013 38 10000 3.1 0 16:40 17.07.2019
5022 Clouds 25 1013 34 10000 3.6 0 16:20 17.07.2019
5023 Clouds 25 1013 36 10000 4.1 180 15:51 17.07.2019
5024 Clouds 25 1013 36 10000 4.1 180 15:31 17.07.2019
5025 Clouds 25 1014 36 10000 3.1 0 14:57 17.07.2019
5026 Clouds 25 1014 33 10000 4.1 0 14:38 17.07.2019
5027 Clouds 25 1014 38 10000 3.1 0 14:20 17.07.2019
5028 Clouds 25 1014 41 10000 3.6 180 13:49 17.07.2019
5029 Clouds 24 1014 41 10000 3.6 180 13:31 17.07.2019
5030 Clouds 24 1014 41 10000 3.1 0 12:56 17.07.2019
5031 Clouds 24 1015 41 10000 3.1 0 12:38 17.07.2019
5032 Clouds 23 1015 41 10000 3.1 0 12:19 17.07.2019
5033 Clouds 23 1015 49 10000 3.6 200 11:40 17.07.2019
5034 Clouds 22 1015 49 10000 3.6 200 11:19 17.07.2019
5035 Clouds 21 1015 56 10000 3.1 210 10:45 17.07.2019
5036 Clouds 21 1015 56 10000 3.1 210 10:21 17.07.2019
5037 Clouds 19 1015 68 10000 1.5 0 09:45 17.07.2019
5038 Clouds 18 1015 68 10000 1.5 0 09:27 17.07.2019
5039 Clouds 16 1015 77 10000 2.1 220 08:45 17.07.2019
5040 Clouds 15 1015 77 10000 2.1 220 08:24 17.07.2019
5041 Clouds 14 1015 72 10000 2.6 210 07:58 17.07.2019
5042 Clouds 14 1016 77 10000 2.1 230 07:38 17.07.2019
5043 Fog 13 1016 77 10000 2.1 240 07:20 17.07.2019
5044 Clouds 13 1016 87 10000 0.5 220 06:45 17.07.2019
5045 Clouds 13 1016 87 10000 0.5 220 06:45 17.07.2019
5046 Clear 13 1016 87 10000 0.5 220 06:24 17.07.2019
5047 Clear 13 1016 87 10000 1 210 05:38 17.07.2019
5048 Clear 13 1016 87 10000 1 210 05:38 17.07.2019
5049 Clear 13 1016 87 10000 2.1 180 04:58 17.07.2019
5050 Clear 14 1017 77 10000 3.1 250 03:55 17.07.2019
5051 Clouds 15 1017 82 10000 1 250 02:43 17.07.2019
5052 Clouds 16 1017 68 10000 2.6 230 01:42 17.07.2019
5053 Clouds 16 1017 68 10000 2.6 230 01:22 17.07.2019
5054 Clouds 17 1017 72 10000 2.6 210 00:42 17.07.2019
5055 Clouds 17 1017 68 10000 3.1 230 00:22 17.07.2019
5056 Clouds 18 1017 64 10000 3.6 210 23:46 16.07.2019
5057 Clouds 18 1017 64 10000 3.6 210 23:25 16.07.2019
5058 Clouds 19 1017 60 10000 4.1 0 22:57 16.07.2019
5059 Clouds 19 1016 56 10000 4.6 210 22:39 16.07.2019
5060 Clear 19 1018 77 10000 5.7 200 22:18 16.07.2019
5061 Clouds 21 1017 53 10000 4.6 200 21:43 16.07.2019
5062 Clear 22 1017 47 10000 4.6 0 21:20 16.07.2019
5063 Clear 23 1017 39 10000 4.1 190 20:41 16.07.2019
5064 Clear 23 1017 39 10000 4.1 190 20:23 16.07.2019
5065 Clear 24 1017 34 10000 3.1 0 19:56 16.07.2019
5066 Clear 24 1017 34 10000 1.5 0 19:37 16.07.2019
5067 Clear 24 1017 32 10000 2.6 170 19:19 16.07.2019
5068 Clear 24 1017 34 10000 1.5 0 18:45 16.07.2019
5069 Clear 24 1017 31 10000 2.6 140 18:21 16.07.2019
5070 Clear 25 1017 31 10000 2.6 140 17:55 16.07.2019
5071 Clear 25 1017 32 10000 2.6 220 17:36 16.07.2019
5072 Clear 25 1018 34 10000 2.6 210 16:59 16.07.2019
5073 Clear 25 1018 34 10000 3.1 220 16:38 16.07.2019
5074 Clear 25 1018 34 10000 2.1 0 16:18 16.07.2019
5075 Clear 25 1018 36 10000 2.6 0 15:40 16.07.2019
5076 Clouds 24 1019 36 10000 3.1 140 15:21 16.07.2019
5077 Clouds 24 1019 36 10000 3.1 140 14:58 16.07.2019
5078 Clouds 24 1019 41 10000 2.6 150 14:39 16.07.2019
5079 Clouds 24 1019 41 10000 1 0 14:20 16.07.2019
5080 Clouds 24 1019 46 10000 1 0 13:44 16.07.2019
5081 Clouds 24 1019 46 10000 1 0 13:44 16.07.2019
5082 Clouds 24 1019 46 10000 1 0 13:21 16.07.2019
5083 Clouds 23 1019 49 10000 1 0 12:45 16.07.2019
5084 Clouds 22 1019 52 10000 2.1 190 12:20 16.07.2019
5085 Clouds 21 1019 52 10000 2.1 190 11:58 16.07.2019
5086 Clouds 21 1020 56 10000 1.5 0 11:40 16.07.2019
5087 Clouds 20 1020 59 10000 2.6 0 11:21 16.07.2019
5088 Clouds 19 1020 59 10000 3.1 250 10:45 16.07.2019
5089 Clouds 18 1020 63 10000 3.1 260 10:22 16.07.2019
5090 Clouds 17 1020 63 10000 3.1 260 09:58 16.07.2019
5091 Clouds 17 1020 63 10000 4.1 250 09:40 16.07.2019
5092 Clouds 15 1020 63 10000 4.1 250 09:19 16.07.2019
5093 Clouds 14 1020 72 10000 3.1 240 08:42 16.07.2019
5094 Clouds 13 1020 77 10000 3.6 240 08:20 16.07.2019
5095 Fog 12 1020 77 10000 3.1 240 07:42 16.07.2019
5096 Fog 11 1020 93 10000 0.5 300 07:24 16.07.2019
5097 Clouds 11 1020 82 10000 2.6 250 06:48 16.07.2019
5098 Clouds 11 1020 87 10000 0.5 280 06:27 16.07.2019
5099 Clouds 11 1020 87 10000 1 230 05:39 16.07.2019
5100 Clouds 11 1020 87 10000 1 230 05:21 16.07.2019
5101 Clouds 11 1021 87 10000 1.5 230 04:19 16.07.2019
5102 Clouds 12 1021 82 10000 3.1 230 03:21 16.07.2019
5103 Clouds 12 1021 76 10000 2.1 190 02:31 16.07.2019
5104 Clouds 13 1022 77 10000 3.1 180 01:49 16.07.2019
5105 Clouds 13 1021 72 10000 2.6 110 00:53 16.07.2019
5106 Clear 14 1022 72 10000 2.6 110 00:22 16.07.2019
5107 Clear 15 1021 77 10000 2.6 80 23:54 15.07.2019
5108 Clear 15 1021 72 10000 3.6 90 23:36 15.07.2019
5109 Clear 15 1021 68 10000 3.6 80 22:55 15.07.2019
5110 Clouds 16 1021 63 10000 5.1 90 22:37 15.07.2019
5111 Clear 17 1022 77 10000 2.6 90 22:18 15.07.2019
5112 Clouds 18 1021 52 10000 2.6 40 21:42 15.07.2019
5113 Clouds 19 1021 52 10000 2.6 40 21:21 15.07.2019
5114 Clouds 19 1021 52 10000 2.6 360 20:57 15.07.2019
5115 Clouds 20 1021 52 10000 2.6 20 20:39 15.07.2019
5116 Clouds 20 1021 52 10000 2.6 20 20:21 15.07.2019
5117 Clouds 21 1021 52 10000 2.6 30 19:44 15.07.2019
5118 Clouds 21 1021 52 10000 2.6 30 19:22 15.07.2019
5119 Clouds 21 1021 52 10000 3.1 0 18:57 15.07.2019
5120 Clouds 21 1021 49 10000 2.6 20 18:57 15.07.2019
5121 Clouds 21 1021 49 10000 2.6 20 18:38 15.07.2019
5122 Clouds 21 1022 49 10000 2.1 0 18:19 15.07.2019
5123 Clouds 21 1022 49 10000 2.1 0 17:55 15.07.2019
5124 Clouds 21 1022 56 10000 2.6 340 17:37 15.07.2019
5125 Clouds 21 1022 56 10000 1.5 0 17:18 15.07.2019
5126 Clouds 21 1022 56 10000 2.1 60 16:39 15.07.2019
5127 Clouds 21 1022 56 10000 2.1 60 16:39 15.07.2019
5128 Clouds 21 1022 56 10000 1.5 0 16:21 15.07.2019
5129 Clouds 21 1022 56 10000 1.5 0 15:57 15.07.2019
5130 Clouds 20 1022 55 10000 3.1 70 15:37 15.07.2019
5131 Clouds 20 1022 63 10000 2.6 340 15:19 15.07.2019
5132 Clouds 19 1023 63 10000 2.1 350 14:45 15.07.2019
5133 Clouds 19 1023 63 10000 2.1 350 14:25 15.07.2019
5134 Clouds 19 1023 59 10000 2.6 80 13:57 15.07.2019
5135 Clouds 18 1023 63 10000 2.1 70 13:36 15.07.2019
5136 Clouds 18 1023 63 10000 2.1 0 13:18 15.07.2019
5137 Clouds 17 1023 67 10000 1.5 0 12:41 15.07.2019
5138 Clouds 17 1023 67 10000 3.1 50 12:21 15.07.2019
5139 Clouds 16 1023 67 10000 3.6 50 11:43 15.07.2019
5140 Clouds 16 1023 67 10000 3.6 50 11:25 15.07.2019
5141 Clouds 16 1023 67 10000 3.6 50 11:25 15.07.2019
5142 Clouds 15 1023 72 10000 2.1 50 10:48 15.07.2019
5143 Clouds 15 1023 72 10000 2.1 50 10:30 15.07.2019
5144 Clouds 15 1023 72 10000 4.1 50 09:57 15.07.2019
5145 Clouds 14 1023 77 10000 4.1 60 09:39 15.07.2019
5146 Clouds 14 1023 72 10000 2.1 10 09:18 15.07.2019
5147 Clouds 14 1023 72 10000 2.6 350 08:41 15.07.2019
5148 Clouds 13 1023 72 10000 2.6 350 08:23 15.07.2019
5149 Clouds 12 1023 82 10000 2.6 340 07:41 15.07.2019
5150 Clouds 12 1023 82 10000 2.6 340 07:20 15.07.2019
5151 Clouds 12 1023 87 10000 2.1 330 06:39 15.07.2019
5152 Clouds 11 1023 87 10000 1.5 360 05:50 15.07.2019
5153 Clouds 11 1023 76 10000 2.1 10 05:30 15.07.2019
5154 Clouds 11 1023 76 10000 1.5 0 04:43 15.07.2019
5155 Clouds 12 1023 76 10000 2.1 10 03:51 15.07.2019
5156 Clear 12 1023 76 10000 2.6 40 02:47 15.07.2019
5157 Clear 13 1023 72 10000 1 0 01:53 15.07.2019
5158 Clouds 13 1024 72 10000 2.1 50 01:28 15.07.2019
5159 Clouds 14 1024 67 10000 2.6 50 00:53 15.07.2019
5160 Clear 15 1024 67 10000 3.1 50 00:23 15.07.2019
5161 Clear 15 1024 67 10000 3.1 60 23:57 14.07.2019
5162 Clear 15 1023 67 10000 3.6 50 23:37 14.07.2019
5163 Clear 16 1023 63 10000 4.1 60 23:18 14.07.2019
5164 Clear 16 1023 63 10000 4.1 60 22:55 14.07.2019
5165 Clear 17 1023 59 10000 4.6 60 22:37 14.07.2019
5166 Clear 17 1023 59 10000 4.6 60 22:18 14.07.2019
5167 Clouds 18 1022 56 10000 3.1 50 21:42 14.07.2019
5168 Clouds 19 1022 56 10000 3.1 50 21:19 14.07.2019
5169 Rain 19 1022 56 10000 4.6 50 20:57 14.07.2019
5170 Rain 20 1022 52 10000 4.1 30 20:37 14.07.2019
5171 Rain 20 1022 52 10000 4.1 30 20:19 14.07.2019
5172 Rain 20 1023 52 10000 3.6 20 19:45 14.07.2019
5173 Rain 21 1023 52 10000 3.6 20 19:26 14.07.2019
5174 Rain 21 1023 49 10000 4.1 20 18:58 14.07.2019
5175 Clouds 21 1023 49 10000 4.1 60 18:39 14.07.2019
5176 Clouds 21 1023 49 10000 4.1 60 18:21 14.07.2019
5177 Clouds 21 1023 52 10000 4.1 10 17:49 14.07.2019
5178 Clouds 21 1023 52 10000 4.1 10 17:21 14.07.2019
5179 Clouds 21 1023 60 10000 4.1 60 16:47 14.07.2019
5180 Clouds 21 1023 60 10000 4.1 60 16:24 14.07.2019
5181 Clouds 20 1023 60 10000 3.6 300 15:56 14.07.2019
5182 Clouds 20 1023 60 10000 3.1 320 15:34 14.07.2019
5183 Clouds 19 1023 60 10000 2.1 0 14:55 14.07.2019
5184 Clouds 19 1023 63 10000 2.1 310 14:36 14.07.2019
5185 Clouds 19 1023 63 10000 1.5 0 14:18 14.07.2019
5186 Clouds 19 1023 68 10000 2.6 50 13:44 14.07.2019
5187 Clouds 19 1023 68 10000 2.6 50 13:21 14.07.2019
5188 Clouds 18 1024 72 10000 3.1 60 12:43 14.07.2019
5189 Clouds 18 1024 72 10000 3.1 60 12:22 14.07.2019
5190 Clouds 17 1024 72 10000 3.6 60 11:56 14.07.2019
5191 Clouds 17 1024 77 10000 3.1 50 11:37 14.07.2019
5192 Rain 17 1024 82 10000 1.5 0 11:19 14.07.2019
5193 Rain 16 1024 87 10000 1.5 0 10:42 14.07.2019
5194 Rain 16 1024 87 10000 1.5 0 10:19 14.07.2019
5195 Rain 15 1023 87 10000 2.1 40 09:44 14.07.2019
5196 Rain 15 1023 87 10000 2.1 40 09:24 14.07.2019
5197 Rain 14 1023 82 10000 2.6 50 08:44 14.07.2019
5198 Rain 14 1023 82 10000 2.6 60 07:58 14.07.2019
5199 Mist 14 1023 82 10000 2.6 60 07:39 14.07.2019
5200 Rain 14 1022 87 10000 3.1 40 06:58 14.07.2019
5201 Clear 14 1022 93 10000 2.1 350 05:45 14.07.2019
5202 Clear 14 1023 82 10000 1 360 03:48 14.07.2019
5203 Clear 14 1023 82 10000 1 360 03:30 14.07.2019
5204 Clouds 15 1022 77 10000 2.6 40 02:41 14.07.2019
5205 Clouds 15 1023 82 10000 2.6 80 02:22 14.07.2019
5206 Clouds 15 1022 77 10000 2.6 40 01:34 14.07.2019
5207 Clouds 16 1022 82 10000 3.6 80 00:57 14.07.2019
5208 Clouds 16 1022 72 10000 2.1 40 00:39 14.07.2019
5209 Rain 17 1022 77 10000 4.1 100 00:19 14.07.2019
5210 Rain 17 1022 64 10000 2.6 40 23:45 13.07.2019
5211 Rain 18 1022 64 10000 2.6 40 23:25 13.07.2019
5212 Clouds 18 1023 72 10000 2.1 20 22:56 13.07.2019
5213 Rain 19 1022 60 10000 2.1 60 22:37 13.07.2019
5214 Rain 19 1022 60 10000 2.1 60 22:37 13.07.2019
5215 Rain 19 1022 60 10000 2.1 60 22:19 13.07.2019
5216 Rain 19 1022 56 10000 3.1 50 21:42 13.07.2019
5217 Rain 20 1022 64 10000 2.6 20 21:19 13.07.2019
5218 Rain 21 1022 60 10000 3.6 10 20:46 13.07.2019
5219 Rain 21 1022 60 10000 3.6 10 20:27 13.07.2019
5220 Rain 21 1022 60 10000 3.6 50 19:47 13.07.2019
5221 Rain 21 1022 60 10000 3.6 50 19:29 13.07.2019
5222 Rain 22 1022 60 10000 4.1 50 18:45 13.07.2019
5223 Rain 22 1022 60 10000 4.1 50 18:22 13.07.2019
5224 Rain 22 1022 56 10000 3.6 0 17:41 13.07.2019
5225 Clouds 22 1022 60 10000 4.1 330 17:21 13.07.2019
5226 Clouds 22 1022 60 10000 4.1 330 16:58 13.07.2019
5227 Clouds 22 1022 56 10000 3.6 350 16:37 13.07.2019
5228 Clouds 22 1022 64 10000 2.6 20 16:19 13.07.2019
5229 Clouds 22 1022 64 10000 2.6 10 15:44 13.07.2019
5230 Clouds 22 1022 64 10000 2.6 10 15:21 13.07.2019
5231 Clouds 21 1022 64 10000 3.1 350 14:45 13.07.2019
5232 Clouds 21 1022 64 10000 3.1 350 14:24 13.07.2019
5233 Clouds 21 1022 64 10000 2.6 0 13:46 13.07.2019
5234 Clouds 21 1022 64 10000 2.6 0 13:26 13.07.2019
5235 Clouds 20 1022 64 10000 3.1 340 12:59 13.07.2019
5236 Clouds 20 1022 64 10000 1.5 0 12:39 13.07.2019
5237 Clouds 20 1022 68 10000 3.6 340 12:20 13.07.2019
5238 Clouds 19 1022 68 10000 2.6 330 11:42 13.07.2019
5239 Clouds 19 1022 72 10000 2.1 310 11:19 13.07.2019
5240 Clouds 18 1022 68 10000 2.6 330 10:44 13.07.2019
5241 Clouds 18 1022 68 10000 2.6 330 10:23 13.07.2019
5242 Clouds 17 1021 72 10000 3.1 320 09:57 13.07.2019
5243 Clouds 17 1021 72 10000 3.6 300 09:38 13.07.2019
5244 Clouds 16 1021 72 10000 3.6 300 09:18 13.07.2019
5245 Clouds 16 1021 72 10000 4.1 300 08:33 13.07.2019
5246 Clouds 15 1021 77 10000 2.1 300 07:59 13.07.2019
5247 Clouds 15 1020 72 10000 3.1 300 07:30 13.07.2019
5248 Clouds 14 1020 77 10000 4.1 310 06:41 13.07.2019
5249 Clouds 14 1020 82 10000 2.1 310 05:58 13.07.2019
5250 Clouds 15 1020 77 10000 3.6 350 05:28 13.07.2019
5251 Rain 15 1020 77 10000 3.1 320 04:23 13.07.2019
5252 Rain 16 1019 72 10000 3.1 310 03:57 13.07.2019
5253 Rain 16 1020 77 10000 3.1 330 03:38 13.07.2019
5254 Rain 17 1019 68 10000 3.1 310 01:58 13.07.2019
5255 Clear 17 1019 72 10000 3.6 340 01:39 13.07.2019
5256 Clouds 17 1019 68 10000 2.6 320 01:19 13.07.2019
5257 Clouds 17 1019 68 10000 2.6 320 00:54 13.07.2019
5258 Clouds 18 1019 68 10000 2.6 330 00:20 13.07.2019
5259 Clouds 18 1019 63 10000 3.6 310 23:48 12.07.2019
5260 Clouds 18 1019 63 10000 3.6 310 23:29 12.07.2019
5261 Clouds 19 1017 53 10000 4.1 310 22:46 12.07.2019
5262 Clouds 20 1017 53 10000 4.1 310 22:24 12.07.2019
5263 Clouds 21 1017 49 10000 5.1 300 21:57 12.07.2019
5264 Clouds 21 1016 46 10000 4.1 300 21:39 12.07.2019
5265 Clouds 21 1016 46 10000 4.6 330 21:19 12.07.2019
5266 Clouds 21 1016 46 10000 4.6 330 21:19 12.07.2019
5267 Clouds 22 1016 46 10000 6.2 300 20:42 12.07.2019
5268 Clouds 22 1016 46 10000 6.2 300 20:21 12.07.2019
5269 Clouds 23 1015 44 10000 5.7 310 19:42 12.07.2019
5270 Clouds 23 1015 44 10000 5.7 310 19:24 12.07.2019
5271 Clouds 23 1015 44 10000 5.7 300 18:46 12.07.2019
5272 Rain 24 1015 47 10000 5.1 300 18:22 12.07.2019
5273 Rain 24 1015 47 10000 5.1 300 17:55 12.07.2019
5274 Rain 24 1015 47 10000 5.7 340 17:30 12.07.2019
5275 Rain 24 1015 47 10000 5.7 340 17:30 12.07.2019
5276 Rain 24 1015 44 10000 6.2 300 16:59 12.07.2019
5277 Rain 24 1015 47 10000 7.7 290 16:27 12.07.2019
5278 Rain 24 1015 49 10000 5.7 300 15:57 12.07.2019
5279 Clouds 24 1014 47 10000 5.1 310 15:37 12.07.2019
5280 Clouds 24 1014 47 10000 5.1 310 15:18 12.07.2019
5281 Clouds 24 1014 46 10000 6.2 300 14:44 12.07.2019
5282 Clouds 23 1014 46 10000 6.2 300 14:21 12.07.2019
5283 Clouds 23 1014 56 10000 5.7 300 13:46 12.07.2019
5284 Clouds 23 1014 56 10000 5.7 300 13:23 12.07.2019
5285 Drizzle 22 1014 60 10000 5.7 300 12:43 12.07.2019
5286 Drizzle 22 1014 60 10000 5.7 300 12:23 12.07.2019
5287 Clouds 21 1014 60 10000 3.6 310 11:47 12.07.2019
5288 Clouds 21 1014 60 10000 3.6 310 11:24 12.07.2019
5289 Clouds 21 1014 60 10000 3.1 290 10:59 12.07.2019
5290 Rain 20 1014 60 10000 3.6 290 10:41 12.07.2019
5291 Rain 20 1014 60 10000 3.6 290 10:23 12.07.2019
5292 Rain 19 1014 63 10000 3.6 310 09:53 12.07.2019
5293 Rain 18 1014 68 10000 4.1 300 09:27 12.07.2019
5294 Clouds 18 1013 68 10000 4.6 300 08:50 12.07.2019
5295 Clouds 17 1013 72 10000 4.1 280 08:24 12.07.2019
5296 Clouds 17 1012 77 10000 5.1 290 07:51 12.07.2019
5297 Rain 17 1013 82 10000 3.1 340 07:29 12.07.2019
5298 Rain 17 1012 82 10000 3.1 290 06:32 12.07.2019
5299 Clouds 17 1012 72 10000 5.1 270 05:52 12.07.2019
5300 Clouds 17 1012 77 10000 4.6 280 04:52 12.07.2019
5301 Clouds 18 1012 72 10000 3.6 280 02:36 12.07.2019
5302 Clouds 18 1012 64 10000 4.1 280 01:37 12.07.2019
5303 Clouds 18 1012 68 10000 3.1 290 00:37 12.07.2019
5304 Clouds 19 1012 56 10000 5.7 280 00:19 12.07.2019
5305 Clouds 20 1013 64 10000 3.1 270 23:42 11.07.2019
5306 Clouds 20 1013 64 10000 3.1 270 23:22 11.07.2019
5307 Clear 20 1013 68 10000 2.6 260 22:47 11.07.2019
5308 Clear 21 1012 64 10000 3.6 260 22:25 11.07.2019
5309 Clear 21 1012 64 10000 3.6 260 22:25 11.07.2019
5310 Clouds 21 1011 53 10000 5.7 280 21:55 11.07.2019
5311 Clouds 22 1011 53 10000 5.1 280 21:36 11.07.2019
5312 Clouds 22 1012 60 10000 2.6 230 21:18 11.07.2019
5313 Clouds 23 1011 50 10000 4.1 270 20:42 11.07.2019
5314 Clouds 23 1011 50 10000 4.1 270 20:22 11.07.2019
5315 Rain 24 1011 50 10000 4.1 250 19:57 11.07.2019
5316 Rain 24 1011 50 10000 4.6 270 19:39 11.07.2019
5317 Rain 24 1011 44 10000 3.6 260 19:20 11.07.2019
5318 Rain 25 1011 50 10000 3.1 280 18:41 11.07.2019
5319 Clouds 25 1011 50 10000 3.1 280 18:23 11.07.2019
5320 Clouds 25 1011 44 10000 2.6 0 17:49 11.07.2019
5321 Clouds 25 1011 44 10000 2.6 0 17:49 11.07.2019
5322 Clouds 25 1011 44 10000 2.6 0 17:30 11.07.2019
5323 Clouds 25 1012 47 10000 3.1 280 16:55 11.07.2019
5324 Clouds 25 1012 44 10000 5.1 260 16:37 11.07.2019
5325 Clouds 25 1012 47 10000 4.6 280 16:18 11.07.2019
5326 Clouds 25 1012 41 10000 5.1 240 15:40 11.07.2019
5327 Clouds 24 1012 44 10000 4.1 260 15:20 11.07.2019
5328 Clouds 24 1012 47 10000 3.6 250 14:45 11.07.2019
5329 Clouds 24 1012 47 10000 3.6 250 14:25 11.07.2019
5330 Clouds 24 1012 47 10000 4.1 270 13:59 11.07.2019
5331 Clouds 24 1012 44 10000 4.6 240 13:40 11.07.2019
5332 Clouds 23 1012 47 10000 4.1 240 13:22 11.07.2019
5333 Clouds 22 1013 49 10000 4.6 260 12:38 11.07.2019
5334 Clouds 21 1013 53 10000 3.6 240 12:19 11.07.2019
5335 Clouds 21 1013 56 10000 3.1 260 11:45 11.07.2019
5336 Clouds 20 1013 56 10000 3.1 260 11:27 11.07.2019
5337 Clouds 20 1013 56 10000 2.6 0 10:52 11.07.2019
5338 Clouds 19 1013 60 10000 2.1 270 10:20 11.07.2019
5339 Clouds 18 1013 63 10000 3.1 290 09:53 11.07.2019
5340 Clouds 18 1013 63 10000 3.1 290 09:32 11.07.2019
5341 Clouds 17 1013 72 10000 2.6 310 08:59 11.07.2019
5342 Rain 17 1013 63 10000 2.6 240 08:39 11.07.2019
5343 Rain 16 1013 63 10000 3.6 250 08:19 11.07.2019
5344 Rain 16 1013 72 10000 2.1 290 07:43 11.07.2019
5345 Rain 16 1013 67 10000 2.1 240 06:55 11.07.2019
5346 Rain 16 1013 67 10000 2.6 230 06:19 11.07.2019
5347 Rain 16 1013 59 10000 3.1 230 05:32 11.07.2019
5348 Rain 16 1014 67 10000 2.6 230 04:56 11.07.2019
5349 Clouds 16 1014 63 10000 3.1 270 03:58 11.07.2019
5350 Clouds 17 1014 59 10000 4.1 260 02:25 11.07.2019
5351 Clouds 18 1015 55 10000 2.6 230 00:42 11.07.2019
5352 Clear 18 1016 72 10000 4.1 200 23:51 10.07.2019
5353 Clear 19 1016 68 10000 3.6 210 23:28 10.07.2019
5354 Clouds 19 1015 56 10000 4.6 230 22:58 10.07.2019
5355 Clear 20 1016 68 10000 5.1 200 22:26 10.07.2019
5356 Clear 20 1016 72 10000 4.6 200 21:59 10.07.2019
5357 Clouds 21 1015 50 10000 5.1 220 21:39 10.07.2019
5358 Rain 22 1015 50 10000 5.1 220 21:21 10.07.2019
5359 Clear 22 1017 60 10000 5.7 210 20:48 10.07.2019
5360 Clear 23 1017 60 10000 5.7 210 20:27 10.07.2019
5361 Clouds 23 1016 50 10000 4.6 250 19:59 10.07.2019
5362 Clouds 24 1016 50 10000 4.6 230 19:40 10.07.2019
5363 Clouds 24 1016 50 10000 4.1 220 19:21 10.07.2019
5364 Clouds 24 1016 50 10000 4.6 210 18:46 10.07.2019
5365 Clouds 24 1016 50 10000 4.6 210 18:24 10.07.2019
5366 Clouds 24 1017 47 10000 6.2 250 17:50 10.07.2019
5367 Clouds 24 1017 47 10000 6.2 250 17:30 10.07.2019
5368 Clouds 25 1017 50 10000 5.7 250 16:58 10.07.2019
5369 Clouds 24 1017 50 10000 4.6 250 16:22 10.07.2019
5370 Clouds 24 1018 50 10000 5.1 250 15:54 10.07.2019
5371 Clouds 24 1018 47 10000 5.1 240 15:36 10.07.2019
5372 Clouds 24 1018 50 10000 5.1 250 15:18 10.07.2019
5373 Clouds 24 1018 50 10000 4.6 220 14:39 10.07.2019
5374 Clouds 24 1018 57 10000 4.6 270 14:19 10.07.2019
5375 Rain 23 1019 57 10000 4.1 230 13:43 10.07.2019
5376 Rain 23 1019 56 10000 4.1 260 13:19 10.07.2019
5377 Rain 23 1019 60 10000 4.1 250 12:42 10.07.2019
5378 Clouds 22 1019 60 10000 4.1 250 12:22 10.07.2019
5379 Clouds 22 1019 68 10000 3.6 270 11:56 10.07.2019
5380 Clouds 21 1019 68 10000 4.1 250 11:38 10.07.2019
5381 Clouds 21 1019 68 10000 4.1 250 11:20 10.07.2019
5382 Clouds 20 1019 68 10000 3.1 240 10:40 10.07.2019
5383 Clouds 20 1019 72 10000 3.1 250 10:19 10.07.2019
5384 Clouds 19 1019 68 10000 3.1 240 09:42 10.07.2019
5385 Clouds 19 1019 68 10000 3.1 240 09:20 10.07.2019
5386 Clouds 18 1019 72 10000 3.1 230 08:49 10.07.2019
5387 Clouds 17 1019 72 10000 2.6 220 08:28 10.07.2019
5388 Clouds 17 1019 82 10000 2.6 200 07:53 10.07.2019
5389 Clouds 16 1019 72 10000 2.1 230 07:28 10.07.2019
5390 Clouds 16 1019 72 10000 1.5 230 06:42 10.07.2019
5391 Clouds 16 1019 72 10000 2.1 230 05:44 10.07.2019
5392 Clouds 16 1020 72 10000 2.6 220 04:35 10.07.2019
5393 Clouds 16 1020 72 10000 2.1 220 03:20 10.07.2019
5394 Clouds 17 1020 72 10000 1.5 50 00:45 10.07.2019
5395 Clouds 18 1020 60 10000 3.1 210 23:59 09.07.2019
5396 Clouds 18 1020 60 10000 3.1 210 23:39 09.07.2019
5397 Clouds 19 1020 60 10000 3.1 210 23:21 09.07.2019
5398 Clear 19 1020 63 10000 2.6 200 22:40 09.07.2019
5399 Clear 19 1020 63 10000 2.6 200 22:22 09.07.2019
5400 Clouds 20 1020 56 10000 4.1 210 21:56 09.07.2019
5401 Rain 20 1020 53 10000 2.6 190 21:37 09.07.2019
5402 Clouds 21 1020 53 10000 2.6 190 21:19 09.07.2019
5403 Clouds 21 1019 53 10000 2.1 150 20:43 09.07.2019
5404 Clouds 21 1019 53 10000 2.1 150 20:24 09.07.2019
5405 Clouds 22 1019 49 10000 2.1 240 19:40 09.07.2019
5406 Clouds 23 1020 49 10000 2.1 240 19:21 09.07.2019
5407 Clouds 23 1020 49 10000 2.1 230 18:45 09.07.2019
5408 Clouds 23 1020 49 10000 2.1 230 18:23 09.07.2019
5409 Clouds 23 1020 49 10000 2.6 240 17:55 09.07.2019
5410 Clouds 23 1020 53 10000 2.1 180 17:37 09.07.2019
5411 Clouds 23 1020 53 10000 2.1 220 17:18 09.07.2019
5412 Clouds 22 1020 53 10000 2.6 210 16:46 09.07.2019
5413 Clouds 22 1020 53 10000 2.6 210 16:24 09.07.2019
5414 Clouds 22 1021 52 10000 3.1 260 15:49 09.07.2019
5415 Clouds 22 1021 52 10000 3.1 260 15:29 09.07.2019
5416 Clouds 22 1021 52 10000 2.6 230 14:55 09.07.2019
5417 Clouds 22 1021 56 10000 2.6 0 14:37 09.07.2019
5418 Clouds 21 1021 56 10000 2.6 0 14:18 09.07.2019
5419 Clouds 21 1021 56 10000 2.6 0 14:18 09.07.2019
5420 Clouds 21 1021 56 10000 3.1 230 13:43 09.07.2019
5421 Clouds 21 1022 55 10000 3.6 210 13:22 09.07.2019
5422 Clouds 19 1022 55 10000 3.6 220 12:40 09.07.2019
5423 Clouds 20 1022 55 10000 3.6 220 12:40 09.07.2019
5424 Clouds 19 1022 55 10000 3.6 220 12:22 09.07.2019
5425 Clouds 19 1022 55 10000 3.6 210 11:57 09.07.2019
5426 Clouds 19 1022 59 10000 3.1 0 11:38 09.07.2019
5427 Clouds 18 1022 59 10000 3.1 0 11:20 09.07.2019
5428 Clouds 17 1021 63 10000 2.6 0 10:49 09.07.2019
5429 Clouds 17 1021 63 10000 2.6 0 10:30 09.07.2019
5430 Rain 16 1022 67 10000 2.6 0 09:41 09.07.2019
5431 Rain 16 1022 67 10000 2.6 0 09:22 09.07.2019
5432 Rain 15 1021 72 10000 2.6 150 08:55 09.07.2019
5433 Clouds 15 1022 72 10000 2.1 150 08:35 09.07.2019
5434 Clouds 16 1021 68 10000 1.5 320 03:58 05.07.2019
5435 Clouds 16 1021 72 10000 2.1 350 03:38 05.07.2019
5436 Clouds 16 1021 72 10000 2.1 350 03:38 05.07.2019
5437 Clouds 16 1021 72 10000 2.1 350 03:19 05.07.2019
5438 Clouds 16 1021 72 10000 2.1 350 03:19 05.07.2019
5439 Clouds 16 1021 72 10000 1.5 320 02:44 05.07.2019
5440 Clouds 17 1021 63 10000 1 310 01:42 05.07.2019
5441 Clouds 17 1021 63 10000 1 310 01:23 05.07.2019
5442 Clouds 17 1021 63 10000 1.5 330 00:46 05.07.2019
5443 Clear 18 1022 77 10000 4.1 200 23:56 04.07.2019
5444 Clear 19 1022 77 10000 3.6 200 23:21 04.07.2019
5445 Clear 19 1022 72 10000 4.1 200 22:58 04.07.2019
5446 Clear 20 1022 60 10000 3.1 200 22:40 04.07.2019
5447 Clouds 21 1021 41 10000 2.1 10 22:19 04.07.2019
5448 Clouds 23 1021 36 10000 2.1 330 21:40 04.07.2019
5449 Clouds 23 1021 36 10000 2.1 330 21:22 04.07.2019
5450 Clouds 24 1021 34 10000 1.5 0 20:55 04.07.2019
5451 Clouds 24 1021 34 10000 1 0 20:37 04.07.2019
5452 Clouds 24 1021 34 10000 1.5 0 20:18 04.07.2019
5453 Clouds 25 1021 34 10000 1.5 0 19:41 04.07.2019
5454 Clouds 25 1021 34 10000 1.5 0 19:20 04.07.2019
5455 Clouds 25 1022 34 10000 3.1 210 18:44 04.07.2019
5456 Clouds 25 1022 34 10000 3.1 210 18:26 04.07.2019
5457 Clouds 25 1022 36 10000 3.1 90 17:55 04.07.2019
5458 Clouds 25 1023 36 10000 2.6 110 17:37 04.07.2019
5459 Clouds 25 1023 36 10000 2.6 180 17:18 04.07.2019
5460 Clouds 25 1024 38 10000 3.1 120 15:42 04.07.2019
5461 Clouds 24 1024 38 10000 3.1 120 15:24 04.07.2019
5462 Clouds 23 1025 40 10000 1 0 14:58 04.07.2019
5463 Clouds 23 1025 46 10000 2.6 0 14:38 04.07.2019
5464 Clouds 23 1025 49 10000 2.1 60 14:19 04.07.2019
5465 Clouds 23 1025 49 10000 2.1 60 13:56 04.07.2019
5466 Clouds 23 1026 49 10000 2.1 0 13:38 04.07.2019
5467 Clouds 22 1026 49 10000 2.1 0 13:18 04.07.2019
5468 Clouds 21 1026 52 10000 2.1 50 12:38 04.07.2019
5469 Clouds 20 1027 52 10000 3.1 80 12:19 04.07.2019
5470 Clouds 19 1027 55 10000 2.6 110 11:43 04.07.2019
5471 Clouds 19 1027 55 10000 1.5 0 11:20 04.07.2019
5472 Clouds 19 1027 59 10000 1.5 0 10:46 04.07.2019
5473 Clouds 18 1027 59 10000 1.5 0 10:27 04.07.2019
5474 Clouds 17 1027 63 10000 2.1 350 09:57 04.07.2019
5475 Clouds 17 1027 72 10000 2.1 60 09:38 04.07.2019
5476 Clear 16 1027 72 10000 1 0 09:19 04.07.2019
5477 Clear 14 1027 77 10000 1 0 08:44 04.07.2019
5478 Clear 13 1027 76 10000 1 0 08:18 04.07.2019
5479 Clear 12 1027 82 10000 1 340 07:39 04.07.2019
5480 Clear 11 1027 82 10000 1.5 350 07:18 04.07.2019
5481 Clear 10 1027 87 10000 0.5 350 06:30 04.07.2019
5482 Clear 10 1027 87 10000 0.69 53.85 05:41 04.07.2019
5483 Clear 10 1027 81 10000 0.5 10 04:18 04.07.2019
5484 Clouds 12 1027 72 10000 2.6 70 02:23 04.07.2019
5485 Clouds 13 1027 67 10000 2.6 100 01:26 04.07.2019
5486 Clouds 14 1028 67 10000 3.6 70 00:51 04.07.2019
5487 Clouds 15 1027 63 10000 4.1 70 23:52 03.07.2019
5488 Clouds 16 1027 55 10000 5.1 90 23:21 03.07.2019
5489 Clouds 16 1027 55 10000 5.1 90 22:57 03.07.2019
5490 Clouds 16 1027 48 10000 6.2 90 22:38 03.07.2019
5491 Clouds 17 1027 48 10000 6.2 90 22:20 03.07.2019
5492 Clouds 18 1026 45 10000 6.2 90 21:55 03.07.2019
5493 Clouds 19 1026 48 10000 6.2 100 21:36 03.07.2019
5494 Clouds 20 1026 42 10000 6.2 100 20:55 03.07.2019
5495 Clouds 20 1026 45 10000 5.7 100 20:36 03.07.2019
5496 Clouds 21 1026 43 10000 5.7 100 20:18 03.07.2019
5497 Clouds 21 1026 46 10000 5.7 100 19:44 03.07.2019
5498 Clouds 21 1026 46 10000 5.7 100 19:25 03.07.2019
5499 Clouds 21 1026 46 10000 5.7 100 18:45 03.07.2019
5500 Clouds 22 1026 46 10000 5.7 100 18:23 03.07.2019
5501 Clouds 22 1026 46 10000 5.1 90 17:51 03.07.2019
5502 Clouds 22 1026 49 10000 4.1 90 17:20 03.07.2019
5503 Clouds 22 1026 49 10000 4.1 90 16:58 03.07.2019
5504 Clouds 22 1026 49 10000 3.6 80 16:39 03.07.2019
5505 Clouds 22 1027 49 10000 4.6 80 16:18 03.07.2019
5506 Clouds 22 1027 49 10000 4.6 90 15:46 03.07.2019
5507 Clouds 21 1027 49 10000 4.6 90 15:27 03.07.2019
5508 Clouds 21 1027 46 10000 4.6 70 14:49 03.07.2019
5509 Clouds 21 1027 46 10000 4.6 70 14:22 03.07.2019
5510 Clouds 21 1027 45 10000 2.6 80 13:50 03.07.2019
5511 Clouds 21 1027 45 10000 2.6 80 13:31 03.07.2019
5512 Clouds 20 1027 52 10000 1.5 0 12:54 03.07.2019
5513 Clouds 19 1027 52 10000 1 0 12:20 03.07.2019
5514 Clouds 19 1027 55 10000 1 0 11:57 03.07.2019
5515 Clouds 19 1027 55 10000 1 0 11:39 03.07.2019
5516 Clouds 19 1027 63 10000 2.1 60 11:19 03.07.2019
5517 Clear 18 1027 59 10000 0.5 0 10:40 03.07.2019
5518 Clear 17 1027 67 10000 2.1 70 10:21 03.07.2019
5519 Clear 17 1026 67 10000 1.5 0 09:42 03.07.2019
5520 Clouds 15 1026 72 10000 1.5 0 09:21 03.07.2019
5521 Clouds 14 1026 72 10000 1.5 0 08:53 03.07.2019
5522 Clouds 14 1026 76 10000 1.5 0 08:32 03.07.2019
5523 Clouds 13 1026 76 10000 1.5 0 07:53 03.07.2019
5524 Clouds 12 1026 76 10000 2.1 340 07:35 03.07.2019
5525 Clouds 11 1026 81 10000 0.5 250 06:48 03.07.2019
5526 Clouds 11 1026 71 10000 2.6 10 05:44 03.07.2019
5527 Clouds 11 1026 71 10000 2.6 10 05:21 03.07.2019
5528 Clouds 11 1026 76 10000 2.1 360 03:36 03.07.2019
5529 Clouds 12 1026 67 10000 1.5 0 02:38 03.07.2019
5530 Clouds 13 1025 71 10000 1.5 10 01:23 03.07.2019
5531 Clouds 13 1025 77 10000 2.6 70 00:57 03.07.2019
5532 Clouds 14 1025 77 10000 2.6 70 00:36 03.07.2019
5533 Clouds 15 1025 72 10000 4.6 80 23:48 02.07.2019
5534 Clear 16 1025 93 10000 2.6 60 23:21 02.07.2019
5535 Clouds 16 1025 68 10000 4.1 80 22:59 02.07.2019
5536 Clouds 17 1025 52 10000 3.1 0 22:41 02.07.2019
5537 Clear 17 1025 59 10000 4.1 20 22:22 02.07.2019
5538 Clear 17 1025 59 10000 4.1 20 22:22 02.07.2019
5539 Clouds 18 1024 49 10000 3.6 50 21:57 02.07.2019
5540 Clouds 18 1024 49 10000 3.1 60 21:38 02.07.2019
5541 Clouds 19 1024 45 10000 4.1 50 21:19 02.07.2019
5542 Clouds 20 1024 46 10000 5.1 50 20:42 02.07.2019
5543 Clouds 20 1024 46 10000 3.6 50 20:24 02.07.2019
5544 Clouds 20 1024 46 10000 3.1 50 19:59 02.07.2019
5545 Clouds 20 1024 43 10000 3.6 10 19:40 02.07.2019
5546 Clouds 20 1024 43 10000 3.6 10 19:20 02.07.2019
5547 Clouds 21 1024 46 10000 3.1 310 18:45 02.07.2019
5548 Clouds 21 1024 43 10000 2.6 360 18:18 02.07.2019
5549 Clouds 21 1024 46 10000 3.1 310 17:41 02.07.2019
5550 Clouds 21 1024 46 10000 1.5 0 17:22 02.07.2019
5551 Clouds 21 1025 55 10000 3.6 350 16:49 02.07.2019
5552 Clouds 21 1025 55 10000 3.6 350 16:31 02.07.2019
5553 Clouds 21 1024 49 10000 3.1 330 15:45 02.07.2019
5554 Clouds 21 1024 49 10000 3.1 330 15:25 02.07.2019
5555 Clouds 21 1024 49 10000 3.1 330 15:25 02.07.2019
5556 Clouds 21 1025 49 10000 2.1 20 14:56 02.07.2019
5557 Clouds 21 1025 52 10000 3.6 340 14:38 02.07.2019
5558 Clouds 20 1025 55 10000 3.6 300 13:58 02.07.2019
5559 Clouds 20 1025 55 10000 3.6 300 13:36 02.07.2019
5560 Clouds 20 1025 52 10000 2.1 0 13:18 02.07.2019
5561 Clouds 19 1025 55 10000 3.1 0 12:43 02.07.2019
5562 Clouds 19 1025 59 10000 2.6 360 12:22 02.07.2019
5563 Clear 18 1025 59 10000 2.6 40 11:43 02.07.2019
5564 Clear 18 1025 63 10000 2.1 0 11:23 02.07.2019
5565 Clear 17 1025 67 10000 2.1 300 10:51 02.07.2019
5566 Clear 17 1025 67 10000 2.1 300 10:26 02.07.2019
5567 Clear 15 1025 67 10000 3.1 340 09:49 02.07.2019
5568 Clear 14 1025 71 10000 3.1 330 09:22 02.07.2019
5569 Clear 13 1025 71 10000 3.1 330 08:55 02.07.2019
5570 Clouds 13 1025 87 10000 3.6 340 08:35 02.07.2019
5571 Clear 12 1025 71 10000 2.6 310 07:57 02.07.2019
5572 Clear 11 1025 76 10000 2.6 300 07:21 02.07.2019
5573 Clear 11 1025 87 10000 2.1 310 06:54 02.07.2019
5574 Clear 10 1025 87 10000 2.1 310 06:35 02.07.2019
5575 Clear 11 1025 81 10000 2.1 300 05:19 02.07.2019
5576 Clouds 13 1024 87 10000 2.6 320 02:30 02.07.2019
5577 Rain 16 1023 59 10000 3.6 300 00:26 02.07.2019
5578 Clouds 17 1023 63 10000 4.1 350 23:30 01.07.2019
5579 Clear 17 1022 63 10000 2.6 310 22:54 01.07.2019
5580 Rain 18 1021 56 10000 5.1 300 22:28 01.07.2019
5581 Clear 19 1022 55 10000 3.1 300 21:56 01.07.2019
5582 Rain 19 1021 52 10000 4.1 300 21:37 01.07.2019
5583 Clouds 19 1021 49 10000 4.1 300 21:19 01.07.2019
5584 Clouds 20 1021 49 10000 5.7 290 20:45 01.07.2019
5585 Clouds 20 1021 49 10000 5.7 290 20:20 01.07.2019
5586 Clouds 20 1021 49 10000 4.6 300 19:54 01.07.2019
5587 Clouds 20 1021 49 10000 4.6 300 19:36 01.07.2019
5588 Clouds 20 1021 49 10000 5.1 310 19:18 01.07.2019
5589 Clouds 21 1021 49 10000 5.1 320 18:42 01.07.2019
5590 Clouds 21 1021 49 10000 5.1 320 18:21 01.07.2019
5591 Clouds 21 1020 49 10000 4.6 300 17:45 01.07.2019
5592 Clouds 21 1020 49 10000 4.6 300 17:25 01.07.2019
5593 Clouds 21 1020 49 10000 5.1 270 16:56 01.07.2019
5594 Clouds 21 1020 49 10000 5.7 290 16:38 01.07.2019
5595 Clouds 21 1020 49 10000 5.7 290 16:19 01.07.2019
5596 Clouds 21 1020 46 10000 5.1 270 15:42 01.07.2019
5597 Clouds 21 1020 46 10000 5.1 270 15:22 01.07.2019
5598 Clouds 21 1020 46 10000 6.2 270 14:44 01.07.2019
5599 Clouds 21 1020 46 10000 5.7 280 14:20 01.07.2019
5600 Clouds 20 1020 49 10000 5.7 280 13:45 01.07.2019
5601 Clouds 20 1020 49 10000 6.7 270 13:24 01.07.2019
5602 Clouds 20 1019 49 10000 6.7 270 12:56 01.07.2019
5603 Clouds 19 1019 52 10000 6.7 290 12:37 01.07.2019
5604 Clouds 19 1019 52 10000 6.7 290 12:19 01.07.2019
5605 Clouds 18 1019 55 10000 6.2 270 11:43 01.07.2019
5606 Clouds 18 1019 59 10000 7.2 290 11:22 01.07.2019
5607 Clouds 18 1019 59 10000 6.2 290 10:48 01.07.2019
5608 Clouds 17 1019 63 10000 7.2 290 10:24 01.07.2019
5609 Clouds 17 1019 63 10000 6.2 270 09:58 01.07.2019
5610 Clouds 17 1019 63 10000 6.2 270 09:40 01.07.2019
5611 Clouds 16 1019 72 10000 6.2 270 09:21 01.07.2019
5612 Clouds 16 1019 72 10000 6.2 260 08:38 01.07.2019
5613 Clouds 15 1018 77 10000 5.7 260 08:19 01.07.2019
5614 Clear 14 1018 82 10000 5.1 250 07:28 01.07.2019
5615 Clear 13 1018 87 10000 4.1 250 06:30 01.07.2019
5616 Clear 14 1018 72 10000 4.6 260 02:21 01.07.2019
5617 Clear 16 1018 63 10000 6.2 270 00:50 01.07.2019
5618 Clear 16 1017 63 10000 4.6 290 00:29 01.07.2019
5619 Clear 17 1018 63 10000 5.7 270 23:57 30.06.2019
5620 Clear 17 1017 59 10000 4.6 280 23:22 30.06.2019
5621 Clouds 18 1017 82 10000 4.1 220 22:53 30.06.2019
5622 Clouds 19 1017 77 10000 4.6 220 22:22 30.06.2019
5623 Clouds 20 1016 49 10000 6.2 260 21:44 30.06.2019
5624 Clouds 20 1017 77 10000 6.7 220 21:26 30.06.2019
5625 Clouds 20 1017 77 10000 6.7 220 21:26 30.06.2019
5626 Clouds 21 1016 53 10000 6.2 250 20:59 30.06.2019
5627 Clouds 21 1016 53 10000 6.2 250 20:40 30.06.2019
5628 Clouds 22 1017 72 10000 6.2 210 20:21 30.06.2019
5629 Rain 22 1016 49 10000 5.7 250 19:47 30.06.2019
5630 Rain 23 1016 47 10000 5.7 260 19:25 30.06.2019
5631 Rain 23 1016 47 10000 6.7 250 18:41 30.06.2019
5632 Clouds 23 1016 44 10000 6.2 260 18:21 30.06.2019
5633 Clouds 23 1017 49 10000 6.7 260 17:40 30.06.2019
5634 Clouds 23 1017 49 10000 6.7 260 17:19 30.06.2019
5635 Clouds 23 1017 47 10000 6.2 250 16:52 30.06.2019
5636 Clouds 23 1017 49 10000 7.2 250 16:32 30.06.2019
5637 Clouds 23 1017 49 10000 6.2 270 15:55 30.06.2019
5638 Clouds 23 1017 49 10000 6.7 250 15:36 30.06.2019
5639 Clouds 23 1017 49 10000 6.7 250 15:18 30.06.2019
5640 Clouds 23 1017 53 10000 6.7 250 14:43 30.06.2019
5641 Clouds 22 1017 53 10000 6.2 260 14:22 30.06.2019
5642 Clouds 22 1017 53 10000 6.2 260 13:42 30.06.2019
5643 Clear 21 1016 56 10000 6.2 260 13:20 30.06.2019
5644 Clear 21 1016 56 10000 5.7 270 12:47 30.06.2019
5645 Clear 20 1017 60 10000 6.2 270 12:24 30.06.2019
5646 Clouds 20 1017 60 10000 6.7 250 11:47 30.06.2019
5647 Clouds 20 1017 64 10000 6.7 250 11:24 30.06.2019
5648 Clouds 19 1017 60 10000 6.7 250 10:57 30.06.2019
5649 Clouds 19 1017 60 10000 6.7 250 10:38 30.06.2019
5650 Clouds 19 1016 63 10000 5.1 260 10:18 30.06.2019
5651 Clouds 19 1016 63 10000 5.1 260 10:18 30.06.2019
5652 Clouds 18 1016 63 10000 5.7 290 09:43 30.06.2019
5653 Clouds 17 1015 68 10000 6.2 280 09:23 30.06.2019
5654 Clouds 17 1015 72 10000 4.6 280 08:57 30.06.2019
5655 Clear 16 1015 72 10000 5.1 270 08:29 30.06.2019
5656 Clear 15 1014 77 10000 5.1 270 07:58 30.06.2019
5657 Clear 15 1014 87 10000 4.6 280 07:29 30.06.2019
5658 Clear 15 1015 87 10000 5.1 270 06:41 30.06.2019
5659 Clear 16 1013 87 10000 4.6 290 05:33 30.06.2019
5660 Clouds 20 1011 73 10000 5.7 260 02:53 30.06.2019
5661 Clouds 21 1011 73 10000 5.1 280 01:30 30.06.2019
5662 Clouds 22 1010 54 10000 5.1 260 00:32 30.06.2019
5663 Clear 24 1010 54 10000 4.6 240 23:56 29.06.2019
5664 Clear 24 1012 61 10000 2.1 230 23:25 29.06.2019
5665 Clear 25 1011 57 10000 3.1 150 22:58 29.06.2019
5666 Clear 25 1010 45 10000 2.6 180 22:40 29.06.2019
5667 Clear 26 1010 45 10000 2.1 180 22:21 29.06.2019
5668 Clear 27 1010 43 10000 3.6 150 21:49 29.06.2019
5669 Clear 29 1011 40 10000 3.1 170 21:23 29.06.2019
5670 Clear 30 1011 38 10000 4.1 180 20:42 29.06.2019
5671 Clear 30 1012 48 10000 3.6 150 20:24 29.06.2019
5672 Clear 30 1011 35 10000 5.1 140 19:48 29.06.2019
5673 Clear 30 1011 33 10000 5.1 130 19:24 29.06.2019
5674 Clear 31 1012 35 10000 5.1 140 18:51 29.06.2019
5675 Clear 31 1012 35 10000 4.6 130 18:27 29.06.2019
5676 Clear 31 1012 33 10000 5.7 130 17:55 29.06.2019
5677 Clear 31 1013 33 10000 5.1 140 17:36 29.06.2019
5678 Clear 31 1013 33 10000 5.1 140 17:18 29.06.2019
5679 Clear 32 1013 33 10000 5.1 140 16:42 29.06.2019
5680 Clear 31 1014 38 10000 5.1 120 15:54 29.06.2019
5681 Clear 31 1014 40 10000 4.6 130 15:31 29.06.2019
5682 Clear 30 1014 51 10000 4.6 110 14:45 29.06.2019
5683 Clear 30 1015 54 10000 5.1 90 14:26 29.06.2019
5684 Clear 30 1015 61 10000 4.6 80 13:50 29.06.2019
5685 Clear 29 1016 57 10000 4.1 80 13:27 29.06.2019
5686 Clear 28 1017 57 10000 3.6 140 12:57 29.06.2019
5687 Clear 28 1016 61 10000 4.1 80 12:37 29.06.2019
5688 Clear 26 1016 64 10000 4.1 80 12:18 29.06.2019
5689 Clear 25 1017 69 10000 4.6 80 11:40 29.06.2019
5690 Clear 24 1017 68 10000 4.6 80 11:21 29.06.2019
5691 Clear 23 1017 68 10000 4.6 90 10:41 29.06.2019
5692 Clear 22 1017 73 10000 5.1 90 10:20 29.06.2019
5693 Clear 20 1018 82 10000 5.1 90 09:48 29.06.2019
5694 Mist 18 1018 88 7000 2.6 70 08:55 29.06.2019
5695 Fog 16 1018 93 6000 2.1 80 08:28 29.06.2019
5696 Haze 15 1019 87 5000 2.1 60 07:45 29.06.2019
5697 Fog 14 1019 93 6000 2.1 60 06:48 29.06.2019
5698 Fog 14 1019 87 6000 2.1 60 06:25 29.06.2019
5699 Fog 14 1021 87 8000 2.6 60 03:25 29.06.2019
5700 Haze 14 1021 87 8000 3.6 70 01:42 29.06.2019
5701 Haze 15 1021 87 8000 3.6 70 01:42 29.06.2019
5702 Clouds 15 1021 87 10000 3.1 60 00:41 29.06.2019
5703 Clouds 16 1021 82 10000 6.7 80 23:39 28.06.2019
5704 Clouds 16 1021 82 10000 6.7 80 23:20 28.06.2019
5705 Clear 16 1022 82 10000 6.2 90 22:47 28.06.2019
5706 Clear 17 1022 82 10000 7.2 100 22:19 28.06.2019
5707 Clear 18 1022 77 10000 7.2 100 21:45 28.06.2019
5708 Clouds 19 1022 72 10000 7.7 100 21:19 28.06.2019
5709 Clouds 20 1022 72 10000 7.7 100 20:41 28.06.2019
5710 Clouds 21 1022 68 10000 7.2 100 20:19 28.06.2019
5711 Clouds 21 1023 68 10000 6.7 100 19:40 28.06.2019
5712 Clouds 21 1023 64 10000 6.2 90 19:21 28.06.2019
5713 Clouds 22 1023 64 10000 8.2 100 18:41 28.06.2019
5714 Clouds 23 1023 64 10000 7.7 100 18:21 28.06.2019
5715 Clouds 23 1024 64 10000 8.7 90 17:46 28.06.2019
5716 Clouds 23 1024 64 10000 8.2 90 17:25 28.06.2019
5717 Clouds 23 1024 64 10000 8.2 100 16:46 28.06.2019
5718 Clouds 23 1024 64 10000 8.2 100 16:20 28.06.2019
5719 Clouds 23 1024 64 10000 7.7 100 15:45 28.06.2019
5720 Clouds 23 1024 64 10000 7.7 100 15:18 28.06.2019
5721 Clouds 22 1025 64 10000 7.2 90 14:42 28.06.2019
5722 Clouds 22 1025 64 10000 7.2 90 14:21 28.06.2019
5723 Clouds 21 1025 68 10000 7.7 80 13:49 28.06.2019
5724 Clear 21 1025 68 10000 7.7 80 13:29 28.06.2019
5725 Clouds 20 1026 68 10000 7.7 80 12:53 28.06.2019
5726 Clouds 20 1026 72 10000 7.7 80 12:33 28.06.2019
5727 Clouds 19 1026 68 10000 7.7 80 11:46 28.06.2019
5728 Clouds 18 1026 68 10000 8.7 90 11:19 28.06.2019
5729 Clouds 17 1026 72 10000 6.7 80 10:43 28.06.2019
5730 Clouds 17 1026 72 10000 8.2 90 10:20 28.06.2019
5731 Clouds 16 1027 77 10000 6.7 80 09:47 28.06.2019
5732 Clouds 15 1027 77 10000 8.7 90 09:28 28.06.2019
5733 Clouds 15 1027 77 10000 7.7 90 08:43 28.06.2019
5734 Clouds 14 1027 82 10000 6.7 80 08:24 28.06.2019
5735 Clouds 14 1026 82 10000 7.2 70 07:43 28.06.2019
5736 Clouds 13 1026 82 10000 6.7 70 06:57 28.06.2019
5737 Clouds 13 1027 82 10000 5.1 70 05:18 28.06.2019
5738 Clouds 14 1028 82 10000 6.7 70 01:21 28.06.2019
5739 Clouds 14 1028 82 10000 6.2 70 00:23 28.06.2019
5740 Clouds 15 1028 82 10000 7.2 80 23:48 27.06.2019
5741 Clouds 15 1028 77 10000 7.2 80 23:25 27.06.2019
5742 Clouds 15 1028 82 10000 6.7 80 22:54 27.06.2019
5743 Clouds 15 1028 82 10000 6.7 80 22:36 27.06.2019
5744 Clouds 16 1028 77 10000 7.7 80 22:18 27.06.2019
5745 Clear 16 1028 77 10000 7.7 70 21:42 27.06.2019
5746 Clear 18 1028 72 10000 7.7 90 21:24 27.06.2019
5747 Clear 18 1028 72 10000 8.7 100 20:50 27.06.2019
5748 Clear 19 1028 68 10000 8.7 90 20:31 27.06.2019
5749 Clear 19 1028 68 10000 8.7 90 19:59 27.06.2019
5750 Clear 19 1028 68 10000 8.7 90 19:40 27.06.2019
5751 Clear 19 1028 68 10000 8.7 90 19:22 27.06.2019
5752 Clear 20 1028 64 10000 8.2 90 18:42 27.06.2019
5753 Clear 21 1028 64 10000 8.2 90 18:19 27.06.2019
5754 Clear 21 1029 64 10000 7.7 90 17:41 27.06.2019
5755 Clear 22 1029 60 10000 7.7 90 17:22 27.06.2019
5756 Clear 22 1029 56 10000 8.2 90 16:39 27.06.2019
5757 Clear 22 1029 53 10000 7.7 90 16:19 27.06.2019
5758 Clear 22 1029 53 10000 7.7 90 16:19 27.06.2019
5759 Clear 22 1029 56 10000 7.2 90 15:51 27.06.2019
5760 Clear 22 1029 56 10000 7.7 80 15:31 27.06.2019
5761 Clouds 22 1030 56 10000 7.7 90 14:57 27.06.2019
5762 Clouds 21 1030 56 10000 7.7 90 14:36 27.06.2019
5763 Clouds 21 1030 56 10000 7.7 90 14:18 27.06.2019
5764 Clouds 21 1030 60 10000 7.2 90 13:42 27.06.2019
5765 Clear 21 1030 60 10000 7.2 90 13:24 27.06.2019
5766 Clear 20 1030 60 10000 6.7 90 12:48 27.06.2019
5767 Clear 19 1030 63 10000 6.7 90 12:24 27.06.2019
5768 Clear 18 1030 63 10000 6.2 80 11:47 27.06.2019
5769 Clear 18 1030 67 10000 6.7 80 11:23 27.06.2019
5770 Clear 18 1030 67 10000 6.7 80 11:23 27.06.2019
5771 Clouds 17 1030 67 10000 6.2 70 10:58 27.06.2019
5772 Clouds 17 1030 67 10000 6.2 70 10:40 27.06.2019
5773 Clouds 16 1030 72 10000 5.1 60 10:19 27.06.2019
5774 Clouds 15 1030 72 10000 5.7 50 09:38 27.06.2019
5775 Clouds 15 1030 76 10000 6.2 50 09:20 27.06.2019
5776 Clouds 14 1030 76 10000 5.7 50 08:48 27.06.2019
5777 Clouds 14 1030 82 10000 5.1 60 08:27 27.06.2019
5778 Clouds 13 1030 82 10000 5.1 60 07:46 27.06.2019
5779 Clouds 13 1030 82 10000 5.1 60 06:58 27.06.2019
5780 Clouds 13 1030 82 10000 5.1 50 06:32 27.06.2019
5781 Clouds 14 1030 82 10000 6.2 60 03:52 27.06.2019
5782 Clouds 14 1030 82 10000 6.2 70 02:43 27.06.2019
5783 Clouds 14 1030 82 10000 5.1 60 01:39 27.06.2019
5784 Clouds 14 1030 82 10000 6.7 60 00:52 27.06.2019
5785 Clouds 15 1029 77 10000 7.2 60 00:27 27.06.2019
5786 Clouds 15 1029 77 10000 6.7 60 23:51 26.06.2019
5787 Clouds 15 1029 77 10000 6.7 50 23:23 26.06.2019
5788 Clouds 15 1029 77 10000 5.7 60 22:59 26.06.2019
5789 Clouds 16 1029 77 10000 5.7 60 22:40 26.06.2019
5790 Clouds 16 1029 77 10000 5.7 50 22:20 26.06.2019
5791 Clouds 16 1028 72 10000 5.1 50 21:43 26.06.2019
5792 Clouds 17 1028 77 10000 5.7 50 21:21 26.06.2019
5793 Clouds 17 1028 77 10000 4.6 60 20:58 26.06.2019
5794 Clouds 17 1028 77 10000 4.6 60 20:39 26.06.2019
5795 Clouds 17 1028 77 10000 4.6 60 20:39 26.06.2019
5796 Clouds 18 1028 72 10000 4.6 0 20:21 26.06.2019
5797 Clouds 18 1028 72 10000 5.1 60 19:44 26.06.2019
5798 Clouds 19 1028 72 10000 5.7 50 19:25 26.06.2019
5799 Clouds 20 1028 72 10000 6.2 60 18:48 26.06.2019
5800 Clouds 20 1028 72 10000 5.7 60 18:23 26.06.2019
5801 Clouds 21 1028 68 10000 5.7 50 17:58 26.06.2019
5802 Clouds 21 1028 68 10000 5.7 50 17:38 26.06.2019
5803 Clouds 21 1027 68 10000 5.1 50 17:19 26.06.2019
5804 Clouds 21 1027 68 10000 4.1 50 16:46 26.06.2019
5805 Clouds 21 1028 68 10000 5.1 50 16:24 26.06.2019
5806 Clouds 20 1028 72 10000 4.6 40 15:42 26.06.2019
5807 Clouds 20 1028 72 10000 4.1 40 15:23 26.06.2019
5808 Clouds 19 1028 77 10000 4.1 0 14:38 26.06.2019
5809 Clouds 19 1028 77 10000 4.1 0 14:20 26.06.2019
5810 Clouds 19 1028 77 10000 4.1 60 13:44 26.06.2019
5811 Clouds 18 1029 82 10000 3.1 60 13:21 26.06.2019
5812 Clouds 17 1028 77 10000 4.6 60 12:42 26.06.2019
5813 Clouds 17 1028 82 10000 2.6 20 12:42 26.06.2019
5814 Clouds 17 1028 77 10000 4.6 60 12:42 26.06.2019
5815 Clouds 17 1028 82 10000 2.6 20 12:23 26.06.2019
5816 Clouds 17 1028 82 10000 3.6 40 11:51 26.06.2019
5817 Clouds 16 1027 87 10000 3.1 0 11:23 26.06.2019
5818 Mist 16 1027 87 10000 3.6 60 10:47 26.06.2019
5819 Mist 16 1027 87 10000 5.1 60 10:28 26.06.2019
5820 Fog 16 1027 87 10000 3.6 50 09:49 26.06.2019
5821 Fog 15 1027 87 10000 3.1 0 09:24 26.06.2019
5822 Fog 15 1027 87 10000 2.6 0 08:49 26.06.2019
5823 Fog 15 1027 93 10000 2.6 10 08:20 26.06.2019
5824 Fog 15 1026 93 10000 4.6 60 07:52 26.06.2019
5825 Mist 15 1026 93 8000 3.1 30 07:34 26.06.2019
5826 Fog 15 1025 93 8000 2.6 0 06:32 26.06.2019
5827 Fog 17 1024 88 9000 3.1 0 01:36 26.06.2019
5828 Fog 18 1023 88 8000 3.1 360 00:27 26.06.2019
5829 Fog 18 1023 82 10000 2.1 30 23:49 25.06.2019
5830 Fog 18 1022 88 10000 2.1 20 23:29 25.06.2019
5831 Mist 18 1022 82 10000 2.1 0 22:59 25.06.2019
5832 Mist 18 1022 82 10000 2.1 0 22:41 25.06.2019
5833 Mist 19 1022 82 10000 2.1 0 22:22 25.06.2019
5834 Mist 19 1021 82 10000 2.6 360 21:46 25.06.2019
5835 Clouds 20 1021 82 10000 3.1 60 21:24 25.06.2019
5836 Clouds 21 1021 77 10000 2.1 40 20:48 25.06.2019
5837 Mist 21 1020 83 10000 2.6 340 20:24 25.06.2019
5838 Mist 21 1020 83 10000 2.6 340 20:24 25.06.2019
5839 Clouds 21 1020 83 10000 3.6 350 19:56 25.06.2019
5840 Clouds 21 1020 83 10000 3.6 350 19:56 25.06.2019
5841 Clouds 21 1021 93 6000 4.1 20 19:37 25.06.2019
5842 Clouds 22 1020 78 10000 4.1 340 19:19 25.06.2019
5843 Clouds 22 1019 78 10000 3.6 350 18:41 25.06.2019
5844 Rain 22 1019 78 10000 3.6 340 18:23 25.06.2019
5845 -273 0 0 0 0 0 17:44 25.06.2019
5846 Rain 23 1019 78 10000 2.1 320 17:23 25.06.2019
5847 Rain 23 1019 78 10000 2.1 320 17:23 25.06.2019
5848 Clouds 23 1018 78 10000 2.1 330 16:44 25.06.2019
5849 Clouds 23 1018 69 10000 2.1 360 16:25 25.06.2019
5850 Clouds 23 1018 73 10000 3.1 330 15:54 25.06.2019
5851 Clouds 22 1018 73 10000 3.1 330 15:36 25.06.2019
5852 Clouds 22 1018 69 10000 1.5 0 15:18 25.06.2019
5853 Clouds 22 1018 73 10000 2.6 330 14:42 25.06.2019
5854 Clouds 22 1018 73 10000 2.6 330 14:23 25.06.2019
5855 Clouds 22 1018 73 10000 2.6 360 13:42 25.06.2019
5856 Haze 22 1017 78 10000 2.6 360 13:21 25.06.2019
5857 Haze 21 1017 83 10000 2.6 360 12:42 25.06.2019
5858 Haze 20 1017 83 10000 2.6 360 12:24 25.06.2019
5859 Rain 20 1017 88 10000 2.1 330 11:44 25.06.2019
5860 Rain 19 1017 88 10000 2.1 330 11:23 25.06.2019
5861 Rain 19 1017 88 10000 2.1 330 11:23 25.06.2019
5862 -273 0 0 0 0 0 10:56 25.06.2019
5863 Drizzle 19 1017 88 10000 2.1 310 10:36 25.06.2019
5864 Drizzle 19 1017 88 10000 2.1 310 10:18 25.06.2019
5865 Mist 18 1016 88 10000 1.5 0 09:39 25.06.2019
5866 Mist 18 1016 93 10000 1.5 0 09:21 25.06.2019
5867 Mist 18 1016 93 10000 1.5 0 09:21 25.06.2019
5868 Mist 18 1016 93 9000 3.1 70 08:51 25.06.2019
5869 Rain 18 1016 93 6000 2.1 0 08:31 25.06.2019
5870 Rain 17 1015 93 2000 7.2 80 07:44 25.06.2019
5871 Rain 17 1015 100 4700 3.1 40 07:24 25.06.2019
5872 Rain 17 1017 88 5000 2.1 160 06:44 25.06.2019
5873 Rain 17 1017 88 10000 1.5 90 05:56 25.06.2019
5874 Rain 18 1017 93 10000 1.5 320 02:43 25.06.2019
5875 Rain 18 1018 88 10000 2.6 180 00:39 25.06.2019
5876 Rain 19 1018 77 10000 1 180 00:20 25.06.2019
5877 Rain 19 1018 68 10000 2.1 230 23:51 24.06.2019
5878 Rain 19 1018 68 10000 1.5 220 23:32 24.06.2019
5879 Rain 20 1017 73 10000 2.6 210 22:48 24.06.2019
5880 Rain 20 1018 64 10000 2.1 220 22:21 24.06.2019
5881 Rain 21 1018 64 10000 2.6 180 21:57 24.06.2019
5882 Rain 21 1018 64 10000 2.6 180 21:37 24.06.2019
5883 Rain 22 1017 60 10000 3.6 160 21:18 24.06.2019
5884 Rain 22 1017 57 10000 2.6 170 20:43 24.06.2019
5885 Haze 23 1016 53 10000 3.1 170 20:23 24.06.2019
5886 Clouds 23 1016 50 10000 2.6 160 19:57 24.06.2019
5887 Clouds 23 1016 50 10000 2.6 160 19:39 24.06.2019
5888 Clouds 24 1016 50 10000 2.6 200 19:21 24.06.2019
5889 Clouds 24 1016 50 10000 2.6 210 18:41 24.06.2019
5890 Rain 24 1016 53 10000 2.1 0 18:20 24.06.2019
5891 Rain 25 1016 53 10000 2.1 210 17:37 24.06.2019
5892 Rain 24 1016 57 10000 3.1 220 17:18 24.06.2019
5893 Rain 24 1016 57 10000 4.1 230 16:44 24.06.2019
5894 Rain 24 1016 57 10000 4.1 230 16:19 24.06.2019
5895 Rain 23 1016 60 10000 3.1 200 15:44 24.06.2019
5896 Rain 23 1016 64 10000 2.1 190 15:25 24.06.2019
5897 Rain 23 1017 64 10000 3.1 0 14:39 24.06.2019
5898 Rain 23 1017 83 10000 4.6 210 14:20 24.06.2019
5899 Rain 22 1015 65 10000 3.6 200 13:35 24.06.2019
5900 Rain 22 1015 69 10000 3.1 230 12:59 24.06.2019
5901 Rain 23 1015 73 10000 1 0 12:41 24.06.2019
5902 Clouds 22 1015 69 10000 2.6 0 12:20 24.06.2019
5903 Rain 22 1015 69 10000 3.1 200 11:45 24.06.2019
5904 Rain 22 1015 69 10000 3.1 200 11:27 24.06.2019
5905 Clouds 22 1014 69 10000 1.5 0 10:53 24.06.2019
5906 Clouds 22 1014 73 10000 1.5 0 10:34 24.06.2019
5907 Clouds 22 1014 78 9000 2.1 90 09:56 24.06.2019
5908 Clouds 22 1014 78 9000 2.1 90 09:38 24.06.2019
5909 Rain 21 1014 82 6000 2.6 80 09:18 24.06.2019
5910 Haze 19 1013 88 4500 2.6 90 08:36 24.06.2019
5911 Haze 18 1013 93 3700 2.1 60 07:58 24.06.2019
5912 Haze 18 1013 93 3700 2.1 60 07:40 24.06.2019
5913 Haze 17 1014 88 3600 2.6 90 07:21 24.06.2019
5914 Haze 16 1013 88 4400 2.6 70 06:23 24.06.2019
5915 Haze 16 1014 88 5000 1.5 70 05:32 24.06.2019
5916 Haze 17 1014 88 6000 3.1 90 04:35 24.06.2019
5917 Haze 17 1014 88 7000 1 0 03:48 24.06.2019
5918 Haze 18 1014 82 9000 4.1 90 02:36 24.06.2019
5919 Rain 18 1015 82 10000 2.6 80 01:55 24.06.2019
5920 Rain 18 1015 82 10000 4.1 80 01:31 24.06.2019
5921 Rain 18 1015 82 10000 3.6 80 00:46 24.06.2019
5922 Rain 18 1015 82 10000 4.6 80 00:20 24.06.2019
5923 Rain 18 1015 82 10000 3.6 80 23:48 23.06.2019
5924 Rain 19 1015 72 10000 4.6 80 23:28 23.06.2019
5925 Rain 19 1015 72 10000 5.7 80 22:57 23.06.2019
5926 Rain 19 1015 72 10000 5.7 80 22:39 23.06.2019
5927 Rain 19 1015 72 10000 5.7 80 22:19 23.06.2019
5928 Rain 19 1015 72 10000 5.1 80 21:41 23.06.2019
5929 Rain 19 1015 72 10000 5.1 80 21:41 23.06.2019
5930 Rain 20 1015 72 10000 5.7 80 21:22 23.06.2019
5931 Rain 20 1015 72 10000 5.7 80 20:51 23.06.2019
5932 Clouds 20 1015 68 10000 5.7 80 20:29 23.06.2019
5933 Clouds 20 1015 68 10000 5.1 90 19:54 23.06.2019
5934 Clouds 21 1015 68 10000 5.1 90 19:36 23.06.2019
5935 Clouds 21 1015 68 10000 6.2 90 19:18 23.06.2019
5936 Clouds 21 1015 68 10000 6.7 90 18:41 23.06.2019
5937 Clouds 21 1015 64 10000 6.2 90 18:19 23.06.2019
5938 Clouds 22 1016 64 10000 5.7 100 17:41 23.06.2019
5939 Clouds 22 1016 60 10000 6.2 100 17:21 23.06.2019
5940 Clouds 23 1016 64 10000 7.2 90 16:44 23.06.2019
5941 Clouds 23 1016 64 10000 7.2 90 16:44 23.06.2019
5942 Clouds 23 1016 64 10000 6.7 90 16:24 23.06.2019
5943 Clouds 23 1016 64 10000 5.7 90 15:43 23.06.2019
5944 Clouds 23 1016 60 10000 6.2 90 15:24 23.06.2019
5945 Clouds 23 1017 60 10000 5.7 80 14:59 23.06.2019
5946 Clouds 23 1017 60 10000 6.2 90 14:38 23.06.2019
5947 Clouds 23 1017 60 10000 6.2 90 14:20 23.06.2019
5948 Clouds 23 1017 64 10000 5.1 80 13:42 23.06.2019
5949 Clouds 22 1017 64 10000 5.1 90 13:21 23.06.2019
5950 Clouds 22 1017 68 10000 4.6 90 12:56 23.06.2019
5951 Clouds 22 1017 68 10000 4.6 90 12:37 23.06.2019
5952 Clouds 21 1018 68 10000 3.6 80 12:18 23.06.2019
5953 Clouds 21 1018 72 10000 4.6 70 11:45 23.06.2019
5954 Clouds 20 1018 77 10000 4.1 60 11:25 23.06.2019
5955 Clouds 19 1018 77 10000 3.6 60 10:48 23.06.2019
5956 Clouds 18 1018 82 10000 3.6 80 10:21 23.06.2019
5957 Clouds 17 1018 88 10000 3.6 80 09:57 23.06.2019
5958 Clouds 16 1018 87 9000 4.1 90 09:22 23.06.2019
5959 Clouds 15 1018 87 10000 3.6 90 08:47 23.06.2019
5960 Clouds 14 1018 87 10000 3.6 90 08:27 23.06.2019
5961 Mist 13 1018 87 10000 1.5 0 07:56 23.06.2019
5962 Mist 13 1018 87 10000 1.5 0 07:38 23.06.2019
5963 Mist 12 1018 87 10000 2.1 30 07:18 23.06.2019
5964 Mist 12 1018 87 10000 1.5 0 06:43 23.06.2019
5965 Clouds 11 1019 87 10000 1.5 0 05:42 23.06.2019
5966 Clouds 12 1020 77 10000 2.6 60 02:32 23.06.2019
5967 Clouds 13 1020 77 10000 2.6 60 01:39 23.06.2019
5968 Clouds 13 1020 62 10000 4.6 90 00:58 23.06.2019
5969 Clouds 13 1020 72 10000 4.1 80 00:27 23.06.2019
5970 Clouds 14 1021 67 10000 4.1 80 23:44 22.06.2019
5971 Clouds 14 1021 67 10000 5.1 80 23:25 22.06.2019
5972 Clouds 15 1021 59 10000 5.1 110 22:47 22.06.2019
5973 Clouds 16 1020 55 10000 5.7 100 22:26 22.06.2019
5974 Clouds 17 1020 48 10000 6.2 100 21:56 22.06.2019
5975 Clouds 18 1020 42 10000 7.7 110 21:36 22.06.2019
5976 Clouds 18 1020 42 10000 7.7 110 21:18 22.06.2019
5977 Clouds 19 1020 42 10000 7.2 90 20:43 22.06.2019
5978 Clouds 20 1020 37 10000 7.7 100 20:24 22.06.2019
5979 Clouds 20 1020 40 10000 7.7 90 19:41 22.06.2019
5980 Clouds 20 1020 40 10000 7.2 90 19:20 22.06.2019
5981 Clouds 21 1020 37 10000 7.7 90 18:43 22.06.2019
5982 Clouds 21 1020 37 10000 8.2 90 18:23 22.06.2019
5983 Clouds 21 1020 40 10000 7.2 80 17:46 22.06.2019
5984 Clouds 22 1020 43 10000 7.7 90 17:25 22.06.2019
5985 Clouds 22 1021 46 10000 6.7 90 16:44 22.06.2019
5986 Clouds 22 1021 49 10000 6.2 100 16:24 22.06.2019
5987 Clouds 22 1021 49 10000 5.7 80 15:46 22.06.2019
5988 Clouds 21 1021 49 10000 5.1 90 15:27 22.06.2019
5989 Clear 21 1021 46 10000 5.7 90 14:52 22.06.2019
5990 Clouds 21 1021 43 10000 4.6 110 14:32 22.06.2019
5991 Clouds 21 1021 46 10000 3.6 0 13:58 22.06.2019
5992 Clouds 21 1021 46 10000 3.6 0 13:39 22.06.2019
5993 Clouds 21 1022 46 10000 3.1 140 13:19 22.06.2019
5994 Clear 21 1022 49 10000 3.6 140 12:45 22.06.2019
5995 Clear 20 1022 49 10000 3.1 150 12:26 22.06.2019
5996 Clear 19 1022 52 10000 2.6 0 11:45 22.06.2019
5997 Clear 19 1022 52 10000 3.1 130 11:27 22.06.2019
5998 Clear 18 1022 55 10000 3.6 140 10:47 22.06.2019
5999 Clear 17 1022 55 10000 3.6 160 10:19 22.06.2019
6000 Clear 16 1022 63 10000 3.1 130 09:37 22.06.2019
6001 Mist 14 1022 72 10000 2.6 110 08:56 22.06.2019
6002 Fog 13 1022 77 10000 2.1 90 08:37 22.06.2019
6003 Fog 12 1022 77 10000 0.5 0 07:53 22.06.2019
6004 Fog 11 1022 76 10000 2.02 177.421 07:30 22.06.2019
6005 Fog 10 1022 82 10000 1 160 06:46 22.06.2019
6006 Clouds 10 1021 76 10000 2.1 160 04:38 22.06.2019
6007 Clouds 12 1021 72 10000 2.1 220 02:31 22.06.2019
6008 Clouds 13 1022 72 10000 2.1 200 00:57 22.06.2019
6009 Clouds 13 1021 72 10000 1.5 220 00:35 22.06.2019
6010 Clear 15 1022 87 10000 3.6 200 23:59 21.06.2019
6011 Clear 15 1022 82 10000 4.6 200 23:37 21.06.2019
6012 Clouds 16 1021 59 10000 2.6 210 23:19 21.06.2019
6013 Clouds 16 1021 59 10000 3.1 220 22:41 21.06.2019
6014 Clouds 16 1021 63 10000 3.1 220 22:22 21.06.2019
6015 Clouds 17 1020 59 10000 2.6 240 21:40 21.06.2019
6016 Clouds 18 1020 42 10000 1 0 21:22 21.06.2019
6017 Clouds 18 1020 40 10000 2.1 230 20:49 21.06.2019
6018 Clouds 19 1020 42 10000 1.5 0 20:27 21.06.2019
6019 Clouds 19 1020 40 10000 2.1 250 19:55 21.06.2019
6020 Clouds 20 1020 40 10000 1.5 0 19:23 21.06.2019
6021 Clouds 20 1020 40 10000 1.5 0 18:43 21.06.2019
6022 Clouds 20 1020 40 10000 1.5 0 18:43 21.06.2019
6023 Clear 20 1020 40 10000 1.5 0 18:25 21.06.2019
6024 Clear 20 1020 40 10000 2.6 320 17:45 21.06.2019
6025 Clear 20 1020 40 10000 2.6 320 17:27 21.06.2019
6026 Clear 20 1019 40 10000 1.5 0 16:38 21.06.2019
6027 Clear 20 1019 40 10000 3.1 260 16:19 21.06.2019
6028 Clear 20 1019 40 10000 3.6 220 15:39 21.06.2019
6029 Clear 20 1019 40 10000 3.6 220 15:19 21.06.2019
6030 Clear 19 1019 45 10000 4.6 260 14:45 21.06.2019
6031 Clear 19 1019 45 10000 4.6 260 14:25 21.06.2019
6032 Clear 19 1019 42 10000 4.1 240 13:46 21.06.2019
6033 Clouds 19 1019 45 10000 4.1 260 13:27 21.06.2019
6034 Clouds 18 1019 48 10000 3.6 240 12:54 21.06.2019
6035 Clouds 18 1019 52 10000 4.6 270 12:24 21.06.2019
6036 Clouds 17 1019 52 10000 5.7 250 11:59 21.06.2019
6037 Clouds 17 1019 59 10000 4.6 270 11:40 21.06.2019
6038 Clouds 17 1019 59 10000 4.6 270 11:22 21.06.2019
6039 Clouds 16 1019 63 10000 4.6 250 10:48 21.06.2019
6040 Clouds 16 1019 63 10000 5.1 250 10:21 21.06.2019
6041 Clear 15 1019 67 10000 4.1 260 09:55 21.06.2019
6042 Clear 13 1018 71 10000 4.6 240 09:37 21.06.2019
6043 Clear 13 1018 71 10000 4.6 240 09:18 21.06.2019
6044 Clear 12 1018 71 10000 3.6 240 08:42 21.06.2019
6045 Clear 12 1018 76 10000 4.6 250 08:21 21.06.2019
6046 Clear 11 1018 81 10000 3.6 240 07:46 21.06.2019
6047 Clear 10 1018 81 10000 3.1 230 07:23 21.06.2019
6048 Clear 9 1017 81 10000 3.6 240 06:42 21.06.2019
6049 Clear 9 1017 93 10000 1.5 240 06:18 21.06.2019
6050 Clear 10 1017 81 10000 2.6 250 04:57 21.06.2019
6051 Clear 10 1017 81 10000 4.1 260 03:58 21.06.2019
6052 Clear 10 1016 87 10000 3.1 260 03:32 21.06.2019
6053 Clouds 11 1017 76 10000 4.1 260 02:44 21.06.2019
6054 Clouds 12 1016 72 10000 4.1 250 01:38 21.06.2019
6055 Clear 13 1016 72 10000 4.6 240 00:53 21.06.2019
6056 Clouds 14 1015 67 10000 3.6 240 00:19 21.06.2019
6057 Clouds 14 1015 72 10000 4.6 240 23:42 20.06.2019
6058 Rain 14 1015 67 10000 4.6 220 23:21 20.06.2019
6059 Rain 14 1014 67 10000 3.6 240 22:56 20.06.2019
6060 Clear 15 1015 87 10000 3.1 220 22:38 20.06.2019
6061 Clear 15 1015 82 10000 3.6 220 22:19 20.06.2019
6062 Rain 15 1014 55 10000 7.2 240 21:44 20.06.2019
6063 Rain 16 1014 55 10000 5.7 240 21:19 20.06.2019
6064 Rain 16 1014 59 10000 6.2 230 20:47 20.06.2019
6065 Rain 16 1013 59 10000 6.7 230 20:26 20.06.2019
6066 Rain 17 1013 52 10000 5.7 240 19:58 20.06.2019
6067 Rain 17 1013 52 10000 5.7 240 19:39 20.06.2019
6068 Rain 17 1014 72 10000 5.1 230 19:18 20.06.2019
6069 Rain 18 1013 55 10000 4.1 230 18:43 20.06.2019
6070 Rain 18 1013 52 10000 4.6 240 18:23 20.06.2019
6071 Rain 18 1013 48 10000 5.1 250 17:55 20.06.2019
6072 Rain 18 1013 48 10000 5.7 240 17:37 20.06.2019
6073 Rain 18 1013 52 10000 6.7 250 16:57 20.06.2019
6074 Rain 18 1013 52 10000 6.7 250 16:39 20.06.2019
6075 Rain 18 1013 52 10000 6.2 260 16:18 20.06.2019
6076 Rain 18 1013 52 10000 5.7 250 15:42 20.06.2019
6077 Clouds 18 1013 48 10000 6.2 260 15:22 20.06.2019
6078 Clouds 18 1013 52 10000 4.6 240 14:50 20.06.2019
6079 Clouds 18 1013 52 10000 5.7 240 14:24 20.06.2019
6080 Clouds 18 1012 55 10000 6.2 240 13:56 20.06.2019
6081 Clouds 18 1012 52 10000 6.7 250 13:37 20.06.2019
6082 Clouds 18 1012 52 10000 6.7 250 13:18 20.06.2019
6083 Rain 18 1012 52 10000 6.2 240 12:40 20.06.2019
6084 Clouds 17 1012 55 10000 4.1 250 12:19 20.06.2019
6085 Clouds 17 1012 59 10000 5.1 250 11:40 20.06.2019
6086 Clear 17 1012 63 10000 4.6 240 11:22 20.06.2019
6087 Clear 17 1012 67 10000 5.1 250 10:43 20.06.2019
6088 Clear 16 1011 63 10000 5.1 260 10:23 20.06.2019
6089 Clouds 15 1011 67 10000 4.6 260 09:41 20.06.2019
6090 Clouds 14 1011 67 10000 4.6 260 09:23 20.06.2019
6091 Clouds 14 1011 77 10000 4.1 260 08:58 20.06.2019
6092 Clouds 14 1011 77 10000 4.1 260 08:40 20.06.2019
6093 Clouds 13 1011 82 10000 3.6 240 08:19 20.06.2019
6094 Clouds 13 1010 82 10000 3.1 240 07:42 20.06.2019
6095 Clouds 12 1010 87 10000 3.6 250 07:23 20.06.2019
6096 Mist 13 1010 87 10000 4.1 240 06:19 20.06.2019
6097 Rain 14 1009 93 10000 2.6 250 03:40 20.06.2019
6098 Rain 15 1009 93 4900 4.6 250 01:56 20.06.2019
6099 Rain 15 1009 93 9000 3.6 230 00:33 20.06.2019
6100 Rain 16 1009 93 10000 3.1 210 23:45 19.06.2019
6101 Rain 16 1009 100 7000 2.6 200 23:27 19.06.2019
6102 Rain 16 1008 88 10000 1 240 22:49 19.06.2019
6103 Rain 16 1008 88 10000 2.1 260 22:24 19.06.2019
6104 Rain 16 1009 93 10000 3.6 210 21:58 19.06.2019
6105 Rain 16 1009 93 10000 3.6 210 21:58 19.06.2019
6106 Rain 17 1009 93 10000 3.6 210 21:38 19.06.2019
6107 Rain 17 1008 87 10000 2.6 200 21:19 19.06.2019
6108 Rain 17 1008 72 10000 2.1 340 20:41 19.06.2019
6109 Rain 18 1008 77 10000 3.1 270 20:21 19.06.2019
6110 Rain 18 1007 72 10000 4.6 250 19:46 19.06.2019
6111 Rain 18 1008 82 10000 2.6 260 19:26 19.06.2019
6112 Rain 18 1007 77 10000 4.6 260 18:56 19.06.2019
6113 Rain 19 1007 93 10000 3.6 230 18:24 19.06.2019
6114 Rain 19 1007 72 10000 5.7 280 17:48 19.06.2019
6115 Rain 18 1007 68 10000 2.1 250 17:27 19.06.2019
6116 Rain 19 1007 68 10000 1.5 0 16:56 19.06.2019
6117 Rain 19 1007 88 6000 2.6 240 16:37 19.06.2019
6118 Rain 19 1007 88 6000 2.6 240 16:19 19.06.2019
6119 Rain 19 1007 68 10000 1.5 0 15:45 19.06.2019
6120 Rain 19 1008 72 10000 1.5 0 15:24 19.06.2019
6121 Rain 19 1008 72 10000 1.5 0 15:24 19.06.2019
6122 Rain 19 1008 72 10000 2.1 290 14:44 19.06.2019
6123 Rain 19 1007 72 10000 2.6 300 14:26 19.06.2019
6124 Clouds 18 1007 77 10000 2.6 290 13:55 19.06.2019
6125 Clouds 18 1007 82 10000 2.6 300 13:37 19.06.2019
6126 Clouds 18 1007 82 10000 2.6 300 13:19 19.06.2019
6127 Mist 18 1007 82 10000 3.1 320 12:42 19.06.2019
6128 Mist 17 1007 87 10000 2.1 330 12:20 19.06.2019
6129 Mist 16 1007 82 10000 1.5 0 11:43 19.06.2019
6130 Mist 16 1007 82 10000 2.1 310 11:23 19.06.2019
6131 Mist 15 1007 82 10000 2.6 300 10:51 19.06.2019
6132 Mist 15 1007 87 10000 1 0 10:32 19.06.2019
6133 Rain 15 1007 87 10000 2.1 100 09:58 19.06.2019
6134 Rain 15 1007 87 10000 2.1 100 09:39 19.06.2019
6135 Rain 14 1007 87 10000 2.74 336.779 09:19 19.06.2019
6136 Rain 14 1007 87 10000 1.5 0 08:48 19.06.2019
6137 Mist 14 1007 93 9000 2.1 300 08:27 19.06.2019
6138 Fog 14 1007 93 10000 1.5 0 07:46 19.06.2019
6139 Mist 14 1006 93 10000 2.1 330 07:23 19.06.2019
6140 Mist 13 1006 93 10000 2.1 350 06:49 19.06.2019
6141 Mist 13 1007 93 9000 2.1 340 06:24 19.06.2019
6142 Mist 14 1007 93 9000 1.5 0 05:47 19.06.2019
6143 Mist 14 1008 87 10000 1.5 0 04:19 19.06.2019
6144 Mist 14 1008 93 10000 2.6 50 03:18 19.06.2019
6145 Mist 15 1010 93 10000 3.6 90 01:49 19.06.2019
6146 Rain 15 1009 93 7000 2.6 80 01:18 19.06.2019
6147 Rain 15 1010 93 9000 2.6 60 00:43 19.06.2019
6148 Rain 15 1010 87 10000 2.6 40 00:20 19.06.2019
6149 Rain 15 1011 93 2500 3.1 250 23:52 18.06.2019
6150 Rain 15 1011 100 10000 1.5 0 23:27 18.06.2019
6151 Rain 15 1011 88 10000 2.6 60 22:46 18.06.2019
6152 Rain 16 1011 93 9000 2.1 10 22:24 18.06.2019
6153 Rain 16 1011 93 9000 3.1 60 21:57 18.06.2019
6154 Mist 16 1011 93 10000 2.6 50 21:38 18.06.2019
6155 Mist 16 1011 93 10000 2.6 50 21:20 18.06.2019
6156 Rain 16 1011 82 10000 3.6 80 20:43 18.06.2019
6157 Rain 16 1011 82 10000 2.6 60 20:25 18.06.2019
6158 Rain 17 1012 88 10000 1.5 0 19:42 18.06.2019
6159 Rain 17 1012 88 10000 1.5 0 19:24 18.06.2019
6160 Rain 17 1013 88 4000 1.5 0 18:59 18.06.2019
6161 Rain 17 1013 88 4000 1.5 0 18:39 18.06.2019
6162 Rain 17 1012 82 10000 1.5 70 18:20 18.06.2019
6163 Rain 17 1012 82 10000 2.6 80 17:39 18.06.2019
6164 Rain 18 1013 82 10000 2.6 100 17:20 18.06.2019
6165 Rain 18 1013 77 10000 3.6 100 16:46 18.06.2019
6166 Rain 18 1013 82 10000 3.6 70 16:27 18.06.2019
6167 Rain 18 1014 77 10000 1 0 15:55 18.06.2019
6168 Rain 18 1014 77 10000 4.1 110 15:36 18.06.2019
6169 Rain 18 1014 77 10000 4.1 110 15:18 18.06.2019
6170 Rain 19 1014 68 10000 2.1 210 14:42 18.06.2019
6171 Rain 18 1014 68 10000 3.1 170 14:21 18.06.2019
6172 Rain 19 1014 68 10000 1 0 13:53 18.06.2019
6173 Rain 18 1015 52 10000 2.6 210 13:32 18.06.2019
6174 Rain 18 1015 52 10000 2.1 0 12:56 18.06.2019
6175 Rain 19 1015 55 10000 2.6 150 12:36 18.06.2019
6176 Rain 19 1015 55 10000 2.6 150 12:36 18.06.2019
6177 Rain 19 1015 55 10000 2.6 150 12:18 18.06.2019
6178 Rain 19 1015 55 10000 1.5 0 11:42 18.06.2019
6179 Rain 18 1015 55 10000 1.5 0 11:21 18.06.2019
6180 Rain 18 1015 59 10000 2.1 120 10:57 18.06.2019
6181 Rain 17 1015 59 10000 2.1 120 10:37 18.06.2019
6182 Rain 17 1015 63 10000 2.1 220 10:18 18.06.2019
6183 Rain 16 1015 63 10000 1.5 0 09:39 18.06.2019
6184 Clouds 15 1015 67 10000 1.5 0 09:18 18.06.2019
6185 Fog 14 1016 72 10000 1.5 0 08:43 18.06.2019
6186 Fog 13 1016 67 10000 1.5 0 08:21 18.06.2019
6187 Clouds 12 1016 67 10000 1.5 0 07:40 18.06.2019
6188 Clouds 11 1015 71 10000 2.1 230 07:19 18.06.2019
6189 Clouds 11 1015 93 10000 1 170 06:33 18.06.2019
6190 Clouds 10 1015 87 10000 0.5 240 05:19 18.06.2019
6191 Clouds 12 1016 82 10000 1.5 0 02:53 18.06.2019
6192 Clouds 12 1017 76 10000 3.6 230 01:55 18.06.2019
6193 Clouds 12 1016 71 10000 3.1 240 01:25 18.06.2019
6194 Clouds 13 1017 72 10000 3.6 220 00:55 18.06.2019
6195 Clouds 13 1017 71 10000 3.1 240 00:27 18.06.2019
6196 Clear 14 1017 87 10000 4.1 200 23:41 17.06.2019
6197 Clear 15 1017 82 10000 4.1 200 23:20 17.06.2019
6198 Clear 15 1017 82 10000 3.1 200 22:56 17.06.2019
6199 Clear 15 1017 77 10000 3.1 210 22:37 17.06.2019
6200 Clouds 16 1016 55 10000 3.6 240 22:19 17.06.2019
6201 Clouds 17 1016 52 10000 4.6 230 21:42 17.06.2019
6202 Clouds 17 1016 52 10000 5.7 250 21:21 17.06.2019
6203 Clouds 18 1016 52 10000 5.1 240 20:38 17.06.2019
6204 Clear 18 1017 67 10000 5.1 220 20:20 17.06.2019
6205 Clouds 19 1016 52 10000 5.7 210 19:54 17.06.2019
6206 Clouds 19 1016 46 10000 5.1 230 19:36 17.06.2019
6207 Clouds 19 1016 46 10000 5.1 230 19:18 17.06.2019
6208 Clouds 20 1016 46 10000 5.7 210 18:38 17.06.2019
6209 Clouds 20 1016 46 10000 5.7 210 18:18 17.06.2019
6210 Clouds 20 1017 49 10000 6.2 200 17:48 17.06.2019
6211 Clouds 20 1017 49 10000 6.2 200 17:29 17.06.2019
6212 Clouds 21 1017 46 10000 5.1 230 16:56 17.06.2019
6213 Clouds 21 1017 46 10000 5.1 220 16:38 17.06.2019
6214 Clouds 21 1017 49 10000 5.7 200 16:20 17.06.2019
6215 Clouds 21 1017 46 10000 5.1 230 15:43 17.06.2019
6216 Clouds 20 1017 49 10000 5.7 230 15:20 17.06.2019
6217 Clouds 20 1017 49 10000 5.7 230 14:56 17.06.2019
6218 Clouds 20 1017 52 10000 5.7 220 14:37 17.06.2019
6219 Clouds 20 1017 52 10000 5.7 230 14:18 17.06.2019
6220 Clouds 20 1018 49 10000 5.7 230 13:40 17.06.2019
6221 Clouds 20 1018 49 10000 5.7 230 13:20 17.06.2019
6222 Clouds 19 1018 55 10000 5.7 240 12:40 17.06.2019
6223 Clouds 18 1018 55 10000 5.1 210 12:19 17.06.2019
6224 Clouds 18 1018 59 10000 5.1 210 11:43 17.06.2019
6225 Clouds 18 1018 59 10000 5.1 210 11:25 17.06.2019
6226 Clouds 17 1019 67 10000 4.6 200 10:48 17.06.2019
6227 Clouds 17 1019 67 10000 4.6 200 10:48 17.06.2019
6228 Clouds 17 1019 67 10000 4.6 200 10:29 17.06.2019
6229 -273 0 0 0 0 0 09:57 17.06.2019
6230 Clouds 16 1019 72 10000 4.6 210 09:35 17.06.2019
6231 Clouds 15 1019 72 10000 3.1 0 08:58 17.06.2019
6232 Clouds 14 1018 82 10000 3.1 200 08:38 17.06.2019
6233 Clouds 14 1018 87 10000 2.6 180 08:20 17.06.2019
6234 Clouds 13 1018 82 10000 3.1 170 07:40 17.06.2019
6235 Clouds 12 1018 82 10000 3.1 170 07:20 17.06.2019
6236 Clear 11 1017 87 10000 2.6 180 06:29 17.06.2019
6237 Clear 12 1017 87 10000 3.1 200 05:31 17.06.2019
6238 Clear 12 1018 82 10000 3.6 200 04:33 17.06.2019
6239 Clear 12 1018 82 10000 3.1 210 03:33 17.06.2019
6240 Clouds 13 1018 82 10000 3.6 210 02:50 17.06.2019
6241 Clouds 13 1018 76 10000 4.1 210 02:32 17.06.2019
6242 Clouds 13 1018 76 10000 4.1 210 02:32 17.06.2019
6243 Clouds 13 1019 82 10000 3.1 210 01:39 17.06.2019
6244 Clouds 14 1019 72 10000 4.6 210 00:59 17.06.2019
6245 Clouds 14 1018 72 10000 4.6 210 00:41 17.06.2019
6246 Clouds 14 1018 72 10000 4.1 210 00:21 17.06.2019
6247 Clouds 14 1018 67 10000 5.1 210 23:40 16.06.2019
6248 Clouds 15 1018 67 10000 5.1 210 23:21 16.06.2019
6249 Clouds 15 1018 63 10000 5.7 210 22:47 16.06.2019
6250 Clouds 15 1018 63 10000 5.7 210 22:21 16.06.2019
6251 Clouds 16 1019 77 10000 5.7 210 21:59 16.06.2019
6252 Clouds 16 1019 72 10000 6.7 210 21:40 16.06.2019
6253 Clouds 16 1019 72 10000 6.7 210 21:40 16.06.2019
6254 Clouds 17 1019 72 10000 6.7 210 21:22 16.06.2019
6255 Clouds 17 1018 55 10000 7.2 230 20:58 16.06.2019
6256 Clouds 17 1018 72 10000 5.7 210 20:37 16.06.2019
6257 Clouds 18 1018 72 10000 7.2 210 20:18 16.06.2019
6258 Clouds 18 1017 59 10000 6.2 230 19:41 16.06.2019
6259 Clouds 18 1017 59 10000 6.2 230 19:22 16.06.2019
6260 Clouds 18 1017 63 10000 6.7 220 18:58 16.06.2019
6261 Clouds 19 1017 59 10000 7.2 230 18:40 16.06.2019
6262 Clouds 18 1017 63 10000 7.7 240 18:20 16.06.2019
6263 Clouds 19 1017 59 10000 8.2 220 17:48 16.06.2019
6264 Clouds 18 1017 59 10000 8.2 220 17:22 16.06.2019
6265 Clouds 19 1017 60 10000 8.7 230 16:57 16.06.2019
6266 Clouds 19 1017 56 10000 7.7 230 16:39 16.06.2019
6267 Clouds 19 1017 56 10000 7.7 230 16:39 16.06.2019
6268 Clouds 19 1016 56 10000 8.7 230 16:21 16.06.2019
6269 Clouds 19 1016 56 10000 8.7 240 15:44 16.06.2019
6270 Clouds 18 1016 56 10000 8.7 240 15:24 16.06.2019
6271 Clouds 18 1016 68 10000 7.2 230 14:45 16.06.2019
6272 Clouds 18 1016 68 10000 7.2 230 14:24 16.06.2019
6273 Rain 18 1016 82 10000 5.7 200 13:56 16.06.2019
6274 Rain 17 1016 87 10000 4.1 220 13:38 16.06.2019
6275 Rain 17 1016 77 10000 6.7 220 13:20 16.06.2019
6276 Rain 16 1016 82 10000 6.2 200 12:41 16.06.2019
6277 Rain 16 1016 82 10000 6.2 200 12:20 16.06.2019
6278 Rain 15 1016 82 10000 4.6 200 11:48 16.06.2019
6279 Rain 15 1016 77 10000 4.6 210 11:21 16.06.2019
6280 Rain 15 1016 77 10000 4.6 210 10:59 16.06.2019
6281 Rain 15 1016 72 10000 4.6 200 10:41 16.06.2019
6282 Rain 14 1016 77 10000 5.1 200 10:18 16.06.2019
6283 Drizzle 14 1016 77 10000 4.1 200 09:41 16.06.2019
6284 Drizzle 14 1016 77 10000 4.1 200 09:23 16.06.2019
6285 Rain 13 1016 87 10000 2.6 200 08:42 16.06.2019
6286 Clouds 12 1016 82 10000 3.1 210 08:19 16.06.2019
6287 Clouds 12 1016 82 10000 3.1 210 08:19 16.06.2019
6288 Mist 12 1016 87 10000 2.6 210 07:44 16.06.2019
6289 Mist 11 1016 87 10000 2.6 210 07:20 16.06.2019
6290 Fog 10 1016 93 10000 1 0 06:49 16.06.2019
6291 Fog 9 1016 87 10000 2.1 210 05:53 16.06.2019
6292 Clear 10 1015 87 10000 2.1 210 05:19 16.06.2019
6293 Clear 10 1015 93 10000 2.6 190 04:00 16.06.2019
6294 Rain 10 1015 93 10000 2.6 220 03:38 16.06.2019
6295 Rain 10 1015 87 10000 2.6 210 03:18 16.06.2019
6296 Clouds 11 1014 87 10000 3.1 230 01:48 16.06.2019
6297 Clouds 11 1014 82 10000 3.6 210 01:28 16.06.2019
6298 Clouds 12 1014 87 10000 3.1 200 00:43 16.06.2019
6299 Clouds 12 1014 87 10000 3.1 200 00:23 16.06.2019
6300 Clouds 13 1014 93 10000 4.6 210 23:55 15.06.2019
6301 Clouds 13 1013 87 10000 3.1 210 23:37 15.06.2019
6302 Rain 13 1014 82 10000 3.6 210 23:18 15.06.2019
6303 Rain 13 1013 82 10000 3.1 200 22:43 15.06.2019
6304 Rain 14 1013 82 10000 3.1 200 22:24 15.06.2019
6305 Rain 14 1013 77 10000 3.6 200 21:43 15.06.2019
6306 Rain 15 1013 77 10000 5.1 200 21:20 15.06.2019
6307 Rain 15 1013 67 10000 5.7 190 20:45 15.06.2019
6308 Rain 15 1013 67 10000 5.7 190 20:23 15.06.2019
6309 Rain 16 1013 63 10000 6.2 200 19:50 15.06.2019
6310 Rain 16 1013 63 10000 6.7 200 19:26 15.06.2019
6311 Clouds 17 1013 63 10000 6.2 210 18:44 15.06.2019
6312 Clouds 17 1013 63 10000 6.2 210 18:25 15.06.2019
6313 Rain 17 1013 63 10000 6.2 200 17:47 15.06.2019
6314 Rain 17 1013 63 10000 6.2 200 17:29 15.06.2019
6315 Rain 17 1013 59 10000 6.2 200 16:49 15.06.2019
6316 Rain 16 1013 55 10000 5.7 200 16:22 15.06.2019
6317 Rain 16 1013 55 10000 5.7 200 15:58 15.06.2019
6318 Rain 16 1013 55 10000 6.2 200 15:40 15.06.2019
6319 Rain 17 1013 52 10000 6.2 200 15:20 15.06.2019
6320 Clouds 17 1013 48 10000 7.2 210 14:38 15.06.2019
6321 Rain 17 1013 48 10000 5.7 220 14:18 15.06.2019
6322 Rain 17 1013 48 10000 5.7 220 14:18 15.06.2019
6323 Rain 18 1012 52 10000 5.1 190 13:43 15.06.2019
6324 Rain 18 1012 52 10000 5.1 190 13:21 15.06.2019
6325 Rain 18 1012 55 10000 5.7 190 12:58 15.06.2019
6326 Clouds 18 1012 55 10000 5.7 180 12:40 15.06.2019
6327 Clouds 18 1012 59 10000 5.7 200 12:20 15.06.2019
6328 Clouds 17 1012 59 10000 5.7 200 11:41 15.06.2019
6329 Clouds 17 1012 59 10000 5.7 200 11:23 15.06.2019
6330 Clouds 17 1012 63 10000 3.6 200 10:42 15.06.2019
6331 Clouds 16 1012 63 10000 3.6 200 10:24 15.06.2019
6332 Clouds 16 1012 67 10000 2.6 190 09:48 15.06.2019
6333 Clouds 15 1012 67 10000 2.6 190 09:26 15.06.2019
6334 Clouds 14 1012 72 10000 1.5 0 08:54 15.06.2019
6335 Clouds 14 1012 72 10000 1.5 0 08:54 15.06.2019
6336 Clouds 13 1012 76 10000 1.5 0 08:34 15.06.2019
6337 Clouds 12 1012 76 10000 1.5 0 07:58 15.06.2019
6338 Fog 11 1012 93 10000 1 210 07:25 15.06.2019
6339 Clouds 11 1012 93 10000 1.5 190 06:48 15.06.2019
6340 Clouds 11 1012 93 10000 2.6 200 06:21 15.06.2019
6341 Clouds 11 1011 93 10000 1.5 220 05:37 15.06.2019
6342 Clouds 11 1011 87 10000 1 220 04:49 15.06.2019
6343 Clouds 11 1011 87 10000 1 220 04:49 15.06.2019
6344 Clouds 11 1012 87 10000 2.1 190 03:50 15.06.2019
6345 Clouds 12 1012 71 10000 2.1 230 03:21 15.06.2019
6346 Clouds 12 1012 87 10000 2.1 190 02:30 15.06.2019
6347 Clouds 12 1012 87 10000 3.1 190 01:53 15.06.2019
6348 Clouds 12 1012 82 10000 4.1 180 01:19 15.06.2019
6349 Clouds 12 1012 82 10000 2.6 170 00:40 15.06.2019
6350 Clouds 13 1012 72 10000 2.1 200 00:20 15.06.2019
6351 Clear 13 1012 87 10000 4.1 170 23:42 14.06.2019
6352 Clouds 13 1011 67 10000 3.1 190 23:18 14.06.2019
6353 Clear 14 1012 76 10000 4.6 190 22:41 14.06.2019
6354 Clouds 15 1011 63 10000 5.7 210 22:21 14.06.2019
6355 Clouds 16 1011 55 10000 5.1 230 21:48 14.06.2019
6356 Clouds 16 1011 55 10000 5.1 230 21:28 14.06.2019
6357 Clouds 17 1011 55 10000 5.1 230 20:55 14.06.2019
6358 Clouds 17 1011 55 10000 5.1 200 20:36 14.06.2019
6359 Clouds 17 1011 52 10000 5.7 220 20:18 14.06.2019
6360 Clouds 17 1011 55 10000 6.7 220 19:39 14.06.2019
6361 Clouds 18 1011 59 10000 7.2 220 19:21 14.06.2019
6362 Clouds 18 1011 63 10000 5.7 180 18:54 14.06.2019
6363 Clouds 18 1011 63 10000 5.7 180 18:36 14.06.2019
6364 Rain 18 1011 63 10000 6.7 190 18:18 14.06.2019
6365 Clouds 18 1011 63 10000 5.7 220 17:44 14.06.2019
6366 Clouds 18 1011 63 10000 5.7 220 17:23 14.06.2019
6367 Rain 18 1011 55 10000 5.1 200 16:48 14.06.2019
6368 Rain 18 1011 55 10000 5.1 200 16:24 14.06.2019
6369 Rain 18 1011 55 10000 5.1 200 16:24 14.06.2019
6370 Clouds 18 1011 55 10000 6.7 200 15:59 14.06.2019
6371 Clouds 18 1011 63 10000 6.2 180 15:39 14.06.2019
6372 Rain 18 1011 59 10000 6.7 220 15:19 14.06.2019
6373 Clouds 17 1011 63 10000 6.7 200 14:46 14.06.2019
6374 Clouds 17 1011 63 10000 6.7 200 14:27 14.06.2019
6375 Rain 17 1010 67 10000 6.7 210 13:46 14.06.2019
6376 Rain 17 1010 67 10000 6.7 210 13:28 14.06.2019
6377 Rain 17 1010 63 10000 6.2 200 12:57 14.06.2019
6378 Rain 17 1010 63 10000 5.7 210 12:39 14.06.2019
6379 Rain 16 1010 67 10000 6.2 210 12:20 14.06.2019
6380 Rain 16 1010 67 10000 5.7 210 11:42 14.06.2019
6381 Rain 16 1010 67 10000 5.7 210 11:42 14.06.2019
6382 Rain 16 1010 67 10000 5.7 210 11:42 14.06.2019
6383 Rain 16 1010 67 10000 5.7 210 11:42 14.06.2019
6384 Rain 16 1010 67 10000 5.7 210 11:23 14.06.2019
6385 Clouds 15 1010 72 10000 4.6 170 10:47 14.06.2019
6386 Clouds 15 1010 72 10000 4.6 170 10:21 14.06.2019
6387 Rain 14 1009 72 10000 5.7 200 09:55 14.06.2019
6388 Rain 14 1009 72 10000 5.7 200 09:34 14.06.2019
6389 Rain 13 1009 77 10000 4.6 200 08:49 14.06.2019
6390 Rain 13 1009 82 10000 3.6 200 08:21 14.06.2019
6391 Rain 13 1009 93 10000 7.2 200 08:21 14.06.2019
6392 Rain 13 1009 82 10000 3.6 200 07:57 14.06.2019
6393 Rain 13 1009 82 10000 4.6 200 07:39 14.06.2019
6394 Rain 12 1009 82 10000 4.1 190 07:18 14.06.2019
6395 Rain 12 1008 93 9000 4.6 200 06:20 14.06.2019
6396 Rain 12 1008 100 3900 3.6 210 05:47 14.06.2019
6397 Rain 12 1008 93 9000 4.6 200 04:55 14.06.2019
6398 Rain 12 1008 100 10000 3.1 190 04:27 14.06.2019
6399 Rain 12 1008 87 10000 2.6 200 03:41 14.06.2019
6400 Clouds 12 1008 93 10000 3.1 190 03:21 14.06.2019
6401 Clouds 12 1008 93 10000 3.1 220 02:36 14.06.2019
6402 Clouds 12 1008 87 10000 3.1 220 01:51 14.06.2019
6403 Rain 12 1008 93 10000 3.1 230 00:41 14.06.2019
6404 Rain 12 1008 93 10000 3.1 230 00:22 14.06.2019
6405 Rain 12 1008 87 10000 4.1 220 23:50 13.06.2019
6406 Rain 12 1008 87 10000 4.1 220 23:26 13.06.2019
6407 Rain 12 1007 87 10000 5.1 220 22:57 13.06.2019
6408 Rain 12 1007 82 7000 5.7 210 22:37 13.06.2019
6409 Drizzle 13 1006 93 10000 5.7 220 22:18 13.06.2019
6410 Rain 13 1007 93 10000 8.2 210 21:38 13.06.2019
6411 Rain 13 1007 93 10000 8.2 210 21:38 13.06.2019
6412 Rain 13 1006 82 10000 7.7 210 21:19 13.06.2019
6413 Rain 13 1006 87 10000 6.7 210 20:45 13.06.2019
6414 Rain 13 1006 87 10000 6.7 210 20:21 13.06.2019
6415 Rain 14 1005 72 10000 7.2 220 19:55 13.06.2019
6416 Rain 14 1006 87 10000 8.7 210 19:36 13.06.2019
6417 Rain 14 1005 72 10000 7.7 210 19:18 13.06.2019
6418 Rain 14 1005 72 10000 7.2 210 18:43 13.06.2019
6419 Rain 14 1005 72 10000 7.2 210 18:25 13.06.2019
6420 Rain 14 1005 82 10000 6.7 230 17:57 13.06.2019
6421 Rain 14 1005 72 10000 7.2 210 17:39 13.06.2019
6422 Rain 13 1005 67 10000 8.7 200 17:19 13.06.2019
6423 Rain 13 1005 67 10000 8.2 210 16:45 13.06.2019
6424 Rain 13 1005 72 10000 6.7 220 16:21 13.06.2019
6425 Rain 13 1005 72 10000 6.7 220 15:56 13.06.2019
6426 Rain 13 1005 72 10000 7.2 210 15:37 13.06.2019
6427 Rain 13 1006 82 10000 9.3 200 15:18 13.06.2019
6428 Rain 13 1005 72 10000 6.7 200 14:44 13.06.2019
6429 Rain 13 1005 76 10000 9.8 200 14:23 13.06.2019
6430 Rain 13 1006 82 10000 9.3 190 13:44 13.06.2019
6431 Rain 13 1005 76 10000 9.8 190 13:21 13.06.2019
6432 Rain 13 1005 67 10000 6.7 200 12:42 13.06.2019
6433 Rain 13 1005 67 10000 6.7 200 12:22 13.06.2019
6434 Rain 13 1005 72 10000 6.2 200 11:57 13.06.2019
6435 Rain 13 1005 72 10000 5.7 210 11:39 13.06.2019
6436 Rain 13 1005 72 10000 5.7 200 11:21 13.06.2019
6437 Rain 13 1005 72 10000 6.7 200 10:45 13.06.2019
6438 Rain 13 1005 87 10000 8.2 200 10:26 13.06.2019
6439 Rain 12 1004 93 6000 5.7 210 09:44 13.06.2019
6440 Rain 12 1004 93 6000 5.7 210 09:24 13.06.2019
6441 Rain 12 1004 93 6000 5.7 210 09:24 13.06.2019
6442 Rain 12 1004 93 6000 5.7 210 09:24 13.06.2019
6443 Rain 12 1005 87 10000 4.1 200 08:49 13.06.2019
6444 Drizzle 12 1005 87 10000 4.1 210 08:28 13.06.2019
6445 Drizzle 11 1005 100 9000 5.1 210 07:56 13.06.2019
6446 Rain 11 1005 100 8000 3.6 220 07:27 13.06.2019
6447 Rain 11 1005 93 10000 3.1 200 06:51 13.06.2019
6448 Rain 11 1005 93 10000 3.1 200 06:24 13.06.2019
6449 Rain 11 1005 93 10000 3.1 200 06:24 13.06.2019
6450 Rain 11 1005 93 8000 3.1 210 05:56 13.06.2019
6451 Rain 11 1005 93 8000 3.1 210 05:37 13.06.2019
6452 Rain 11 1005 93 10000 3.1 200 04:59 13.06.2019
6453 Rain 11 1006 100 2400 1.5 230 02:42 13.06.2019
6454 Drizzle 11 1007 100 3200 1.5 250 01:27 13.06.2019
6455 Rain 11 1007 100 3300 1 290 00:29 13.06.2019
6456 Rain 12 1008 87 10000 1.5 0 23:24 12.06.2019
6457 Rain 12 1008 87 10000 2.1 230 22:47 12.06.2019
6458 Rain 12 1008 87 10000 2.1 230 22:28 12.06.2019
6459 Rain 12 1007 93 5000 2.1 320 21:58 12.06.2019
6460 Rain 12 1008 87 10000 2.1 200 21:40 12.06.2019
6461 Rain 12 1008 82 10000 2.1 160 21:21 12.06.2019
6462 Rain 13 1008 93 10000 1.5 0 20:42 12.06.2019
6463 Rain 13 1008 93 10000 1.5 0 20:22 12.06.2019
6464 Rain 13 1008 93 6000 1 0 19:56 12.06.2019
6465 Rain 13 1008 87 4000 1 0 19:37 12.06.2019
6466 Rain 13 1009 87 10000 1.5 0 19:18 12.06.2019
6467 Rain 13 1009 87 10000 2.6 340 18:40 12.06.2019
6468 Rain 13 1009 87 10000 2.6 340 18:22 12.06.2019
6469 Rain 13 1009 93 10000 2.1 50 17:45 12.06.2019
6470 Rain 13 1009 93 10000 2.1 50 17:21 12.06.2019
6471 Rain 13 1009 87 8000 1.5 0 16:43 12.06.2019
6472 Rain 13 1009 87 8000 1.5 0 16:25 12.06.2019
6473 Rain 14 1009 82 10000 2.1 0 15:58 12.06.2019
6474 Rain 14 1009 82 10000 2.6 30 15:33 12.06.2019
6475 Rain 14 1010 82 10000 3.1 50 14:55 12.06.2019
6476 Rain 14 1010 82 10000 3.1 50 14:32 12.06.2019
6477 Rain 15 1010 77 10000 2.6 350 13:57 12.06.2019
6478 Rain 15 1010 72 10000 2.6 20 13:38 12.06.2019
6479 Clouds 15 1010 67 10000 2.1 20 13:19 12.06.2019
6480 Clouds 15 1010 67 10000 2.1 20 13:19 12.06.2019
6481 Clouds 15 1009 67 10000 1 0 12:40 12.06.2019
6482 Clouds 15 1009 67 10000 1 0 12:21 12.06.2019
6483 Clouds 15 1009 67 10000 1.5 0 11:55 12.06.2019
6484 Clouds 14 1009 72 10000 2.6 320 11:37 12.06.2019
6485 Clouds 14 1009 72 10000 2.1 300 11:19 12.06.2019
6486 Clouds 13 1010 76 10000 1 0 10:42 12.06.2019
6487 Clouds 13 1010 82 10000 0.5 0 10:19 12.06.2019
6488 Clouds 12 1010 82 10000 1.5 0 09:41 12.06.2019
6489 Clouds 12 1010 82 10000 1.5 0 09:22 12.06.2019
6490 Clouds 11 1010 82 10000 2.1 60 08:37 12.06.2019
6491 Clouds 11 1011 87 10000 3.1 60 08:18 12.06.2019
6492 Mist 11 1010 87 10000 1.5 0 07:25 12.06.2019
6493 Clouds 11 1010 87 10000 2.1 50 06:40 12.06.2019
6494 Clouds 11 1011 93 10000 2.1 360 05:25 12.06.2019
6495 Rain 11 1012 93 10000 4.1 20 03:41 12.06.2019
6496 Rain 11 1013 93 4200 5.1 10 00:54 12.06.2019
6497 Mist 11 1013 87 10000 2.6 30 00:35 12.06.2019
6498 Clouds 12 1013 87 10000 2.6 360 23:44 11.06.2019
6499 Clouds 12 1013 87 10000 2.6 360 23:26 11.06.2019
6500 Rain 12 1012 93 8000 3.6 350 22:43 11.06.2019
6501 Rain 12 1012 82 10000 3.6 360 22:18 11.06.2019
6502 Rain 12 1012 82 10000 3.6 360 21:57 11.06.2019
6503 Rain 12 1012 82 10000 4.1 350 21:37 11.06.2019
6504 Rain 13 1012 87 10000 4.1 350 21:19 11.06.2019
6505 Rain 13 1012 77 10000 4.1 360 20:47 11.06.2019
6506 Rain 13 1012 77 10000 3.6 320 20:24 11.06.2019
6507 Rain 14 1012 77 10000 3.6 320 19:54 11.06.2019
6508 Rain 14 1012 77 10000 3.6 320 19:32 11.06.2019
6509 Rain 14 1011 77 10000 5.7 350 18:56 11.06.2019
6510 Rain 15 1011 72 10000 4.6 340 18:21 11.06.2019
6511 Drizzle 15 1011 72 10000 4.1 340 17:42 11.06.2019
6512 Drizzle 15 1011 72 10000 4.1 340 17:22 11.06.2019
6513 Drizzle 15 1011 72 10000 4.1 340 17:22 11.06.2019
6514 Drizzle 16 1011 68 10000 4.1 320 16:57 11.06.2019
6515 Drizzle 16 1011 48 10000 2.1 0 16:39 11.06.2019
6516 Drizzle 16 1011 48 10000 2.1 0 16:21 11.06.2019
6517 Mist 15 1011 55 10000 2.1 70 15:42 11.06.2019
6518 Mist 16 1011 55 10000 2.1 70 15:23 11.06.2019
6519 Drizzle 16 1011 55 10000 2.1 0 14:49 11.06.2019
6520 Drizzle 16 1011 55 10000 2.1 0 14:22 11.06.2019
6521 Rain 16 1011 55 10000 2.6 220 13:55 11.06.2019
6522 Clouds 16 1011 63 10000 2.1 0 13:36 11.06.2019
6523 Rain 15 1011 59 10000 2.1 160 13:18 11.06.2019
6524 Rain 15 1011 67 10000 1.5 0 12:40 11.06.2019
6525 Rain 14 1011 67 10000 1.5 0 12:20 11.06.2019
6526 Clouds 13 1011 76 10000 2.1 90 11:40 11.06.2019
6527 Clouds 13 1011 76 10000 2.1 90 11:40 11.06.2019
6528 Drizzle 13 1011 76 10000 1.5 0 11:19 11.06.2019
6529 Rain 13 1011 76 10000 2.1 0 10:46 11.06.2019
6530 Rain 13 1011 76 10000 2.1 0 10:46 11.06.2019
6531 Rain 13 1011 76 10000 2.1 0 10:26 11.06.2019
6532 Rain 13 1011 76 10000 2.1 0 10:26 11.06.2019
6533 Haze 12 1011 82 10000 2.1 210 09:49 11.06.2019
6534 Haze 12 1011 82 10000 1.5 0 09:24 11.06.2019
6535 Drizzle 11 1010 87 10000 1 0 08:46 11.06.2019
6536 Drizzle 11 1010 87 10000 1 0 08:28 11.06.2019
6537 Rain 11 1010 87 10000 2.1 160 07:55 11.06.2019
6538 Rain 11 1010 87 10000 2.1 160 07:29 11.06.2019
6539 Clouds 11 1010 93 10000 2.6 130 06:50 11.06.2019
6540 Rain 11 1009 100 10000 3.1 10 04:56 11.06.2019
6541 Rain 11 1009 93 10000 3.6 40 03:43 11.06.2019
6542 Rain 11 1010 93 10000 4.6 20 01:41 11.06.2019
6543 Rain 11 1010 93 10000 6.2 30 00:48 11.06.2019
6544 Rain 11 1011 100 4100 3.6 10 23:56 10.06.2019
6545 Rain 11 1010 93 10000 6.7 30 23:38 10.06.2019
6546 Rain 11 1011 100 6000 3.6 20 22:58 10.06.2019
6547 Rain 11 1011 100 10000 6.2 30 22:40 10.06.2019
6548 Rain 11 1011 93 10000 5.7 40 22:22 10.06.2019
6549 Rain 11 1010 87 10000 3.6 10 21:41 10.06.2019
6550 Rain 11 1010 87 10000 3.6 10 21:23 10.06.2019
6551 Rain 10 1011 93 10000 4.6 360 20:47 10.06.2019
6552 Rain 10 1011 93 10000 4.6 360 20:26 10.06.2019
6553 Rain 10 1011 93 10000 4.1 350 19:58 10.06.2019
6554 Rain 10 1011 93 10000 4.1 350 19:39 10.06.2019
6555 Rain 10 1012 93 10000 5.1 340 19:21 10.06.2019
6556 Rain 10 1012 87 10000 3.6 350 18:55 10.06.2019
6557 Rain 10 1012 87 10000 3.6 350 18:37 10.06.2019
6558 Rain 10 1012 87 10000 3.6 360 18:18 10.06.2019
6559 Rain 10 1013 93 4000 4.1 330 17:40 10.06.2019
6560 Rain 10 1013 93 4000 4.1 330 17:22 10.06.2019
6561 Rain 10 1013 87 5000 5.7 330 16:46 10.06.2019
6562 Rain 11 1013 87 5000 5.7 330 16:28 10.06.2019
6563 Rain 11 1013 93 7000 3.6 360 15:56 10.06.2019
6564 Rain 11 1014 87 3600 3.6 340 15:37 10.06.2019
6565 Rain 11 1014 87 10000 4.6 340 15:18 10.06.2019
6566 Rain 11 1014 87 10000 4.1 330 14:40 10.06.2019
6567 Rain 11 1014 87 10000 4.1 330 14:21 10.06.2019
6568 Rain 12 1015 93 9000 3.1 10 13:45 10.06.2019
6569 Rain 12 1015 93 9000 3.1 10 13:23 10.06.2019
6570 Rain 12 1015 93 10000 2.6 10 12:48 10.06.2019
6571 Rain 12 1015 93 10000 2.6 10 12:29 10.06.2019
6572 Rain 12 1016 93 10000 3.1 360 11:52 10.06.2019
6573 Rain 12 1016 93 8000 2.6 360 11:30 10.06.2019
6574 Rain 12 1016 87 8000 2.6 10 10:58 10.06.2019
6575 Rain 12 1016 100 6000 3.1 10 10:38 10.06.2019
6576 Rain 12 1016 87 10000 2.1 20 10:18 10.06.2019
6577 Rain 11 1016 100 6000 2.6 20 09:48 10.06.2019
6578 Rain 11 1016 93 6000 2.1 340 09:29 10.06.2019
6579 Rain 11 1016 93 7000 1.5 340 08:48 10.06.2019
6580 Rain 11 1016 93 7000 1.5 340 08:26 10.06.2019
6581 Rain 11 1016 93 10000 1 350 07:40 10.06.2019
6582 Rain 11 1017 87 10000 1.5 320 04:42 10.06.2019
6583 Rain 12 1018 81 10000 1.05 218.481 02:29 10.06.2019
6584 Rain 12 1019 76 10000 1 0 01:49 10.06.2019
6585 Rain 12 1019 71 10000 1 0 00:59 10.06.2019
6586 Rain 12 1019 76 10000 1.5 300 00:36 10.06.2019
6587 Rain 13 1019 67 10000 2.1 290 23:46 09.06.2019
6588 Rain 13 1019 67 10000 2.1 290 23:21 09.06.2019
6589 Rain 13 1019 66 10000 2.1 230 22:47 09.06.2019
6590 Rain 14 1019 66 10000 2.1 230 22:26 09.06.2019
6591 Clear 14 1019 62 10000 3.1 210 21:48 09.06.2019
6592 Clear 15 1019 62 10000 3.1 210 21:29 09.06.2019
6593 Rain 15 1019 42 10000 4.1 170 20:59 09.06.2019
6594 Rain 16 1019 48 10000 1 0 20:41 09.06.2019
6595 Rain 16 1019 48 10000 1 0 20:21 09.06.2019
6596 Rain 16 1019 52 10000 3.6 260 19:45 09.06.2019
6597 Rain 17 1019 48 10000 5.7 260 19:18 09.06.2019
6598 Rain 17 1019 48 10000 5.7 260 19:18 09.06.2019
6599 Rain 17 1019 48 10000 5.7 260 19:18 09.06.2019
6600 Rain 17 1019 45 10000 3.6 200 18:44 09.06.2019
6601 Rain 17 1019 45 10000 3.6 200 18:25 09.06.2019
6602 Rain 17 1019 48 10000 3.6 170 17:56 09.06.2019
6603 Rain 17 1019 45 10000 3.1 170 17:32 09.06.2019
6604 Rain 18 1020 48 10000 5.1 160 16:59 09.06.2019
6605 Rain 18 1020 42 10000 2.6 190 16:40 09.06.2019
6606 Rain 18 1020 42 10000 2.6 190 16:20 09.06.2019
6607 Rain 18 1020 42 10000 2.1 260 15:50 09.06.2019
6608 Rain 19 1020 37 10000 3.1 0 15:29 09.06.2019
6609 Haze 18 1020 42 1800 3.1 230 14:58 09.06.2019
6610 Clouds 18 1020 45 10000 3.1 260 14:39 09.06.2019
6611 Clouds 18 1020 42 10000 3.6 230 14:19 09.06.2019
6612 Clouds 18 1021 42 10000 2.6 220 13:48 09.06.2019
6613 Clouds 18 1021 48 10000 3.1 250 12:58 09.06.2019
6614 Clouds 17 1021 51 10000 2.6 240 12:38 09.06.2019
6615 Clouds 17 1021 51 10000 2.6 240 12:20 09.06.2019
6616 Clouds 16 1022 55 10000 2.1 0 11:39 09.06.2019
6617 Clouds 16 1022 55 10000 2.6 240 11:19 09.06.2019
6618 Clouds 16 1022 55 10000 2.6 240 11:19 09.06.2019
6619 Clouds 15 1022 62 10000 2.6 230 10:43 09.06.2019
6620 Clouds 15 1022 67 10000 2.1 240 10:22 09.06.2019
6621 Fog 13 1022 71 10000 2.6 230 09:40 09.06.2019
6622 Fog 12 1022 71 10000 2.6 230 09:21 09.06.2019
6623 Fog 11 1021 76 10000 2.6 230 08:46 09.06.2019
6624 Fog 11 1021 76 10000 2.6 230 08:27 09.06.2019
6625 Fog 8 1021 81 10000 2.6 220 06:55 09.06.2019
6626 Fog 8 1021 93 10000 0.5 240 06:30 09.06.2019
6627 Fog 8 1021 93 10000 0.5 240 06:30 09.06.2019
6628 Clouds 8 1021 93 10000 2.1 210 04:34 09.06.2019
6629 Clear 10 1020 81 10000 2.6 230 01:38 09.06.2019
6630 Clear 11 1020 76 10000 3.6 230 01:19 09.06.2019
6631 Clear 11 1020 76 10000 3.6 230 00:58 09.06.2019
6632 Clear 11 1019 58 10000 2.6 260 23:43 08.06.2019
6633 Clear 12 1019 58 10000 2.6 260 23:24 08.06.2019
6634 Clear 12 1020 87 10000 5.1 210 22:57 08.06.2019
6635 Rain 13 1019 81 10000 5.1 220 22:39 08.06.2019
6636 Rain 13 1017 55 10000 6.7 230 22:19 08.06.2019
6637 Rain 13 1017 55 10000 6.7 230 21:51 08.06.2019
6638 Rain 15 1017 48 10000 6.7 270 21:26 08.06.2019
6639 Rain 15 1016 42 10000 9.3 250 20:49 08.06.2019
6640 Rain 16 1016 42 10000 9.3 250 20:26 08.06.2019
6641 Rain 16 1016 42 10000 8.2 250 19:59 08.06.2019
6642 Rain 16 1016 45 10000 9.3 250 19:39 08.06.2019
6643 Rain 16 1015 45 10000 9.3 260 19:20 08.06.2019
6644 Rain 16 1015 45 10000 9.3 260 18:56 08.06.2019
6645 Rain 17 1015 42 10000 9.8 260 18:35 08.06.2019
6646 Rain 17 1015 42 10000 8.2 250 17:57 08.06.2019
6647 Rain 17 1014 45 10000 9.8 240 17:38 08.06.2019
6648 Rain 17 1014 45 10000 8.7 240 17:18 08.06.2019
6649 Rain 17 1014 52 10000 7.7 230 16:38 08.06.2019
6650 Rain 17 1013 59 10000 8.2 230 16:18 08.06.2019
6651 Rain 17 1013 59 10000 10.3 230 15:37 08.06.2019
6652 Rain 16 1012 48 10000 8.2 250 14:53 08.06.2019
6653 Rain 16 1012 52 10000 11.8 250 14:31 08.06.2019
6654 Rain 16 1011 55 10000 8.7 240 13:56 08.06.2019
6655 Rain 16 1011 55 10000 9.8 250 13:24 08.06.2019
6656 Rain 15 1010 63 10000 9.8 240 12:45 08.06.2019
6657 Clouds 15 1010 67 10000 9.3 240 12:19 08.06.2019
6658 Rain 14 1009 72 10000 8.2 250 11:41 08.06.2019
6659 Rain 14 1009 71 10000 8.7 240 11:21 08.06.2019
6660 Rain 13 1008 71 10000 9.3 240 10:44 08.06.2019
6661 Rain 13 1008 71 10000 9.3 240 10:22 08.06.2019
6662 Rain 12 1007 87 10000 7.7 250 09:48 08.06.2019
6663 Rain 12 1007 87 10000 7.7 250 09:21 08.06.2019
6664 Rain 11 1006 93 10000 7.7 260 08:29 08.06.2019
6665 Rain 11 1004 87 10000 5.1 250 07:47 08.06.2019
6666 Rain 11 1003 81 10000 5.7 230 06:50 08.06.2019
6667 Rain 11 1002 93 10000 5.7 230 05:42 08.06.2019
6668 Rain 12 1001 87 10000 5.7 250 03:30 08.06.2019
6669 Rain 12 999 87 10000 2.1 290 01:25 08.06.2019
6670 Rain 12 998 87 10000 2.1 290 00:25 08.06.2019
6671 Rain 12 998 87 10000 1.5 0 23:41 07.06.2019
6672 Rain 13 997 87 10000 2.6 50 23:20 07.06.2019
6673 Rain 13 997 87 10000 2.1 40 22:39 07.06.2019
6674 Rain 13 997 100 10000 3.6 40 22:20 07.06.2019
6675 Rain 13 998 82 9000 4.6 70 21:52 07.06.2019
6676 Rain 14 998 82 9000 4.6 70 21:29 07.06.2019
6677 Rain 14 998 82 10000 4.1 70 20:57 07.06.2019
6678 Rain 14 999 82 10000 6.7 100 20:36 07.06.2019
6679 Rain 14 998 87 10000 4.1 70 19:48 07.06.2019
6680 Rain 15 999 82 10000 6.7 140 19:23 07.06.2019
6681 Rain 15 999 82 10000 6.7 140 18:58 07.06.2019
6682 Rain 16 999 63 10000 5.7 110 18:29 07.06.2019
6683 Rain 16 1000 68 10000 5.7 140 17:48 07.06.2019
6684 Rain 16 1000 68 10000 5.7 140 17:28 07.06.2019
6685 Rain 16 1001 67 10000 4.6 170 16:58 07.06.2019
6686 Rain 15 1000 77 10000 4.1 140 16:39 07.06.2019
6687 Rain 15 1001 87 10000 5.1 140 15:54 07.06.2019
6688 Rain 14 1001 93 10000 3.6 140 15:23 07.06.2019
6689 Rain 13 1002 87 10000 6.2 110 14:48 07.06.2019
6690 Rain 13 1002 87 10000 6.2 110 14:27 07.06.2019